<?xml version="1.0" encoding="UTF-8" standalone="no" ?>
<gpx xmlns="http://www.topografix.com/GPX/1/1" xmlns:xsi="http://www.w3.org/2001/XMLSchema-instance" xsi:schemaLocation="http://www.topografix.com/GPX/1/1 http://www.topografix.com/GPX/1/1/gpx.xsd" version="1.1" creator="VisuGPX - https://www.visugpx.com">
  <metadata>
    <name>Cassis calanque d'en Vau</name>
    <desc><![CDATA[Rando avec la MJC en juin 2014.]]></desc>
  </metadata>
  <wpt lat="43.20327" lon="5.49818">
    <ele>99</ele>
  </wpt>
  <wpt lat="43.2045" lon="5.49816">
    <ele>147.6</ele>
  </wpt>
  <wpt lat="43.20202" lon="5.50802">
    <ele>46</ele>
  </wpt>
  <wpt lat="43.2045" lon="5.51182">
    <ele>24.3</ele>
  </wpt>
  <wpt lat="43.21308" lon="5.53113">
    <ele>2.9</ele>
  </wpt>
  <trk>
    <name><![CDATA[Cassis calanque d'en Vau_1]]></name>
    <trkseg>
      <trkpt lat="43.23686" lon="5.49948">
        <ele>232.3</ele>
        <time>2014-05-28T09:04:18Z</time>
      </trkpt>
      <trkpt lat="43.23684" lon="5.49951">
        <ele>232.3</ele>
        <time>2014-05-28T09:04:23Z</time>
      </trkpt>
      <trkpt lat="43.23679" lon="5.49954">
        <ele>232.3</ele>
        <time>2014-05-28T09:04:28Z</time>
      </trkpt>
      <trkpt lat="43.23673" lon="5.49957">
        <ele>229.80858</ele>
        <time>2014-05-28T09:04:33Z</time>
      </trkpt>
      <trkpt lat="43.23667" lon="5.4996">
        <ele>229.80858</ele>
        <time>2014-05-28T09:04:38Z</time>
      </trkpt>
      <trkpt lat="43.2366" lon="5.49962">
        <ele>231.24113</ele>
        <time>2014-05-28T09:04:43Z</time>
      </trkpt>
      <trkpt lat="43.23653" lon="5.49964">
        <ele>231.24113</ele>
        <time>2014-05-28T09:04:48Z</time>
      </trkpt>
      <trkpt lat="43.23647" lon="5.49966">
        <ele>232.20296</ele>
        <time>2014-05-28T09:04:53Z</time>
      </trkpt>
      <trkpt lat="43.23642" lon="5.49968">
        <ele>232.20296</ele>
        <time>2014-05-28T09:05:00Z</time>
      </trkpt>
      <trkpt lat="43.23638" lon="5.49969">
        <ele>233.13985</ele>
        <time>2014-05-28T09:05:05Z</time>
      </trkpt>
      <trkpt lat="43.23634" lon="5.4997">
        <ele>233.13985</ele>
        <time>2014-05-28T09:05:10Z</time>
      </trkpt>
      <trkpt lat="43.2363" lon="5.49972">
        <ele>233.79602</ele>
        <time>2014-05-28T09:05:15Z</time>
      </trkpt>
      <trkpt lat="43.23625" lon="5.49972">
        <ele>233.79602</ele>
        <time>2014-05-28T09:05:18Z</time>
      </trkpt>
      <trkpt lat="43.23619" lon="5.49976">
        <ele>234.25104</ele>
        <time>2014-05-28T09:05:24Z</time>
      </trkpt>
      <trkpt lat="43.23614" lon="5.49978">
        <ele>234.25104</ele>
        <time>2014-05-28T09:05:30Z</time>
      </trkpt>
      <trkpt lat="43.2361" lon="5.49979">
        <ele>234.62306</ele>
        <time>2014-05-28T09:05:34Z</time>
      </trkpt>
      <trkpt lat="43.23605" lon="5.49981">
        <ele>234.62306</ele>
        <time>2014-05-28T09:05:39Z</time>
      </trkpt>
      <trkpt lat="43.23598" lon="5.49982">
        <ele>235.07712</ele>
        <time>2014-05-28T09:05:44Z</time>
      </trkpt>
      <trkpt lat="43.23591" lon="5.49984">
        <ele>235.07712</ele>
        <time>2014-05-28T09:05:50Z</time>
      </trkpt>
      <trkpt lat="43.23588" lon="5.49984">
        <ele>235.44899</ele>
        <time>2014-05-28T09:05:56Z</time>
      </trkpt>
      <trkpt lat="43.23585" lon="5.49984">
        <ele>235.44899</ele>
        <time>2014-05-28T09:05:59Z</time>
      </trkpt>
      <trkpt lat="43.23576" lon="5.49982">
        <ele>235.68828</ele>
        <time>2014-05-28T09:06:04Z</time>
      </trkpt>
      <trkpt lat="43.23572" lon="5.49981">
        <ele>235.68828</ele>
        <time>2014-05-28T09:06:09Z</time>
      </trkpt>
      <trkpt lat="43.23565" lon="5.4998">
        <ele>235.88174</ele>
        <time>2014-05-28T09:06:15Z</time>
      </trkpt>
      <trkpt lat="43.23559" lon="5.4998">
        <ele>235.88174</ele>
        <time>2014-05-28T09:06:19Z</time>
      </trkpt>
      <trkpt lat="43.23555" lon="5.49981">
        <ele>235.96999</ele>
        <time>2014-05-28T09:06:23Z</time>
      </trkpt>
      <trkpt lat="43.23548" lon="5.49983">
        <ele>235.96999</ele>
        <time>2014-05-28T09:06:30Z</time>
      </trkpt>
      <trkpt lat="43.23542" lon="5.49987">
        <ele>235.95564</ele>
        <time>2014-05-28T09:06:34Z</time>
      </trkpt>
      <trkpt lat="43.23539" lon="5.4999">
        <ele>235.95564</ele>
        <time>2014-05-28T09:06:39Z</time>
      </trkpt>
      <trkpt lat="43.23536" lon="5.49993">
        <ele>235.95564</ele>
        <time>2014-05-28T09:06:45Z</time>
      </trkpt>
      <trkpt lat="43.23533" lon="5.49996">
        <ele>235.87814</ele>
        <time>2014-05-28T09:06:49Z</time>
      </trkpt>
      <trkpt lat="43.23527" lon="5.49998">
        <ele>235.87814</ele>
        <time>2014-05-28T09:06:55Z</time>
      </trkpt>
      <trkpt lat="43.23521" lon="5.50002">
        <ele>235.75784</ele>
        <time>2014-05-28T09:06:59Z</time>
      </trkpt>
      <trkpt lat="43.23516" lon="5.50006">
        <ele>235.75784</ele>
        <time>2014-05-28T09:07:05Z</time>
      </trkpt>
      <trkpt lat="43.2351" lon="5.50012">
        <ele>235.61241</ele>
        <time>2014-05-28T09:07:10Z</time>
      </trkpt>
      <trkpt lat="43.23505" lon="5.50015">
        <ele>235.61241</ele>
        <time>2014-05-28T09:07:15Z</time>
      </trkpt>
      <trkpt lat="43.235" lon="5.50018">
        <ele>235.4724</ele>
        <time>2014-05-28T09:07:19Z</time>
      </trkpt>
      <trkpt lat="43.23493" lon="5.50021">
        <ele>235.4724</ele>
        <time>2014-05-28T09:07:25Z</time>
      </trkpt>
      <trkpt lat="43.23488" lon="5.50024">
        <ele>235.24977</ele>
        <time>2014-05-28T09:07:30Z</time>
      </trkpt>
      <trkpt lat="43.23484" lon="5.50025">
        <ele>235.24977</ele>
        <time>2014-05-28T09:07:34Z</time>
      </trkpt>
      <trkpt lat="43.23477" lon="5.50027">
        <ele>235.02534</ele>
        <time>2014-05-28T09:07:40Z</time>
      </trkpt>
      <trkpt lat="43.23471" lon="5.5003">
        <ele>235.02534</ele>
        <time>2014-05-28T09:07:45Z</time>
      </trkpt>
      <trkpt lat="43.23464" lon="5.50034">
        <ele>234.82117</ele>
        <time>2014-05-28T09:07:50Z</time>
      </trkpt>
      <trkpt lat="43.23455" lon="5.50045">
        <ele>234.53127</ele>
        <time>2014-05-28T09:07:55Z</time>
      </trkpt>
      <trkpt lat="43.23449" lon="5.5005">
        <ele>234.53127</ele>
        <time>2014-05-28T09:08:00Z</time>
      </trkpt>
      <trkpt lat="43.23447" lon="5.50054">
        <ele>234.76233</ele>
        <time>2014-05-28T09:08:05Z</time>
      </trkpt>
      <trkpt lat="43.23448" lon="5.50062">
        <ele>234.76233</ele>
        <time>2014-05-28T09:08:10Z</time>
      </trkpt>
      <trkpt lat="43.23448" lon="5.50067">
        <ele>234.69194</ele>
        <time>2014-05-28T09:08:15Z</time>
      </trkpt>
      <trkpt lat="43.23448" lon="5.5007">
        <ele>234.69194</ele>
        <time>2014-05-28T09:08:20Z</time>
      </trkpt>
      <trkpt lat="43.23448" lon="5.50071">
        <ele>234.69194</ele>
        <time>2014-05-28T09:08:25Z</time>
      </trkpt>
      <trkpt lat="43.23446" lon="5.50072">
        <ele>234.69194</ele>
        <time>2014-05-28T09:08:30Z</time>
      </trkpt>
      <trkpt lat="43.23442" lon="5.50073">
        <ele>234.59122</ele>
        <time>2014-05-28T09:08:34Z</time>
      </trkpt>
      <trkpt lat="43.23438" lon="5.50074">
        <ele>234.59122</ele>
        <time>2014-05-28T09:08:39Z</time>
      </trkpt>
      <trkpt lat="43.23433" lon="5.50078">
        <ele>234.15807</ele>
        <time>2014-05-28T09:08:45Z</time>
      </trkpt>
      <trkpt lat="43.23429" lon="5.50081">
        <ele>234.15807</ele>
        <time>2014-05-28T09:08:49Z</time>
      </trkpt>
      <trkpt lat="43.23427" lon="5.50084">
        <ele>234.15807</ele>
        <time>2014-05-28T09:08:55Z</time>
      </trkpt>
      <trkpt lat="43.23424" lon="5.50087">
        <ele>233.2696</ele>
        <time>2014-05-28T09:09:00Z</time>
      </trkpt>
      <trkpt lat="43.2342" lon="5.5009">
        <ele>233.2696</ele>
        <time>2014-05-28T09:09:05Z</time>
      </trkpt>
      <trkpt lat="43.23417" lon="5.50091">
        <ele>233.2696</ele>
        <time>2014-05-28T09:09:10Z</time>
      </trkpt>
      <trkpt lat="43.23412" lon="5.50096">
        <ele>232.2997</ele>
        <time>2014-05-28T09:09:15Z</time>
      </trkpt>
      <trkpt lat="43.23406" lon="5.501">
        <ele>232.2997</ele>
        <time>2014-05-28T09:09:20Z</time>
      </trkpt>
      <trkpt lat="43.23402" lon="5.50102">
        <ele>231.27016</ele>
        <time>2014-05-28T09:09:25Z</time>
      </trkpt>
      <trkpt lat="43.23395" lon="5.50105">
        <ele>231.27016</ele>
        <time>2014-05-28T09:09:30Z</time>
      </trkpt>
      <trkpt lat="43.23391" lon="5.50108">
        <ele>230.20006</ele>
        <time>2014-05-28T09:09:34Z</time>
      </trkpt>
      <trkpt lat="43.23387" lon="5.50111">
        <ele>230.20006</ele>
        <time>2014-05-28T09:09:40Z</time>
      </trkpt>
      <trkpt lat="43.23383" lon="5.50114">
        <ele>230.20006</ele>
        <time>2014-05-28T09:09:45Z</time>
      </trkpt>
      <trkpt lat="43.23379" lon="5.50116">
        <ele>229.06459</ele>
        <time>2014-05-28T09:09:50Z</time>
      </trkpt>
      <trkpt lat="43.23374" lon="5.50119">
        <ele>229.06459</ele>
        <time>2014-05-28T09:09:54Z</time>
      </trkpt>
      <trkpt lat="43.23368" lon="5.5012">
        <ele>227.92448</ele>
        <time>2014-05-28T09:10:00Z</time>
      </trkpt>
      <trkpt lat="43.23364" lon="5.5012">
        <ele>227.92448</ele>
        <time>2014-05-28T09:10:05Z</time>
      </trkpt>
      <trkpt lat="43.23361" lon="5.50119">
        <ele>227.92448</ele>
        <time>2014-05-28T09:10:10Z</time>
      </trkpt>
      <trkpt lat="43.23358" lon="5.50118">
        <ele>226.78018</ele>
        <time>2014-05-28T09:10:15Z</time>
      </trkpt>
      <trkpt lat="43.23357" lon="5.50118">
        <ele>226.78018</ele>
        <time>2014-05-28T09:10:20Z</time>
      </trkpt>
      <trkpt lat="43.23354" lon="5.50119">
        <ele>226.78018</ele>
        <time>2014-05-28T09:10:25Z</time>
      </trkpt>
      <trkpt lat="43.23352" lon="5.50119">
        <ele>226.78018</ele>
        <time>2014-05-28T09:10:29Z</time>
      </trkpt>
      <trkpt lat="43.23352" lon="5.50119">
        <ele>226.78018</ele>
        <time>2014-05-28T09:10:34Z</time>
      </trkpt>
      <trkpt lat="43.23344" lon="5.50113">
        <ele>225.5493</ele>
        <time>2014-05-28T09:11:00Z</time>
      </trkpt>
      <trkpt lat="43.23334" lon="5.50111">
        <ele>224.08603</ele>
        <time>2014-05-28T09:11:49Z</time>
      </trkpt>
      <trkpt lat="43.23324" lon="5.50108">
        <ele>222.47731</ele>
        <time>2014-05-28T09:12:40Z</time>
      </trkpt>
      <trkpt lat="43.23317" lon="5.50107">
        <ele>222.47731</ele>
        <time>2014-05-28T09:13:05Z</time>
      </trkpt>
      <trkpt lat="43.23317" lon="5.50107">
        <ele>222.47731</ele>
        <time>2014-05-28T09:13:10Z</time>
      </trkpt>
      <trkpt lat="43.23312" lon="5.50108">
        <ele>220.84727</ele>
        <time>2014-05-28T09:13:15Z</time>
      </trkpt>
      <trkpt lat="43.2331" lon="5.50109">
        <ele>220.84727</ele>
        <time>2014-05-28T09:13:20Z</time>
      </trkpt>
      <trkpt lat="43.23307" lon="5.50107">
        <ele>220.84727</ele>
        <time>2014-05-28T09:13:25Z</time>
      </trkpt>
      <trkpt lat="43.23304" lon="5.50106">
        <ele>220.84727</ele>
        <time>2014-05-28T09:13:30Z</time>
      </trkpt>
      <trkpt lat="43.23303" lon="5.50107">
        <ele>219.20099</ele>
        <time>2014-05-28T09:13:34Z</time>
      </trkpt>
      <trkpt lat="43.23303" lon="5.50107">
        <ele>219.20099</ele>
        <time>2014-05-28T09:13:39Z</time>
      </trkpt>
      <trkpt lat="43.23297" lon="5.50107">
        <ele>219.20099</ele>
        <time>2014-05-28T09:13:55Z</time>
      </trkpt>
      <trkpt lat="43.23295" lon="5.50109">
        <ele>219.20099</ele>
        <time>2014-05-28T09:14:00Z</time>
      </trkpt>
      <trkpt lat="43.23293" lon="5.5011">
        <ele>217.40215</ele>
        <time>2014-05-28T09:14:05Z</time>
      </trkpt>
      <trkpt lat="43.23293" lon="5.5011">
        <ele>217.40215</ele>
        <time>2014-05-28T09:14:10Z</time>
      </trkpt>
      <trkpt lat="43.23284" lon="5.50114">
        <ele>214.92245</ele>
        <time>2014-05-28T09:15:20Z</time>
      </trkpt>
      <trkpt lat="43.23275" lon="5.50111">
        <ele>212.13898</ele>
        <time>2014-05-28T09:16:13Z</time>
      </trkpt>
      <trkpt lat="43.23272" lon="5.50109">
        <ele>212.13898</ele>
        <time>2014-05-28T09:16:21Z</time>
      </trkpt>
      <trkpt lat="43.23271" lon="5.5011">
        <ele>212.13898</ele>
        <time>2014-05-28T09:16:24Z</time>
      </trkpt>
      <trkpt lat="43.23269" lon="5.50111">
        <ele>212.13898</ele>
        <time>2014-05-28T09:16:30Z</time>
      </trkpt>
      <trkpt lat="43.23269" lon="5.50111">
        <ele>212.13898</ele>
        <time>2014-05-28T09:16:34Z</time>
      </trkpt>
      <trkpt lat="43.23259" lon="5.50109">
        <ele>209.02083</ele>
        <time>2014-05-28T09:17:10Z</time>
      </trkpt>
      <trkpt lat="43.23259" lon="5.50109">
        <ele>209.02083</ele>
        <time>2014-05-28T09:17:15Z</time>
      </trkpt>
      <trkpt lat="43.2325" lon="5.50105">
        <ele>205.84644</ele>
        <time>2014-05-28T09:17:45Z</time>
      </trkpt>
      <trkpt lat="43.2325" lon="5.50105">
        <ele>205.84644</ele>
        <time>2014-05-28T09:17:50Z</time>
      </trkpt>
      <trkpt lat="43.23245" lon="5.50113">
        <ele>205.84644</ele>
        <time>2014-05-28T09:17:58Z</time>
      </trkpt>
      <trkpt lat="43.23244" lon="5.50114">
        <ele>202.76315</ele>
        <time>2014-05-28T09:18:03Z</time>
      </trkpt>
      <trkpt lat="43.23241" lon="5.50113">
        <ele>202.76315</ele>
        <time>2014-05-28T09:18:53Z</time>
      </trkpt>
      <trkpt lat="43.23242" lon="5.50112">
        <ele>202.76315</ele>
        <time>2014-05-28T09:19:40Z</time>
      </trkpt>
      <trkpt lat="43.23242" lon="5.50112">
        <ele>202.76315</ele>
        <time>2014-05-28T09:19:45Z</time>
      </trkpt>
      <trkpt lat="43.23237" lon="5.50117">
        <ele>198.30223</ele>
        <time>2014-05-28T09:20:25Z</time>
      </trkpt>
      <trkpt lat="43.23233" lon="5.50119">
        <ele>198.30223</ele>
        <time>2014-05-28T09:20:30Z</time>
      </trkpt>
      <trkpt lat="43.23228" lon="5.50122">
        <ele>194.13747</ele>
        <time>2014-05-28T09:20:35Z</time>
      </trkpt>
      <trkpt lat="43.23223" lon="5.50121">
        <ele>194.13747</ele>
        <time>2014-05-28T09:20:40Z</time>
      </trkpt>
      <trkpt lat="43.23217" lon="5.50122">
        <ele>190.25131</ele>
        <time>2014-05-28T09:20:45Z</time>
      </trkpt>
      <trkpt lat="43.23211" lon="5.5012">
        <ele>190.25131</ele>
        <time>2014-05-28T09:20:50Z</time>
      </trkpt>
      <trkpt lat="43.23205" lon="5.5012">
        <ele>186.62473</ele>
        <time>2014-05-28T09:20:55Z</time>
      </trkpt>
      <trkpt lat="43.23199" lon="5.50118">
        <ele>186.62473</ele>
        <time>2014-05-28T09:21:00Z</time>
      </trkpt>
      <trkpt lat="43.23194" lon="5.50116">
        <ele>183.28244</ele>
        <time>2014-05-28T09:21:04Z</time>
      </trkpt>
      <trkpt lat="43.23188" lon="5.50117">
        <ele>183.28244</ele>
        <time>2014-05-28T09:21:09Z</time>
      </trkpt>
      <trkpt lat="43.23184" lon="5.50121">
        <ele>180.2299</ele>
        <time>2014-05-28T09:21:15Z</time>
      </trkpt>
      <trkpt lat="43.23181" lon="5.50122">
        <ele>180.2299</ele>
        <time>2014-05-28T09:21:20Z</time>
      </trkpt>
      <trkpt lat="43.23177" lon="5.50123">
        <ele>180.2299</ele>
        <time>2014-05-28T09:21:25Z</time>
      </trkpt>
      <trkpt lat="43.23174" lon="5.50125">
        <ele>177.43956</ele>
        <time>2014-05-28T09:21:29Z</time>
      </trkpt>
      <trkpt lat="43.2317" lon="5.50126">
        <ele>177.43956</ele>
        <time>2014-05-28T09:21:35Z</time>
      </trkpt>
      <trkpt lat="43.23166" lon="5.50131">
        <ele>174.92885</ele>
        <time>2014-05-28T09:21:41Z</time>
      </trkpt>
      <trkpt lat="43.2316" lon="5.50131">
        <ele>174.92885</ele>
        <time>2014-05-28T09:21:43Z</time>
      </trkpt>
      <trkpt lat="43.23156" lon="5.50132">
        <ele>172.65138</ele>
        <time>2014-05-28T09:21:48Z</time>
      </trkpt>
      <trkpt lat="43.23149" lon="5.50132">
        <ele>172.65138</ele>
        <time>2014-05-28T09:21:53Z</time>
      </trkpt>
      <trkpt lat="43.23143" lon="5.50132">
        <ele>170.63809</ele>
        <time>2014-05-28T09:21:58Z</time>
      </trkpt>
      <trkpt lat="43.23139" lon="5.50126">
        <ele>170.63809</ele>
        <time>2014-05-28T09:22:03Z</time>
      </trkpt>
      <trkpt lat="43.23137" lon="5.50121">
        <ele>168.82527</ele>
        <time>2014-05-28T09:22:08Z</time>
      </trkpt>
      <trkpt lat="43.23133" lon="5.50118">
        <ele>168.82527</ele>
        <time>2014-05-28T09:22:13Z</time>
      </trkpt>
      <trkpt lat="43.23131" lon="5.50114">
        <ele>168.82527</ele>
        <time>2014-05-28T09:22:18Z</time>
      </trkpt>
      <trkpt lat="43.23131" lon="5.5011">
        <ele>167.2435</ele>
        <time>2014-05-28T09:22:23Z</time>
      </trkpt>
      <trkpt lat="43.23131" lon="5.50107">
        <ele>167.2435</ele>
        <time>2014-05-28T09:22:28Z</time>
      </trkpt>
      <trkpt lat="43.23131" lon="5.50104">
        <ele>167.2435</ele>
        <time>2014-05-28T09:22:33Z</time>
      </trkpt>
      <trkpt lat="43.23132" lon="5.50099">
        <ele>167.2435</ele>
        <time>2014-05-28T09:22:38Z</time>
      </trkpt>
      <trkpt lat="43.23132" lon="5.50093">
        <ele>165.84447</ele>
        <time>2014-05-28T09:22:43Z</time>
      </trkpt>
      <trkpt lat="43.2313" lon="5.50086">
        <ele>165.84447</ele>
        <time>2014-05-28T09:22:48Z</time>
      </trkpt>
      <trkpt lat="43.23126" lon="5.50078">
        <ele>164.68811</ele>
        <time>2014-05-28T09:22:53Z</time>
      </trkpt>
      <trkpt lat="43.23122" lon="5.50071">
        <ele>164.68811</ele>
        <time>2014-05-28T09:22:58Z</time>
      </trkpt>
      <trkpt lat="43.23118" lon="5.50064">
        <ele>163.7235</ele>
        <time>2014-05-28T09:23:03Z</time>
      </trkpt>
      <trkpt lat="43.23115" lon="5.50058">
        <ele>163.7235</ele>
        <time>2014-05-28T09:23:08Z</time>
      </trkpt>
      <trkpt lat="43.23112" lon="5.50053">
        <ele>162.93312</ele>
        <time>2014-05-28T09:23:13Z</time>
      </trkpt>
      <trkpt lat="43.23111" lon="5.50049">
        <ele>162.93312</ele>
        <time>2014-05-28T09:23:18Z</time>
      </trkpt>
      <trkpt lat="43.23109" lon="5.50043">
        <ele>162.93312</ele>
        <time>2014-05-28T09:23:23Z</time>
      </trkpt>
      <trkpt lat="43.23107" lon="5.50039">
        <ele>162.25563</ele>
        <time>2014-05-28T09:23:28Z</time>
      </trkpt>
      <trkpt lat="43.23106" lon="5.50033">
        <ele>162.25563</ele>
        <time>2014-05-28T09:23:33Z</time>
      </trkpt>
      <trkpt lat="43.23103" lon="5.50025">
        <ele>161.7239</ele>
        <time>2014-05-28T09:23:38Z</time>
      </trkpt>
      <trkpt lat="43.23099" lon="5.5002">
        <ele>161.7239</ele>
        <time>2014-05-28T09:23:44Z</time>
      </trkpt>
      <trkpt lat="43.23094" lon="5.50017">
        <ele>161.35281</ele>
        <time>2014-05-28T09:23:50Z</time>
      </trkpt>
      <trkpt lat="43.23092" lon="5.50016">
        <ele>161.35281</ele>
        <time>2014-05-28T09:23:55Z</time>
      </trkpt>
      <trkpt lat="43.23088" lon="5.50012">
        <ele>161.35281</ele>
        <time>2014-05-28T09:24:00Z</time>
      </trkpt>
      <trkpt lat="43.23085" lon="5.50009">
        <ele>161.08147</ele>
        <time>2014-05-28T09:24:03Z</time>
      </trkpt>
      <trkpt lat="43.23079" lon="5.50005">
        <ele>161.08147</ele>
        <time>2014-05-28T09:24:10Z</time>
      </trkpt>
      <trkpt lat="43.23076" lon="5.50002">
        <ele>160.92783</ele>
        <time>2014-05-28T09:24:14Z</time>
      </trkpt>
      <trkpt lat="43.23073" lon="5.49997">
        <ele>160.92783</ele>
        <time>2014-05-28T09:24:20Z</time>
      </trkpt>
      <trkpt lat="43.2307" lon="5.49994">
        <ele>160.92783</ele>
        <time>2014-05-28T09:24:25Z</time>
      </trkpt>
      <trkpt lat="43.23067" lon="5.4999">
        <ele>160.8344</ele>
        <time>2014-05-28T09:24:30Z</time>
      </trkpt>
      <trkpt lat="43.23063" lon="5.49986">
        <ele>160.8344</ele>
        <time>2014-05-28T09:24:35Z</time>
      </trkpt>
      <trkpt lat="43.23057" lon="5.4998">
        <ele>160.8219</ele>
        <time>2014-05-28T09:24:40Z</time>
      </trkpt>
      <trkpt lat="43.23052" lon="5.49973">
        <ele>160.8219</ele>
        <time>2014-05-28T09:24:45Z</time>
      </trkpt>
      <trkpt lat="43.23048" lon="5.49967">
        <ele>160.8652</ele>
        <time>2014-05-28T09:24:50Z</time>
      </trkpt>
      <trkpt lat="43.23044" lon="5.49961">
        <ele>160.8652</ele>
        <time>2014-05-28T09:24:55Z</time>
      </trkpt>
      <trkpt lat="43.23039" lon="5.49956">
        <ele>160.99968</ele>
        <time>2014-05-28T09:25:00Z</time>
      </trkpt>
      <trkpt lat="43.23037" lon="5.4995">
        <ele>160.99968</ele>
        <time>2014-05-28T09:25:05Z</time>
      </trkpt>
      <trkpt lat="43.23036" lon="5.49944">
        <ele>161.22844</ele>
        <time>2014-05-28T09:25:10Z</time>
      </trkpt>
      <trkpt lat="43.23035" lon="5.49936">
        <ele>161.22844</ele>
        <time>2014-05-28T09:25:15Z</time>
      </trkpt>
      <trkpt lat="43.23035" lon="5.49928">
        <ele>161.51035</ele>
        <time>2014-05-28T09:25:20Z</time>
      </trkpt>
      <trkpt lat="43.23034" lon="5.49923">
        <ele>161.51035</ele>
        <time>2014-05-28T09:25:25Z</time>
      </trkpt>
      <trkpt lat="43.23033" lon="5.49916">
        <ele>161.8512</ele>
        <time>2014-05-28T09:25:30Z</time>
      </trkpt>
      <trkpt lat="43.23031" lon="5.49908">
        <ele>161.8512</ele>
        <time>2014-05-28T09:25:35Z</time>
      </trkpt>
      <trkpt lat="43.23031" lon="5.49904">
        <ele>162.18349</ele>
        <time>2014-05-28T09:25:40Z</time>
      </trkpt>
      <trkpt lat="43.23034" lon="5.49899">
        <ele>162.18349</ele>
        <time>2014-05-28T09:25:45Z</time>
      </trkpt>
      <trkpt lat="43.23034" lon="5.49896">
        <ele>162.18349</ele>
        <time>2014-05-28T09:25:49Z</time>
      </trkpt>
      <trkpt lat="43.23034" lon="5.49887">
        <ele>162.53224</ele>
        <time>2014-05-28T09:25:56Z</time>
      </trkpt>
      <trkpt lat="43.23035" lon="5.49882">
        <ele>162.53224</ele>
        <time>2014-05-28T09:25:58Z</time>
      </trkpt>
      <trkpt lat="43.23036" lon="5.49873">
        <ele>162.9205</ele>
        <time>2014-05-28T09:26:04Z</time>
      </trkpt>
      <trkpt lat="43.23037" lon="5.49865">
        <ele>162.9205</ele>
        <time>2014-05-28T09:26:10Z</time>
      </trkpt>
      <trkpt lat="43.23038" lon="5.49857">
        <ele>163.28252</ele>
        <time>2014-05-28T09:26:15Z</time>
      </trkpt>
      <trkpt lat="43.23038" lon="5.49851">
        <ele>163.28252</ele>
        <time>2014-05-28T09:26:20Z</time>
      </trkpt>
      <trkpt lat="43.23039" lon="5.49845">
        <ele>163.28252</ele>
        <time>2014-05-28T09:26:25Z</time>
      </trkpt>
      <trkpt lat="43.23039" lon="5.49837">
        <ele>163.70245</ele>
        <time>2014-05-28T09:26:30Z</time>
      </trkpt>
      <trkpt lat="43.2304" lon="5.49829">
        <ele>163.70245</ele>
        <time>2014-05-28T09:26:35Z</time>
      </trkpt>
      <trkpt lat="43.2304" lon="5.4982">
        <ele>164.17113</ele>
        <time>2014-05-28T09:26:40Z</time>
      </trkpt>
      <trkpt lat="43.23039" lon="5.49812">
        <ele>164.17113</ele>
        <time>2014-05-28T09:26:45Z</time>
      </trkpt>
      <trkpt lat="43.23038" lon="5.49805">
        <ele>164.67998</ele>
        <time>2014-05-28T09:26:50Z</time>
      </trkpt>
      <trkpt lat="43.23039" lon="5.49801">
        <ele>164.67998</ele>
        <time>2014-05-28T09:26:55Z</time>
      </trkpt>
      <trkpt lat="43.23038" lon="5.49797">
        <ele>164.67998</ele>
        <time>2014-05-28T09:27:00Z</time>
      </trkpt>
      <trkpt lat="43.23038" lon="5.49792">
        <ele>165.35106</ele>
        <time>2014-05-28T09:27:05Z</time>
      </trkpt>
      <trkpt lat="43.23038" lon="5.49789">
        <ele>165.35106</ele>
        <time>2014-05-28T09:27:10Z</time>
      </trkpt>
      <trkpt lat="43.23038" lon="5.49785">
        <ele>165.35106</ele>
        <time>2014-05-28T09:27:15Z</time>
      </trkpt>
      <trkpt lat="43.23037" lon="5.49784">
        <ele>165.35106</ele>
        <time>2014-05-28T09:27:20Z</time>
      </trkpt>
      <trkpt lat="43.23028" lon="5.49781">
        <ele>166.55673</ele>
        <time>2014-05-28T09:28:13Z</time>
      </trkpt>
      <trkpt lat="43.23026" lon="5.49777">
        <ele>166.55673</ele>
        <time>2014-05-28T09:28:18Z</time>
      </trkpt>
      <trkpt lat="43.23025" lon="5.49774">
        <ele>166.55673</ele>
        <time>2014-05-28T09:28:23Z</time>
      </trkpt>
      <trkpt lat="43.23025" lon="5.49774">
        <ele>166.55673</ele>
        <time>2014-05-28T09:28:28Z</time>
      </trkpt>
      <trkpt lat="43.23024" lon="5.49768">
        <ele>168.06288</ele>
        <time>2014-05-28T09:28:38Z</time>
      </trkpt>
      <trkpt lat="43.23026" lon="5.49762">
        <ele>168.06288</ele>
        <time>2014-05-28T09:28:43Z</time>
      </trkpt>
      <trkpt lat="43.23026" lon="5.49757">
        <ele>168.06288</ele>
        <time>2014-05-28T09:28:48Z</time>
      </trkpt>
      <trkpt lat="43.23026" lon="5.49751">
        <ele>169.60902</ele>
        <time>2014-05-28T09:28:53Z</time>
      </trkpt>
      <trkpt lat="43.23027" lon="5.49747">
        <ele>169.60902</ele>
        <time>2014-05-28T09:28:58Z</time>
      </trkpt>
      <trkpt lat="43.23026" lon="5.49747">
        <ele>169.60902</ele>
        <time>2014-05-28T09:29:03Z</time>
      </trkpt>
      <trkpt lat="43.23026" lon="5.4974">
        <ele>171.2714</ele>
        <time>2014-05-28T09:29:43Z</time>
      </trkpt>
      <trkpt lat="43.23027" lon="5.49736">
        <ele>171.2714</ele>
        <time>2014-05-28T09:29:48Z</time>
      </trkpt>
      <trkpt lat="43.23027" lon="5.4973">
        <ele>171.2714</ele>
        <time>2014-05-28T09:29:53Z</time>
      </trkpt>
      <trkpt lat="43.23028" lon="5.49722">
        <ele>172.99062</ele>
        <time>2014-05-28T09:29:58Z</time>
      </trkpt>
      <trkpt lat="43.23028" lon="5.49717">
        <ele>172.99062</ele>
        <time>2014-05-28T09:30:03Z</time>
      </trkpt>
      <trkpt lat="43.23028" lon="5.4971">
        <ele>172.99062</ele>
        <time>2014-05-28T09:30:08Z</time>
      </trkpt>
      <trkpt lat="43.23028" lon="5.49705">
        <ele>174.72609</ele>
        <time>2014-05-28T09:30:13Z</time>
      </trkpt>
      <trkpt lat="43.23028" lon="5.49698">
        <ele>174.72609</ele>
        <time>2014-05-28T09:30:18Z</time>
      </trkpt>
      <trkpt lat="43.23028" lon="5.49693">
        <ele>174.72609</ele>
        <time>2014-05-28T09:30:23Z</time>
      </trkpt>
      <trkpt lat="43.23028" lon="5.49688">
        <ele>176.44029</ele>
        <time>2014-05-28T09:30:28Z</time>
      </trkpt>
      <trkpt lat="43.23028" lon="5.49681">
        <ele>176.44029</ele>
        <time>2014-05-28T09:30:36Z</time>
      </trkpt>
      <trkpt lat="43.23026" lon="5.49676">
        <ele>178.09871</ele>
        <time>2014-05-28T09:30:40Z</time>
      </trkpt>
      <trkpt lat="43.23025" lon="5.4967">
        <ele>178.09871</ele>
        <time>2014-05-28T09:30:45Z</time>
      </trkpt>
      <trkpt lat="43.23025" lon="5.49665">
        <ele>178.09871</ele>
        <time>2014-05-28T09:30:50Z</time>
      </trkpt>
      <trkpt lat="43.23027" lon="5.49661">
        <ele>179.7562</ele>
        <time>2014-05-28T09:30:54Z</time>
      </trkpt>
      <trkpt lat="43.23028" lon="5.49656">
        <ele>179.7562</ele>
        <time>2014-05-28T09:30:59Z</time>
      </trkpt>
      <trkpt lat="43.23029" lon="5.49647">
        <ele>181.34837</ele>
        <time>2014-05-28T09:31:06Z</time>
      </trkpt>
      <trkpt lat="43.2303" lon="5.49644">
        <ele>181.34837</ele>
        <time>2014-05-28T09:31:09Z</time>
      </trkpt>
      <trkpt lat="43.23029" lon="5.49637">
        <ele>181.34837</ele>
        <time>2014-05-28T09:31:13Z</time>
      </trkpt>
      <trkpt lat="43.23031" lon="5.49631">
        <ele>182.91695</ele>
        <time>2014-05-28T09:31:19Z</time>
      </trkpt>
      <trkpt lat="43.23027" lon="5.49622">
        <ele>182.91695</ele>
        <time>2014-05-28T09:31:24Z</time>
      </trkpt>
      <trkpt lat="43.23026" lon="5.49618">
        <ele>184.45753</ele>
        <time>2014-05-28T09:31:29Z</time>
      </trkpt>
      <trkpt lat="43.23022" lon="5.49612">
        <ele>184.45753</ele>
        <time>2014-05-28T09:31:36Z</time>
      </trkpt>
      <trkpt lat="43.23019" lon="5.49608">
        <ele>185.96638</ele>
        <time>2014-05-28T09:31:39Z</time>
      </trkpt>
      <trkpt lat="43.23016" lon="5.49608">
        <ele>185.96638</ele>
        <time>2014-05-28T09:31:43Z</time>
      </trkpt>
      <trkpt lat="43.2301" lon="5.49609">
        <ele>185.96638</ele>
        <time>2014-05-28T09:31:48Z</time>
      </trkpt>
      <trkpt lat="43.23005" lon="5.4961">
        <ele>187.48358</ele>
        <time>2014-05-28T09:31:53Z</time>
      </trkpt>
      <trkpt lat="43.23" lon="5.49612">
        <ele>187.48358</ele>
        <time>2014-05-28T09:31:58Z</time>
      </trkpt>
      <trkpt lat="43.22996" lon="5.49616">
        <ele>188.93108</ele>
        <time>2014-05-28T09:32:03Z</time>
      </trkpt>
      <trkpt lat="43.22992" lon="5.49622">
        <ele>188.93108</ele>
        <time>2014-05-28T09:32:08Z</time>
      </trkpt>
      <trkpt lat="43.22988" lon="5.49626">
        <ele>190.32353</ele>
        <time>2014-05-28T09:32:13Z</time>
      </trkpt>
      <trkpt lat="43.22986" lon="5.4963">
        <ele>190.32353</ele>
        <time>2014-05-28T09:32:18Z</time>
      </trkpt>
      <trkpt lat="43.22984" lon="5.49636">
        <ele>191.63158</ele>
        <time>2014-05-28T09:32:23Z</time>
      </trkpt>
      <trkpt lat="43.22981" lon="5.49643">
        <ele>191.63158</ele>
        <time>2014-05-28T09:32:29Z</time>
      </trkpt>
      <trkpt lat="43.22978" lon="5.49652">
        <ele>192.85736</ele>
        <time>2014-05-28T09:32:35Z</time>
      </trkpt>
      <trkpt lat="43.22977" lon="5.49657">
        <ele>192.85736</ele>
        <time>2014-05-28T09:32:40Z</time>
      </trkpt>
      <trkpt lat="43.22974" lon="5.49667">
        <ele>193.95999</ele>
        <time>2014-05-28T09:32:45Z</time>
      </trkpt>
      <trkpt lat="43.22973" lon="5.49673">
        <ele>193.95999</ele>
        <time>2014-05-28T09:32:50Z</time>
      </trkpt>
      <trkpt lat="43.2297" lon="5.49679">
        <ele>195.04642</ele>
        <time>2014-05-28T09:32:54Z</time>
      </trkpt>
      <trkpt lat="43.22967" lon="5.49683">
        <ele>195.04642</ele>
        <time>2014-05-28T09:32:59Z</time>
      </trkpt>
      <trkpt lat="43.22963" lon="5.49693">
        <ele>196.0717</ele>
        <time>2014-05-28T09:33:05Z</time>
      </trkpt>
      <trkpt lat="43.22961" lon="5.49698">
        <ele>196.0717</ele>
        <time>2014-05-28T09:33:09Z</time>
      </trkpt>
      <trkpt lat="43.22958" lon="5.49702">
        <ele>196.0717</ele>
        <time>2014-05-28T09:33:14Z</time>
      </trkpt>
      <trkpt lat="43.22954" lon="5.49703">
        <ele>197.00903</ele>
        <time>2014-05-28T09:33:20Z</time>
      </trkpt>
      <trkpt lat="43.22954" lon="5.49707">
        <ele>197.00903</ele>
        <time>2014-05-28T09:33:23Z</time>
      </trkpt>
      <trkpt lat="43.22951" lon="5.49713">
        <ele>197.00903</ele>
        <time>2014-05-28T09:33:30Z</time>
      </trkpt>
      <trkpt lat="43.22951" lon="5.49718">
        <ele>197.87724</ele>
        <time>2014-05-28T09:33:35Z</time>
      </trkpt>
      <trkpt lat="43.22949" lon="5.49724">
        <ele>197.87724</ele>
        <time>2014-05-28T09:33:40Z</time>
      </trkpt>
      <trkpt lat="43.22949" lon="5.49726">
        <ele>197.87724</ele>
        <time>2014-05-28T09:33:44Z</time>
      </trkpt>
      <trkpt lat="43.22947" lon="5.49741">
        <ele>198.73744</ele>
        <time>2014-05-28T09:33:51Z</time>
      </trkpt>
      <trkpt lat="43.22948" lon="5.49746">
        <ele>198.73744</ele>
        <time>2014-05-28T09:33:53Z</time>
      </trkpt>
      <trkpt lat="43.22949" lon="5.49759">
        <ele>199.54544</ele>
        <time>2014-05-28T09:34:00Z</time>
      </trkpt>
      <trkpt lat="43.22948" lon="5.49766">
        <ele>199.54544</ele>
        <time>2014-05-28T09:34:04Z</time>
      </trkpt>
      <trkpt lat="43.22948" lon="5.49772">
        <ele>200.24625</ele>
        <time>2014-05-28T09:34:09Z</time>
      </trkpt>
      <trkpt lat="43.22949" lon="5.49783">
        <ele>200.24625</ele>
        <time>2014-05-28T09:34:15Z</time>
      </trkpt>
      <trkpt lat="43.2295" lon="5.4979">
        <ele>200.96236</ele>
        <time>2014-05-28T09:34:19Z</time>
      </trkpt>
      <trkpt lat="43.2295" lon="5.49795">
        <ele>200.96236</ele>
        <time>2014-05-28T09:34:23Z</time>
      </trkpt>
      <trkpt lat="43.22948" lon="5.49808">
        <ele>201.6055</ele>
        <time>2014-05-28T09:34:30Z</time>
      </trkpt>
      <trkpt lat="43.22946" lon="5.49815">
        <ele>201.6055</ele>
        <time>2014-05-28T09:34:34Z</time>
      </trkpt>
      <trkpt lat="43.22944" lon="5.49825">
        <ele>202.18073</ele>
        <time>2014-05-28T09:34:40Z</time>
      </trkpt>
      <trkpt lat="43.22943" lon="5.49831">
        <ele>202.18073</ele>
        <time>2014-05-28T09:34:45Z</time>
      </trkpt>
      <trkpt lat="43.22941" lon="5.49839">
        <ele>202.72188</ele>
        <time>2014-05-28T09:34:50Z</time>
      </trkpt>
      <trkpt lat="43.2294" lon="5.49842">
        <ele>202.72188</ele>
        <time>2014-05-28T09:34:53Z</time>
      </trkpt>
      <trkpt lat="43.22938" lon="5.49849">
        <ele>202.72188</ele>
        <time>2014-05-28T09:35:01Z</time>
      </trkpt>
      <trkpt lat="43.22938" lon="5.49854">
        <ele>203.2317</ele>
        <time>2014-05-28T09:35:05Z</time>
      </trkpt>
      <trkpt lat="43.22938" lon="5.49859">
        <ele>203.2317</ele>
        <time>2014-05-28T09:35:10Z</time>
      </trkpt>
      <trkpt lat="43.22938" lon="5.49865">
        <ele>203.2317</ele>
        <time>2014-05-28T09:35:15Z</time>
      </trkpt>
      <trkpt lat="43.22939" lon="5.49868">
        <ele>203.77058</ele>
        <time>2014-05-28T09:35:20Z</time>
      </trkpt>
      <trkpt lat="43.22938" lon="5.49877">
        <ele>203.77058</ele>
        <time>2014-05-28T09:35:23Z</time>
      </trkpt>
      <trkpt lat="43.22939" lon="5.49886">
        <ele>204.27911</ele>
        <time>2014-05-28T09:35:30Z</time>
      </trkpt>
      <trkpt lat="43.22938" lon="5.49891">
        <ele>204.27911</ele>
        <time>2014-05-28T09:35:34Z</time>
      </trkpt>
      <trkpt lat="43.22937" lon="5.49898">
        <ele>204.27911</ele>
        <time>2014-05-28T09:35:40Z</time>
      </trkpt>
      <trkpt lat="43.22936" lon="5.49906">
        <ele>204.78894</ele>
        <time>2014-05-28T09:35:45Z</time>
      </trkpt>
      <trkpt lat="43.22935" lon="5.49914">
        <ele>204.78894</ele>
        <time>2014-05-28T09:35:49Z</time>
      </trkpt>
      <trkpt lat="43.22934" lon="5.49919">
        <ele>205.28624</ele>
        <time>2014-05-28T09:35:54Z</time>
      </trkpt>
      <trkpt lat="43.22934" lon="5.49929">
        <ele>205.28624</ele>
        <time>2014-05-28T09:36:00Z</time>
      </trkpt>
      <trkpt lat="43.22933" lon="5.49934">
        <ele>205.74384</ele>
        <time>2014-05-28T09:36:04Z</time>
      </trkpt>
      <trkpt lat="43.22933" lon="5.49941">
        <ele>205.74384</ele>
        <time>2014-05-28T09:36:10Z</time>
      </trkpt>
      <trkpt lat="43.22933" lon="5.49947">
        <ele>206.19444</ele>
        <time>2014-05-28T09:36:15Z</time>
      </trkpt>
      <trkpt lat="43.22933" lon="5.49954">
        <ele>206.19444</ele>
        <time>2014-05-28T09:36:19Z</time>
      </trkpt>
      <trkpt lat="43.22933" lon="5.49961">
        <ele>206.61075</ele>
        <time>2014-05-28T09:36:24Z</time>
      </trkpt>
      <trkpt lat="43.22931" lon="5.49966">
        <ele>206.61075</ele>
        <time>2014-05-28T09:36:30Z</time>
      </trkpt>
      <trkpt lat="43.22931" lon="5.49973">
        <ele>207.02527</ele>
        <time>2014-05-28T09:36:35Z</time>
      </trkpt>
      <trkpt lat="43.2293" lon="5.49982">
        <ele>207.02527</ele>
        <time>2014-05-28T09:36:40Z</time>
      </trkpt>
      <trkpt lat="43.2293" lon="5.4999">
        <ele>207.43932</ele>
        <time>2014-05-28T09:36:45Z</time>
      </trkpt>
      <trkpt lat="43.2293" lon="5.49999">
        <ele>207.43932</ele>
        <time>2014-05-28T09:36:49Z</time>
      </trkpt>
      <trkpt lat="43.2293" lon="5.50007">
        <ele>207.78212</ele>
        <time>2014-05-28T09:36:54Z</time>
      </trkpt>
      <trkpt lat="43.22931" lon="5.50016">
        <ele>207.78212</ele>
        <time>2014-05-28T09:37:00Z</time>
      </trkpt>
      <trkpt lat="43.2293" lon="5.50022">
        <ele>208.04594</ele>
        <time>2014-05-28T09:37:05Z</time>
      </trkpt>
      <trkpt lat="43.22931" lon="5.50029">
        <ele>208.04594</ele>
        <time>2014-05-28T09:37:10Z</time>
      </trkpt>
      <trkpt lat="43.22932" lon="5.50036">
        <ele>208.2239</ele>
        <time>2014-05-28T09:37:14Z</time>
      </trkpt>
      <trkpt lat="43.22932" lon="5.5004">
        <ele>208.2239</ele>
        <time>2014-05-28T09:37:19Z</time>
      </trkpt>
      <trkpt lat="43.22933" lon="5.50045">
        <ele>208.2239</ele>
        <time>2014-05-28T09:37:24Z</time>
      </trkpt>
      <trkpt lat="43.22933" lon="5.50052">
        <ele>208.38193</ele>
        <time>2014-05-28T09:37:30Z</time>
      </trkpt>
      <trkpt lat="43.22933" lon="5.50059">
        <ele>208.38193</ele>
        <time>2014-05-28T09:37:36Z</time>
      </trkpt>
      <trkpt lat="43.22934" lon="5.50062">
        <ele>208.38193</ele>
        <time>2014-05-28T09:37:39Z</time>
      </trkpt>
      <trkpt lat="43.22939" lon="5.50071">
        <ele>208.52348</ele>
        <time>2014-05-28T09:37:45Z</time>
      </trkpt>
      <trkpt lat="43.2294" lon="5.50076">
        <ele>208.52348</ele>
        <time>2014-05-28T09:37:48Z</time>
      </trkpt>
      <trkpt lat="43.22942" lon="5.50085">
        <ele>208.73834</ele>
        <time>2014-05-28T09:37:53Z</time>
      </trkpt>
      <trkpt lat="43.22943" lon="5.50092">
        <ele>208.73834</ele>
        <time>2014-05-28T09:37:58Z</time>
      </trkpt>
      <trkpt lat="43.22945" lon="5.50099">
        <ele>209.0518</ele>
        <time>2014-05-28T09:38:03Z</time>
      </trkpt>
      <trkpt lat="43.22946" lon="5.50108">
        <ele>209.0518</ele>
        <time>2014-05-28T09:38:08Z</time>
      </trkpt>
      <trkpt lat="43.22946" lon="5.50114">
        <ele>209.41493</ele>
        <time>2014-05-28T09:38:13Z</time>
      </trkpt>
      <trkpt lat="43.22947" lon="5.50119">
        <ele>209.41493</ele>
        <time>2014-05-28T09:38:18Z</time>
      </trkpt>
      <trkpt lat="43.22948" lon="5.50127">
        <ele>209.7967</ele>
        <time>2014-05-28T09:38:23Z</time>
      </trkpt>
      <trkpt lat="43.22951" lon="5.50133">
        <ele>209.7967</ele>
        <time>2014-05-28T09:38:28Z</time>
      </trkpt>
      <trkpt lat="43.22952" lon="5.50138">
        <ele>210.22594</ele>
        <time>2014-05-28T09:38:33Z</time>
      </trkpt>
      <trkpt lat="43.22954" lon="5.50145">
        <ele>210.22594</ele>
        <time>2014-05-28T09:38:38Z</time>
      </trkpt>
      <trkpt lat="43.22957" lon="5.50151">
        <ele>210.7003</ele>
        <time>2014-05-28T09:38:43Z</time>
      </trkpt>
      <trkpt lat="43.22959" lon="5.50156">
        <ele>210.7003</ele>
        <time>2014-05-28T09:38:48Z</time>
      </trkpt>
      <trkpt lat="43.22962" lon="5.50164">
        <ele>211.18874</ele>
        <time>2014-05-28T09:38:56Z</time>
      </trkpt>
      <trkpt lat="43.22964" lon="5.50167">
        <ele>211.18874</ele>
        <time>2014-05-28T09:38:59Z</time>
      </trkpt>
      <trkpt lat="43.22967" lon="5.50176">
        <ele>211.67679</ele>
        <time>2014-05-28T09:39:05Z</time>
      </trkpt>
      <trkpt lat="43.22971" lon="5.50183">
        <ele>211.67679</ele>
        <time>2014-05-28T09:39:10Z</time>
      </trkpt>
      <trkpt lat="43.22972" lon="5.50186">
        <ele>212.22308</ele>
        <time>2014-05-28T09:39:13Z</time>
      </trkpt>
      <trkpt lat="43.22974" lon="5.50191">
        <ele>212.22308</ele>
        <time>2014-05-28T09:39:19Z</time>
      </trkpt>
      <trkpt lat="43.22975" lon="5.502">
        <ele>212.82411</ele>
        <time>2014-05-28T09:39:25Z</time>
      </trkpt>
      <trkpt lat="43.22975" lon="5.50206">
        <ele>212.82411</ele>
        <time>2014-05-28T09:39:30Z</time>
      </trkpt>
      <trkpt lat="43.22973" lon="5.50208">
        <ele>212.82411</ele>
        <time>2014-05-28T09:39:35Z</time>
      </trkpt>
      <trkpt lat="43.22972" lon="5.5021">
        <ele>212.82411</ele>
        <time>2014-05-28T09:39:39Z</time>
      </trkpt>
      <trkpt lat="43.22972" lon="5.5022">
        <ele>213.96643</ele>
        <time>2014-05-28T09:40:44Z</time>
      </trkpt>
      <trkpt lat="43.22972" lon="5.50221">
        <ele>213.96643</ele>
        <time>2014-05-28T09:40:49Z</time>
      </trkpt>
      <trkpt lat="43.2297" lon="5.50225">
        <ele>213.96643</ele>
        <time>2014-05-28T09:40:55Z</time>
      </trkpt>
      <trkpt lat="43.2297" lon="5.50228">
        <ele>213.96643</ele>
        <time>2014-05-28T09:40:59Z</time>
      </trkpt>
      <trkpt lat="43.22968" lon="5.50233">
        <ele>214.94643</ele>
        <time>2014-05-28T09:41:04Z</time>
      </trkpt>
      <trkpt lat="43.22966" lon="5.50235">
        <ele>214.94643</ele>
        <time>2014-05-28T09:41:09Z</time>
      </trkpt>
      <trkpt lat="43.22964" lon="5.50237">
        <ele>214.94643</ele>
        <time>2014-05-28T09:41:14Z</time>
      </trkpt>
      <trkpt lat="43.22961" lon="5.50239">
        <ele>214.94643</ele>
        <time>2014-05-28T09:41:20Z</time>
      </trkpt>
      <trkpt lat="43.22959" lon="5.5024">
        <ele>215.81873</ele>
        <time>2014-05-28T09:41:25Z</time>
      </trkpt>
      <trkpt lat="43.22959" lon="5.50243">
        <ele>215.81873</ele>
        <time>2014-05-28T09:41:30Z</time>
      </trkpt>
      <trkpt lat="43.22958" lon="5.50247">
        <ele>215.81873</ele>
        <time>2014-05-28T09:41:35Z</time>
      </trkpt>
      <trkpt lat="43.22958" lon="5.50251">
        <ele>215.81873</ele>
        <time>2014-05-28T09:41:40Z</time>
      </trkpt>
      <trkpt lat="43.22954" lon="5.50254">
        <ele>216.59102</ele>
        <time>2014-05-28T09:41:44Z</time>
      </trkpt>
      <trkpt lat="43.22952" lon="5.50256">
        <ele>216.59102</ele>
        <time>2014-05-28T09:41:49Z</time>
      </trkpt>
      <trkpt lat="43.22948" lon="5.5026">
        <ele>216.59102</ele>
        <time>2014-05-28T09:41:55Z</time>
      </trkpt>
      <trkpt lat="43.22947" lon="5.50263">
        <ele>217.24185</ele>
        <time>2014-05-28T09:42:00Z</time>
      </trkpt>
      <trkpt lat="43.22945" lon="5.50264">
        <ele>217.24185</ele>
        <time>2014-05-28T09:42:05Z</time>
      </trkpt>
      <trkpt lat="43.22945" lon="5.50264">
        <ele>217.24185</ele>
        <time>2014-05-28T09:42:10Z</time>
      </trkpt>
      <trkpt lat="43.22942" lon="5.50269">
        <ele>217.24185</ele>
        <time>2014-05-28T09:42:14Z</time>
      </trkpt>
      <trkpt lat="43.2294" lon="5.50272">
        <ele>217.83815</ele>
        <time>2014-05-28T09:42:20Z</time>
      </trkpt>
      <trkpt lat="43.22937" lon="5.50276">
        <ele>217.83815</ele>
        <time>2014-05-28T09:42:25Z</time>
      </trkpt>
      <trkpt lat="43.22935" lon="5.50279">
        <ele>217.83815</ele>
        <time>2014-05-28T09:42:30Z</time>
      </trkpt>
      <trkpt lat="43.22933" lon="5.50282">
        <ele>218.41324</ele>
        <time>2014-05-28T09:42:35Z</time>
      </trkpt>
      <trkpt lat="43.2293" lon="5.50285">
        <ele>218.41324</ele>
        <time>2014-05-28T09:42:40Z</time>
      </trkpt>
      <trkpt lat="43.22928" lon="5.50288">
        <ele>218.41324</ele>
        <time>2014-05-28T09:42:43Z</time>
      </trkpt>
      <trkpt lat="43.22925" lon="5.50291">
        <ele>218.99803</ele>
        <time>2014-05-28T09:42:50Z</time>
      </trkpt>
      <trkpt lat="43.22923" lon="5.50294">
        <ele>218.99803</ele>
        <time>2014-05-28T09:42:55Z</time>
      </trkpt>
      <trkpt lat="43.2292" lon="5.50297">
        <ele>218.99803</ele>
        <time>2014-05-28T09:43:00Z</time>
      </trkpt>
      <trkpt lat="43.22918" lon="5.503">
        <ele>219.50584</ele>
        <time>2014-05-28T09:43:05Z</time>
      </trkpt>
      <trkpt lat="43.22915" lon="5.50303">
        <ele>219.50584</ele>
        <time>2014-05-28T09:43:10Z</time>
      </trkpt>
      <trkpt lat="43.22913" lon="5.50306">
        <ele>219.50584</ele>
        <time>2014-05-28T09:43:13Z</time>
      </trkpt>
      <trkpt lat="43.22909" lon="5.50311">
        <ele>220.0439</ele>
        <time>2014-05-28T09:43:20Z</time>
      </trkpt>
      <trkpt lat="43.22906" lon="5.50313">
        <ele>220.0439</ele>
        <time>2014-05-28T09:43:24Z</time>
      </trkpt>
      <trkpt lat="43.22904" lon="5.50319">
        <ele>220.0439</ele>
        <time>2014-05-28T09:43:30Z</time>
      </trkpt>
      <trkpt lat="43.22902" lon="5.50323">
        <ele>220.66821</ele>
        <time>2014-05-28T09:43:35Z</time>
      </trkpt>
      <trkpt lat="43.22899" lon="5.50327">
        <ele>220.66821</ele>
        <time>2014-05-28T09:43:40Z</time>
      </trkpt>
      <trkpt lat="43.22898" lon="5.50328">
        <ele>220.66821</ele>
        <time>2014-05-28T09:43:43Z</time>
      </trkpt>
      <trkpt lat="43.22894" lon="5.50333">
        <ele>221.35838</ele>
        <time>2014-05-28T09:43:50Z</time>
      </trkpt>
      <trkpt lat="43.22891" lon="5.50335">
        <ele>221.35838</ele>
        <time>2014-05-28T09:43:55Z</time>
      </trkpt>
      <trkpt lat="43.22888" lon="5.5034">
        <ele>221.35838</ele>
        <time>2014-05-28T09:44:00Z</time>
      </trkpt>
      <trkpt lat="43.22885" lon="5.50344">
        <ele>222.09528</ele>
        <time>2014-05-28T09:44:05Z</time>
      </trkpt>
      <trkpt lat="43.22883" lon="5.50347">
        <ele>222.09528</ele>
        <time>2014-05-28T09:44:10Z</time>
      </trkpt>
      <trkpt lat="43.22883" lon="5.50346">
        <ele>222.09528</ele>
        <time>2014-05-28T09:44:13Z</time>
      </trkpt>
      <trkpt lat="43.22883" lon="5.50346">
        <ele>222.09528</ele>
        <time>2014-05-28T09:44:21Z</time>
      </trkpt>
      <trkpt lat="43.22879" lon="5.50352">
        <ele>222.83221</ele>
        <time>2014-05-28T09:44:24Z</time>
      </trkpt>
      <trkpt lat="43.22876" lon="5.50356">
        <ele>222.83221</ele>
        <time>2014-05-28T09:44:30Z</time>
      </trkpt>
      <trkpt lat="43.22873" lon="5.50357">
        <ele>222.83221</ele>
        <time>2014-05-28T09:44:35Z</time>
      </trkpt>
      <trkpt lat="43.2287" lon="5.5036">
        <ele>223.56917</ele>
        <time>2014-05-28T09:44:39Z</time>
      </trkpt>
      <trkpt lat="43.22869" lon="5.50363">
        <ele>223.56917</ele>
        <time>2014-05-28T09:44:44Z</time>
      </trkpt>
      <trkpt lat="43.22864" lon="5.50369">
        <ele>224.3205</ele>
        <time>2014-05-28T09:44:51Z</time>
      </trkpt>
      <trkpt lat="43.22863" lon="5.50372">
        <ele>224.3205</ele>
        <time>2014-05-28T09:44:54Z</time>
      </trkpt>
      <trkpt lat="43.2286" lon="5.50376">
        <ele>224.3205</ele>
        <time>2014-05-28T09:45:00Z</time>
      </trkpt>
      <trkpt lat="43.22857" lon="5.50377">
        <ele>225.04182</ele>
        <time>2014-05-28T09:45:05Z</time>
      </trkpt>
      <trkpt lat="43.22856" lon="5.50378">
        <ele>225.04182</ele>
        <time>2014-05-28T09:45:09Z</time>
      </trkpt>
      <trkpt lat="43.22853" lon="5.50381">
        <ele>225.04182</ele>
        <time>2014-05-28T09:45:14Z</time>
      </trkpt>
      <trkpt lat="43.2285" lon="5.50387">
        <ele>225.76413</ele>
        <time>2014-05-28T09:45:21Z</time>
      </trkpt>
      <trkpt lat="43.22847" lon="5.5039">
        <ele>225.76413</ele>
        <time>2014-05-28T09:45:24Z</time>
      </trkpt>
      <trkpt lat="43.22844" lon="5.50393">
        <ele>225.76413</ele>
        <time>2014-05-28T09:45:30Z</time>
      </trkpt>
      <trkpt lat="43.22842" lon="5.50396">
        <ele>226.48734</ele>
        <time>2014-05-28T09:45:35Z</time>
      </trkpt>
      <trkpt lat="43.22839" lon="5.50399">
        <ele>226.48734</ele>
        <time>2014-05-28T09:45:39Z</time>
      </trkpt>
      <trkpt lat="43.22837" lon="5.50401">
        <ele>226.48734</ele>
        <time>2014-05-28T09:45:44Z</time>
      </trkpt>
      <trkpt lat="43.22833" lon="5.50405">
        <ele>227.16806</ele>
        <time>2014-05-28T09:45:51Z</time>
      </trkpt>
      <trkpt lat="43.2283" lon="5.50406">
        <ele>227.16806</ele>
        <time>2014-05-28T09:45:54Z</time>
      </trkpt>
      <trkpt lat="43.22827" lon="5.50409">
        <ele>227.16806</ele>
        <time>2014-05-28T09:46:00Z</time>
      </trkpt>
      <trkpt lat="43.22826" lon="5.50409">
        <ele>227.16806</ele>
        <time>2014-05-28T09:46:05Z</time>
      </trkpt>
      <trkpt lat="43.22821" lon="5.50414">
        <ele>227.86714</ele>
        <time>2014-05-28T09:46:09Z</time>
      </trkpt>
      <trkpt lat="43.22819" lon="5.50416">
        <ele>227.86714</ele>
        <time>2014-05-28T09:46:13Z</time>
      </trkpt>
      <trkpt lat="43.22816" lon="5.50417">
        <ele>227.86714</ele>
        <time>2014-05-28T09:46:20Z</time>
      </trkpt>
      <trkpt lat="43.22813" lon="5.50425">
        <ele>228.64088</ele>
        <time>2014-05-28T09:46:25Z</time>
      </trkpt>
      <trkpt lat="43.22812" lon="5.50427">
        <ele>228.64088</ele>
        <time>2014-05-28T09:46:30Z</time>
      </trkpt>
      <trkpt lat="43.22807" lon="5.50429">
        <ele>228.64088</ele>
        <time>2014-05-28T09:46:35Z</time>
      </trkpt>
      <trkpt lat="43.22804" lon="5.50429">
        <ele>229.46918</ele>
        <time>2014-05-28T09:46:39Z</time>
      </trkpt>
      <trkpt lat="43.228" lon="5.50431">
        <ele>229.46918</ele>
        <time>2014-05-28T09:46:44Z</time>
      </trkpt>
      <trkpt lat="43.22796" lon="5.50433">
        <ele>229.46918</ele>
        <time>2014-05-28T09:46:50Z</time>
      </trkpt>
      <trkpt lat="43.22793" lon="5.50435">
        <ele>230.34763</ele>
        <time>2014-05-28T09:46:55Z</time>
      </trkpt>
      <trkpt lat="43.2279" lon="5.50436">
        <ele>230.34763</ele>
        <time>2014-05-28T09:47:00Z</time>
      </trkpt>
      <trkpt lat="43.22786" lon="5.50439">
        <ele>230.34763</ele>
        <time>2014-05-28T09:47:05Z</time>
      </trkpt>
      <trkpt lat="43.22784" lon="5.50438">
        <ele>231.30086</ele>
        <time>2014-05-28T09:47:09Z</time>
      </trkpt>
      <trkpt lat="43.2278" lon="5.50438">
        <ele>231.30086</ele>
        <time>2014-05-28T09:47:15Z</time>
      </trkpt>
      <trkpt lat="43.22777" lon="5.50438">
        <ele>231.30086</ele>
        <time>2014-05-28T09:47:20Z</time>
      </trkpt>
      <trkpt lat="43.22774" lon="5.50438">
        <ele>232.2794</ele>
        <time>2014-05-28T09:47:25Z</time>
      </trkpt>
      <trkpt lat="43.2277" lon="5.50439">
        <ele>232.2794</ele>
        <time>2014-05-28T09:47:30Z</time>
      </trkpt>
      <trkpt lat="43.22767" lon="5.5044">
        <ele>232.2794</ele>
        <time>2014-05-28T09:47:35Z</time>
      </trkpt>
      <trkpt lat="43.22765" lon="5.50441">
        <ele>233.36708</ele>
        <time>2014-05-28T09:47:38Z</time>
      </trkpt>
      <trkpt lat="43.22762" lon="5.50444">
        <ele>233.36708</ele>
        <time>2014-05-28T09:47:45Z</time>
      </trkpt>
      <trkpt lat="43.22758" lon="5.50443">
        <ele>233.36708</ele>
        <time>2014-05-28T09:47:50Z</time>
      </trkpt>
      <trkpt lat="43.22754" lon="5.50441">
        <ele>234.58359</ele>
        <time>2014-05-28T09:47:55Z</time>
      </trkpt>
      <trkpt lat="43.22752" lon="5.50439">
        <ele>234.58359</ele>
        <time>2014-05-28T09:48:00Z</time>
      </trkpt>
      <trkpt lat="43.22749" lon="5.50437">
        <ele>234.58359</ele>
        <time>2014-05-28T09:48:05Z</time>
      </trkpt>
      <trkpt lat="43.22747" lon="5.50435">
        <ele>234.58359</ele>
        <time>2014-05-28T09:48:08Z</time>
      </trkpt>
      <trkpt lat="43.22743" lon="5.50431">
        <ele>235.90358</ele>
        <time>2014-05-28T09:48:15Z</time>
      </trkpt>
      <trkpt lat="43.2274" lon="5.50427">
        <ele>235.90358</ele>
        <time>2014-05-28T09:48:19Z</time>
      </trkpt>
      <trkpt lat="43.22736" lon="5.50422">
        <ele>237.21684</ele>
        <time>2014-05-28T09:48:25Z</time>
      </trkpt>
      <trkpt lat="43.22734" lon="5.5042">
        <ele>237.21684</ele>
        <time>2014-05-28T09:48:29Z</time>
      </trkpt>
      <trkpt lat="43.22731" lon="5.50419">
        <ele>237.21684</ele>
        <time>2014-05-28T09:48:35Z</time>
      </trkpt>
      <trkpt lat="43.22729" lon="5.50418">
        <ele>237.21684</ele>
        <time>2014-05-28T09:48:38Z</time>
      </trkpt>
      <trkpt lat="43.22726" lon="5.50415">
        <ele>239.25711</ele>
        <time>2014-05-28T09:48:48Z</time>
      </trkpt>
      <trkpt lat="43.22724" lon="5.50412">
        <ele>239.25711</ele>
        <time>2014-05-28T09:48:48Z</time>
      </trkpt>
      <trkpt lat="43.2272" lon="5.5041">
        <ele>239.25711</ele>
        <time>2014-05-28T09:48:56Z</time>
      </trkpt>
      <trkpt lat="43.22717" lon="5.50407">
        <ele>241.44849</ele>
        <time>2014-05-28T09:48:59Z</time>
      </trkpt>
      <trkpt lat="43.22716" lon="5.50404">
        <ele>241.44849</ele>
        <time>2014-05-28T09:49:04Z</time>
      </trkpt>
      <trkpt lat="43.22714" lon="5.50401">
        <ele>241.44849</ele>
        <time>2014-05-28T09:49:08Z</time>
      </trkpt>
      <trkpt lat="43.22713" lon="5.504">
        <ele>241.44849</ele>
        <time>2014-05-28T09:49:15Z</time>
      </trkpt>
      <trkpt lat="43.22708" lon="5.50395">
        <ele>243.66043</ele>
        <time>2014-05-28T09:49:24Z</time>
      </trkpt>
      <trkpt lat="43.22703" lon="5.50392">
        <ele>243.66043</ele>
        <time>2014-05-28T09:49:30Z</time>
      </trkpt>
      <trkpt lat="43.22702" lon="5.50391">
        <ele>243.66043</ele>
        <time>2014-05-28T09:49:34Z</time>
      </trkpt>
      <trkpt lat="43.22702" lon="5.50391">
        <ele>243.66043</ele>
        <time>2014-05-28T09:49:38Z</time>
      </trkpt>
      <trkpt lat="43.22694" lon="5.504">
        <ele>245.8729</ele>
        <time>2014-05-28T09:51:00Z</time>
      </trkpt>
      <trkpt lat="43.22698" lon="5.504">
        <ele>245.8729</ele>
        <time>2014-05-28T09:51:19Z</time>
      </trkpt>
      <trkpt lat="43.22703" lon="5.50395">
        <ele>247.8944</ele>
        <time>2014-05-28T09:51:23Z</time>
      </trkpt>
      <trkpt lat="43.22706" lon="5.50392">
        <ele>247.8944</ele>
        <time>2014-05-28T09:51:28Z</time>
      </trkpt>
      <trkpt lat="43.22707" lon="5.50388">
        <ele>247.8944</ele>
        <time>2014-05-28T09:51:33Z</time>
      </trkpt>
      <trkpt lat="43.22706" lon="5.50385">
        <ele>249.76427</ele>
        <time>2014-05-28T09:51:38Z</time>
      </trkpt>
      <trkpt lat="43.22703" lon="5.50379">
        <ele>249.76427</ele>
        <time>2014-05-28T09:51:43Z</time>
      </trkpt>
      <trkpt lat="43.227" lon="5.50375">
        <ele>249.76427</ele>
        <time>2014-05-28T09:51:48Z</time>
      </trkpt>
      <trkpt lat="43.22697" lon="5.50372">
        <ele>251.63477</ele>
        <time>2014-05-28T09:51:53Z</time>
      </trkpt>
      <trkpt lat="43.22694" lon="5.50369">
        <ele>251.63477</ele>
        <time>2014-05-28T09:51:58Z</time>
      </trkpt>
      <trkpt lat="43.22691" lon="5.50364">
        <ele>251.63477</ele>
        <time>2014-05-28T09:52:03Z</time>
      </trkpt>
      <trkpt lat="43.22688" lon="5.50359">
        <ele>253.44524</ele>
        <time>2014-05-28T09:52:08Z</time>
      </trkpt>
      <trkpt lat="43.22684" lon="5.50352">
        <ele>253.44524</ele>
        <time>2014-05-28T09:52:13Z</time>
      </trkpt>
      <trkpt lat="43.22681" lon="5.50347">
        <ele>255.08208</ele>
        <time>2014-05-28T09:52:18Z</time>
      </trkpt>
      <trkpt lat="43.22677" lon="5.50341">
        <ele>255.08208</ele>
        <time>2014-05-28T09:52:23Z</time>
      </trkpt>
      <trkpt lat="43.22674" lon="5.50336">
        <ele>256.5559</ele>
        <time>2014-05-28T09:52:28Z</time>
      </trkpt>
      <trkpt lat="43.22671" lon="5.50331">
        <ele>256.5559</ele>
        <time>2014-05-28T09:52:33Z</time>
      </trkpt>
      <trkpt lat="43.22667" lon="5.50324">
        <ele>257.81943</ele>
        <time>2014-05-28T09:52:41Z</time>
      </trkpt>
      <trkpt lat="43.22664" lon="5.50319">
        <ele>257.81943</ele>
        <time>2014-05-28T09:52:44Z</time>
      </trkpt>
      <trkpt lat="43.2266" lon="5.50313">
        <ele>258.90152</ele>
        <time>2014-05-28T09:52:50Z</time>
      </trkpt>
      <trkpt lat="43.22657" lon="5.50308">
        <ele>258.90152</ele>
        <time>2014-05-28T09:52:55Z</time>
      </trkpt>
      <trkpt lat="43.22653" lon="5.50303">
        <ele>259.82956</ele>
        <time>2014-05-28T09:52:59Z</time>
      </trkpt>
      <trkpt lat="43.2265" lon="5.50299">
        <ele>259.82956</ele>
        <time>2014-05-28T09:53:03Z</time>
      </trkpt>
      <trkpt lat="43.22646" lon="5.50293">
        <ele>260.60056</ele>
        <time>2014-05-28T09:53:10Z</time>
      </trkpt>
      <trkpt lat="43.22644" lon="5.5029">
        <ele>260.60056</ele>
        <time>2014-05-28T09:53:14Z</time>
      </trkpt>
      <trkpt lat="43.22639" lon="5.50282">
        <ele>261.19785</ele>
        <time>2014-05-28T09:53:20Z</time>
      </trkpt>
      <trkpt lat="43.22634" lon="5.5028">
        <ele>261.19785</ele>
        <time>2014-05-28T09:53:25Z</time>
      </trkpt>
      <trkpt lat="43.22631" lon="5.50278">
        <ele>261.19785</ele>
        <time>2014-05-28T09:53:30Z</time>
      </trkpt>
      <trkpt lat="43.22627" lon="5.50278">
        <ele>261.59213</ele>
        <time>2014-05-28T09:53:33Z</time>
      </trkpt>
      <trkpt lat="43.2262" lon="5.50277">
        <ele>261.59213</ele>
        <time>2014-05-28T09:53:41Z</time>
      </trkpt>
      <trkpt lat="43.22616" lon="5.50275">
        <ele>261.8577</ele>
        <time>2014-05-28T09:53:44Z</time>
      </trkpt>
      <trkpt lat="43.22612" lon="5.50275">
        <ele>261.8577</ele>
        <time>2014-05-28T09:53:50Z</time>
      </trkpt>
      <trkpt lat="43.22605" lon="5.50277">
        <ele>262.0062</ele>
        <time>2014-05-28T09:53:55Z</time>
      </trkpt>
      <trkpt lat="43.226" lon="5.50276">
        <ele>262.0062</ele>
        <time>2014-05-28T09:54:00Z</time>
      </trkpt>
      <trkpt lat="43.22595" lon="5.50275">
        <ele>262.06317</ele>
        <time>2014-05-28T09:54:03Z</time>
      </trkpt>
      <trkpt lat="43.2259" lon="5.50277">
        <ele>262.06317</ele>
        <time>2014-05-28T09:54:09Z</time>
      </trkpt>
      <trkpt lat="43.22584" lon="5.50277">
        <ele>262.02374</ele>
        <time>2014-05-28T09:54:15Z</time>
      </trkpt>
      <trkpt lat="43.22582" lon="5.50278">
        <ele>262.02374</ele>
        <time>2014-05-28T09:54:20Z</time>
      </trkpt>
      <trkpt lat="43.22575" lon="5.50279">
        <ele>261.94128</ele>
        <time>2014-05-28T09:54:25Z</time>
      </trkpt>
      <trkpt lat="43.22569" lon="5.50278">
        <ele>261.94128</ele>
        <time>2014-05-28T09:54:29Z</time>
      </trkpt>
      <trkpt lat="43.22565" lon="5.50277">
        <ele>261.75015</ele>
        <time>2014-05-28T09:54:34Z</time>
      </trkpt>
      <trkpt lat="43.22558" lon="5.50278">
        <ele>261.75015</ele>
        <time>2014-05-28T09:54:40Z</time>
      </trkpt>
      <trkpt lat="43.22555" lon="5.50278">
        <ele>261.3897</ele>
        <time>2014-05-28T09:54:44Z</time>
      </trkpt>
      <trkpt lat="43.22548" lon="5.50277">
        <ele>261.3897</ele>
        <time>2014-05-28T09:54:50Z</time>
      </trkpt>
      <trkpt lat="43.22543" lon="5.50276">
        <ele>260.89078</ele>
        <time>2014-05-28T09:54:55Z</time>
      </trkpt>
      <trkpt lat="43.22538" lon="5.50274">
        <ele>260.89078</ele>
        <time>2014-05-28T09:54:59Z</time>
      </trkpt>
      <trkpt lat="43.22533" lon="5.50274">
        <ele>260.2823</ele>
        <time>2014-05-28T09:55:04Z</time>
      </trkpt>
      <trkpt lat="43.22527" lon="5.50275">
        <ele>260.2823</ele>
        <time>2014-05-28T09:55:10Z</time>
      </trkpt>
      <trkpt lat="43.22523" lon="5.50276">
        <ele>259.49036</ele>
        <time>2014-05-28T09:55:15Z</time>
      </trkpt>
      <trkpt lat="43.22517" lon="5.50276">
        <ele>259.49036</ele>
        <time>2014-05-28T09:55:20Z</time>
      </trkpt>
      <trkpt lat="43.22512" lon="5.50275">
        <ele>258.70642</ele>
        <time>2014-05-28T09:55:25Z</time>
      </trkpt>
      <trkpt lat="43.22508" lon="5.50276">
        <ele>258.70642</ele>
        <time>2014-05-28T09:55:29Z</time>
      </trkpt>
      <trkpt lat="43.22504" lon="5.50276">
        <ele>258.70642</ele>
        <time>2014-05-28T09:55:34Z</time>
      </trkpt>
      <trkpt lat="43.22496" lon="5.50277">
        <ele>257.8916</ele>
        <time>2014-05-28T09:55:40Z</time>
      </trkpt>
      <trkpt lat="43.22492" lon="5.50276">
        <ele>257.8916</ele>
        <time>2014-05-28T09:55:45Z</time>
      </trkpt>
      <trkpt lat="43.22487" lon="5.50276">
        <ele>257.8916</ele>
        <time>2014-05-28T09:55:50Z</time>
      </trkpt>
      <trkpt lat="43.22482" lon="5.50276">
        <ele>257.02435</ele>
        <time>2014-05-28T09:55:55Z</time>
      </trkpt>
      <trkpt lat="43.22477" lon="5.50275">
        <ele>257.02435</ele>
        <time>2014-05-28T09:55:59Z</time>
      </trkpt>
      <trkpt lat="43.22473" lon="5.50276">
        <ele>257.02435</ele>
        <time>2014-05-28T09:56:04Z</time>
      </trkpt>
      <trkpt lat="43.22469" lon="5.50275">
        <ele>256.08472</ele>
        <time>2014-05-28T09:56:10Z</time>
      </trkpt>
      <trkpt lat="43.22464" lon="5.50276">
        <ele>256.08472</ele>
        <time>2014-05-28T09:56:15Z</time>
      </trkpt>
      <trkpt lat="43.22459" lon="5.50276">
        <ele>255.11195</ele>
        <time>2014-05-28T09:56:19Z</time>
      </trkpt>
      <trkpt lat="43.22454" lon="5.50276">
        <ele>255.11195</ele>
        <time>2014-05-28T09:56:24Z</time>
      </trkpt>
      <trkpt lat="43.22447" lon="5.50278">
        <ele>254.14246</ele>
        <time>2014-05-28T09:56:29Z</time>
      </trkpt>
      <trkpt lat="43.22442" lon="5.50279">
        <ele>254.14246</ele>
        <time>2014-05-28T09:56:34Z</time>
      </trkpt>
      <trkpt lat="43.22437" lon="5.50278">
        <ele>253.09453</ele>
        <time>2014-05-28T09:56:40Z</time>
      </trkpt>
      <trkpt lat="43.22436" lon="5.50275">
        <ele>253.09453</ele>
        <time>2014-05-28T09:56:45Z</time>
      </trkpt>
      <trkpt lat="43.22434" lon="5.50276">
        <ele>253.09453</ele>
        <time>2014-05-28T09:56:50Z</time>
      </trkpt>
      <trkpt lat="43.22433" lon="5.50276">
        <ele>253.09453</ele>
        <time>2014-05-28T09:56:55Z</time>
      </trkpt>
      <trkpt lat="43.2243" lon="5.50279">
        <ele>251.84937</ele>
        <time>2014-05-28T09:57:10Z</time>
      </trkpt>
      <trkpt lat="43.22429" lon="5.50279">
        <ele>251.84937</ele>
        <time>2014-05-28T09:57:15Z</time>
      </trkpt>
      <trkpt lat="43.22423" lon="5.50279">
        <ele>251.84937</ele>
        <time>2014-05-28T09:57:40Z</time>
      </trkpt>
      <trkpt lat="43.22422" lon="5.50279">
        <ele>251.84937</ele>
        <time>2014-05-28T09:57:45Z</time>
      </trkpt>
      <trkpt lat="43.22422" lon="5.50279">
        <ele>251.84937</ele>
        <time>2014-05-28T09:57:50Z</time>
      </trkpt>
      <trkpt lat="43.22419" lon="5.50279">
        <ele>250.47023</ele>
        <time>2014-05-28T09:57:55Z</time>
      </trkpt>
      <trkpt lat="43.22419" lon="5.50278">
        <ele>250.47023</ele>
        <time>2014-05-28T09:57:58Z</time>
      </trkpt>
      <trkpt lat="43.22416" lon="5.50279">
        <ele>250.47023</ele>
        <time>2014-05-28T09:58:05Z</time>
      </trkpt>
      <trkpt lat="43.22414" lon="5.50276">
        <ele>250.47023</ele>
        <time>2014-05-28T09:58:10Z</time>
      </trkpt>
      <trkpt lat="43.22411" lon="5.50272">
        <ele>249.08804</ele>
        <time>2014-05-28T09:58:15Z</time>
      </trkpt>
      <trkpt lat="43.22407" lon="5.50265">
        <ele>249.08804</ele>
        <time>2014-05-28T09:58:20Z</time>
      </trkpt>
      <trkpt lat="43.22406" lon="5.50261">
        <ele>247.72311</ele>
        <time>2014-05-28T09:58:25Z</time>
      </trkpt>
      <trkpt lat="43.22405" lon="5.50258">
        <ele>247.72311</ele>
        <time>2014-05-28T09:58:28Z</time>
      </trkpt>
      <trkpt lat="43.22402" lon="5.50255">
        <ele>247.72311</ele>
        <time>2014-05-28T09:58:35Z</time>
      </trkpt>
      <trkpt lat="43.22401" lon="5.50255">
        <ele>247.72311</ele>
        <time>2014-05-28T09:58:40Z</time>
      </trkpt>
      <trkpt lat="43.22398" lon="5.50244">
        <ele>246.1923</ele>
        <time>2014-05-28T09:58:58Z</time>
      </trkpt>
      <trkpt lat="43.22399" lon="5.50242">
        <ele>246.1923</ele>
        <time>2014-05-28T09:59:05Z</time>
      </trkpt>
      <trkpt lat="43.22398" lon="5.50234">
        <ele>246.1923</ele>
        <time>2014-05-28T09:59:15Z</time>
      </trkpt>
      <trkpt lat="43.22398" lon="5.50231">
        <ele>244.68652</ele>
        <time>2014-05-28T09:59:20Z</time>
      </trkpt>
      <trkpt lat="43.22401" lon="5.50222">
        <ele>244.68652</ele>
        <time>2014-05-28T09:59:24Z</time>
      </trkpt>
      <trkpt lat="43.22403" lon="5.50217">
        <ele>243.25275</ele>
        <time>2014-05-28T09:59:29Z</time>
      </trkpt>
      <trkpt lat="43.22401" lon="5.50207">
        <ele>243.25275</ele>
        <time>2014-05-28T09:59:36Z</time>
      </trkpt>
      <trkpt lat="43.22403" lon="5.50204">
        <ele>241.8332</ele>
        <time>2014-05-28T09:59:39Z</time>
      </trkpt>
      <trkpt lat="43.22404" lon="5.50199">
        <ele>241.8332</ele>
        <time>2014-05-28T09:59:45Z</time>
      </trkpt>
      <trkpt lat="43.22405" lon="5.50195">
        <ele>241.8332</ele>
        <time>2014-05-28T09:59:50Z</time>
      </trkpt>
      <trkpt lat="43.22405" lon="5.50189">
        <ele>240.40308</ele>
        <time>2014-05-28T09:59:54Z</time>
      </trkpt>
      <trkpt lat="43.22405" lon="5.50184">
        <ele>240.40308</ele>
        <time>2014-05-28T09:59:59Z</time>
      </trkpt>
      <trkpt lat="43.22403" lon="5.50176">
        <ele>239.04004</ele>
        <time>2014-05-28T10:00:06Z</time>
      </trkpt>
      <trkpt lat="43.22401" lon="5.50172">
        <ele>239.04004</ele>
        <time>2014-05-28T10:00:09Z</time>
      </trkpt>
      <trkpt lat="43.22397" lon="5.50166">
        <ele>237.71484</ele>
        <time>2014-05-28T10:00:15Z</time>
      </trkpt>
      <trkpt lat="43.22392" lon="5.50163">
        <ele>237.71484</ele>
        <time>2014-05-28T10:00:20Z</time>
      </trkpt>
      <trkpt lat="43.22387" lon="5.50162">
        <ele>236.40013</ele>
        <time>2014-05-28T10:00:24Z</time>
      </trkpt>
      <trkpt lat="43.22382" lon="5.5016">
        <ele>236.40013</ele>
        <time>2014-05-28T10:00:30Z</time>
      </trkpt>
      <trkpt lat="43.22378" lon="5.50157">
        <ele>235.11357</ele>
        <time>2014-05-28T10:00:35Z</time>
      </trkpt>
      <trkpt lat="43.22375" lon="5.50156">
        <ele>235.11357</ele>
        <time>2014-05-28T10:00:39Z</time>
      </trkpt>
      <trkpt lat="43.22369" lon="5.50158">
        <ele>233.85689</ele>
        <time>2014-05-28T10:00:46Z</time>
      </trkpt>
      <trkpt lat="43.22363" lon="5.50158">
        <ele>233.85689</ele>
        <time>2014-05-28T10:00:49Z</time>
      </trkpt>
      <trkpt lat="43.22359" lon="5.50158">
        <ele>232.68906</ele>
        <time>2014-05-28T10:00:54Z</time>
      </trkpt>
      <trkpt lat="43.22354" lon="5.50158">
        <ele>232.68906</ele>
        <time>2014-05-28T10:00:59Z</time>
      </trkpt>
      <trkpt lat="43.22349" lon="5.5016">
        <ele>231.6067</ele>
        <time>2014-05-28T10:01:05Z</time>
      </trkpt>
      <trkpt lat="43.22344" lon="5.50159">
        <ele>231.6067</ele>
        <time>2014-05-28T10:01:10Z</time>
      </trkpt>
      <trkpt lat="43.2234" lon="5.5016">
        <ele>230.53418</ele>
        <time>2014-05-28T10:01:14Z</time>
      </trkpt>
      <trkpt lat="43.22334" lon="5.50162">
        <ele>230.53418</ele>
        <time>2014-05-28T10:01:20Z</time>
      </trkpt>
      <trkpt lat="43.22329" lon="5.50166">
        <ele>229.50215</ele>
        <time>2014-05-28T10:01:24Z</time>
      </trkpt>
      <trkpt lat="43.22324" lon="5.50167">
        <ele>229.50215</ele>
        <time>2014-05-28T10:01:30Z</time>
      </trkpt>
      <trkpt lat="43.22319" lon="5.50168">
        <ele>228.46667</ele>
        <time>2014-05-28T10:01:35Z</time>
      </trkpt>
      <trkpt lat="43.22315" lon="5.50171">
        <ele>228.46667</ele>
        <time>2014-05-28T10:01:40Z</time>
      </trkpt>
      <trkpt lat="43.22312" lon="5.50172">
        <ele>228.46667</ele>
        <time>2014-05-28T10:01:47Z</time>
      </trkpt>
      <trkpt lat="43.22308" lon="5.50174">
        <ele>227.45894</ele>
        <time>2014-05-28T10:01:49Z</time>
      </trkpt>
      <trkpt lat="43.22306" lon="5.50176">
        <ele>227.45894</ele>
        <time>2014-05-28T10:01:54Z</time>
      </trkpt>
      <trkpt lat="43.22306" lon="5.50177">
        <ele>227.45894</ele>
        <time>2014-05-28T10:02:02Z</time>
      </trkpt>
      <trkpt lat="43.22298" lon="5.50182">
        <ele>225.90239</ele>
        <time>2014-05-28T10:04:01Z</time>
      </trkpt>
      <trkpt lat="43.22298" lon="5.50183">
        <ele>225.90239</ele>
        <time>2014-05-28T10:04:04Z</time>
      </trkpt>
      <trkpt lat="43.22297" lon="5.5018">
        <ele>225.90239</ele>
        <time>2014-05-28T10:05:40Z</time>
      </trkpt>
      <trkpt lat="43.22296" lon="5.50179">
        <ele>225.90239</ele>
        <time>2014-05-28T10:05:45Z</time>
      </trkpt>
      <trkpt lat="43.22291" lon="5.50181">
        <ele>224.20091</ele>
        <time>2014-05-28T10:05:55Z</time>
      </trkpt>
      <trkpt lat="43.22288" lon="5.50182">
        <ele>224.20091</ele>
        <time>2014-05-28T10:06:00Z</time>
      </trkpt>
      <trkpt lat="43.22286" lon="5.50183">
        <ele>224.20091</ele>
        <time>2014-05-28T10:06:05Z</time>
      </trkpt>
      <trkpt lat="43.22281" lon="5.50183">
        <ele>222.61372</ele>
        <time>2014-05-28T10:06:10Z</time>
      </trkpt>
      <trkpt lat="43.22278" lon="5.50183">
        <ele>222.61372</ele>
        <time>2014-05-28T10:06:15Z</time>
      </trkpt>
      <trkpt lat="43.22273" lon="5.50185">
        <ele>222.61372</ele>
        <time>2014-05-28T10:06:19Z</time>
      </trkpt>
      <trkpt lat="43.22269" lon="5.50186">
        <ele>221.12114</ele>
        <time>2014-05-28T10:06:25Z</time>
      </trkpt>
      <trkpt lat="43.22261" lon="5.50186">
        <ele>221.12114</ele>
        <time>2014-05-28T10:06:30Z</time>
      </trkpt>
      <trkpt lat="43.22257" lon="5.50186">
        <ele>219.77657</ele>
        <time>2014-05-28T10:06:35Z</time>
      </trkpt>
      <trkpt lat="43.22254" lon="5.5018">
        <ele>219.77657</ele>
        <time>2014-05-28T10:06:40Z</time>
      </trkpt>
      <trkpt lat="43.22251" lon="5.50172">
        <ele>218.61453</ele>
        <time>2014-05-28T10:06:45Z</time>
      </trkpt>
      <trkpt lat="43.22247" lon="5.50167">
        <ele>218.61453</ele>
        <time>2014-05-28T10:06:48Z</time>
      </trkpt>
      <trkpt lat="43.22246" lon="5.50163">
        <ele>218.61453</ele>
        <time>2014-05-28T10:06:55Z</time>
      </trkpt>
      <trkpt lat="43.22245" lon="5.50158">
        <ele>217.55107</ele>
        <time>2014-05-28T10:07:00Z</time>
      </trkpt>
      <trkpt lat="43.22243" lon="5.50154">
        <ele>217.55107</ele>
        <time>2014-05-28T10:07:05Z</time>
      </trkpt>
      <trkpt lat="43.2224" lon="5.5015">
        <ele>217.55107</ele>
        <time>2014-05-28T10:07:12Z</time>
      </trkpt>
      <trkpt lat="43.22237" lon="5.50146">
        <ele>216.59451</ele>
        <time>2014-05-28T10:07:14Z</time>
      </trkpt>
      <trkpt lat="43.22233" lon="5.5014">
        <ele>216.59451</ele>
        <time>2014-05-28T10:07:19Z</time>
      </trkpt>
      <trkpt lat="43.22229" lon="5.50136">
        <ele>215.8818</ele>
        <time>2014-05-28T10:07:25Z</time>
      </trkpt>
      <trkpt lat="43.22227" lon="5.50133">
        <ele>215.8818</ele>
        <time>2014-05-28T10:07:30Z</time>
      </trkpt>
      <trkpt lat="43.22224" lon="5.50128">
        <ele>215.8818</ele>
        <time>2014-05-28T10:07:34Z</time>
      </trkpt>
      <trkpt lat="43.22222" lon="5.50125">
        <ele>215.32289</ele>
        <time>2014-05-28T10:07:40Z</time>
      </trkpt>
      <trkpt lat="43.22222" lon="5.50124">
        <ele>215.32289</ele>
        <time>2014-05-28T10:07:45Z</time>
      </trkpt>
      <trkpt lat="43.22219" lon="5.50117">
        <ele>215.32289</ele>
        <time>2014-05-28T10:08:10Z</time>
      </trkpt>
      <trkpt lat="43.22216" lon="5.50114">
        <ele>214.89142</ele>
        <time>2014-05-28T10:08:14Z</time>
      </trkpt>
      <trkpt lat="43.22212" lon="5.50113">
        <ele>214.89142</ele>
        <time>2014-05-28T10:08:19Z</time>
      </trkpt>
      <trkpt lat="43.22204" lon="5.50111">
        <ele>214.59138</ele>
        <time>2014-05-28T10:08:26Z</time>
      </trkpt>
      <trkpt lat="43.222" lon="5.50111">
        <ele>214.59138</ele>
        <time>2014-05-28T10:08:29Z</time>
      </trkpt>
      <trkpt lat="43.22196" lon="5.5011">
        <ele>214.59138</ele>
        <time>2014-05-28T10:08:35Z</time>
      </trkpt>
      <trkpt lat="43.22192" lon="5.50109">
        <ele>214.35394</ele>
        <time>2014-05-28T10:08:40Z</time>
      </trkpt>
      <trkpt lat="43.22188" lon="5.50108">
        <ele>214.35394</ele>
        <time>2014-05-28T10:08:44Z</time>
      </trkpt>
      <trkpt lat="43.22186" lon="5.50107">
        <ele>214.35394</ele>
        <time>2014-05-28T10:08:49Z</time>
      </trkpt>
      <trkpt lat="43.22179" lon="5.50104">
        <ele>214.15831</ele>
        <time>2014-05-28T10:08:55Z</time>
      </trkpt>
      <trkpt lat="43.22177" lon="5.50103">
        <ele>214.15831</ele>
        <time>2014-05-28T10:08:59Z</time>
      </trkpt>
      <trkpt lat="43.22171" lon="5.50103">
        <ele>213.97066</ele>
        <time>2014-05-28T10:09:05Z</time>
      </trkpt>
      <trkpt lat="43.22167" lon="5.501">
        <ele>213.97066</ele>
        <time>2014-05-28T10:09:10Z</time>
      </trkpt>
      <trkpt lat="43.22163" lon="5.50101">
        <ele>213.97066</ele>
        <time>2014-05-28T10:09:14Z</time>
      </trkpt>
      <trkpt lat="43.2216" lon="5.50101">
        <ele>213.67307</ele>
        <time>2014-05-28T10:09:19Z</time>
      </trkpt>
      <trkpt lat="43.22155" lon="5.50103">
        <ele>213.67307</ele>
        <time>2014-05-28T10:09:26Z</time>
      </trkpt>
      <trkpt lat="43.22152" lon="5.50105">
        <ele>213.67307</ele>
        <time>2014-05-28T10:09:29Z</time>
      </trkpt>
      <trkpt lat="43.22149" lon="5.50107">
        <ele>213.28625</ele>
        <time>2014-05-28T10:09:35Z</time>
      </trkpt>
      <trkpt lat="43.22147" lon="5.50108">
        <ele>213.28625</ele>
        <time>2014-05-28T10:09:40Z</time>
      </trkpt>
      <trkpt lat="43.22144" lon="5.50109">
        <ele>213.28625</ele>
        <time>2014-05-28T10:09:44Z</time>
      </trkpt>
      <trkpt lat="43.22142" lon="5.50107">
        <ele>213.28625</ele>
        <time>2014-05-28T10:09:49Z</time>
      </trkpt>
      <trkpt lat="43.22137" lon="5.50101">
        <ele>212.6423</ele>
        <time>2014-05-28T10:09:55Z</time>
      </trkpt>
      <trkpt lat="43.22136" lon="5.50097">
        <ele>212.6423</ele>
        <time>2014-05-28T10:09:59Z</time>
      </trkpt>
      <trkpt lat="43.22136" lon="5.50095">
        <ele>212.6423</ele>
        <time>2014-05-28T10:10:05Z</time>
      </trkpt>
      <trkpt lat="43.22135" lon="5.5009">
        <ele>212.6423</ele>
        <time>2014-05-28T10:10:10Z</time>
      </trkpt>
      <trkpt lat="43.22134" lon="5.50084">
        <ele>211.88896</ele>
        <time>2014-05-28T10:10:14Z</time>
      </trkpt>
      <trkpt lat="43.22131" lon="5.50077">
        <ele>211.88896</ele>
        <time>2014-05-28T10:10:19Z</time>
      </trkpt>
      <trkpt lat="43.2213" lon="5.50069">
        <ele>211.13457</ele>
        <time>2014-05-28T10:10:25Z</time>
      </trkpt>
      <trkpt lat="43.2213" lon="5.50068">
        <ele>211.13457</ele>
        <time>2014-05-28T10:10:30Z</time>
      </trkpt>
      <trkpt lat="43.22129" lon="5.50055">
        <ele>210.40744</ele>
        <time>2014-05-28T10:10:35Z</time>
      </trkpt>
      <trkpt lat="43.22129" lon="5.50048">
        <ele>210.40744</ele>
        <time>2014-05-28T10:10:40Z</time>
      </trkpt>
      <trkpt lat="43.22129" lon="5.5004">
        <ele>209.69049</ele>
        <time>2014-05-28T10:10:44Z</time>
      </trkpt>
      <trkpt lat="43.22129" lon="5.50033">
        <ele>209.69049</ele>
        <time>2014-05-28T10:10:49Z</time>
      </trkpt>
      <trkpt lat="43.22129" lon="5.50026">
        <ele>208.99666</ele>
        <time>2014-05-28T10:10:55Z</time>
      </trkpt>
      <trkpt lat="43.22128" lon="5.50019">
        <ele>208.99666</ele>
        <time>2014-05-28T10:11:00Z</time>
      </trkpt>
      <trkpt lat="43.22127" lon="5.50012">
        <ele>208.2082</ele>
        <time>2014-05-28T10:11:05Z</time>
      </trkpt>
      <trkpt lat="43.22126" lon="5.50005">
        <ele>208.2082</ele>
        <time>2014-05-28T10:11:10Z</time>
      </trkpt>
      <trkpt lat="43.22125" lon="5.49999">
        <ele>207.37476</ele>
        <time>2014-05-28T10:11:13Z</time>
      </trkpt>
      <trkpt lat="43.22123" lon="5.49991">
        <ele>207.37476</ele>
        <time>2014-05-28T10:11:20Z</time>
      </trkpt>
      <trkpt lat="43.22123" lon="5.49982">
        <ele>206.54247</ele>
        <time>2014-05-28T10:11:25Z</time>
      </trkpt>
      <trkpt lat="43.22122" lon="5.49975">
        <ele>206.54247</ele>
        <time>2014-05-28T10:11:30Z</time>
      </trkpt>
      <trkpt lat="43.22124" lon="5.4997">
        <ele>205.71083</ele>
        <time>2014-05-28T10:11:35Z</time>
      </trkpt>
      <trkpt lat="43.22124" lon="5.49965">
        <ele>205.71083</ele>
        <time>2014-05-28T10:11:40Z</time>
      </trkpt>
      <trkpt lat="43.22125" lon="5.4996">
        <ele>205.71083</ele>
        <time>2014-05-28T10:11:43Z</time>
      </trkpt>
      <trkpt lat="43.22126" lon="5.4995">
        <ele>204.83617</ele>
        <time>2014-05-28T10:11:50Z</time>
      </trkpt>
      <trkpt lat="43.22127" lon="5.49941">
        <ele>204.83617</ele>
        <time>2014-05-28T10:11:54Z</time>
      </trkpt>
      <trkpt lat="43.22129" lon="5.49935">
        <ele>203.99341</ele>
        <time>2014-05-28T10:12:00Z</time>
      </trkpt>
      <trkpt lat="43.22133" lon="5.4993">
        <ele>203.99341</ele>
        <time>2014-05-28T10:12:05Z</time>
      </trkpt>
      <trkpt lat="43.22136" lon="5.49925">
        <ele>203.12218</ele>
        <time>2014-05-28T10:12:10Z</time>
      </trkpt>
      <trkpt lat="43.22138" lon="5.49919">
        <ele>203.12218</ele>
        <time>2014-05-28T10:12:13Z</time>
      </trkpt>
      <trkpt lat="43.22142" lon="5.49912">
        <ele>202.23868</ele>
        <time>2014-05-28T10:12:21Z</time>
      </trkpt>
      <trkpt lat="43.22141" lon="5.49907">
        <ele>202.23868</ele>
        <time>2014-05-28T10:12:25Z</time>
      </trkpt>
      <trkpt lat="43.22141" lon="5.499">
        <ele>202.23868</ele>
        <time>2014-05-28T10:12:30Z</time>
      </trkpt>
      <trkpt lat="43.2214" lon="5.49894">
        <ele>201.32916</ele>
        <time>2014-05-28T10:12:35Z</time>
      </trkpt>
      <trkpt lat="43.22141" lon="5.49887">
        <ele>201.32916</ele>
        <time>2014-05-28T10:12:39Z</time>
      </trkpt>
      <trkpt lat="43.22141" lon="5.49883">
        <ele>201.32916</ele>
        <time>2014-05-28T10:12:43Z</time>
      </trkpt>
      <trkpt lat="43.22133" lon="5.49871">
        <ele>200.48181</ele>
        <time>2014-05-28T10:12:50Z</time>
      </trkpt>
      <trkpt lat="43.22132" lon="5.49869">
        <ele>200.48181</ele>
        <time>2014-05-28T10:12:54Z</time>
      </trkpt>
      <trkpt lat="43.22129" lon="5.49868">
        <ele>200.48181</ele>
        <time>2014-05-28T10:13:00Z</time>
      </trkpt>
      <trkpt lat="43.22125" lon="5.49869">
        <ele>199.76376</ele>
        <time>2014-05-28T10:13:05Z</time>
      </trkpt>
      <trkpt lat="43.22121" lon="5.4987">
        <ele>199.76376</ele>
        <time>2014-05-28T10:13:09Z</time>
      </trkpt>
      <trkpt lat="43.22118" lon="5.49871">
        <ele>199.76376</ele>
        <time>2014-05-28T10:13:13Z</time>
      </trkpt>
      <trkpt lat="43.22111" lon="5.49874">
        <ele>199.20807</ele>
        <time>2014-05-28T10:13:20Z</time>
      </trkpt>
      <trkpt lat="43.22107" lon="5.49874">
        <ele>199.20807</ele>
        <time>2014-05-28T10:13:25Z</time>
      </trkpt>
      <trkpt lat="43.22103" lon="5.49875">
        <ele>199.20807</ele>
        <time>2014-05-28T10:13:30Z</time>
      </trkpt>
      <trkpt lat="43.22101" lon="5.49878">
        <ele>198.91692</ele>
        <time>2014-05-28T10:13:35Z</time>
      </trkpt>
      <trkpt lat="43.22096" lon="5.49878">
        <ele>198.91692</ele>
        <time>2014-05-28T10:13:40Z</time>
      </trkpt>
      <trkpt lat="43.22091" lon="5.49877">
        <ele>198.84018</ele>
        <time>2014-05-28T10:13:44Z</time>
      </trkpt>
      <trkpt lat="43.22079" lon="5.49878">
        <ele>198.88757</ele>
        <time>2014-05-28T10:13:50Z</time>
      </trkpt>
      <trkpt lat="43.22077" lon="5.49878">
        <ele>198.88757</ele>
        <time>2014-05-28T10:13:54Z</time>
      </trkpt>
      <trkpt lat="43.2207" lon="5.49882">
        <ele>199.11923</ele>
        <time>2014-05-28T10:14:00Z</time>
      </trkpt>
      <trkpt lat="43.22066" lon="5.49883">
        <ele>199.11923</ele>
        <time>2014-05-28T10:14:05Z</time>
      </trkpt>
      <trkpt lat="43.22061" lon="5.49884">
        <ele>199.40306</ele>
        <time>2014-05-28T10:14:09Z</time>
      </trkpt>
      <trkpt lat="43.22056" lon="5.49885">
        <ele>199.40306</ele>
        <time>2014-05-28T10:14:14Z</time>
      </trkpt>
      <trkpt lat="43.22051" lon="5.49885">
        <ele>199.7174</ele>
        <time>2014-05-28T10:14:20Z</time>
      </trkpt>
      <trkpt lat="43.22045" lon="5.49888">
        <ele>199.7174</ele>
        <time>2014-05-28T10:14:25Z</time>
      </trkpt>
      <trkpt lat="43.22039" lon="5.49891">
        <ele>200.08542</ele>
        <time>2014-05-28T10:14:29Z</time>
      </trkpt>
      <trkpt lat="43.22033" lon="5.49894">
        <ele>200.08542</ele>
        <time>2014-05-28T10:14:35Z</time>
      </trkpt>
      <trkpt lat="43.22029" lon="5.49898">
        <ele>200.47081</ele>
        <time>2014-05-28T10:14:39Z</time>
      </trkpt>
      <trkpt lat="43.22023" lon="5.49902">
        <ele>200.47081</ele>
        <time>2014-05-28T10:14:44Z</time>
      </trkpt>
      <trkpt lat="43.22018" lon="5.49907">
        <ele>200.85432</ele>
        <time>2014-05-28T10:14:51Z</time>
      </trkpt>
      <trkpt lat="43.22014" lon="5.49909">
        <ele>200.85432</ele>
        <time>2014-05-28T10:14:54Z</time>
      </trkpt>
      <trkpt lat="43.22007" lon="5.49913">
        <ele>201.23268</ele>
        <time>2014-05-28T10:15:00Z</time>
      </trkpt>
      <trkpt lat="43.22003" lon="5.49914">
        <ele>201.23268</ele>
        <time>2014-05-28T10:15:05Z</time>
      </trkpt>
      <trkpt lat="43.21998" lon="5.49915">
        <ele>201.63167</ele>
        <time>2014-05-28T10:15:09Z</time>
      </trkpt>
      <trkpt lat="43.21992" lon="5.49915">
        <ele>201.63167</ele>
        <time>2014-05-28T10:15:15Z</time>
      </trkpt>
      <trkpt lat="43.21984" lon="5.49915">
        <ele>202.01761</ele>
        <time>2014-05-28T10:15:20Z</time>
      </trkpt>
      <trkpt lat="43.21979" lon="5.49915">
        <ele>202.01761</ele>
        <time>2014-05-28T10:15:25Z</time>
      </trkpt>
      <trkpt lat="43.21974" lon="5.49914">
        <ele>202.44583</ele>
        <time>2014-05-28T10:15:30Z</time>
      </trkpt>
      <trkpt lat="43.21968" lon="5.49914">
        <ele>202.44583</ele>
        <time>2014-05-28T10:15:35Z</time>
      </trkpt>
      <trkpt lat="43.21964" lon="5.49913">
        <ele>202.95322</ele>
        <time>2014-05-28T10:15:39Z</time>
      </trkpt>
      <trkpt lat="43.21959" lon="5.4991">
        <ele>202.95322</ele>
        <time>2014-05-28T10:15:44Z</time>
      </trkpt>
      <trkpt lat="43.21955" lon="5.49907">
        <ele>203.50168</ele>
        <time>2014-05-28T10:15:50Z</time>
      </trkpt>
      <trkpt lat="43.21951" lon="5.49901">
        <ele>203.50168</ele>
        <time>2014-05-28T10:15:55Z</time>
      </trkpt>
      <trkpt lat="43.21945" lon="5.49897">
        <ele>204.04153</ele>
        <time>2014-05-28T10:15:59Z</time>
      </trkpt>
      <trkpt lat="43.21941" lon="5.49892">
        <ele>204.04153</ele>
        <time>2014-05-28T10:16:04Z</time>
      </trkpt>
      <trkpt lat="43.21936" lon="5.49887">
        <ele>204.51244</ele>
        <time>2014-05-28T10:16:09Z</time>
      </trkpt>
      <trkpt lat="43.21932" lon="5.49883">
        <ele>204.51244</ele>
        <time>2014-05-28T10:16:14Z</time>
      </trkpt>
      <trkpt lat="43.21927" lon="5.49878">
        <ele>204.95966</ele>
        <time>2014-05-28T10:16:20Z</time>
      </trkpt>
      <trkpt lat="43.21924" lon="5.49874">
        <ele>204.95966</ele>
        <time>2014-05-28T10:16:25Z</time>
      </trkpt>
      <trkpt lat="43.21918" lon="5.49869">
        <ele>205.3244</ele>
        <time>2014-05-28T10:16:30Z</time>
      </trkpt>
      <trkpt lat="43.21914" lon="5.49863">
        <ele>205.3244</ele>
        <time>2014-05-28T10:16:35Z</time>
      </trkpt>
      <trkpt lat="43.2191" lon="5.49861">
        <ele>205.61018</ele>
        <time>2014-05-28T10:16:38Z</time>
      </trkpt>
      <trkpt lat="43.21904" lon="5.49856">
        <ele>205.61018</ele>
        <time>2014-05-28T10:16:45Z</time>
      </trkpt>
      <trkpt lat="43.219" lon="5.49853">
        <ele>205.80618</ele>
        <time>2014-05-28T10:16:50Z</time>
      </trkpt>
      <trkpt lat="43.21898" lon="5.49851">
        <ele>205.80618</ele>
        <time>2014-05-28T10:16:55Z</time>
      </trkpt>
      <trkpt lat="43.21895" lon="5.49847">
        <ele>205.80618</ele>
        <time>2014-05-28T10:17:00Z</time>
      </trkpt>
      <trkpt lat="43.21891" lon="5.49842">
        <ele>205.84506</ele>
        <time>2014-05-28T10:17:05Z</time>
      </trkpt>
      <trkpt lat="43.21888" lon="5.49836">
        <ele>205.84506</ele>
        <time>2014-05-28T10:17:08Z</time>
      </trkpt>
      <trkpt lat="43.21884" lon="5.49827">
        <ele>205.80908</ele>
        <time>2014-05-28T10:17:16Z</time>
      </trkpt>
      <trkpt lat="43.21884" lon="5.49822">
        <ele>205.80908</ele>
        <time>2014-05-28T10:17:19Z</time>
      </trkpt>
      <trkpt lat="43.21885" lon="5.49817">
        <ele>205.80908</ele>
        <time>2014-05-28T10:17:25Z</time>
      </trkpt>
      <trkpt lat="43.21887" lon="5.49812">
        <ele>205.7027</ele>
        <time>2014-05-28T10:17:30Z</time>
      </trkpt>
      <trkpt lat="43.21889" lon="5.49806">
        <ele>205.7027</ele>
        <time>2014-05-28T10:17:35Z</time>
      </trkpt>
      <trkpt lat="43.2189" lon="5.49801">
        <ele>205.7027</ele>
        <time>2014-05-28T10:17:38Z</time>
      </trkpt>
      <trkpt lat="43.21893" lon="5.49794">
        <ele>205.54475</ele>
        <time>2014-05-28T10:17:45Z</time>
      </trkpt>
      <trkpt lat="43.21895" lon="5.49789">
        <ele>205.54475</ele>
        <time>2014-05-28T10:17:49Z</time>
      </trkpt>
      <trkpt lat="43.21896" lon="5.49783">
        <ele>205.35292</ele>
        <time>2014-05-28T10:17:55Z</time>
      </trkpt>
      <trkpt lat="43.21899" lon="5.49778">
        <ele>205.35292</ele>
        <time>2014-05-28T10:18:00Z</time>
      </trkpt>
      <trkpt lat="43.21904" lon="5.49771">
        <ele>205.12935</ele>
        <time>2014-05-28T10:18:05Z</time>
      </trkpt>
      <trkpt lat="43.21908" lon="5.49766">
        <ele>205.12935</ele>
        <time>2014-05-28T10:18:09Z</time>
      </trkpt>
      <trkpt lat="43.2191" lon="5.4976">
        <ele>204.78972</ele>
        <time>2014-05-28T10:18:15Z</time>
      </trkpt>
      <trkpt lat="43.21911" lon="5.49756">
        <ele>204.78972</ele>
        <time>2014-05-28T10:18:20Z</time>
      </trkpt>
      <trkpt lat="43.21913" lon="5.49749">
        <ele>204.78972</ele>
        <time>2014-05-28T10:18:25Z</time>
      </trkpt>
      <trkpt lat="43.2191" lon="5.49743">
        <ele>204.3716</ele>
        <time>2014-05-28T10:18:30Z</time>
      </trkpt>
      <trkpt lat="43.21906" lon="5.49739">
        <ele>204.3716</ele>
        <time>2014-05-28T10:18:35Z</time>
      </trkpt>
      <trkpt lat="43.21903" lon="5.49738">
        <ele>204.3716</ele>
        <time>2014-05-28T10:18:39Z</time>
      </trkpt>
      <trkpt lat="43.21894" lon="5.49735">
        <ele>203.83801</ele>
        <time>2014-05-28T10:18:45Z</time>
      </trkpt>
      <trkpt lat="43.2189" lon="5.49734">
        <ele>203.83801</ele>
        <time>2014-05-28T10:18:49Z</time>
      </trkpt>
      <trkpt lat="43.21884" lon="5.49733">
        <ele>203.28479</ele>
        <time>2014-05-28T10:18:55Z</time>
      </trkpt>
      <trkpt lat="43.21882" lon="5.49732">
        <ele>203.28479</ele>
        <time>2014-05-28T10:18:59Z</time>
      </trkpt>
      <trkpt lat="43.21875" lon="5.49732">
        <ele>203.28479</ele>
        <time>2014-05-28T10:19:03Z</time>
      </trkpt>
      <trkpt lat="43.2187" lon="5.49733">
        <ele>202.6279</ele>
        <time>2014-05-28T10:19:09Z</time>
      </trkpt>
      <trkpt lat="43.21861" lon="5.49731">
        <ele>201.94832</ele>
        <time>2014-05-28T10:19:15Z</time>
      </trkpt>
      <trkpt lat="43.21859" lon="5.49731">
        <ele>201.94832</ele>
        <time>2014-05-28T10:19:19Z</time>
      </trkpt>
      <trkpt lat="43.21852" lon="5.49731">
        <ele>201.23473</ele>
        <time>2014-05-28T10:19:26Z</time>
      </trkpt>
      <trkpt lat="43.21848" lon="5.49732">
        <ele>201.23473</ele>
        <time>2014-05-28T10:19:29Z</time>
      </trkpt>
      <trkpt lat="43.21841" lon="5.49732">
        <ele>200.50557</ele>
        <time>2014-05-28T10:19:34Z</time>
      </trkpt>
      <trkpt lat="43.21835" lon="5.49733">
        <ele>200.50557</ele>
        <time>2014-05-28T10:19:40Z</time>
      </trkpt>
      <trkpt lat="43.21829" lon="5.49736">
        <ele>199.7492</ele>
        <time>2014-05-28T10:19:45Z</time>
      </trkpt>
      <trkpt lat="43.21822" lon="5.49735">
        <ele>199.7492</ele>
        <time>2014-05-28T10:19:50Z</time>
      </trkpt>
      <trkpt lat="43.21817" lon="5.49738">
        <ele>198.89726</ele>
        <time>2014-05-28T10:19:55Z</time>
      </trkpt>
      <trkpt lat="43.21812" lon="5.49739">
        <ele>198.89726</ele>
        <time>2014-05-28T10:20:00Z</time>
      </trkpt>
      <trkpt lat="43.21808" lon="5.49738">
        <ele>198.01639</ele>
        <time>2014-05-28T10:20:04Z</time>
      </trkpt>
      <trkpt lat="43.21805" lon="5.49733">
        <ele>198.01639</ele>
        <time>2014-05-28T10:20:10Z</time>
      </trkpt>
      <trkpt lat="43.21807" lon="5.49729">
        <ele>198.01639</ele>
        <time>2014-05-28T10:20:15Z</time>
      </trkpt>
      <trkpt lat="43.21808" lon="5.49729">
        <ele>198.01639</ele>
        <time>2014-05-28T10:20:20Z</time>
      </trkpt>
      <trkpt lat="43.21812" lon="5.49725">
        <ele>196.73608</ele>
        <time>2014-05-28T10:20:40Z</time>
      </trkpt>
      <trkpt lat="43.21815" lon="5.49724">
        <ele>196.73608</ele>
        <time>2014-05-28T10:20:45Z</time>
      </trkpt>
      <trkpt lat="43.21818" lon="5.49721">
        <ele>196.73608</ele>
        <time>2014-05-28T10:20:50Z</time>
      </trkpt>
      <trkpt lat="43.21822" lon="5.49715">
        <ele>195.37708</ele>
        <time>2014-05-28T10:20:55Z</time>
      </trkpt>
      <trkpt lat="43.21825" lon="5.49705">
        <ele>195.37708</ele>
        <time>2014-05-28T10:21:00Z</time>
      </trkpt>
      <trkpt lat="43.21829" lon="5.497">
        <ele>193.93414</ele>
        <time>2014-05-28T10:21:03Z</time>
      </trkpt>
      <trkpt lat="43.21835" lon="5.49693">
        <ele>193.93414</ele>
        <time>2014-05-28T10:21:10Z</time>
      </trkpt>
      <trkpt lat="43.21838" lon="5.49688">
        <ele>192.40262</ele>
        <time>2014-05-28T10:21:14Z</time>
      </trkpt>
      <trkpt lat="43.2184" lon="5.49684">
        <ele>192.40262</ele>
        <time>2014-05-28T10:21:20Z</time>
      </trkpt>
      <trkpt lat="43.21843" lon="5.49679">
        <ele>190.86488</ele>
        <time>2014-05-28T10:21:25Z</time>
      </trkpt>
      <trkpt lat="43.21843" lon="5.49671">
        <ele>190.86488</ele>
        <time>2014-05-28T10:21:30Z</time>
      </trkpt>
      <trkpt lat="43.21844" lon="5.49666">
        <ele>189.36841</ele>
        <time>2014-05-28T10:21:33Z</time>
      </trkpt>
      <trkpt lat="43.21848" lon="5.49657">
        <ele>189.36841</ele>
        <time>2014-05-28T10:21:41Z</time>
      </trkpt>
      <trkpt lat="43.2185" lon="5.49649">
        <ele>187.87057</ele>
        <time>2014-05-28T10:21:44Z</time>
      </trkpt>
      <trkpt lat="43.21853" lon="5.49643">
        <ele>187.87057</ele>
        <time>2014-05-28T10:21:50Z</time>
      </trkpt>
      <trkpt lat="43.21855" lon="5.49636">
        <ele>186.36063</ele>
        <time>2014-05-28T10:21:55Z</time>
      </trkpt>
      <trkpt lat="43.2186" lon="5.49632">
        <ele>186.36063</ele>
        <time>2014-05-28T10:22:00Z</time>
      </trkpt>
      <trkpt lat="43.21863" lon="5.49628">
        <ele>184.78535</ele>
        <time>2014-05-28T10:22:03Z</time>
      </trkpt>
      <trkpt lat="43.21868" lon="5.49623">
        <ele>184.78535</ele>
        <time>2014-05-28T10:22:11Z</time>
      </trkpt>
      <trkpt lat="43.21871" lon="5.49621">
        <ele>183.0956</ele>
        <time>2014-05-28T10:22:15Z</time>
      </trkpt>
      <trkpt lat="43.21876" lon="5.49619">
        <ele>183.0956</ele>
        <time>2014-05-28T10:22:20Z</time>
      </trkpt>
      <trkpt lat="43.21881" lon="5.49616">
        <ele>181.27483</ele>
        <time>2014-05-28T10:22:25Z</time>
      </trkpt>
      <trkpt lat="43.21885" lon="5.49613">
        <ele>181.27483</ele>
        <time>2014-05-28T10:22:30Z</time>
      </trkpt>
      <trkpt lat="43.21888" lon="5.4961">
        <ele>181.27483</ele>
        <time>2014-05-28T10:22:34Z</time>
      </trkpt>
      <trkpt lat="43.21885" lon="5.49604">
        <ele>179.40892</ele>
        <time>2014-05-28T10:22:40Z</time>
      </trkpt>
      <trkpt lat="43.21882" lon="5.49602">
        <ele>179.40892</ele>
        <time>2014-05-28T10:22:44Z</time>
      </trkpt>
      <trkpt lat="43.21877" lon="5.49604">
        <ele>177.57748</ele>
        <time>2014-05-28T10:22:50Z</time>
      </trkpt>
      <trkpt lat="43.21872" lon="5.49605">
        <ele>177.57748</ele>
        <time>2014-05-28T10:22:55Z</time>
      </trkpt>
      <trkpt lat="43.21865" lon="5.49605">
        <ele>175.81085</ele>
        <time>2014-05-28T10:22:59Z</time>
      </trkpt>
      <trkpt lat="43.21859" lon="5.49609">
        <ele>175.81085</ele>
        <time>2014-05-28T10:23:04Z</time>
      </trkpt>
      <trkpt lat="43.21851" lon="5.49609">
        <ele>174.00714</ele>
        <time>2014-05-28T10:23:10Z</time>
      </trkpt>
      <trkpt lat="43.21847" lon="5.49611">
        <ele>174.00714</ele>
        <time>2014-05-28T10:23:14Z</time>
      </trkpt>
      <trkpt lat="43.21841" lon="5.49614">
        <ele>172.18726</ele>
        <time>2014-05-28T10:23:20Z</time>
      </trkpt>
      <trkpt lat="43.21839" lon="5.49617">
        <ele>172.18726</ele>
        <time>2014-05-28T10:23:24Z</time>
      </trkpt>
      <trkpt lat="43.21833" lon="5.49619">
        <ele>170.3993</ele>
        <time>2014-05-28T10:23:29Z</time>
      </trkpt>
      <trkpt lat="43.2183" lon="5.49621">
        <ele>170.3993</ele>
        <time>2014-05-28T10:23:34Z</time>
      </trkpt>
      <trkpt lat="43.21825" lon="5.49628">
        <ele>168.58684</ele>
        <time>2014-05-28T10:23:40Z</time>
      </trkpt>
      <trkpt lat="43.21823" lon="5.49631">
        <ele>168.58684</ele>
        <time>2014-05-28T10:23:44Z</time>
      </trkpt>
      <trkpt lat="43.2182" lon="5.49638">
        <ele>168.58684</ele>
        <time>2014-05-28T10:23:50Z</time>
      </trkpt>
      <trkpt lat="43.21819" lon="5.4964">
        <ele>166.74069</ele>
        <time>2014-05-28T10:23:55Z</time>
      </trkpt>
      <trkpt lat="43.2182" lon="5.49639">
        <ele>166.74069</ele>
        <time>2014-05-28T10:23:59Z</time>
      </trkpt>
      <trkpt lat="43.21821" lon="5.49638">
        <ele>166.74069</ele>
        <time>2014-05-28T10:24:06Z</time>
      </trkpt>
      <trkpt lat="43.21821" lon="5.49633">
        <ele>166.74069</ele>
        <time>2014-05-28T10:24:09Z</time>
      </trkpt>
      <trkpt lat="43.21818" lon="5.49636">
        <ele>164.96765</ele>
        <time>2014-05-28T10:24:45Z</time>
      </trkpt>
      <trkpt lat="43.21817" lon="5.4964">
        <ele>164.96765</ele>
        <time>2014-05-28T10:24:50Z</time>
      </trkpt>
      <trkpt lat="43.21814" lon="5.49644">
        <ele>164.96765</ele>
        <time>2014-05-28T10:24:55Z</time>
      </trkpt>
      <trkpt lat="43.21809" lon="5.49644">
        <ele>163.25107</ele>
        <time>2014-05-28T10:24:59Z</time>
      </trkpt>
      <trkpt lat="43.21803" lon="5.49646">
        <ele>163.25107</ele>
        <time>2014-05-28T10:25:05Z</time>
      </trkpt>
      <trkpt lat="43.21796" lon="5.49648">
        <ele>161.73376</ele>
        <time>2014-05-28T10:25:10Z</time>
      </trkpt>
      <trkpt lat="43.21792" lon="5.49648">
        <ele>161.73376</ele>
        <time>2014-05-28T10:25:15Z</time>
      </trkpt>
      <trkpt lat="43.21786" lon="5.49649">
        <ele>160.4177</ele>
        <time>2014-05-28T10:25:20Z</time>
      </trkpt>
      <trkpt lat="43.21782" lon="5.49656">
        <ele>160.4177</ele>
        <time>2014-05-28T10:25:25Z</time>
      </trkpt>
      <trkpt lat="43.21778" lon="5.49665">
        <ele>159.31839</ele>
        <time>2014-05-28T10:25:29Z</time>
      </trkpt>
      <trkpt lat="43.21774" lon="5.49671">
        <ele>159.31839</ele>
        <time>2014-05-28T10:25:35Z</time>
      </trkpt>
      <trkpt lat="43.2177" lon="5.49675">
        <ele>158.31984</ele>
        <time>2014-05-28T10:25:40Z</time>
      </trkpt>
      <trkpt lat="43.21765" lon="5.49678">
        <ele>158.31984</ele>
        <time>2014-05-28T10:25:45Z</time>
      </trkpt>
      <trkpt lat="43.21758" lon="5.49675">
        <ele>157.5015</ele>
        <time>2014-05-28T10:25:50Z</time>
      </trkpt>
      <trkpt lat="43.21754" lon="5.4967">
        <ele>157.5015</ele>
        <time>2014-05-28T10:25:55Z</time>
      </trkpt>
      <trkpt lat="43.21752" lon="5.49665">
        <ele>156.69142</ele>
        <time>2014-05-28T10:25:58Z</time>
      </trkpt>
      <trkpt lat="43.21748" lon="5.49657">
        <ele>156.69142</ele>
        <time>2014-05-28T10:26:06Z</time>
      </trkpt>
      <trkpt lat="43.21746" lon="5.49651">
        <ele>155.9031</ele>
        <time>2014-05-28T10:26:10Z</time>
      </trkpt>
      <trkpt lat="43.21742" lon="5.49643">
        <ele>155.9031</ele>
        <time>2014-05-28T10:26:15Z</time>
      </trkpt>
      <trkpt lat="43.21739" lon="5.49637">
        <ele>155.19212</ele>
        <time>2014-05-28T10:26:20Z</time>
      </trkpt>
      <trkpt lat="43.21738" lon="5.4963">
        <ele>155.19212</ele>
        <time>2014-05-28T10:26:25Z</time>
      </trkpt>
      <trkpt lat="43.21735" lon="5.49626">
        <ele>154.29266</ele>
        <time>2014-05-28T10:26:28Z</time>
      </trkpt>
      <trkpt lat="43.21732" lon="5.49616">
        <ele>154.29266</ele>
        <time>2014-05-28T10:26:36Z</time>
      </trkpt>
      <trkpt lat="43.2173" lon="5.49612">
        <ele>153.31917</ele>
        <time>2014-05-28T10:26:39Z</time>
      </trkpt>
      <trkpt lat="43.21726" lon="5.49599">
        <ele>152.34898</ele>
        <time>2014-05-28T10:26:45Z</time>
      </trkpt>
      <trkpt lat="43.21725" lon="5.49592">
        <ele>152.34898</ele>
        <time>2014-05-28T10:26:50Z</time>
      </trkpt>
      <trkpt lat="43.21723" lon="5.49591">
        <ele>152.34898</ele>
        <time>2014-05-28T10:26:54Z</time>
      </trkpt>
      <trkpt lat="43.21719" lon="5.49583">
        <ele>151.17992</ele>
        <time>2014-05-28T10:26:59Z</time>
      </trkpt>
      <trkpt lat="43.21719" lon="5.49578">
        <ele>151.17992</ele>
        <time>2014-05-28T10:27:06Z</time>
      </trkpt>
      <trkpt lat="43.21717" lon="5.49573">
        <ele>151.17992</ele>
        <time>2014-05-28T10:27:10Z</time>
      </trkpt>
      <trkpt lat="43.21713" lon="5.49567">
        <ele>149.95659</ele>
        <time>2014-05-28T10:27:15Z</time>
      </trkpt>
      <trkpt lat="43.21709" lon="5.4956">
        <ele>149.95659</ele>
        <time>2014-05-28T10:27:20Z</time>
      </trkpt>
      <trkpt lat="43.21706" lon="5.49555">
        <ele>148.85632</ele>
        <time>2014-05-28T10:27:24Z</time>
      </trkpt>
      <trkpt lat="43.21704" lon="5.49552">
        <ele>148.85632</ele>
        <time>2014-05-28T10:27:29Z</time>
      </trkpt>
      <trkpt lat="43.21695" lon="5.49545">
        <ele>147.8413</ele>
        <time>2014-05-28T10:27:36Z</time>
      </trkpt>
      <trkpt lat="43.21694" lon="5.4954">
        <ele>147.8413</ele>
        <time>2014-05-28T10:27:40Z</time>
      </trkpt>
      <trkpt lat="43.21691" lon="5.49531">
        <ele>146.9482</ele>
        <time>2014-05-28T10:27:45Z</time>
      </trkpt>
      <trkpt lat="43.21686" lon="5.49526">
        <ele>146.9482</ele>
        <time>2014-05-28T10:27:50Z</time>
      </trkpt>
      <trkpt lat="43.21684" lon="5.49521">
        <ele>146.19627</ele>
        <time>2014-05-28T10:27:55Z</time>
      </trkpt>
      <trkpt lat="43.21682" lon="5.49517">
        <ele>146.19627</ele>
        <time>2014-05-28T10:27:59Z</time>
      </trkpt>
      <trkpt lat="43.21679" lon="5.49514">
        <ele>146.19627</ele>
        <time>2014-05-28T10:28:05Z</time>
      </trkpt>
      <trkpt lat="43.2167" lon="5.49501">
        <ele>145.54526</ele>
        <time>2014-05-28T10:28:10Z</time>
      </trkpt>
      <trkpt lat="43.21668" lon="5.49492">
        <ele>145.54526</ele>
        <time>2014-05-28T10:28:15Z</time>
      </trkpt>
      <trkpt lat="43.21664" lon="5.49487">
        <ele>144.94315</ele>
        <time>2014-05-28T10:28:20Z</time>
      </trkpt>
      <trkpt lat="43.2166" lon="5.49482">
        <ele>144.94315</ele>
        <time>2014-05-28T10:28:24Z</time>
      </trkpt>
      <trkpt lat="43.21658" lon="5.49476">
        <ele>144.21187</ele>
        <time>2014-05-28T10:28:29Z</time>
      </trkpt>
      <trkpt lat="43.21655" lon="5.49468">
        <ele>144.21187</ele>
        <time>2014-05-28T10:28:35Z</time>
      </trkpt>
      <trkpt lat="43.21652" lon="5.4946">
        <ele>143.47502</ele>
        <time>2014-05-28T10:28:39Z</time>
      </trkpt>
      <trkpt lat="43.21648" lon="5.49451">
        <ele>143.47502</ele>
        <time>2014-05-28T10:28:45Z</time>
      </trkpt>
      <trkpt lat="43.21642" lon="5.49449">
        <ele>142.65977</ele>
        <time>2014-05-28T10:28:50Z</time>
      </trkpt>
      <trkpt lat="43.21636" lon="5.4945">
        <ele>142.65977</ele>
        <time>2014-05-28T10:28:54Z</time>
      </trkpt>
      <trkpt lat="43.21631" lon="5.49451">
        <ele>141.87181</ele>
        <time>2014-05-28T10:28:59Z</time>
      </trkpt>
      <trkpt lat="43.21624" lon="5.49454">
        <ele>141.87181</ele>
        <time>2014-05-28T10:29:05Z</time>
      </trkpt>
      <trkpt lat="43.21616" lon="5.4945">
        <ele>141.00719</ele>
        <time>2014-05-28T10:29:10Z</time>
      </trkpt>
      <trkpt lat="43.21611" lon="5.49454">
        <ele>141.00719</ele>
        <time>2014-05-28T10:29:15Z</time>
      </trkpt>
      <trkpt lat="43.21605" lon="5.49452">
        <ele>140.1572</ele>
        <time>2014-05-28T10:29:20Z</time>
      </trkpt>
      <trkpt lat="43.21602" lon="5.49452">
        <ele>140.1572</ele>
        <time>2014-05-28T10:29:23Z</time>
      </trkpt>
      <trkpt lat="43.21596" lon="5.49453">
        <ele>139.4784</ele>
        <time>2014-05-28T10:29:30Z</time>
      </trkpt>
      <trkpt lat="43.21592" lon="5.4945">
        <ele>139.4784</ele>
        <time>2014-05-28T10:29:35Z</time>
      </trkpt>
      <trkpt lat="43.21587" lon="5.49447">
        <ele>138.94247</ele>
        <time>2014-05-28T10:29:40Z</time>
      </trkpt>
      <trkpt lat="43.21587" lon="5.49445">
        <ele>138.94247</ele>
        <time>2014-05-28T10:29:45Z</time>
      </trkpt>
      <trkpt lat="43.21582" lon="5.49443">
        <ele>138.94247</ele>
        <time>2014-05-28T10:29:50Z</time>
      </trkpt>
      <trkpt lat="43.21577" lon="5.49443">
        <ele>138.33545</ele>
        <time>2014-05-28T10:29:53Z</time>
      </trkpt>
      <trkpt lat="43.21568" lon="5.49438">
        <ele>137.73308</ele>
        <time>2014-05-28T10:30:00Z</time>
      </trkpt>
      <trkpt lat="43.21564" lon="5.49436">
        <ele>137.73308</ele>
        <time>2014-05-28T10:30:05Z</time>
      </trkpt>
      <trkpt lat="43.21558" lon="5.49432">
        <ele>137.07587</ele>
        <time>2014-05-28T10:30:10Z</time>
      </trkpt>
      <trkpt lat="43.21555" lon="5.49429">
        <ele>137.07587</ele>
        <time>2014-05-28T10:30:15Z</time>
      </trkpt>
      <trkpt lat="43.2155" lon="5.49422">
        <ele>136.46739</ele>
        <time>2014-05-28T10:30:20Z</time>
      </trkpt>
      <trkpt lat="43.21547" lon="5.4942">
        <ele>136.46739</ele>
        <time>2014-05-28T10:30:23Z</time>
      </trkpt>
      <trkpt lat="43.21542" lon="5.49414">
        <ele>136.01788</ele>
        <time>2014-05-28T10:30:30Z</time>
      </trkpt>
      <trkpt lat="43.21538" lon="5.49412">
        <ele>136.01788</ele>
        <time>2014-05-28T10:30:35Z</time>
      </trkpt>
      <trkpt lat="43.21528" lon="5.49411">
        <ele>135.49765</ele>
        <time>2014-05-28T10:30:40Z</time>
      </trkpt>
      <trkpt lat="43.21523" lon="5.49411">
        <ele>135.49765</ele>
        <time>2014-05-28T10:30:44Z</time>
      </trkpt>
      <trkpt lat="43.21516" lon="5.49415">
        <ele>135.03995</ele>
        <time>2014-05-28T10:30:51Z</time>
      </trkpt>
      <trkpt lat="43.21513" lon="5.49417">
        <ele>135.03995</ele>
        <time>2014-05-28T10:30:53Z</time>
      </trkpt>
      <trkpt lat="43.21508" lon="5.49419">
        <ele>135.03995</ele>
        <time>2014-05-28T10:31:00Z</time>
      </trkpt>
      <trkpt lat="43.21504" lon="5.49422">
        <ele>134.5231</ele>
        <time>2014-05-28T10:31:05Z</time>
      </trkpt>
      <trkpt lat="43.21501" lon="5.49426">
        <ele>134.5231</ele>
        <time>2014-05-28T10:31:10Z</time>
      </trkpt>
      <trkpt lat="43.21496" lon="5.49429">
        <ele>134.00749</ele>
        <time>2014-05-28T10:31:14Z</time>
      </trkpt>
      <trkpt lat="43.21491" lon="5.49432">
        <ele>134.00749</ele>
        <time>2014-05-28T10:31:20Z</time>
      </trkpt>
      <trkpt lat="43.21489" lon="5.49434">
        <ele>134.00749</ele>
        <time>2014-05-28T10:31:23Z</time>
      </trkpt>
      <trkpt lat="43.21485" lon="5.49431">
        <ele>133.333</ele>
        <time>2014-05-28T10:31:31Z</time>
      </trkpt>
      <trkpt lat="43.21484" lon="5.4943">
        <ele>133.333</ele>
        <time>2014-05-28T10:31:34Z</time>
      </trkpt>
      <trkpt lat="43.21484" lon="5.49429">
        <ele>133.333</ele>
        <time>2014-05-28T10:31:39Z</time>
      </trkpt>
      <trkpt lat="43.21493" lon="5.49433">
        <ele>131.73198</ele>
        <time>2014-05-28T10:33:55Z</time>
      </trkpt>
      <trkpt lat="43.21495" lon="5.4943">
        <ele>131.73198</ele>
        <time>2014-05-28T10:34:00Z</time>
      </trkpt>
      <trkpt lat="43.21494" lon="5.4943">
        <ele>131.73198</ele>
        <time>2014-05-28T10:34:05Z</time>
      </trkpt>
      <trkpt lat="43.215" lon="5.49425">
        <ele>131.73198</ele>
        <time>2014-05-28T10:37:40Z</time>
      </trkpt>
      <trkpt lat="43.21501" lon="5.49424">
        <ele>130.36934</ele>
        <time>2014-05-28T10:37:44Z</time>
      </trkpt>
      <trkpt lat="43.21503" lon="5.49422">
        <ele>130.36934</ele>
        <time>2014-05-28T10:37:49Z</time>
      </trkpt>
      <trkpt lat="43.21504" lon="5.49423">
        <ele>130.36934</ele>
        <time>2014-05-28T10:37:56Z</time>
      </trkpt>
      <trkpt lat="43.21502" lon="5.49427">
        <ele>130.36934</ele>
        <time>2014-05-28T10:38:14Z</time>
      </trkpt>
      <trkpt lat="43.21499" lon="5.49428">
        <ele>129.17084</ele>
        <time>2014-05-28T10:38:19Z</time>
      </trkpt>
      <trkpt lat="43.21496" lon="5.4943">
        <ele>129.17084</ele>
        <time>2014-05-28T10:38:26Z</time>
      </trkpt>
      <trkpt lat="43.21491" lon="5.4943">
        <ele>129.17084</ele>
        <time>2014-05-28T10:38:30Z</time>
      </trkpt>
      <trkpt lat="43.21488" lon="5.4943">
        <ele>128.16814</ele>
        <time>2014-05-28T10:38:35Z</time>
      </trkpt>
      <trkpt lat="43.21483" lon="5.49433">
        <ele>128.16814</ele>
        <time>2014-05-28T10:38:40Z</time>
      </trkpt>
      <trkpt lat="43.21481" lon="5.49432">
        <ele>128.16814</ele>
        <time>2014-05-28T10:38:44Z</time>
      </trkpt>
      <trkpt lat="43.21484" lon="5.49423">
        <ele>127.28921</ele>
        <time>2014-05-28T10:39:10Z</time>
      </trkpt>
      <trkpt lat="43.21483" lon="5.49421">
        <ele>127.28921</ele>
        <time>2014-05-28T10:39:14Z</time>
      </trkpt>
      <trkpt lat="43.21492" lon="5.4943">
        <ele>125.76078</ele>
        <time>2014-05-28T10:41:43Z</time>
      </trkpt>
      <trkpt lat="43.21487" lon="5.49423">
        <ele>125.76078</ele>
        <time>2014-05-28T10:42:35Z</time>
      </trkpt>
      <trkpt lat="43.21487" lon="5.49423">
        <ele>125.76078</ele>
        <time>2014-05-28T10:42:40Z</time>
      </trkpt>
      <trkpt lat="43.21489" lon="5.49425">
        <ele>125.76078</ele>
        <time>2014-05-28T10:42:43Z</time>
      </trkpt>
      <trkpt lat="43.21478" lon="5.49432">
        <ele>124.511154</ele>
        <time>2014-05-28T10:44:24Z</time>
      </trkpt>
      <trkpt lat="43.21474" lon="5.49436">
        <ele>124.511154</ele>
        <time>2014-05-28T10:44:28Z</time>
      </trkpt>
      <trkpt lat="43.21471" lon="5.49438">
        <ele>123.39086</ele>
        <time>2014-05-28T10:44:33Z</time>
      </trkpt>
      <trkpt lat="43.21467" lon="5.4944">
        <ele>123.39086</ele>
        <time>2014-05-28T10:44:38Z</time>
      </trkpt>
      <trkpt lat="43.21464" lon="5.49441">
        <ele>123.39086</ele>
        <time>2014-05-28T10:44:43Z</time>
      </trkpt>
      <trkpt lat="43.2146" lon="5.49441">
        <ele>122.405174</ele>
        <time>2014-05-28T10:44:49Z</time>
      </trkpt>
      <trkpt lat="43.21459" lon="5.49442">
        <ele>122.405174</ele>
        <time>2014-05-28T10:44:55Z</time>
      </trkpt>
      <trkpt lat="43.21456" lon="5.49445">
        <ele>122.405174</ele>
        <time>2014-05-28T10:45:00Z</time>
      </trkpt>
      <trkpt lat="43.21452" lon="5.49445">
        <ele>122.405174</ele>
        <time>2014-05-28T10:45:05Z</time>
      </trkpt>
      <trkpt lat="43.21445" lon="5.49451">
        <ele>121.587456</ele>
        <time>2014-05-28T10:45:09Z</time>
      </trkpt>
      <trkpt lat="43.21441" lon="5.49456">
        <ele>121.587456</ele>
        <time>2014-05-28T10:45:14Z</time>
      </trkpt>
      <trkpt lat="43.21436" lon="5.49462">
        <ele>120.88165</ele>
        <time>2014-05-28T10:45:19Z</time>
      </trkpt>
      <trkpt lat="43.21432" lon="5.49469">
        <ele>120.88165</ele>
        <time>2014-05-28T10:45:25Z</time>
      </trkpt>
      <trkpt lat="43.21433" lon="5.49474">
        <ele>120.26439</ele>
        <time>2014-05-28T10:45:29Z</time>
      </trkpt>
      <trkpt lat="43.21433" lon="5.49481">
        <ele>120.26439</ele>
        <time>2014-05-28T10:45:35Z</time>
      </trkpt>
      <trkpt lat="43.21434" lon="5.49487">
        <ele>119.72815</ele>
        <time>2014-05-28T10:45:39Z</time>
      </trkpt>
      <trkpt lat="43.21435" lon="5.49492">
        <ele>119.72815</ele>
        <time>2014-05-28T10:45:44Z</time>
      </trkpt>
      <trkpt lat="43.21438" lon="5.49502">
        <ele>119.22254</ele>
        <time>2014-05-28T10:45:50Z</time>
      </trkpt>
      <trkpt lat="43.21439" lon="5.49509">
        <ele>119.22254</ele>
        <time>2014-05-28T10:45:55Z</time>
      </trkpt>
      <trkpt lat="43.21441" lon="5.49515">
        <ele>118.78726</ele>
        <time>2014-05-28T10:46:00Z</time>
      </trkpt>
      <trkpt lat="43.21444" lon="5.49519">
        <ele>118.78726</ele>
        <time>2014-05-28T10:46:04Z</time>
      </trkpt>
      <trkpt lat="43.21443" lon="5.49526">
        <ele>118.41569</ele>
        <time>2014-05-28T10:46:08Z</time>
      </trkpt>
      <trkpt lat="43.21442" lon="5.49535">
        <ele>118.41569</ele>
        <time>2014-05-28T10:46:13Z</time>
      </trkpt>
      <trkpt lat="43.21443" lon="5.49543">
        <ele>118.14474</ele>
        <time>2014-05-28T10:46:20Z</time>
      </trkpt>
      <trkpt lat="43.21445" lon="5.4955">
        <ele>118.14474</ele>
        <time>2014-05-28T10:46:25Z</time>
      </trkpt>
      <trkpt lat="43.21444" lon="5.49554">
        <ele>118.14474</ele>
        <time>2014-05-28T10:46:30Z</time>
      </trkpt>
      <trkpt lat="43.21444" lon="5.49562">
        <ele>117.86429</ele>
        <time>2014-05-28T10:46:35Z</time>
      </trkpt>
      <trkpt lat="43.2144" lon="5.49565">
        <ele>117.86429</ele>
        <time>2014-05-28T10:46:39Z</time>
      </trkpt>
      <trkpt lat="43.21436" lon="5.49566">
        <ele>117.86429</ele>
        <time>2014-05-28T10:46:44Z</time>
      </trkpt>
      <trkpt lat="43.21429" lon="5.49567">
        <ele>117.65966</ele>
        <time>2014-05-28T10:46:50Z</time>
      </trkpt>
      <trkpt lat="43.21423" lon="5.4957">
        <ele>117.65966</ele>
        <time>2014-05-28T10:46:55Z</time>
      </trkpt>
      <trkpt lat="43.21418" lon="5.49569">
        <ele>117.58095</ele>
        <time>2014-05-28T10:47:00Z</time>
      </trkpt>
      <trkpt lat="43.21413" lon="5.49567">
        <ele>117.58095</ele>
        <time>2014-05-28T10:47:04Z</time>
      </trkpt>
      <trkpt lat="43.21408" lon="5.49564">
        <ele>117.54452</ele>
        <time>2014-05-28T10:47:09Z</time>
      </trkpt>
      <trkpt lat="43.21401" lon="5.49562">
        <ele>117.54452</ele>
        <time>2014-05-28T10:47:15Z</time>
      </trkpt>
      <trkpt lat="43.21396" lon="5.49559">
        <ele>117.53046</ele>
        <time>2014-05-28T10:47:20Z</time>
      </trkpt>
      <trkpt lat="43.21394" lon="5.49561">
        <ele>117.53046</ele>
        <time>2014-05-28T10:47:25Z</time>
      </trkpt>
      <trkpt lat="43.21389" lon="5.49567">
        <ele>117.505875</ele>
        <time>2014-05-28T10:47:30Z</time>
      </trkpt>
      <trkpt lat="43.21386" lon="5.4957">
        <ele>117.505875</ele>
        <time>2014-05-28T10:47:35Z</time>
      </trkpt>
      <trkpt lat="43.21379" lon="5.49582">
        <ele>117.45481</ele>
        <time>2014-05-28T10:47:39Z</time>
      </trkpt>
      <trkpt lat="43.21376" lon="5.49589">
        <ele>117.45481</ele>
        <time>2014-05-28T10:47:45Z</time>
      </trkpt>
      <trkpt lat="43.21372" lon="5.49596">
        <ele>117.37699</ele>
        <time>2014-05-28T10:47:50Z</time>
      </trkpt>
      <trkpt lat="43.2137" lon="5.496">
        <ele>117.37699</ele>
        <time>2014-05-28T10:47:56Z</time>
      </trkpt>
      <trkpt lat="43.21367" lon="5.49613">
        <ele>117.24347</ele>
        <time>2014-05-28T10:47:59Z</time>
      </trkpt>
      <trkpt lat="43.21369" lon="5.4962">
        <ele>117.24347</ele>
        <time>2014-05-28T10:48:05Z</time>
      </trkpt>
      <trkpt lat="43.21372" lon="5.49627">
        <ele>117.07088</ele>
        <time>2014-05-28T10:48:08Z</time>
      </trkpt>
      <trkpt lat="43.21375" lon="5.49637">
        <ele>117.07088</ele>
        <time>2014-05-28T10:48:15Z</time>
      </trkpt>
      <trkpt lat="43.21377" lon="5.49644">
        <ele>116.889206</ele>
        <time>2014-05-28T10:48:19Z</time>
      </trkpt>
      <trkpt lat="43.2138" lon="5.4965">
        <ele>116.889206</ele>
        <time>2014-05-28T10:48:25Z</time>
      </trkpt>
      <trkpt lat="43.21384" lon="5.49657">
        <ele>116.74073</ele>
        <time>2014-05-28T10:48:30Z</time>
      </trkpt>
      <trkpt lat="43.21387" lon="5.49666">
        <ele>116.74073</ele>
        <time>2014-05-28T10:48:35Z</time>
      </trkpt>
      <trkpt lat="43.2139" lon="5.49672">
        <ele>116.49165</ele>
        <time>2014-05-28T10:48:38Z</time>
      </trkpt>
      <trkpt lat="43.21393" lon="5.49681">
        <ele>116.49165</ele>
        <time>2014-05-28T10:48:47Z</time>
      </trkpt>
      <trkpt lat="43.21395" lon="5.49686">
        <ele>116.205696</ele>
        <time>2014-05-28T10:48:49Z</time>
      </trkpt>
      <trkpt lat="43.21399" lon="5.49695">
        <ele>116.205696</ele>
        <time>2014-05-28T10:48:55Z</time>
      </trkpt>
      <trkpt lat="43.214" lon="5.497">
        <ele>115.913246</ele>
        <time>2014-05-28T10:49:00Z</time>
      </trkpt>
      <trkpt lat="43.21401" lon="5.49706">
        <ele>115.913246</ele>
        <time>2014-05-28T10:49:04Z</time>
      </trkpt>
      <trkpt lat="43.21402" lon="5.49717">
        <ele>115.64251</ele>
        <time>2014-05-28T10:49:09Z</time>
      </trkpt>
      <trkpt lat="43.21404" lon="5.49725">
        <ele>115.64251</ele>
        <time>2014-05-28T10:49:15Z</time>
      </trkpt>
      <trkpt lat="43.21403" lon="5.49729">
        <ele>115.362</ele>
        <time>2014-05-28T10:49:19Z</time>
      </trkpt>
      <trkpt lat="43.21399" lon="5.49735">
        <ele>115.362</ele>
        <time>2014-05-28T10:49:25Z</time>
      </trkpt>
      <trkpt lat="43.21398" lon="5.49742">
        <ele>115.143486</ele>
        <time>2014-05-28T10:49:30Z</time>
      </trkpt>
      <trkpt lat="43.21394" lon="5.49747">
        <ele>115.143486</ele>
        <time>2014-05-28T10:49:35Z</time>
      </trkpt>
      <trkpt lat="43.21391" lon="5.49751">
        <ele>114.89483</ele>
        <time>2014-05-28T10:49:38Z</time>
      </trkpt>
      <trkpt lat="43.21386" lon="5.49757">
        <ele>114.89483</ele>
        <time>2014-05-28T10:49:45Z</time>
      </trkpt>
      <trkpt lat="43.21383" lon="5.49759">
        <ele>114.60286</ele>
        <time>2014-05-28T10:49:49Z</time>
      </trkpt>
      <trkpt lat="43.2138" lon="5.49762">
        <ele>114.60286</ele>
        <time>2014-05-28T10:49:57Z</time>
      </trkpt>
      <trkpt lat="43.21378" lon="5.49762">
        <ele>114.60286</ele>
        <time>2014-05-28T10:49:59Z</time>
      </trkpt>
      <trkpt lat="43.21374" lon="5.49765">
        <ele>114.21231</ele>
        <time>2014-05-28T10:50:04Z</time>
      </trkpt>
      <trkpt lat="43.21367" lon="5.49765">
        <ele>114.21231</ele>
        <time>2014-05-28T10:50:09Z</time>
      </trkpt>
      <trkpt lat="43.21354" lon="5.49762">
        <ele>113.84522</ele>
        <time>2014-05-28T10:50:15Z</time>
      </trkpt>
      <trkpt lat="43.21348" lon="5.49761">
        <ele>113.84522</ele>
        <time>2014-05-28T10:50:19Z</time>
      </trkpt>
      <trkpt lat="43.21345" lon="5.49761">
        <ele>113.84522</ele>
        <time>2014-05-28T10:50:25Z</time>
      </trkpt>
      <trkpt lat="43.21343" lon="5.49762">
        <ele>113.48497</ele>
        <time>2014-05-28T10:50:30Z</time>
      </trkpt>
      <trkpt lat="43.21339" lon="5.49766">
        <ele>113.48497</ele>
        <time>2014-05-28T10:50:35Z</time>
      </trkpt>
      <trkpt lat="43.21334" lon="5.49768">
        <ele>113.130585</ele>
        <time>2014-05-28T10:50:39Z</time>
      </trkpt>
      <trkpt lat="43.21331" lon="5.4977">
        <ele>113.130585</ele>
        <time>2014-05-28T10:50:45Z</time>
      </trkpt>
      <trkpt lat="43.21324" lon="5.49779">
        <ele>112.56503</ele>
        <time>2014-05-28T10:50:50Z</time>
      </trkpt>
      <trkpt lat="43.21315" lon="5.49792">
        <ele>111.87606</ele>
        <time>2014-05-28T10:50:55Z</time>
      </trkpt>
      <trkpt lat="43.21309" lon="5.49793">
        <ele>111.87606</ele>
        <time>2014-05-28T10:51:00Z</time>
      </trkpt>
      <trkpt lat="43.21303" lon="5.49796">
        <ele>111.15979</ele>
        <time>2014-05-28T10:51:04Z</time>
      </trkpt>
      <trkpt lat="43.21299" lon="5.49796">
        <ele>111.15979</ele>
        <time>2014-05-28T10:51:09Z</time>
      </trkpt>
      <trkpt lat="43.21293" lon="5.49796">
        <ele>110.404495</ele>
        <time>2014-05-28T10:51:15Z</time>
      </trkpt>
      <trkpt lat="43.21289" lon="5.49797">
        <ele>110.404495</ele>
        <time>2014-05-28T10:51:19Z</time>
      </trkpt>
      <trkpt lat="43.21283" lon="5.49798">
        <ele>109.70034</ele>
        <time>2014-05-28T10:51:25Z</time>
      </trkpt>
      <trkpt lat="43.21278" lon="5.49796">
        <ele>109.70034</ele>
        <time>2014-05-28T10:51:30Z</time>
      </trkpt>
      <trkpt lat="43.21275" lon="5.49796">
        <ele>109.70034</ele>
        <time>2014-05-28T10:51:33Z</time>
      </trkpt>
      <trkpt lat="43.21267" lon="5.49797">
        <ele>108.98662</ele>
        <time>2014-05-28T10:51:39Z</time>
      </trkpt>
      <trkpt lat="43.2126" lon="5.49801">
        <ele>108.98662</ele>
        <time>2014-05-28T10:51:45Z</time>
      </trkpt>
      <trkpt lat="43.21257" lon="5.49803">
        <ele>108.32244</ele>
        <time>2014-05-28T10:51:50Z</time>
      </trkpt>
      <trkpt lat="43.21253" lon="5.49806">
        <ele>108.32244</ele>
        <time>2014-05-28T10:51:55Z</time>
      </trkpt>
      <trkpt lat="43.21247" lon="5.49805">
        <ele>107.67597</ele>
        <time>2014-05-28T10:52:00Z</time>
      </trkpt>
      <trkpt lat="43.21243" lon="5.49803">
        <ele>107.67597</ele>
        <time>2014-05-28T10:52:04Z</time>
      </trkpt>
      <trkpt lat="43.2124" lon="5.49798">
        <ele>107.67597</ele>
        <time>2014-05-28T10:52:09Z</time>
      </trkpt>
      <trkpt lat="43.21235" lon="5.49797">
        <ele>107.01769</ele>
        <time>2014-05-28T10:52:15Z</time>
      </trkpt>
      <trkpt lat="43.21233" lon="5.49796">
        <ele>107.01769</ele>
        <time>2014-05-28T10:52:20Z</time>
      </trkpt>
      <trkpt lat="43.2123" lon="5.49792">
        <ele>107.01769</ele>
        <time>2014-05-28T10:52:25Z</time>
      </trkpt>
      <trkpt lat="43.21227" lon="5.49786">
        <ele>106.3491</ele>
        <time>2014-05-28T10:52:30Z</time>
      </trkpt>
      <trkpt lat="43.21226" lon="5.4978">
        <ele>106.3491</ele>
        <time>2014-05-28T10:52:33Z</time>
      </trkpt>
      <trkpt lat="43.21223" lon="5.49774">
        <ele>105.65721</ele>
        <time>2014-05-28T10:52:40Z</time>
      </trkpt>
      <trkpt lat="43.21219" lon="5.4977">
        <ele>105.65721</ele>
        <time>2014-05-28T10:52:45Z</time>
      </trkpt>
      <trkpt lat="43.21217" lon="5.49763">
        <ele>104.90127</ele>
        <time>2014-05-28T10:52:50Z</time>
      </trkpt>
      <trkpt lat="43.21217" lon="5.4976">
        <ele>104.90127</ele>
        <time>2014-05-28T10:52:55Z</time>
      </trkpt>
      <trkpt lat="43.21212" lon="5.49756">
        <ele>104.90127</ele>
        <time>2014-05-28T10:53:00Z</time>
      </trkpt>
      <trkpt lat="43.21208" lon="5.49753">
        <ele>104.00042</ele>
        <time>2014-05-28T10:53:03Z</time>
      </trkpt>
      <trkpt lat="43.21207" lon="5.49742">
        <ele>104.00042</ele>
        <time>2014-05-28T10:53:10Z</time>
      </trkpt>
      <trkpt lat="43.21207" lon="5.49735">
        <ele>103.0243</ele>
        <time>2014-05-28T10:53:15Z</time>
      </trkpt>
      <trkpt lat="43.21208" lon="5.49722">
        <ele>102.09527</ele>
        <time>2014-05-28T10:53:20Z</time>
      </trkpt>
      <trkpt lat="43.2121" lon="5.49712">
        <ele>102.09527</ele>
        <time>2014-05-28T10:53:25Z</time>
      </trkpt>
      <trkpt lat="43.21214" lon="5.49705">
        <ele>101.05273</ele>
        <time>2014-05-28T10:53:30Z</time>
      </trkpt>
      <trkpt lat="43.21219" lon="5.49701">
        <ele>101.05273</ele>
        <time>2014-05-28T10:53:33Z</time>
      </trkpt>
      <trkpt lat="43.21221" lon="5.49695">
        <ele>100.02202</ele>
        <time>2014-05-28T10:53:40Z</time>
      </trkpt>
      <trkpt lat="43.21222" lon="5.4969">
        <ele>100.02202</ele>
        <time>2014-05-28T10:53:44Z</time>
      </trkpt>
      <trkpt lat="43.21222" lon="5.49683">
        <ele>100.02202</ele>
        <time>2014-05-28T10:53:50Z</time>
      </trkpt>
      <trkpt lat="43.21219" lon="5.49676">
        <ele>98.94629</ele>
        <time>2014-05-28T10:53:55Z</time>
      </trkpt>
      <trkpt lat="43.21217" lon="5.49668">
        <ele>98.94629</ele>
        <time>2014-05-28T10:54:00Z</time>
      </trkpt>
      <trkpt lat="43.21213" lon="5.49665">
        <ele>97.90265</ele>
        <time>2014-05-28T10:54:03Z</time>
      </trkpt>
      <trkpt lat="43.21206" lon="5.49663">
        <ele>97.90265</ele>
        <time>2014-05-28T10:54:11Z</time>
      </trkpt>
      <trkpt lat="43.21201" lon="5.4966">
        <ele>96.875984</ele>
        <time>2014-05-28T10:54:15Z</time>
      </trkpt>
      <trkpt lat="43.21195" lon="5.49653">
        <ele>96.875984</ele>
        <time>2014-05-28T10:54:20Z</time>
      </trkpt>
      <trkpt lat="43.21188" lon="5.49655">
        <ele>95.90986</ele>
        <time>2014-05-28T10:54:25Z</time>
      </trkpt>
      <trkpt lat="43.21182" lon="5.49655">
        <ele>95.90986</ele>
        <time>2014-05-28T10:54:29Z</time>
      </trkpt>
      <trkpt lat="43.21178" lon="5.49657">
        <ele>95.00118</ele>
        <time>2014-05-28T10:54:33Z</time>
      </trkpt>
      <trkpt lat="43.2117" lon="5.49667">
        <ele>94.16135</ele>
        <time>2014-05-28T10:54:40Z</time>
      </trkpt>
      <trkpt lat="43.21169" lon="5.4967">
        <ele>94.16135</ele>
        <time>2014-05-28T10:54:44Z</time>
      </trkpt>
      <trkpt lat="43.21164" lon="5.49675">
        <ele>94.16135</ele>
        <time>2014-05-28T10:54:50Z</time>
      </trkpt>
      <trkpt lat="43.21161" lon="5.4968">
        <ele>93.343</ele>
        <time>2014-05-28T10:54:55Z</time>
      </trkpt>
      <trkpt lat="43.21158" lon="5.49683">
        <ele>93.343</ele>
        <time>2014-05-28T10:55:00Z</time>
      </trkpt>
      <trkpt lat="43.21155" lon="5.49685">
        <ele>93.343</ele>
        <time>2014-05-28T10:55:04Z</time>
      </trkpt>
      <trkpt lat="43.2115" lon="5.49693">
        <ele>92.47338</ele>
        <time>2014-05-28T10:55:10Z</time>
      </trkpt>
      <trkpt lat="43.21149" lon="5.49694">
        <ele>92.47338</ele>
        <time>2014-05-28T10:55:15Z</time>
      </trkpt>
      <trkpt lat="43.21144" lon="5.49699">
        <ele>92.47338</ele>
        <time>2014-05-28T10:55:20Z</time>
      </trkpt>
      <trkpt lat="43.21143" lon="5.49704">
        <ele>91.55722</ele>
        <time>2014-05-28T10:55:25Z</time>
      </trkpt>
      <trkpt lat="43.21141" lon="5.49708">
        <ele>91.55722</ele>
        <time>2014-05-28T10:55:29Z</time>
      </trkpt>
      <trkpt lat="43.21138" lon="5.4971">
        <ele>91.55722</ele>
        <time>2014-05-28T10:55:34Z</time>
      </trkpt>
      <trkpt lat="43.21133" lon="5.49714">
        <ele>90.599014</ele>
        <time>2014-05-28T10:55:41Z</time>
      </trkpt>
      <trkpt lat="43.21129" lon="5.49714">
        <ele>90.599014</ele>
        <time>2014-05-28T10:55:44Z</time>
      </trkpt>
      <trkpt lat="43.21123" lon="5.49712">
        <ele>89.66064</ele>
        <time>2014-05-28T10:55:50Z</time>
      </trkpt>
      <trkpt lat="43.21117" lon="5.49711">
        <ele>89.66064</ele>
        <time>2014-05-28T10:55:55Z</time>
      </trkpt>
      <trkpt lat="43.2111" lon="5.49708">
        <ele>88.712875</ele>
        <time>2014-05-28T10:55:59Z</time>
      </trkpt>
      <trkpt lat="43.21103" lon="5.49707">
        <ele>88.712875</ele>
        <time>2014-05-28T10:56:04Z</time>
      </trkpt>
      <trkpt lat="43.21095" lon="5.49706">
        <ele>87.75747</ele>
        <time>2014-05-28T10:56:10Z</time>
      </trkpt>
      <trkpt lat="43.21092" lon="5.49703">
        <ele>87.75747</ele>
        <time>2014-05-28T10:56:15Z</time>
      </trkpt>
      <trkpt lat="43.21089" lon="5.497">
        <ele>87.75747</ele>
        <time>2014-05-28T10:56:20Z</time>
      </trkpt>
      <trkpt lat="43.21083" lon="5.49693">
        <ele>86.81043</ele>
        <time>2014-05-28T10:56:25Z</time>
      </trkpt>
      <trkpt lat="43.21076" lon="5.49691">
        <ele>86.81043</ele>
        <time>2014-05-28T10:56:29Z</time>
      </trkpt>
      <trkpt lat="43.21072" lon="5.49687">
        <ele>85.886536</ele>
        <time>2014-05-28T10:56:34Z</time>
      </trkpt>
      <trkpt lat="43.21066" lon="5.4968">
        <ele>85.886536</ele>
        <time>2014-05-28T10:56:40Z</time>
      </trkpt>
      <trkpt lat="43.21063" lon="5.49677">
        <ele>84.95613</ele>
        <time>2014-05-28T10:56:45Z</time>
      </trkpt>
      <trkpt lat="43.21059" lon="5.49672">
        <ele>84.95613</ele>
        <time>2014-05-28T10:56:50Z</time>
      </trkpt>
      <trkpt lat="43.21054" lon="5.49672">
        <ele>83.99173</ele>
        <time>2014-05-28T10:56:55Z</time>
      </trkpt>
      <trkpt lat="43.21048" lon="5.49672">
        <ele>83.99173</ele>
        <time>2014-05-28T10:56:59Z</time>
      </trkpt>
      <trkpt lat="43.21046" lon="5.49671">
        <ele>83.99173</ele>
        <time>2014-05-28T10:57:04Z</time>
      </trkpt>
      <trkpt lat="43.21045" lon="5.49671">
        <ele>83.99173</ele>
        <time>2014-05-28T10:57:10Z</time>
      </trkpt>
      <trkpt lat="43.21041" lon="5.49666">
        <ele>82.99674</ele>
        <time>2014-05-28T10:57:14Z</time>
      </trkpt>
      <trkpt lat="43.21039" lon="5.49664">
        <ele>82.99674</ele>
        <time>2014-05-28T10:57:20Z</time>
      </trkpt>
      <trkpt lat="43.21035" lon="5.49667">
        <ele>82.99674</ele>
        <time>2014-05-28T10:57:25Z</time>
      </trkpt>
      <trkpt lat="43.21035" lon="5.49667">
        <ele>82.99674</ele>
        <time>2014-05-28T10:57:29Z</time>
      </trkpt>
      <trkpt lat="43.21032" lon="5.49664">
        <ele>81.29706</ele>
        <time>2014-05-28T10:58:05Z</time>
      </trkpt>
      <trkpt lat="43.21032" lon="5.49664">
        <ele>81.29706</ele>
        <time>2014-05-28T10:58:10Z</time>
      </trkpt>
      <trkpt lat="43.21027" lon="5.49664">
        <ele>81.29706</ele>
        <time>2014-05-28T10:58:20Z</time>
      </trkpt>
      <trkpt lat="43.21023" lon="5.4968">
        <ele>79.68232</ele>
        <time>2014-05-28T10:58:36Z</time>
      </trkpt>
      <trkpt lat="43.21019" lon="5.49686">
        <ele>79.68232</ele>
        <time>2014-05-28T10:58:40Z</time>
      </trkpt>
      <trkpt lat="43.21011" lon="5.49687">
        <ele>78.22095</ele>
        <time>2014-05-28T10:58:45Z</time>
      </trkpt>
      <trkpt lat="43.21007" lon="5.49687">
        <ele>78.22095</ele>
        <time>2014-05-28T10:58:50Z</time>
      </trkpt>
      <trkpt lat="43.20999" lon="5.49692">
        <ele>76.932655</ele>
        <time>2014-05-28T10:58:53Z</time>
      </trkpt>
      <trkpt lat="43.2099" lon="5.49695">
        <ele>76.932655</ele>
        <time>2014-05-28T10:58:58Z</time>
      </trkpt>
      <trkpt lat="43.20983" lon="5.49695">
        <ele>75.82074</ele>
        <time>2014-05-28T10:59:03Z</time>
      </trkpt>
      <trkpt lat="43.20977" lon="5.49693">
        <ele>75.82074</ele>
        <time>2014-05-28T10:59:08Z</time>
      </trkpt>
      <trkpt lat="43.20971" lon="5.4969">
        <ele>74.91655</ele>
        <time>2014-05-28T10:59:13Z</time>
      </trkpt>
      <trkpt lat="43.20966" lon="5.49691">
        <ele>74.91655</ele>
        <time>2014-05-28T10:59:18Z</time>
      </trkpt>
      <trkpt lat="43.20959" lon="5.49691">
        <ele>74.162025</ele>
        <time>2014-05-28T10:59:23Z</time>
      </trkpt>
      <trkpt lat="43.20953" lon="5.49691">
        <ele>74.162025</ele>
        <time>2014-05-28T10:59:28Z</time>
      </trkpt>
      <trkpt lat="43.20949" lon="5.49691">
        <ele>73.53172</ele>
        <time>2014-05-28T10:59:33Z</time>
      </trkpt>
      <trkpt lat="43.20943" lon="5.49694">
        <ele>73.53172</ele>
        <time>2014-05-28T10:59:38Z</time>
      </trkpt>
      <trkpt lat="43.20937" lon="5.49698">
        <ele>72.92963</ele>
        <time>2014-05-28T10:59:43Z</time>
      </trkpt>
      <trkpt lat="43.20932" lon="5.49701">
        <ele>72.92963</ele>
        <time>2014-05-28T10:59:48Z</time>
      </trkpt>
      <trkpt lat="43.20925" lon="5.49703">
        <ele>72.42517</ele>
        <time>2014-05-28T10:59:54Z</time>
      </trkpt>
      <trkpt lat="43.2092" lon="5.49703">
        <ele>72.42517</ele>
        <time>2014-05-28T11:00:00Z</time>
      </trkpt>
      <trkpt lat="43.20915" lon="5.49703">
        <ele>72.010345</ele>
        <time>2014-05-28T11:00:05Z</time>
      </trkpt>
      <trkpt lat="43.20911" lon="5.497">
        <ele>72.010345</ele>
        <time>2014-05-28T11:00:10Z</time>
      </trkpt>
      <trkpt lat="43.20906" lon="5.49701">
        <ele>71.70625</ele>
        <time>2014-05-28T11:00:15Z</time>
      </trkpt>
      <trkpt lat="43.20903" lon="5.49702">
        <ele>71.70625</ele>
        <time>2014-05-28T11:00:19Z</time>
      </trkpt>
      <trkpt lat="43.209" lon="5.49704">
        <ele>71.70625</ele>
        <time>2014-05-28T11:00:23Z</time>
      </trkpt>
      <trkpt lat="43.20894" lon="5.49705">
        <ele>71.47446</ele>
        <time>2014-05-28T11:00:29Z</time>
      </trkpt>
      <trkpt lat="43.2089" lon="5.49705">
        <ele>71.47446</ele>
        <time>2014-05-28T11:00:35Z</time>
      </trkpt>
      <trkpt lat="43.20884" lon="5.49709">
        <ele>71.33679</ele>
        <time>2014-05-28T11:00:40Z</time>
      </trkpt>
      <trkpt lat="43.20878" lon="5.49712">
        <ele>71.33679</ele>
        <time>2014-05-28T11:00:45Z</time>
      </trkpt>
      <trkpt lat="43.20873" lon="5.49715">
        <ele>71.2988</ele>
        <time>2014-05-28T11:00:50Z</time>
      </trkpt>
      <trkpt lat="43.20868" lon="5.49718">
        <ele>71.2988</ele>
        <time>2014-05-28T11:00:53Z</time>
      </trkpt>
      <trkpt lat="43.20862" lon="5.49722">
        <ele>71.322075</ele>
        <time>2014-05-28T11:01:00Z</time>
      </trkpt>
      <trkpt lat="43.20859" lon="5.49722">
        <ele>71.322075</ele>
        <time>2014-05-28T11:01:04Z</time>
      </trkpt>
      <trkpt lat="43.20856" lon="5.49721">
        <ele>71.322075</ele>
        <time>2014-05-28T11:01:09Z</time>
      </trkpt>
      <trkpt lat="43.20851" lon="5.49724">
        <ele>71.39972</ele>
        <time>2014-05-28T11:01:14Z</time>
      </trkpt>
      <trkpt lat="43.20849" lon="5.49725">
        <ele>71.39972</ele>
        <time>2014-05-28T11:01:20Z</time>
      </trkpt>
      <trkpt lat="43.20845" lon="5.49727">
        <ele>71.39972</ele>
        <time>2014-05-28T11:01:24Z</time>
      </trkpt>
      <trkpt lat="43.20841" lon="5.49731">
        <ele>71.48193</ele>
        <time>2014-05-28T11:01:29Z</time>
      </trkpt>
      <trkpt lat="43.20835" lon="5.49734">
        <ele>71.48193</ele>
        <time>2014-05-28T11:01:35Z</time>
      </trkpt>
      <trkpt lat="43.20826" lon="5.49739">
        <ele>71.60907</ele>
        <time>2014-05-28T11:01:40Z</time>
      </trkpt>
      <trkpt lat="43.20818" lon="5.49745">
        <ele>71.77518</ele>
        <time>2014-05-28T11:01:45Z</time>
      </trkpt>
      <trkpt lat="43.20813" lon="5.4975">
        <ele>71.77518</ele>
        <time>2014-05-28T11:01:50Z</time>
      </trkpt>
      <trkpt lat="43.20809" lon="5.49754">
        <ele>71.98905</ele>
        <time>2014-05-28T11:01:53Z</time>
      </trkpt>
      <trkpt lat="43.20803" lon="5.49757">
        <ele>71.98905</ele>
        <time>2014-05-28T11:02:00Z</time>
      </trkpt>
      <trkpt lat="43.20798" lon="5.4976">
        <ele>72.20113</ele>
        <time>2014-05-28T11:02:05Z</time>
      </trkpt>
      <trkpt lat="43.20793" lon="5.49762">
        <ele>72.20113</ele>
        <time>2014-05-28T11:02:10Z</time>
      </trkpt>
      <trkpt lat="43.20791" lon="5.49769">
        <ele>72.40876</ele>
        <time>2014-05-28T11:02:15Z</time>
      </trkpt>
      <trkpt lat="43.20786" lon="5.49774">
        <ele>72.40876</ele>
        <time>2014-05-28T11:02:20Z</time>
      </trkpt>
      <trkpt lat="43.20784" lon="5.49777">
        <ele>72.62395</ele>
        <time>2014-05-28T11:02:23Z</time>
      </trkpt>
      <trkpt lat="43.20779" lon="5.49782">
        <ele>72.62395</ele>
        <time>2014-05-28T11:02:30Z</time>
      </trkpt>
      <trkpt lat="43.20776" lon="5.49785">
        <ele>72.84342</ele>
        <time>2014-05-28T11:02:34Z</time>
      </trkpt>
      <trkpt lat="43.2077" lon="5.49791">
        <ele>72.84342</ele>
        <time>2014-05-28T11:02:40Z</time>
      </trkpt>
      <trkpt lat="43.20766" lon="5.49792">
        <ele>73.04982</ele>
        <time>2014-05-28T11:02:45Z</time>
      </trkpt>
      <trkpt lat="43.20758" lon="5.49797">
        <ele>73.270355</ele>
        <time>2014-05-28T11:02:50Z</time>
      </trkpt>
      <trkpt lat="43.20754" lon="5.498">
        <ele>73.270355</ele>
        <time>2014-05-28T11:02:53Z</time>
      </trkpt>
      <trkpt lat="43.20745" lon="5.49804">
        <ele>73.47263</ele>
        <time>2014-05-28T11:03:01Z</time>
      </trkpt>
      <trkpt lat="43.20739" lon="5.49808">
        <ele>73.47263</ele>
        <time>2014-05-28T11:03:04Z</time>
      </trkpt>
      <trkpt lat="43.20732" lon="5.49811">
        <ele>73.66999</ele>
        <time>2014-05-28T11:03:10Z</time>
      </trkpt>
      <trkpt lat="43.20727" lon="5.49814">
        <ele>73.66999</ele>
        <time>2014-05-28T11:03:15Z</time>
      </trkpt>
      <trkpt lat="43.20726" lon="5.49818">
        <ele>73.66999</ele>
        <time>2014-05-28T11:03:20Z</time>
      </trkpt>
      <trkpt lat="43.20726" lon="5.49824">
        <ele>73.83161</ele>
        <time>2014-05-28T11:03:23Z</time>
      </trkpt>
      <trkpt lat="43.20719" lon="5.49833">
        <ele>73.91473</ele>
        <time>2014-05-28T11:03:31Z</time>
      </trkpt>
      <trkpt lat="43.20716" lon="5.49835">
        <ele>73.91473</ele>
        <time>2014-05-28T11:03:34Z</time>
      </trkpt>
      <trkpt lat="43.20709" lon="5.49839">
        <ele>73.98087</ele>
        <time>2014-05-28T11:03:40Z</time>
      </trkpt>
      <trkpt lat="43.20701" lon="5.49846">
        <ele>74.07277</ele>
        <time>2014-05-28T11:03:48Z</time>
      </trkpt>
      <trkpt lat="43.2069" lon="5.49854">
        <ele>74.15793</ele>
        <time>2014-05-28T11:03:55Z</time>
      </trkpt>
      <trkpt lat="43.20684" lon="5.49858">
        <ele>74.15793</ele>
        <time>2014-05-28T11:04:00Z</time>
      </trkpt>
      <trkpt lat="43.20679" lon="5.49863">
        <ele>74.20636</ele>
        <time>2014-05-28T11:04:05Z</time>
      </trkpt>
      <trkpt lat="43.20675" lon="5.49868">
        <ele>74.20636</ele>
        <time>2014-05-28T11:04:10Z</time>
      </trkpt>
      <trkpt lat="43.20677" lon="5.49876">
        <ele>74.21926</ele>
        <time>2014-05-28T11:04:15Z</time>
      </trkpt>
      <trkpt lat="43.20672" lon="5.4988">
        <ele>74.21926</ele>
        <time>2014-05-28T11:04:19Z</time>
      </trkpt>
      <trkpt lat="43.20667" lon="5.49883">
        <ele>74.18351</ele>
        <time>2014-05-28T11:04:27Z</time>
      </trkpt>
      <trkpt lat="43.20662" lon="5.49885">
        <ele>74.18351</ele>
        <time>2014-05-28T11:04:29Z</time>
      </trkpt>
      <trkpt lat="43.20655" lon="5.4989">
        <ele>74.08713</ele>
        <time>2014-05-28T11:04:35Z</time>
      </trkpt>
      <trkpt lat="43.2065" lon="5.49893">
        <ele>74.08713</ele>
        <time>2014-05-28T11:04:39Z</time>
      </trkpt>
      <trkpt lat="43.20641" lon="5.49897">
        <ele>73.99134</ele>
        <time>2014-05-28T11:04:45Z</time>
      </trkpt>
      <trkpt lat="43.20635" lon="5.499">
        <ele>73.99134</ele>
        <time>2014-05-28T11:04:49Z</time>
      </trkpt>
      <trkpt lat="43.20629" lon="5.49901">
        <ele>73.89527</ele>
        <time>2014-05-28T11:04:54Z</time>
      </trkpt>
      <trkpt lat="43.2062" lon="5.499">
        <ele>73.79818</ele>
        <time>2014-05-28T11:05:01Z</time>
      </trkpt>
      <trkpt lat="43.20616" lon="5.499">
        <ele>73.79818</ele>
        <time>2014-05-28T11:05:04Z</time>
      </trkpt>
      <trkpt lat="43.20612" lon="5.49904">
        <ele>73.79818</ele>
        <time>2014-05-28T11:05:10Z</time>
      </trkpt>
      <trkpt lat="43.20617" lon="5.49906">
        <ele>72.56097</ele>
        <time>2014-05-28T11:05:40Z</time>
      </trkpt>
      <trkpt lat="43.20616" lon="5.49905">
        <ele>72.56097</ele>
        <time>2014-05-28T11:05:45Z</time>
      </trkpt>
      <trkpt lat="43.20613" lon="5.49886">
        <ele>70.32756</ele>
        <time>2014-05-28T11:06:34Z</time>
      </trkpt>
      <trkpt lat="43.20615" lon="5.49879">
        <ele>70.32756</ele>
        <time>2014-05-28T11:06:38Z</time>
      </trkpt>
      <trkpt lat="43.20617" lon="5.4987">
        <ele>68.026794</ele>
        <time>2014-05-28T11:06:43Z</time>
      </trkpt>
      <trkpt lat="43.20618" lon="5.49858">
        <ele>68.026794</ele>
        <time>2014-05-28T11:06:48Z</time>
      </trkpt>
      <trkpt lat="43.20621" lon="5.49852">
        <ele>65.6836</ele>
        <time>2014-05-28T11:06:53Z</time>
      </trkpt>
      <trkpt lat="43.20627" lon="5.49847">
        <ele>65.6836</ele>
        <time>2014-05-28T11:06:58Z</time>
      </trkpt>
      <trkpt lat="43.20633" lon="5.49842">
        <ele>63.33566</ele>
        <time>2014-05-28T11:07:03Z</time>
      </trkpt>
      <trkpt lat="43.20638" lon="5.49835">
        <ele>63.33566</ele>
        <time>2014-05-28T11:07:08Z</time>
      </trkpt>
      <trkpt lat="43.20642" lon="5.4983">
        <ele>61.003437</ele>
        <time>2014-05-28T11:07:13Z</time>
      </trkpt>
      <trkpt lat="43.20643" lon="5.49823">
        <ele>61.003437</ele>
        <time>2014-05-28T11:07:18Z</time>
      </trkpt>
      <trkpt lat="43.20645" lon="5.49816">
        <ele>58.763496</ele>
        <time>2014-05-28T11:07:24Z</time>
      </trkpt>
      <trkpt lat="43.20652" lon="5.4981">
        <ele>58.763496</ele>
        <time>2014-05-28T11:07:30Z</time>
      </trkpt>
      <trkpt lat="43.20651" lon="5.49806">
        <ele>56.62881</ele>
        <time>2014-05-28T11:07:35Z</time>
      </trkpt>
      <trkpt lat="43.20652" lon="5.49796">
        <ele>56.62881</ele>
        <time>2014-05-28T11:07:40Z</time>
      </trkpt>
      <trkpt lat="43.20653" lon="5.49788">
        <ele>54.611073</ele>
        <time>2014-05-28T11:07:45Z</time>
      </trkpt>
      <trkpt lat="43.20652" lon="5.49779">
        <ele>54.611073</ele>
        <time>2014-05-28T11:07:49Z</time>
      </trkpt>
      <trkpt lat="43.20652" lon="5.49773">
        <ele>52.73511</ele>
        <time>2014-05-28T11:07:54Z</time>
      </trkpt>
      <trkpt lat="43.20655" lon="5.49762">
        <ele>52.73511</ele>
        <time>2014-05-28T11:08:00Z</time>
      </trkpt>
      <trkpt lat="43.20655" lon="5.49759">
        <ele>50.99466</ele>
        <time>2014-05-28T11:08:04Z</time>
      </trkpt>
      <trkpt lat="43.20651" lon="5.49751">
        <ele>50.99466</ele>
        <time>2014-05-28T11:08:10Z</time>
      </trkpt>
      <trkpt lat="43.20649" lon="5.49743">
        <ele>49.311375</ele>
        <time>2014-05-28T11:08:15Z</time>
      </trkpt>
      <trkpt lat="43.20649" lon="5.49742">
        <ele>49.311375</ele>
        <time>2014-05-28T11:08:19Z</time>
      </trkpt>
      <trkpt lat="43.20648" lon="5.49728">
        <ele>47.67008</ele>
        <time>2014-05-28T11:08:24Z</time>
      </trkpt>
      <trkpt lat="43.20645" lon="5.49719">
        <ele>47.67008</ele>
        <time>2014-05-28T11:08:30Z</time>
      </trkpt>
      <trkpt lat="43.20645" lon="5.49716">
        <ele>46.12855</ele>
        <time>2014-05-28T11:08:34Z</time>
      </trkpt>
      <trkpt lat="43.20645" lon="5.49712">
        <ele>46.12855</ele>
        <time>2014-05-28T11:08:40Z</time>
      </trkpt>
      <trkpt lat="43.20644" lon="5.49714">
        <ele>46.12855</ele>
        <time>2014-05-28T11:08:45Z</time>
      </trkpt>
      <trkpt lat="43.20643" lon="5.49714">
        <ele>46.12855</ele>
        <time>2014-05-28T11:08:49Z</time>
      </trkpt>
      <trkpt lat="43.20636" lon="5.49712">
        <ele>44.72555</ele>
        <time>2014-05-28T11:09:16Z</time>
      </trkpt>
      <trkpt lat="43.20633" lon="5.49715">
        <ele>44.72555</ele>
        <time>2014-05-28T11:09:18Z</time>
      </trkpt>
      <trkpt lat="43.20631" lon="5.49714">
        <ele>44.72555</ele>
        <time>2014-05-28T11:09:25Z</time>
      </trkpt>
      <trkpt lat="43.20625" lon="5.49712">
        <ele>43.51091</ele>
        <time>2014-05-28T11:09:30Z</time>
      </trkpt>
      <trkpt lat="43.20621" lon="5.49711">
        <ele>43.51091</ele>
        <time>2014-05-28T11:09:34Z</time>
      </trkpt>
      <trkpt lat="43.2061" lon="5.49707">
        <ele>42.429302</ele>
        <time>2014-05-28T11:09:40Z</time>
      </trkpt>
      <trkpt lat="43.206" lon="5.49703">
        <ele>41.472233</ele>
        <time>2014-05-28T11:09:45Z</time>
      </trkpt>
      <trkpt lat="43.20593" lon="5.49703">
        <ele>41.472233</ele>
        <time>2014-05-28T11:09:49Z</time>
      </trkpt>
      <trkpt lat="43.20587" lon="5.49698">
        <ele>40.645805</ele>
        <time>2014-05-28T11:09:55Z</time>
      </trkpt>
      <trkpt lat="43.20581" lon="5.49695">
        <ele>40.645805</ele>
        <time>2014-05-28T11:10:00Z</time>
      </trkpt>
      <trkpt lat="43.20575" lon="5.49689">
        <ele>39.94082</ele>
        <time>2014-05-28T11:10:05Z</time>
      </trkpt>
      <trkpt lat="43.2057" lon="5.49685">
        <ele>39.94082</ele>
        <time>2014-05-28T11:10:10Z</time>
      </trkpt>
      <trkpt lat="43.20565" lon="5.49685">
        <ele>39.377136</ele>
        <time>2014-05-28T11:10:15Z</time>
      </trkpt>
      <trkpt lat="43.20562" lon="5.49682">
        <ele>39.377136</ele>
        <time>2014-05-28T11:10:18Z</time>
      </trkpt>
      <trkpt lat="43.20554" lon="5.4967">
        <ele>38.92947</ele>
        <time>2014-05-28T11:10:25Z</time>
      </trkpt>
      <trkpt lat="43.20549" lon="5.49663">
        <ele>38.92947</ele>
        <time>2014-05-28T11:10:29Z</time>
      </trkpt>
      <trkpt lat="43.20544" lon="5.49657">
        <ele>38.588406</ele>
        <time>2014-05-28T11:10:35Z</time>
      </trkpt>
      <trkpt lat="43.2054" lon="5.49651">
        <ele>38.588406</ele>
        <time>2014-05-28T11:10:40Z</time>
      </trkpt>
      <trkpt lat="43.20536" lon="5.49648">
        <ele>38.34486</ele>
        <time>2014-05-28T11:10:45Z</time>
      </trkpt>
      <trkpt lat="43.20532" lon="5.49644">
        <ele>38.34486</ele>
        <time>2014-05-28T11:10:48Z</time>
      </trkpt>
      <trkpt lat="43.20526" lon="5.49638">
        <ele>38.190105</ele>
        <time>2014-05-28T11:10:55Z</time>
      </trkpt>
      <trkpt lat="43.20521" lon="5.49639">
        <ele>38.190105</ele>
        <time>2014-05-28T11:10:59Z</time>
      </trkpt>
      <trkpt lat="43.20516" lon="5.4964">
        <ele>38.115746</ele>
        <time>2014-05-28T11:11:05Z</time>
      </trkpt>
      <trkpt lat="43.20505" lon="5.49651">
        <ele>38.128166</ele>
        <time>2014-05-28T11:11:10Z</time>
      </trkpt>
      <trkpt lat="43.20498" lon="5.49658">
        <ele>38.233017</ele>
        <time>2014-05-28T11:11:15Z</time>
      </trkpt>
      <trkpt lat="43.20493" lon="5.49661">
        <ele>38.233017</ele>
        <time>2014-05-28T11:11:18Z</time>
      </trkpt>
      <trkpt lat="43.20483" lon="5.49666">
        <ele>38.464073</ele>
        <time>2014-05-28T11:11:26Z</time>
      </trkpt>
      <trkpt lat="43.20479" lon="5.49668">
        <ele>38.464073</ele>
        <time>2014-05-28T11:11:30Z</time>
      </trkpt>
      <trkpt lat="43.20475" lon="5.49669">
        <ele>38.464073</ele>
        <time>2014-05-28T11:11:35Z</time>
      </trkpt>
      <trkpt lat="43.20471" lon="5.49668">
        <ele>38.78022</ele>
        <time>2014-05-28T11:11:40Z</time>
      </trkpt>
      <trkpt lat="43.20469" lon="5.49665">
        <ele>38.78022</ele>
        <time>2014-05-28T11:11:45Z</time>
      </trkpt>
      <trkpt lat="43.20466" lon="5.49665">
        <ele>38.78022</ele>
        <time>2014-05-28T11:11:49Z</time>
      </trkpt>
      <trkpt lat="43.20459" lon="5.4966">
        <ele>39.143124</ele>
        <time>2014-05-28T11:11:55Z</time>
      </trkpt>
      <trkpt lat="43.20457" lon="5.49655">
        <ele>39.143124</ele>
        <time>2014-05-28T11:12:00Z</time>
      </trkpt>
      <trkpt lat="43.20454" lon="5.49653">
        <ele>39.143124</ele>
        <time>2014-05-28T11:12:05Z</time>
      </trkpt>
      <trkpt lat="43.20449" lon="5.49657">
        <ele>39.589207</ele>
        <time>2014-05-28T11:12:10Z</time>
      </trkpt>
      <trkpt lat="43.20448" lon="5.49658">
        <ele>39.589207</ele>
        <time>2014-05-28T11:12:14Z</time>
      </trkpt>
      <trkpt lat="43.20444" lon="5.49653">
        <ele>39.589207</ele>
        <time>2014-05-28T11:12:40Z</time>
      </trkpt>
      <trkpt lat="43.20441" lon="5.49651">
        <ele>40.06554</ele>
        <time>2014-05-28T11:12:44Z</time>
      </trkpt>
      <trkpt lat="43.20438" lon="5.49652">
        <ele>40.06554</ele>
        <time>2014-05-28T11:12:49Z</time>
      </trkpt>
      <trkpt lat="43.20429" lon="5.49655">
        <ele>40.537437</ele>
        <time>2014-05-28T11:12:55Z</time>
      </trkpt>
      <trkpt lat="43.20427" lon="5.49654">
        <ele>40.537437</ele>
        <time>2014-05-28T11:13:02Z</time>
      </trkpt>
      <trkpt lat="43.20423" lon="5.49651">
        <ele>40.537437</ele>
        <time>2014-05-28T11:13:04Z</time>
      </trkpt>
      <trkpt lat="43.20418" lon="5.49651">
        <ele>41.016045</ele>
        <time>2014-05-28T11:13:10Z</time>
      </trkpt>
      <trkpt lat="43.20414" lon="5.49654">
        <ele>41.016045</ele>
        <time>2014-05-28T11:13:14Z</time>
      </trkpt>
      <trkpt lat="43.20413" lon="5.49653">
        <ele>41.016045</ele>
        <time>2014-05-28T11:13:19Z</time>
      </trkpt>
      <trkpt lat="43.20412" lon="5.49653">
        <ele>41.016045</ele>
        <time>2014-05-28T11:13:24Z</time>
      </trkpt>
      <trkpt lat="43.2042" lon="5.49664">
        <ele>41.540546</ele>
        <time>2014-05-28T11:13:35Z</time>
      </trkpt>
      <trkpt lat="43.20419" lon="5.49664">
        <ele>41.540546</ele>
        <time>2014-05-28T11:13:40Z</time>
      </trkpt>
      <trkpt lat="43.20411" lon="5.49655">
        <ele>42.089523</ele>
        <time>2014-05-28T11:14:04Z</time>
      </trkpt>
      <trkpt lat="43.20408" lon="5.49651">
        <ele>42.089523</ele>
        <time>2014-05-28T11:14:10Z</time>
      </trkpt>
      <trkpt lat="43.20406" lon="5.49649">
        <ele>42.089523</ele>
        <time>2014-05-28T11:14:13Z</time>
      </trkpt>
      <trkpt lat="43.20402" lon="5.49645">
        <ele>42.62871</ele>
        <time>2014-05-28T11:14:20Z</time>
      </trkpt>
      <trkpt lat="43.20399" lon="5.49642">
        <ele>42.62871</ele>
        <time>2014-05-28T11:14:25Z</time>
      </trkpt>
      <trkpt lat="43.20394" lon="5.49642">
        <ele>42.62871</ele>
        <time>2014-05-28T11:14:30Z</time>
      </trkpt>
      <trkpt lat="43.20392" lon="5.49642">
        <ele>43.155293</ele>
        <time>2014-05-28T11:14:34Z</time>
      </trkpt>
      <trkpt lat="43.20383" lon="5.4964">
        <ele>43.155293</ele>
        <time>2014-05-28T11:14:40Z</time>
      </trkpt>
      <trkpt lat="43.20382" lon="5.49636">
        <ele>43.652336</ele>
        <time>2014-05-28T11:14:43Z</time>
      </trkpt>
      <trkpt lat="43.20377" lon="5.49633">
        <ele>43.652336</ele>
        <time>2014-05-28T11:14:50Z</time>
      </trkpt>
      <trkpt lat="43.20373" lon="5.49634">
        <ele>43.652336</ele>
        <time>2014-05-28T11:14:53Z</time>
      </trkpt>
      <trkpt lat="43.20368" lon="5.49636">
        <ele>44.133152</ele>
        <time>2014-05-28T11:14:58Z</time>
      </trkpt>
      <trkpt lat="43.20357" lon="5.49646">
        <ele>44.63902</ele>
        <time>2014-05-28T11:15:03Z</time>
      </trkpt>
      <trkpt lat="43.20351" lon="5.49651">
        <ele>44.63902</ele>
        <time>2014-05-28T11:15:08Z</time>
      </trkpt>
      <trkpt lat="43.2034" lon="5.49661">
        <ele>45.280247</ele>
        <time>2014-05-28T11:15:13Z</time>
      </trkpt>
      <trkpt lat="43.20334" lon="5.49662">
        <ele>45.280247</ele>
        <time>2014-05-28T11:15:18Z</time>
      </trkpt>
      <trkpt lat="43.2033" lon="5.4966">
        <ele>45.87054</ele>
        <time>2014-05-28T11:15:23Z</time>
      </trkpt>
      <trkpt lat="43.20329" lon="5.49657">
        <ele>45.87054</ele>
        <time>2014-05-28T11:15:28Z</time>
      </trkpt>
      <trkpt lat="43.20331" lon="5.49649">
        <ele>45.87054</ele>
        <time>2014-05-28T11:15:33Z</time>
      </trkpt>
      <trkpt lat="43.2033" lon="5.49648">
        <ele>46.323982</ele>
        <time>2014-05-28T11:15:38Z</time>
      </trkpt>
      <trkpt lat="43.20325" lon="5.49642">
        <ele>46.323982</ele>
        <time>2014-05-28T11:15:48Z</time>
      </trkpt>
      <trkpt lat="43.20319" lon="5.49643">
        <ele>46.70556</ele>
        <time>2014-05-28T11:15:55Z</time>
      </trkpt>
      <trkpt lat="43.20316" lon="5.49643">
        <ele>46.70556</ele>
        <time>2014-05-28T11:16:00Z</time>
      </trkpt>
      <trkpt lat="43.20312" lon="5.4964">
        <ele>46.70556</ele>
        <time>2014-05-28T11:16:05Z</time>
      </trkpt>
      <trkpt lat="43.20306" lon="5.4964">
        <ele>47.061367</ele>
        <time>2014-05-28T11:16:09Z</time>
      </trkpt>
      <trkpt lat="43.20303" lon="5.49646">
        <ele>47.061367</ele>
        <time>2014-05-28T11:16:13Z</time>
      </trkpt>
      <trkpt lat="43.20298" lon="5.49657">
        <ele>47.319</ele>
        <time>2014-05-28T11:16:20Z</time>
      </trkpt>
      <trkpt lat="43.20293" lon="5.49667">
        <ele>47.527023</ele>
        <time>2014-05-28T11:16:25Z</time>
      </trkpt>
      <trkpt lat="43.20287" lon="5.49675">
        <ele>47.527023</ele>
        <time>2014-05-28T11:16:30Z</time>
      </trkpt>
      <trkpt lat="43.20285" lon="5.49681">
        <ele>47.658615</ele>
        <time>2014-05-28T11:16:35Z</time>
      </trkpt>
      <trkpt lat="43.20288" lon="5.49688">
        <ele>47.658615</ele>
        <time>2014-05-28T11:16:40Z</time>
      </trkpt>
      <trkpt lat="43.20292" lon="5.49693">
        <ele>47.746872</ele>
        <time>2014-05-28T11:16:44Z</time>
      </trkpt>
      <trkpt lat="43.20293" lon="5.49693">
        <ele>47.746872</ele>
        <time>2014-05-28T11:16:51Z</time>
      </trkpt>
      <trkpt lat="43.20295" lon="5.49707">
        <ele>47.79385</ele>
        <time>2014-05-28T11:17:00Z</time>
      </trkpt>
      <trkpt lat="43.20295" lon="5.49708">
        <ele>47.79385</ele>
        <time>2014-05-28T11:17:05Z</time>
      </trkpt>
      <trkpt lat="43.20296" lon="5.49722">
        <ele>47.772827</ele>
        <time>2014-05-28T11:17:20Z</time>
      </trkpt>
      <trkpt lat="43.20298" lon="5.49726">
        <ele>47.772827</ele>
        <time>2014-05-28T11:17:25Z</time>
      </trkpt>
      <trkpt lat="43.20296" lon="5.49729">
        <ele>47.772827</ele>
        <time>2014-05-28T11:17:30Z</time>
      </trkpt>
      <trkpt lat="43.20292" lon="5.49734">
        <ele>47.71697</ele>
        <time>2014-05-28T11:17:35Z</time>
      </trkpt>
      <trkpt lat="43.20294" lon="5.49741">
        <ele>47.71697</ele>
        <time>2014-05-28T11:17:39Z</time>
      </trkpt>
      <trkpt lat="43.20299" lon="5.49745">
        <ele>47.628345</ele>
        <time>2014-05-28T11:17:44Z</time>
      </trkpt>
      <trkpt lat="43.20298" lon="5.49748">
        <ele>47.628345</ele>
        <time>2014-05-28T11:17:50Z</time>
      </trkpt>
      <trkpt lat="43.2027" lon="5.49733">
        <ele>47.609932</ele>
        <time>2014-05-28T11:18:05Z</time>
      </trkpt>
      <trkpt lat="43.20254" lon="5.49726">
        <ele>47.598476</ele>
        <time>2014-05-28T11:18:09Z</time>
      </trkpt>
      <trkpt lat="43.20244" lon="5.4972">
        <ele>47.57866</ele>
        <time>2014-05-28T11:18:14Z</time>
      </trkpt>
      <trkpt lat="43.20236" lon="5.49721">
        <ele>47.57866</ele>
        <time>2014-05-28T11:18:20Z</time>
      </trkpt>
      <trkpt lat="43.20236" lon="5.49726">
        <ele>47.50754</ele>
        <time>2014-05-28T11:18:24Z</time>
      </trkpt>
      <trkpt lat="43.20234" lon="5.49733">
        <ele>47.50754</ele>
        <time>2014-05-28T11:18:30Z</time>
      </trkpt>
      <trkpt lat="43.20237" lon="5.49739">
        <ele>47.345547</ele>
        <time>2014-05-28T11:18:35Z</time>
      </trkpt>
      <trkpt lat="43.20235" lon="5.49743">
        <ele>47.345547</ele>
        <time>2014-05-28T11:18:39Z</time>
      </trkpt>
      <trkpt lat="43.20234" lon="5.49746">
        <ele>47.345547</ele>
        <time>2014-05-28T11:18:43Z</time>
      </trkpt>
      <trkpt lat="43.20236" lon="5.49753">
        <ele>47.12836</ele>
        <time>2014-05-28T11:18:52Z</time>
      </trkpt>
      <trkpt lat="43.2024" lon="5.49757">
        <ele>47.12836</ele>
        <time>2014-05-28T11:18:54Z</time>
      </trkpt>
      <trkpt lat="43.20241" lon="5.49759">
        <ele>47.12836</ele>
        <time>2014-05-28T11:19:00Z</time>
      </trkpt>
      <trkpt lat="43.2024" lon="5.49765">
        <ele>46.87485</ele>
        <time>2014-05-28T11:19:04Z</time>
      </trkpt>
      <trkpt lat="43.20264" lon="5.49778">
        <ele>46.674686</ele>
        <time>2014-05-28T11:19:09Z</time>
      </trkpt>
      <trkpt lat="43.20281" lon="5.49786">
        <ele>46.524384</ele>
        <time>2014-05-28T11:19:15Z</time>
      </trkpt>
      <trkpt lat="43.20283" lon="5.49791">
        <ele>46.524384</ele>
        <time>2014-05-28T11:19:20Z</time>
      </trkpt>
      <trkpt lat="43.20284" lon="5.49793">
        <ele>46.524384</ele>
        <time>2014-05-28T11:19:26Z</time>
      </trkpt>
      <trkpt lat="43.20292" lon="5.49807">
        <ele>46.377365</ele>
        <time>2014-05-28T11:19:35Z</time>
      </trkpt>
      <trkpt lat="43.20299" lon="5.49812">
        <ele>46.377365</ele>
        <time>2014-05-28T11:19:38Z</time>
      </trkpt>
      <trkpt lat="43.20311" lon="5.4982">
        <ele>46.26256</ele>
        <time>2014-05-28T11:19:45Z</time>
      </trkpt>
      <trkpt lat="43.20316" lon="5.49825">
        <ele>46.26256</ele>
        <time>2014-05-28T11:19:50Z</time>
      </trkpt>
      <trkpt lat="43.20318" lon="5.49828">
        <ele>46.177895</ele>
        <time>2014-05-28T11:19:55Z</time>
      </trkpt>
      <trkpt lat="43.20317" lon="5.49829">
        <ele>46.177895</ele>
        <time>2014-05-28T11:20:00Z</time>
      </trkpt>
      <trkpt lat="43.20315" lon="5.4983">
        <ele>46.177895</ele>
        <time>2014-05-28T11:20:05Z</time>
      </trkpt>
      <trkpt lat="43.20321" lon="5.49833">
        <ele>46.207832</ele>
        <time>2014-05-28T11:20:23Z</time>
      </trkpt>
      <trkpt lat="43.20325" lon="5.49835">
        <ele>46.207832</ele>
        <time>2014-05-28T11:20:28Z</time>
      </trkpt>
      <trkpt lat="43.20326" lon="5.49832">
        <ele>46.207832</ele>
        <time>2014-05-28T11:20:33Z</time>
      </trkpt>
      <trkpt lat="43.20327" lon="5.49817">
        <ele>46.32948</ele>
        <time>2014-05-28T11:20:43Z</time>
      </trkpt>
      <trkpt lat="43.20326" lon="5.49819">
        <ele>46.32948</ele>
        <time>2014-05-28T11:20:48Z</time>
      </trkpt>
      <trkpt lat="43.20314" lon="5.49814">
        <ele>46.478134</ele>
        <time>2014-05-28T11:21:13Z</time>
      </trkpt>
      <trkpt lat="43.20313" lon="5.4981">
        <ele>46.478134</ele>
        <time>2014-05-28T11:21:18Z</time>
      </trkpt>
      <trkpt lat="43.20307" lon="5.49806">
        <ele>46.507343</ele>
        <time>2014-05-28T11:21:23Z</time>
      </trkpt>
      <trkpt lat="43.203" lon="5.498">
        <ele>46.507343</ele>
        <time>2014-05-28T11:21:28Z</time>
      </trkpt>
      <trkpt lat="43.20293" lon="5.49791">
        <ele>46.42586</ele>
        <time>2014-05-28T11:21:33Z</time>
      </trkpt>
      <trkpt lat="43.20289" lon="5.49786">
        <ele>46.42586</ele>
        <time>2014-05-28T11:21:38Z</time>
      </trkpt>
      <trkpt lat="43.20287" lon="5.49784">
        <ele>46.42586</ele>
        <time>2014-05-28T11:21:43Z</time>
      </trkpt>
      <trkpt lat="43.2029" lon="5.49785">
        <ele>46.314194</ele>
        <time>2014-05-28T11:21:48Z</time>
      </trkpt>
      <trkpt lat="43.20301" lon="5.49789">
        <ele>46.030857</ele>
        <time>2014-05-28T11:22:23Z</time>
      </trkpt>
      <trkpt lat="43.20304" lon="5.49789">
        <ele>46.030857</ele>
        <time>2014-05-28T11:22:28Z</time>
      </trkpt>
      <trkpt lat="43.20294" lon="5.49784">
        <ele>45.66143</ele>
        <time>2014-05-28T11:22:38Z</time>
      </trkpt>
      <trkpt lat="43.20288" lon="5.49782">
        <ele>45.66143</ele>
        <time>2014-05-28T11:22:43Z</time>
      </trkpt>
      <trkpt lat="43.20287" lon="5.49785">
        <ele>45.66143</ele>
        <time>2014-05-28T11:22:48Z</time>
      </trkpt>
      <trkpt lat="43.20286" lon="5.49785">
        <ele>45.66143</ele>
        <time>2014-05-28T11:22:53Z</time>
      </trkpt>
      <trkpt lat="43.20298" lon="5.49781">
        <ele>45.213394</ele>
        <time>2014-05-28T11:23:23Z</time>
      </trkpt>
      <trkpt lat="43.20312" lon="5.49786">
        <ele>44.765965</ele>
        <time>2014-05-28T11:23:28Z</time>
      </trkpt>
      <trkpt lat="43.20321" lon="5.4979">
        <ele>44.334885</ele>
        <time>2014-05-28T11:23:33Z</time>
      </trkpt>
      <trkpt lat="43.20319" lon="5.49792">
        <ele>44.334885</ele>
        <time>2014-05-28T11:23:38Z</time>
      </trkpt>
      <trkpt lat="43.20316" lon="5.49791">
        <ele>44.334885</ele>
        <time>2014-05-28T11:23:43Z</time>
      </trkpt>
      <trkpt lat="43.20309" lon="5.49789">
        <ele>43.963528</ele>
        <time>2014-05-28T11:23:48Z</time>
      </trkpt>
      <trkpt lat="43.20309" lon="5.49789">
        <ele>43.963528</ele>
        <time>2014-05-28T11:23:53Z</time>
      </trkpt>
      <trkpt lat="43.20298" lon="5.49791">
        <ele>43.61984</ele>
        <time>2014-05-28T11:23:58Z</time>
      </trkpt>
      <trkpt lat="43.20298" lon="5.49791">
        <ele>43.61984</ele>
        <time>2014-05-28T11:24:08Z</time>
      </trkpt>
      <trkpt lat="43.20328" lon="5.49798">
        <ele>43.40374</ele>
        <time>2014-05-28T11:24:13Z</time>
      </trkpt>
      <trkpt lat="43.20325" lon="5.49797">
        <ele>43.40374</ele>
        <time>2014-05-28T11:24:18Z</time>
      </trkpt>
      <trkpt lat="43.20232" lon="5.49774">
        <ele>42.35542</ele>
        <time>2014-05-28T11:24:23Z</time>
      </trkpt>
      <trkpt lat="43.20222" lon="5.49772">
        <ele>41.187534</ele>
        <time>2014-05-28T11:24:28Z</time>
      </trkpt>
      <trkpt lat="43.20223" lon="5.49772">
        <ele>41.187534</ele>
        <time>2014-05-28T11:24:34Z</time>
      </trkpt>
      <trkpt lat="43.20231" lon="5.49781">
        <ele>38.658424</ele>
        <time>2014-05-28T11:25:58Z</time>
      </trkpt>
      <trkpt lat="43.20233" lon="5.49783">
        <ele>38.658424</ele>
        <time>2014-05-28T11:26:03Z</time>
      </trkpt>
      <trkpt lat="43.20233" lon="5.49781">
        <ele>38.658424</ele>
        <time>2014-05-28T11:26:08Z</time>
      </trkpt>
      <trkpt lat="43.20229" lon="5.49777">
        <ele>38.658424</ele>
        <time>2014-05-28T11:26:13Z</time>
      </trkpt>
      <trkpt lat="43.20219" lon="5.49768">
        <ele>36.287487</ele>
        <time>2014-05-28T11:26:23Z</time>
      </trkpt>
      <trkpt lat="43.20219" lon="5.49768">
        <ele>36.287487</ele>
        <time>2014-05-28T11:26:28Z</time>
      </trkpt>
      <trkpt lat="43.20392" lon="5.49596">
        <ele>4.2009287</ele>
        <time>2014-05-28T13:09:40Z</time>
      </trkpt>
      <trkpt lat="43.20404" lon="5.49602">
        <ele>9.723368</ele>
        <time>2014-05-28T13:09:45Z</time>
      </trkpt>
      <trkpt lat="43.20404" lon="5.49604">
        <ele>9.723368</ele>
        <time>2014-05-28T13:09:50Z</time>
      </trkpt>
      <trkpt lat="43.20399" lon="5.4961">
        <ele>9.723368</ele>
        <time>2014-05-28T13:09:55Z</time>
      </trkpt>
      <trkpt lat="43.20404" lon="5.49608">
        <ele>7.3461666</ele>
        <time>2014-05-28T13:10:00Z</time>
      </trkpt>
      <trkpt lat="43.20411" lon="5.49607">
        <ele>7.3461666</ele>
        <time>2014-05-28T13:10:04Z</time>
      </trkpt>
      <trkpt lat="43.20413" lon="5.49606">
        <ele>3.0945666</ele>
        <time>2014-05-28T13:10:09Z</time>
      </trkpt>
      <trkpt lat="43.2042" lon="5.49607">
        <ele>3.0945666</ele>
        <time>2014-05-28T13:10:16Z</time>
      </trkpt>
      <trkpt lat="43.20431" lon="5.49617">
        <ele>2.5194278</ele>
        <time>2014-05-28T13:10:20Z</time>
      </trkpt>
      <trkpt lat="43.20447" lon="5.49635">
        <ele>3.497879</ele>
        <time>2014-05-28T13:10:25Z</time>
      </trkpt>
      <trkpt lat="43.20456" lon="5.49635">
        <ele>3.4881582</ele>
        <time>2014-05-28T13:10:30Z</time>
      </trkpt>
      <trkpt lat="43.20464" lon="5.49636">
        <ele>3.4881582</ele>
        <time>2014-05-28T13:10:35Z</time>
      </trkpt>
      <trkpt lat="43.20471" lon="5.49639">
        <ele>3.4294608</ele>
        <time>2014-05-28T13:10:40Z</time>
      </trkpt>
      <trkpt lat="43.20476" lon="5.4964">
        <ele>3.4294608</ele>
        <time>2014-05-28T13:10:45Z</time>
      </trkpt>
      <trkpt lat="43.20479" lon="5.49639">
        <ele>3.4294608</ele>
        <time>2014-05-28T13:10:50Z</time>
      </trkpt>
      <trkpt lat="43.2048" lon="5.4964">
        <ele>4.2683234</ele>
        <time>2014-05-28T13:10:55Z</time>
      </trkpt>
      <trkpt lat="43.20484" lon="5.49643">
        <ele>4.2683234</ele>
        <time>2014-05-28T13:11:00Z</time>
      </trkpt>
      <trkpt lat="43.20488" lon="5.49642">
        <ele>4.2683234</ele>
        <time>2014-05-28T13:11:05Z</time>
      </trkpt>
      <trkpt lat="43.20491" lon="5.49641">
        <ele>4.2743864</ele>
        <time>2014-05-28T13:11:10Z</time>
      </trkpt>
      <trkpt lat="43.20502" lon="5.49645">
        <ele>4.177432</ele>
        <time>2014-05-28T13:11:15Z</time>
      </trkpt>
      <trkpt lat="43.20507" lon="5.49645">
        <ele>4.177432</ele>
        <time>2014-05-28T13:11:20Z</time>
      </trkpt>
      <trkpt lat="43.20509" lon="5.49644">
        <ele>4.177432</ele>
        <time>2014-05-28T13:11:25Z</time>
      </trkpt>
      <trkpt lat="43.20511" lon="5.49644">
        <ele>3.5029302</ele>
        <time>2014-05-28T13:11:30Z</time>
      </trkpt>
      <trkpt lat="43.20517" lon="5.49642">
        <ele>3.5029302</ele>
        <time>2014-05-28T13:11:35Z</time>
      </trkpt>
      <trkpt lat="43.20521" lon="5.4964">
        <ele>3.2373612</ele>
        <time>2014-05-28T13:11:40Z</time>
      </trkpt>
      <trkpt lat="43.20545" lon="5.49636">
        <ele>6.5834513</ele>
        <time>2014-05-28T13:11:45Z</time>
      </trkpt>
      <trkpt lat="43.20541" lon="5.49629">
        <ele>6.5834513</ele>
        <time>2014-05-28T13:11:49Z</time>
      </trkpt>
      <trkpt lat="43.20541" lon="5.49625">
        <ele>10.345987</ele>
        <time>2014-05-28T13:11:55Z</time>
      </trkpt>
      <trkpt lat="43.2054" lon="5.49621">
        <ele>10.345987</ele>
        <time>2014-05-28T13:12:00Z</time>
      </trkpt>
      <trkpt lat="43.20538" lon="5.49614">
        <ele>10.345987</ele>
        <time>2014-05-28T13:12:05Z</time>
      </trkpt>
      <trkpt lat="43.20538" lon="5.49613">
        <ele>13.673445</ele>
        <time>2014-05-28T13:12:10Z</time>
      </trkpt>
      <trkpt lat="43.20554" lon="5.49625">
        <ele>17.530281</ele>
        <time>2014-05-28T13:12:45Z</time>
      </trkpt>
      <trkpt lat="43.20568" lon="5.4966">
        <ele>21.463058</ele>
        <time>2014-05-28T13:13:05Z</time>
      </trkpt>
      <trkpt lat="43.20573" lon="5.49665">
        <ele>21.463058</ele>
        <time>2014-05-28T13:13:10Z</time>
      </trkpt>
      <trkpt lat="43.20577" lon="5.4967">
        <ele>24.964956</ele>
        <time>2014-05-28T13:13:15Z</time>
      </trkpt>
      <trkpt lat="43.2059" lon="5.49694">
        <ele>28.134062</ele>
        <time>2014-05-28T13:13:20Z</time>
      </trkpt>
      <trkpt lat="43.20594" lon="5.49704">
        <ele>28.134062</ele>
        <time>2014-05-28T13:13:25Z</time>
      </trkpt>
      <trkpt lat="43.20603" lon="5.49712">
        <ele>31.308933</ele>
        <time>2014-05-28T13:13:30Z</time>
      </trkpt>
      <trkpt lat="43.20611" lon="5.49715">
        <ele>31.308933</ele>
        <time>2014-05-28T13:13:35Z</time>
      </trkpt>
      <trkpt lat="43.20616" lon="5.49719">
        <ele>33.995712</ele>
        <time>2014-05-28T13:13:40Z</time>
      </trkpt>
      <trkpt lat="43.20624" lon="5.49719">
        <ele>33.995712</ele>
        <time>2014-05-28T13:13:45Z</time>
      </trkpt>
      <trkpt lat="43.20627" lon="5.4972">
        <ele>36.23161</ele>
        <time>2014-05-28T13:13:50Z</time>
      </trkpt>
      <trkpt lat="43.20638" lon="5.49728">
        <ele>38.257523</ele>
        <time>2014-05-28T13:13:55Z</time>
      </trkpt>
      <trkpt lat="43.20643" lon="5.49735">
        <ele>38.257523</ele>
        <time>2014-05-28T13:13:59Z</time>
      </trkpt>
      <trkpt lat="43.20646" lon="5.49737">
        <ele>39.97894</ele>
        <time>2014-05-28T13:14:05Z</time>
      </trkpt>
      <trkpt lat="43.20655" lon="5.4975">
        <ele>41.64341</ele>
        <time>2014-05-28T13:14:10Z</time>
      </trkpt>
      <trkpt lat="43.20655" lon="5.49755">
        <ele>41.64341</ele>
        <time>2014-05-28T13:14:18Z</time>
      </trkpt>
      <trkpt lat="43.20654" lon="5.49761">
        <ele>41.64341</ele>
        <time>2014-05-28T13:14:19Z</time>
      </trkpt>
      <trkpt lat="43.20654" lon="5.49772">
        <ele>42.857376</ele>
        <time>2014-05-28T13:14:26Z</time>
      </trkpt>
      <trkpt lat="43.20654" lon="5.49776">
        <ele>42.857376</ele>
        <time>2014-05-28T13:14:30Z</time>
      </trkpt>
      <trkpt lat="43.20653" lon="5.49783">
        <ele>42.857376</ele>
        <time>2014-05-28T13:14:35Z</time>
      </trkpt>
      <trkpt lat="43.20653" lon="5.49788">
        <ele>43.48032</ele>
        <time>2014-05-28T13:14:40Z</time>
      </trkpt>
      <trkpt lat="43.20655" lon="5.49794">
        <ele>43.48032</ele>
        <time>2014-05-28T13:14:44Z</time>
      </trkpt>
      <trkpt lat="43.20653" lon="5.49801">
        <ele>43.972298</ele>
        <time>2014-05-28T13:14:49Z</time>
      </trkpt>
      <trkpt lat="43.20649" lon="5.49811">
        <ele>43.972298</ele>
        <time>2014-05-28T13:14:56Z</time>
      </trkpt>
      <trkpt lat="43.20646" lon="5.49816">
        <ele>44.204422</ele>
        <time>2014-05-28T13:15:00Z</time>
      </trkpt>
      <trkpt lat="43.20643" lon="5.49823">
        <ele>44.204422</ele>
        <time>2014-05-28T13:15:05Z</time>
      </trkpt>
      <trkpt lat="43.20641" lon="5.49829">
        <ele>44.155594</ele>
        <time>2014-05-28T13:15:10Z</time>
      </trkpt>
      <trkpt lat="43.20638" lon="5.49835">
        <ele>44.155594</ele>
        <time>2014-05-28T13:15:15Z</time>
      </trkpt>
      <trkpt lat="43.20634" lon="5.49844">
        <ele>44.041428</ele>
        <time>2014-05-28T13:15:20Z</time>
      </trkpt>
      <trkpt lat="43.20631" lon="5.49849">
        <ele>44.041428</ele>
        <time>2014-05-28T13:15:25Z</time>
      </trkpt>
      <trkpt lat="43.20629" lon="5.49854">
        <ele>44.041428</ele>
        <time>2014-05-28T13:15:30Z</time>
      </trkpt>
      <trkpt lat="43.20626" lon="5.49862">
        <ele>43.533764</ele>
        <time>2014-05-28T13:15:35Z</time>
      </trkpt>
      <trkpt lat="43.20625" lon="5.4987">
        <ele>43.533764</ele>
        <time>2014-05-28T13:15:40Z</time>
      </trkpt>
      <trkpt lat="43.20625" lon="5.49875">
        <ele>42.73038</ele>
        <time>2014-05-28T13:15:45Z</time>
      </trkpt>
      <trkpt lat="43.20624" lon="5.4988">
        <ele>42.73038</ele>
        <time>2014-05-28T13:15:50Z</time>
      </trkpt>
      <trkpt lat="43.20623" lon="5.49886">
        <ele>42.73038</ele>
        <time>2014-05-28T13:15:55Z</time>
      </trkpt>
      <trkpt lat="43.20621" lon="5.4989">
        <ele>41.87624</ele>
        <time>2014-05-28T13:16:00Z</time>
      </trkpt>
      <trkpt lat="43.20618" lon="5.49892">
        <ele>41.87624</ele>
        <time>2014-05-28T13:16:05Z</time>
      </trkpt>
      <trkpt lat="43.20614" lon="5.49896">
        <ele>41.87624</ele>
        <time>2014-05-28T13:16:10Z</time>
      </trkpt>
      <trkpt lat="43.20617" lon="5.49901">
        <ele>40.97819</ele>
        <time>2014-05-28T13:16:14Z</time>
      </trkpt>
      <trkpt lat="43.20619" lon="5.49902">
        <ele>40.97819</ele>
        <time>2014-05-28T13:16:19Z</time>
      </trkpt>
      <trkpt lat="43.20619" lon="5.49903">
        <ele>40.97819</ele>
        <time>2014-05-28T13:16:25Z</time>
      </trkpt>
      <trkpt lat="43.20626" lon="5.49903">
        <ele>40.97819</ele>
        <time>2014-05-28T13:16:55Z</time>
      </trkpt>
      <trkpt lat="43.20625" lon="5.49902">
        <ele>39.87466</ele>
        <time>2014-05-28T13:17:00Z</time>
      </trkpt>
      <trkpt lat="43.20619" lon="5.49893">
        <ele>38.68321</ele>
        <time>2014-05-28T13:17:25Z</time>
      </trkpt>
      <trkpt lat="43.20619" lon="5.49893">
        <ele>38.68321</ele>
        <time>2014-05-28T13:17:30Z</time>
      </trkpt>
      <trkpt lat="43.20608" lon="5.49902">
        <ele>37.13093</ele>
        <time>2014-05-28T13:17:50Z</time>
      </trkpt>
      <trkpt lat="43.20613" lon="5.49908">
        <ele>37.13093</ele>
        <time>2014-05-28T13:18:30Z</time>
      </trkpt>
      <trkpt lat="43.20613" lon="5.49914">
        <ele>35.54948</ele>
        <time>2014-05-28T13:18:35Z</time>
      </trkpt>
      <trkpt lat="43.20617" lon="5.49917">
        <ele>35.54948</ele>
        <time>2014-05-28T13:18:40Z</time>
      </trkpt>
      <trkpt lat="43.20617" lon="5.4992">
        <ele>35.54948</ele>
        <time>2014-05-28T13:18:45Z</time>
      </trkpt>
      <trkpt lat="43.20618" lon="5.49922">
        <ele>35.54948</ele>
        <time>2014-05-28T13:18:50Z</time>
      </trkpt>
      <trkpt lat="43.20618" lon="5.49926">
        <ele>34.008663</ele>
        <time>2014-05-28T13:18:55Z</time>
      </trkpt>
      <trkpt lat="43.20618" lon="5.49927">
        <ele>34.008663</ele>
        <time>2014-05-28T13:19:00Z</time>
      </trkpt>
      <trkpt lat="43.20622" lon="5.49932">
        <ele>34.008663</ele>
        <time>2014-05-28T13:19:11Z</time>
      </trkpt>
      <trkpt lat="43.20625" lon="5.49938">
        <ele>32.51665</ele>
        <time>2014-05-28T13:19:25Z</time>
      </trkpt>
      <trkpt lat="43.20621" lon="5.49941">
        <ele>32.51665</ele>
        <time>2014-05-28T13:19:30Z</time>
      </trkpt>
      <trkpt lat="43.2062" lon="5.49943">
        <ele>32.51665</ele>
        <time>2014-05-28T13:19:35Z</time>
      </trkpt>
      <trkpt lat="43.2062" lon="5.49946">
        <ele>32.51665</ele>
        <time>2014-05-28T13:19:40Z</time>
      </trkpt>
      <trkpt lat="43.2062" lon="5.49948">
        <ele>30.949009</ele>
        <time>2014-05-28T13:19:45Z</time>
      </trkpt>
      <trkpt lat="43.2062" lon="5.4995">
        <ele>30.949009</ele>
        <time>2014-05-28T13:19:50Z</time>
      </trkpt>
      <trkpt lat="43.20619" lon="5.49955">
        <ele>30.949009</ele>
        <time>2014-05-28T13:19:55Z</time>
      </trkpt>
      <trkpt lat="43.20619" lon="5.49955">
        <ele>30.949009</ele>
        <time>2014-05-28T13:20:00Z</time>
      </trkpt>
      <trkpt lat="43.20622" lon="5.49967">
        <ele>29.070053</ele>
        <time>2014-05-28T13:20:50Z</time>
      </trkpt>
      <trkpt lat="43.20624" lon="5.49975">
        <ele>29.070053</ele>
        <time>2014-05-28T13:21:11Z</time>
      </trkpt>
      <trkpt lat="43.20623" lon="5.49978">
        <ele>29.070053</ele>
        <time>2014-05-28T13:21:15Z</time>
      </trkpt>
      <trkpt lat="43.20623" lon="5.49978">
        <ele>29.070053</ele>
        <time>2014-05-28T13:21:20Z</time>
      </trkpt>
      <trkpt lat="43.20619" lon="5.49991">
        <ele>27.399895</ele>
        <time>2014-05-28T13:21:40Z</time>
      </trkpt>
      <trkpt lat="43.20625" lon="5.50001">
        <ele>26.337994</ele>
        <time>2014-05-28T13:22:30Z</time>
      </trkpt>
      <trkpt lat="43.20627" lon="5.5">
        <ele>26.337994</ele>
        <time>2014-05-28T13:22:35Z</time>
      </trkpt>
      <trkpt lat="43.20637" lon="5.50012">
        <ele>25.418053</ele>
        <time>2014-05-28T13:22:50Z</time>
      </trkpt>
      <trkpt lat="43.20641" lon="5.50012">
        <ele>25.418053</ele>
        <time>2014-05-28T13:22:55Z</time>
      </trkpt>
      <trkpt lat="43.20643" lon="5.50012">
        <ele>25.418053</ele>
        <time>2014-05-28T13:23:00Z</time>
      </trkpt>
      <trkpt lat="43.20645" lon="5.50017">
        <ele>24.666407</ele>
        <time>2014-05-28T13:23:11Z</time>
      </trkpt>
      <trkpt lat="43.20645" lon="5.50021">
        <ele>24.666407</ele>
        <time>2014-05-28T13:23:14Z</time>
      </trkpt>
      <trkpt lat="43.20646" lon="5.50014">
        <ele>24.666407</ele>
        <time>2014-05-28T13:23:21Z</time>
      </trkpt>
      <trkpt lat="43.20653" lon="5.50018">
        <ele>27.039719</ele>
        <time>2014-05-28T13:24:20Z</time>
      </trkpt>
      <trkpt lat="43.20654" lon="5.50019">
        <ele>27.039719</ele>
        <time>2014-05-28T13:24:25Z</time>
      </trkpt>
      <trkpt lat="43.20661" lon="5.50024">
        <ele>27.039719</ele>
        <time>2014-05-28T13:24:46Z</time>
      </trkpt>
      <trkpt lat="43.20661" lon="5.50025">
        <ele>29.69902</ele>
        <time>2014-05-28T13:24:50Z</time>
      </trkpt>
      <trkpt lat="43.20663" lon="5.50027">
        <ele>29.69902</ele>
        <time>2014-05-28T13:24:55Z</time>
      </trkpt>
      <trkpt lat="43.20663" lon="5.50028">
        <ele>29.69902</ele>
        <time>2014-05-28T13:25:00Z</time>
      </trkpt>
      <trkpt lat="43.20671" lon="5.50037">
        <ele>33.06545</ele>
        <time>2014-05-28T13:25:56Z</time>
      </trkpt>
      <trkpt lat="43.20676" lon="5.50049">
        <ele>36.710815</ele>
        <time>2014-05-28T13:27:00Z</time>
      </trkpt>
      <trkpt lat="43.20686" lon="5.50054">
        <ele>40.751278</ele>
        <time>2014-05-28T13:28:10Z</time>
      </trkpt>
      <trkpt lat="43.20696" lon="5.50059">
        <ele>45.03629</ele>
        <time>2014-05-28T13:28:50Z</time>
      </trkpt>
      <trkpt lat="43.20692" lon="5.50073">
        <ele>50.10502</ele>
        <time>2014-05-28T13:31:26Z</time>
      </trkpt>
      <trkpt lat="43.20686" lon="5.50063">
        <ele>55.41212</ele>
        <time>2014-05-28T13:33:10Z</time>
      </trkpt>
      <trkpt lat="43.20683" lon="5.5007">
        <ele>55.41212</ele>
        <time>2014-05-28T13:33:15Z</time>
      </trkpt>
      <trkpt lat="43.2069" lon="5.50079">
        <ele>60.456364</ele>
        <time>2014-05-28T13:33:50Z</time>
      </trkpt>
      <trkpt lat="43.20688" lon="5.50081">
        <ele>60.456364</ele>
        <time>2014-05-28T13:33:55Z</time>
      </trkpt>
      <trkpt lat="43.20688" lon="5.50094">
        <ele>65.6645</ele>
        <time>2014-05-28T13:35:40Z</time>
      </trkpt>
      <trkpt lat="43.20687" lon="5.50095">
        <ele>65.6645</ele>
        <time>2014-05-28T13:35:45Z</time>
      </trkpt>
      <trkpt lat="43.20687" lon="5.50095">
        <ele>65.6645</ele>
        <time>2014-05-28T13:35:50Z</time>
      </trkpt>
      <trkpt lat="43.20678" lon="5.50099">
        <ele>70.85935</ele>
        <time>2014-05-28T13:36:34Z</time>
      </trkpt>
      <trkpt lat="43.20678" lon="5.50104">
        <ele>70.85935</ele>
        <time>2014-05-28T13:36:40Z</time>
      </trkpt>
      <trkpt lat="43.20678" lon="5.50105">
        <ele>70.85935</ele>
        <time>2014-05-28T13:36:45Z</time>
      </trkpt>
      <trkpt lat="43.20673" lon="5.50108">
        <ele>75.6852</ele>
        <time>2014-05-28T13:36:50Z</time>
      </trkpt>
      <trkpt lat="43.20671" lon="5.50108">
        <ele>75.6852</ele>
        <time>2014-05-28T13:36:55Z</time>
      </trkpt>
      <trkpt lat="43.20667" lon="5.50112">
        <ele>75.6852</ele>
        <time>2014-05-28T13:37:05Z</time>
      </trkpt>
      <trkpt lat="43.20665" lon="5.50125">
        <ele>80.19038</ele>
        <time>2014-05-28T13:37:45Z</time>
      </trkpt>
      <trkpt lat="43.20675" lon="5.50128">
        <ele>84.509766</ele>
        <time>2014-05-28T13:38:24Z</time>
      </trkpt>
      <trkpt lat="43.20675" lon="5.50128">
        <ele>84.509766</ele>
        <time>2014-05-28T13:38:31Z</time>
      </trkpt>
      <trkpt lat="43.20668" lon="5.50138">
        <ele>88.916046</ele>
        <time>2014-05-28T13:39:05Z</time>
      </trkpt>
      <trkpt lat="43.20668" lon="5.50141">
        <ele>88.916046</ele>
        <time>2014-05-28T13:39:10Z</time>
      </trkpt>
      <trkpt lat="43.20668" lon="5.50143">
        <ele>88.916046</ele>
        <time>2014-05-28T13:39:15Z</time>
      </trkpt>
      <trkpt lat="43.20667" lon="5.50147">
        <ele>88.916046</ele>
        <time>2014-05-28T13:39:20Z</time>
      </trkpt>
      <trkpt lat="43.20666" lon="5.50147">
        <ele>88.916046</ele>
        <time>2014-05-28T13:39:25Z</time>
      </trkpt>
      <trkpt lat="43.20662" lon="5.5015">
        <ele>94.013855</ele>
        <time>2014-05-28T13:40:40Z</time>
      </trkpt>
      <trkpt lat="43.20661" lon="5.50149">
        <ele>94.013855</ele>
        <time>2014-05-28T13:40:45Z</time>
      </trkpt>
      <trkpt lat="43.20658" lon="5.50149">
        <ele>94.013855</ele>
        <time>2014-05-28T13:40:50Z</time>
      </trkpt>
      <trkpt lat="43.20654" lon="5.50149">
        <ele>98.76298</ele>
        <time>2014-05-28T13:40:54Z</time>
      </trkpt>
      <trkpt lat="43.20652" lon="5.50147">
        <ele>98.76298</ele>
        <time>2014-05-28T13:41:00Z</time>
      </trkpt>
      <trkpt lat="43.20647" lon="5.50147">
        <ele>98.76298</ele>
        <time>2014-05-28T13:41:05Z</time>
      </trkpt>
      <trkpt lat="43.20645" lon="5.50147">
        <ele>98.76298</ele>
        <time>2014-05-28T13:41:10Z</time>
      </trkpt>
      <trkpt lat="43.20643" lon="5.50148">
        <ele>103.40296</ele>
        <time>2014-05-28T13:41:15Z</time>
      </trkpt>
      <trkpt lat="43.20644" lon="5.50149">
        <ele>103.40296</ele>
        <time>2014-05-28T13:41:19Z</time>
      </trkpt>
      <trkpt lat="43.20644" lon="5.50162">
        <ele>107.94846</ele>
        <time>2014-05-28T13:41:50Z</time>
      </trkpt>
      <trkpt lat="43.20644" lon="5.50163">
        <ele>107.94846</ele>
        <time>2014-05-28T13:41:55Z</time>
      </trkpt>
      <trkpt lat="43.20638" lon="5.50173">
        <ele>112.94068</ele>
        <time>2014-05-28T13:44:00Z</time>
      </trkpt>
      <trkpt lat="43.20638" lon="5.50173">
        <ele>112.94068</ele>
        <time>2014-05-28T13:44:05Z</time>
      </trkpt>
      <trkpt lat="43.20637" lon="5.50177">
        <ele>112.94068</ele>
        <time>2014-05-28T13:45:18Z</time>
      </trkpt>
      <trkpt lat="43.20635" lon="5.50181">
        <ele>112.94068</ele>
        <time>2014-05-28T13:45:25Z</time>
      </trkpt>
      <trkpt lat="43.20634" lon="5.50185">
        <ele>118.17399</ele>
        <time>2014-05-28T13:45:30Z</time>
      </trkpt>
      <trkpt lat="43.20632" lon="5.50188">
        <ele>118.17399</ele>
        <time>2014-05-28T13:45:35Z</time>
      </trkpt>
      <trkpt lat="43.20632" lon="5.5019">
        <ele>118.17399</ele>
        <time>2014-05-28T13:45:39Z</time>
      </trkpt>
      <trkpt lat="43.20633" lon="5.50193">
        <ele>118.17399</ele>
        <time>2014-05-28T13:45:45Z</time>
      </trkpt>
      <trkpt lat="43.20633" lon="5.50194">
        <ele>118.17399</ele>
        <time>2014-05-28T13:45:50Z</time>
      </trkpt>
      <trkpt lat="43.20632" lon="5.50196">
        <ele>122.963135</ele>
        <time>2014-05-28T13:46:04Z</time>
      </trkpt>
      <trkpt lat="43.20631" lon="5.50204">
        <ele>122.963135</ele>
        <time>2014-05-28T13:46:10Z</time>
      </trkpt>
      <trkpt lat="43.20631" lon="5.50206">
        <ele>122.963135</ele>
        <time>2014-05-28T13:46:14Z</time>
      </trkpt>
      <trkpt lat="43.20626" lon="5.50206">
        <ele>127.32037</ele>
        <time>2014-05-28T13:46:19Z</time>
      </trkpt>
      <trkpt lat="43.20618" lon="5.50206">
        <ele>127.32037</ele>
        <time>2014-05-28T13:46:26Z</time>
      </trkpt>
      <trkpt lat="43.20616" lon="5.50207">
        <ele>131.24353</ele>
        <time>2014-05-28T13:46:30Z</time>
      </trkpt>
      <trkpt lat="43.20615" lon="5.50207">
        <ele>131.24353</ele>
        <time>2014-05-28T13:46:35Z</time>
      </trkpt>
      <trkpt lat="43.20607" lon="5.50198">
        <ele>134.94958</ele>
        <time>2014-05-28T13:48:05Z</time>
      </trkpt>
      <trkpt lat="43.20607" lon="5.50198">
        <ele>134.94958</ele>
        <time>2014-05-28T13:48:10Z</time>
      </trkpt>
      <trkpt lat="43.20602" lon="5.50197">
        <ele>134.94958</ele>
        <time>2014-05-28T13:48:25Z</time>
      </trkpt>
      <trkpt lat="43.20602" lon="5.50196">
        <ele>134.94958</ele>
        <time>2014-05-28T13:48:30Z</time>
      </trkpt>
      <trkpt lat="43.20601" lon="5.50193">
        <ele>134.94958</ele>
        <time>2014-05-28T13:48:34Z</time>
      </trkpt>
      <trkpt lat="43.20599" lon="5.50195">
        <ele>138.18944</ele>
        <time>2014-05-28T13:48:39Z</time>
      </trkpt>
      <trkpt lat="43.20595" lon="5.50198">
        <ele>138.18944</ele>
        <time>2014-05-28T13:48:45Z</time>
      </trkpt>
      <trkpt lat="43.20593" lon="5.502">
        <ele>138.18944</ele>
        <time>2014-05-28T13:48:50Z</time>
      </trkpt>
      <trkpt lat="43.2059" lon="5.50201">
        <ele>141.039</ele>
        <time>2014-05-28T13:48:55Z</time>
      </trkpt>
      <trkpt lat="43.20586" lon="5.50202">
        <ele>141.039</ele>
        <time>2014-05-28T13:49:00Z</time>
      </trkpt>
      <trkpt lat="43.20583" lon="5.50202">
        <ele>141.039</ele>
        <time>2014-05-28T13:49:04Z</time>
      </trkpt>
      <trkpt lat="43.20579" lon="5.50201">
        <ele>143.6128</ele>
        <time>2014-05-28T13:49:10Z</time>
      </trkpt>
      <trkpt lat="43.20576" lon="5.50199">
        <ele>143.6128</ele>
        <time>2014-05-28T13:49:15Z</time>
      </trkpt>
      <trkpt lat="43.20573" lon="5.50196">
        <ele>143.6128</ele>
        <time>2014-05-28T13:49:26Z</time>
      </trkpt>
      <trkpt lat="43.20571" lon="5.50195">
        <ele>145.88716</ele>
        <time>2014-05-28T13:49:30Z</time>
      </trkpt>
      <trkpt lat="43.20571" lon="5.50193">
        <ele>145.88716</ele>
        <time>2014-05-28T13:49:35Z</time>
      </trkpt>
      <trkpt lat="43.20564" lon="5.50189">
        <ele>145.88716</ele>
        <time>2014-05-28T13:50:00Z</time>
      </trkpt>
      <trkpt lat="43.20563" lon="5.5019">
        <ele>148.1158</ele>
        <time>2014-05-28T13:50:05Z</time>
      </trkpt>
      <trkpt lat="43.20556" lon="5.50185">
        <ele>148.1158</ele>
        <time>2014-05-28T13:51:05Z</time>
      </trkpt>
      <trkpt lat="43.20553" lon="5.50184">
        <ele>150.21568</ele>
        <time>2014-05-28T13:51:10Z</time>
      </trkpt>
      <trkpt lat="43.2055" lon="5.50182">
        <ele>150.21568</ele>
        <time>2014-05-28T13:51:15Z</time>
      </trkpt>
      <trkpt lat="43.20547" lon="5.5018">
        <ele>150.21568</ele>
        <time>2014-05-28T13:51:20Z</time>
      </trkpt>
      <trkpt lat="43.20544" lon="5.50177">
        <ele>152.09619</ele>
        <time>2014-05-28T13:51:25Z</time>
      </trkpt>
      <trkpt lat="43.20541" lon="5.50174">
        <ele>152.09619</ele>
        <time>2014-05-28T13:51:30Z</time>
      </trkpt>
      <trkpt lat="43.20538" lon="5.50172">
        <ele>152.09619</ele>
        <time>2014-05-28T13:51:33Z</time>
      </trkpt>
      <trkpt lat="43.20533" lon="5.50167">
        <ele>153.81859</ele>
        <time>2014-05-28T13:51:41Z</time>
      </trkpt>
      <trkpt lat="43.2053" lon="5.50166">
        <ele>153.81859</ele>
        <time>2014-05-28T13:51:45Z</time>
      </trkpt>
      <trkpt lat="43.20526" lon="5.50163">
        <ele>153.81859</ele>
        <time>2014-05-28T13:51:50Z</time>
      </trkpt>
      <trkpt lat="43.20524" lon="5.5016">
        <ele>155.3247</ele>
        <time>2014-05-28T13:51:55Z</time>
      </trkpt>
      <trkpt lat="43.20521" lon="5.50158">
        <ele>155.3247</ele>
        <time>2014-05-28T13:52:00Z</time>
      </trkpt>
      <trkpt lat="43.20518" lon="5.50155">
        <ele>155.3247</ele>
        <time>2014-05-28T13:52:05Z</time>
      </trkpt>
      <trkpt lat="43.20511" lon="5.5015">
        <ele>156.6336</ele>
        <time>2014-05-28T13:52:10Z</time>
      </trkpt>
      <trkpt lat="43.20506" lon="5.50147">
        <ele>156.6336</ele>
        <time>2014-05-28T13:52:15Z</time>
      </trkpt>
      <trkpt lat="43.20503" lon="5.50144">
        <ele>156.6336</ele>
        <time>2014-05-28T13:52:20Z</time>
      </trkpt>
      <trkpt lat="43.20499" lon="5.50137">
        <ele>157.77802</ele>
        <time>2014-05-28T13:52:25Z</time>
      </trkpt>
      <trkpt lat="43.20497" lon="5.50132">
        <ele>157.77802</ele>
        <time>2014-05-28T13:52:30Z</time>
      </trkpt>
      <trkpt lat="43.20497" lon="5.50127">
        <ele>157.77802</ele>
        <time>2014-05-28T13:52:35Z</time>
      </trkpt>
      <trkpt lat="43.20497" lon="5.50119">
        <ele>158.73116</ele>
        <time>2014-05-28T13:52:41Z</time>
      </trkpt>
      <trkpt lat="43.20496" lon="5.50113">
        <ele>158.73116</ele>
        <time>2014-05-28T13:52:45Z</time>
      </trkpt>
      <trkpt lat="43.20494" lon="5.50104">
        <ele>159.39674</ele>
        <time>2014-05-28T13:52:50Z</time>
      </trkpt>
      <trkpt lat="43.20494" lon="5.50097">
        <ele>159.39674</ele>
        <time>2014-05-28T13:52:55Z</time>
      </trkpt>
      <trkpt lat="43.20493" lon="5.50094">
        <ele>159.39674</ele>
        <time>2014-05-28T13:53:00Z</time>
      </trkpt>
      <trkpt lat="43.20492" lon="5.50088">
        <ele>159.88832</ele>
        <time>2014-05-28T13:53:05Z</time>
      </trkpt>
      <trkpt lat="43.20493" lon="5.50084">
        <ele>159.88832</ele>
        <time>2014-05-28T13:53:10Z</time>
      </trkpt>
      <trkpt lat="43.20492" lon="5.50075">
        <ele>160.1819</ele>
        <time>2014-05-28T13:53:15Z</time>
      </trkpt>
      <trkpt lat="43.20492" lon="5.50071">
        <ele>160.1819</ele>
        <time>2014-05-28T13:53:21Z</time>
      </trkpt>
      <trkpt lat="43.20492" lon="5.50063">
        <ele>160.1819</ele>
        <time>2014-05-28T13:53:25Z</time>
      </trkpt>
      <trkpt lat="43.20491" lon="5.50055">
        <ele>160.29904</ele>
        <time>2014-05-28T13:53:30Z</time>
      </trkpt>
      <trkpt lat="43.20489" lon="5.50048">
        <ele>160.29904</ele>
        <time>2014-05-28T13:53:35Z</time>
      </trkpt>
      <trkpt lat="43.20487" lon="5.50042">
        <ele>160.20262</ele>
        <time>2014-05-28T13:53:40Z</time>
      </trkpt>
      <trkpt lat="43.20484" lon="5.50037">
        <ele>160.20262</ele>
        <time>2014-05-28T13:53:45Z</time>
      </trkpt>
      <trkpt lat="43.20481" lon="5.50032">
        <ele>160.20262</ele>
        <time>2014-05-28T13:53:50Z</time>
      </trkpt>
      <trkpt lat="43.20477" lon="5.50027">
        <ele>159.91646</ele>
        <time>2014-05-28T13:53:55Z</time>
      </trkpt>
      <trkpt lat="43.20475" lon="5.50023">
        <ele>159.91646</ele>
        <time>2014-05-28T13:54:00Z</time>
      </trkpt>
      <trkpt lat="43.20473" lon="5.50018">
        <ele>159.91646</ele>
        <time>2014-05-28T13:54:05Z</time>
      </trkpt>
      <trkpt lat="43.20468" lon="5.50013">
        <ele>159.46317</ele>
        <time>2014-05-28T13:54:10Z</time>
      </trkpt>
      <trkpt lat="43.20464" lon="5.50007">
        <ele>159.46317</ele>
        <time>2014-05-28T13:54:15Z</time>
      </trkpt>
      <trkpt lat="43.20461" lon="5.50001">
        <ele>158.90733</ele>
        <time>2014-05-28T13:54:20Z</time>
      </trkpt>
      <trkpt lat="43.20456" lon="5.49992">
        <ele>158.90733</ele>
        <time>2014-05-28T13:54:25Z</time>
      </trkpt>
      <trkpt lat="43.20452" lon="5.49987">
        <ele>158.26578</ele>
        <time>2014-05-28T13:54:29Z</time>
      </trkpt>
      <trkpt lat="43.20445" lon="5.49982">
        <ele>158.26578</ele>
        <time>2014-05-28T13:54:35Z</time>
      </trkpt>
      <trkpt lat="43.20443" lon="5.49978">
        <ele>157.52536</ele>
        <time>2014-05-28T13:54:40Z</time>
      </trkpt>
      <trkpt lat="43.2044" lon="5.49972">
        <ele>157.52536</ele>
        <time>2014-05-28T13:54:45Z</time>
      </trkpt>
      <trkpt lat="43.20439" lon="5.49965">
        <ele>156.67407</ele>
        <time>2014-05-28T13:54:50Z</time>
      </trkpt>
      <trkpt lat="43.20438" lon="5.49958">
        <ele>156.67407</ele>
        <time>2014-05-28T13:54:55Z</time>
      </trkpt>
      <trkpt lat="43.20438" lon="5.49944">
        <ele>155.6288</ele>
        <time>2014-05-28T13:55:06Z</time>
      </trkpt>
      <trkpt lat="43.20437" lon="5.49938">
        <ele>155.6288</ele>
        <time>2014-05-28T13:55:10Z</time>
      </trkpt>
      <trkpt lat="43.20436" lon="5.49929">
        <ele>154.51485</ele>
        <time>2014-05-28T13:55:15Z</time>
      </trkpt>
      <trkpt lat="43.20436" lon="5.49922">
        <ele>154.51485</ele>
        <time>2014-05-28T13:55:20Z</time>
      </trkpt>
      <trkpt lat="43.20436" lon="5.49914">
        <ele>153.27524</ele>
        <time>2014-05-28T13:55:25Z</time>
      </trkpt>
      <trkpt lat="43.20436" lon="5.49909">
        <ele>153.27524</ele>
        <time>2014-05-28T13:55:30Z</time>
      </trkpt>
      <trkpt lat="43.20437" lon="5.49902">
        <ele>153.27524</ele>
        <time>2014-05-28T13:55:35Z</time>
      </trkpt>
      <trkpt lat="43.20436" lon="5.49896">
        <ele>151.91501</ele>
        <time>2014-05-28T13:55:40Z</time>
      </trkpt>
      <trkpt lat="43.20435" lon="5.49892">
        <ele>151.91501</ele>
        <time>2014-05-28T13:55:45Z</time>
      </trkpt>
      <trkpt lat="43.20436" lon="5.49888">
        <ele>151.91501</ele>
        <time>2014-05-28T13:55:50Z</time>
      </trkpt>
      <trkpt lat="43.20436" lon="5.49881">
        <ele>150.62648</ele>
        <time>2014-05-28T13:55:55Z</time>
      </trkpt>
      <trkpt lat="43.20436" lon="5.49875">
        <ele>150.62648</ele>
        <time>2014-05-28T13:56:00Z</time>
      </trkpt>
      <trkpt lat="43.20433" lon="5.49867">
        <ele>149.4431</ele>
        <time>2014-05-28T13:56:05Z</time>
      </trkpt>
      <trkpt lat="43.20431" lon="5.49862">
        <ele>149.4431</ele>
        <time>2014-05-28T13:56:10Z</time>
      </trkpt>
      <trkpt lat="43.20429" lon="5.49855">
        <ele>148.27997</ele>
        <time>2014-05-28T13:56:15Z</time>
      </trkpt>
      <trkpt lat="43.20428" lon="5.49851">
        <ele>148.27997</ele>
        <time>2014-05-28T13:56:20Z</time>
      </trkpt>
      <trkpt lat="43.20428" lon="5.49846">
        <ele>148.27997</ele>
        <time>2014-05-28T13:56:25Z</time>
      </trkpt>
      <trkpt lat="43.20428" lon="5.49843">
        <ele>147.15904</ele>
        <time>2014-05-28T13:56:32Z</time>
      </trkpt>
      <trkpt lat="43.20429" lon="5.4984">
        <ele>147.15904</ele>
        <time>2014-05-28T13:56:34Z</time>
      </trkpt>
      <trkpt lat="43.20426" lon="5.49835">
        <ele>147.15904</ele>
        <time>2014-05-28T13:56:41Z</time>
      </trkpt>
      <trkpt lat="43.20424" lon="5.49833">
        <ele>146.08583</ele>
        <time>2014-05-28T13:56:45Z</time>
      </trkpt>
      <trkpt lat="43.20425" lon="5.4983">
        <ele>146.08583</ele>
        <time>2014-05-28T13:56:50Z</time>
      </trkpt>
      <trkpt lat="43.20426" lon="5.49829">
        <ele>146.08583</ele>
        <time>2014-05-28T13:56:55Z</time>
      </trkpt>
      <trkpt lat="43.20432" lon="5.49832">
        <ele>145.16605</ele>
        <time>2014-05-28T13:57:40Z</time>
      </trkpt>
      <trkpt lat="43.20434" lon="5.49831">
        <ele>145.16605</ele>
        <time>2014-05-28T13:57:45Z</time>
      </trkpt>
      <trkpt lat="43.20433" lon="5.49831">
        <ele>145.16605</ele>
        <time>2014-05-28T13:57:50Z</time>
      </trkpt>
      <trkpt lat="43.20443" lon="5.49826">
        <ele>144.62662</ele>
        <time>2014-05-28T13:59:05Z</time>
      </trkpt>
      <trkpt lat="43.20443" lon="5.49824">
        <ele>144.62662</ele>
        <time>2014-05-28T13:59:10Z</time>
      </trkpt>
      <trkpt lat="43.20444" lon="5.49823">
        <ele>144.62662</ele>
        <time>2014-05-28T13:59:15Z</time>
      </trkpt>
      <trkpt lat="43.20451" lon="5.49815">
        <ele>143.96986</ele>
        <time>2014-05-28T13:59:48Z</time>
      </trkpt>
      <trkpt lat="43.2045" lon="5.49816">
        <ele>143.96986</ele>
        <time>2014-05-28T13:59:53Z</time>
      </trkpt>
      <trkpt lat="43.20444" lon="5.49825">
        <ele>143.42694</ele>
        <time>2014-05-28T14:01:18Z</time>
      </trkpt>
      <trkpt lat="43.20444" lon="5.49825">
        <ele>143.42694</ele>
        <time>2014-05-28T14:01:23Z</time>
      </trkpt>
      <trkpt lat="43.2044" lon="5.49828">
        <ele>143.42694</ele>
        <time>2014-05-28T14:01:35Z</time>
      </trkpt>
      <trkpt lat="43.20438" lon="5.4983">
        <ele>143.42694</ele>
        <time>2014-05-28T14:01:40Z</time>
      </trkpt>
      <trkpt lat="43.20435" lon="5.49831">
        <ele>142.90858</ele>
        <time>2014-05-28T14:01:45Z</time>
      </trkpt>
      <trkpt lat="43.20433" lon="5.49832">
        <ele>142.90858</ele>
        <time>2014-05-28T14:01:50Z</time>
      </trkpt>
      <trkpt lat="43.2043" lon="5.49832">
        <ele>142.90858</ele>
        <time>2014-05-28T14:01:55Z</time>
      </trkpt>
      <trkpt lat="43.2043" lon="5.49833">
        <ele>142.90858</ele>
        <time>2014-05-28T14:01:59Z</time>
      </trkpt>
      <trkpt lat="43.20428" lon="5.49836">
        <ele>142.90858</ele>
        <time>2014-05-28T14:02:10Z</time>
      </trkpt>
      <trkpt lat="43.20427" lon="5.49836">
        <ele>142.47597</ele>
        <time>2014-05-28T14:02:14Z</time>
      </trkpt>
      <trkpt lat="43.20425" lon="5.49838">
        <ele>142.47597</ele>
        <time>2014-05-28T14:02:19Z</time>
      </trkpt>
      <trkpt lat="43.20422" lon="5.49841">
        <ele>142.47597</ele>
        <time>2014-05-28T14:02:26Z</time>
      </trkpt>
      <trkpt lat="43.20421" lon="5.49842">
        <ele>142.47597</ele>
        <time>2014-05-28T14:02:30Z</time>
      </trkpt>
      <trkpt lat="43.20418" lon="5.49844">
        <ele>142.17085</ele>
        <time>2014-05-28T14:02:35Z</time>
      </trkpt>
      <trkpt lat="43.20418" lon="5.49844">
        <ele>142.17085</ele>
        <time>2014-05-28T14:02:40Z</time>
      </trkpt>
      <trkpt lat="43.20409" lon="5.49842">
        <ele>141.87268</ele>
        <time>2014-05-28T14:03:16Z</time>
      </trkpt>
      <trkpt lat="43.20407" lon="5.49842">
        <ele>141.87268</ele>
        <time>2014-05-28T14:03:20Z</time>
      </trkpt>
      <trkpt lat="43.20406" lon="5.49843">
        <ele>141.87268</ele>
        <time>2014-05-28T14:03:25Z</time>
      </trkpt>
      <trkpt lat="43.20398" lon="5.49844">
        <ele>141.2821</ele>
        <time>2014-05-28T14:04:35Z</time>
      </trkpt>
      <trkpt lat="43.20395" lon="5.49846">
        <ele>141.2821</ele>
        <time>2014-05-28T14:04:40Z</time>
      </trkpt>
      <trkpt lat="43.20393" lon="5.49846">
        <ele>141.2821</ele>
        <time>2014-05-28T14:04:45Z</time>
      </trkpt>
      <trkpt lat="43.20386" lon="5.49845">
        <ele>140.61256</ele>
        <time>2014-05-28T14:05:00Z</time>
      </trkpt>
      <trkpt lat="43.20384" lon="5.49847">
        <ele>140.61256</ele>
        <time>2014-05-28T14:05:05Z</time>
      </trkpt>
      <trkpt lat="43.20383" lon="5.49847">
        <ele>140.61256</ele>
        <time>2014-05-28T14:05:10Z</time>
      </trkpt>
      <trkpt lat="43.20376" lon="5.49841">
        <ele>139.52837</ele>
        <time>2014-05-28T14:06:45Z</time>
      </trkpt>
      <trkpt lat="43.20376" lon="5.4984">
        <ele>139.52837</ele>
        <time>2014-05-28T14:06:50Z</time>
      </trkpt>
      <trkpt lat="43.20376" lon="5.49843">
        <ele>139.52837</ele>
        <time>2014-05-28T14:07:18Z</time>
      </trkpt>
      <trkpt lat="43.20375" lon="5.49842">
        <ele>139.52837</ele>
        <time>2014-05-28T14:07:25Z</time>
      </trkpt>
      <trkpt lat="43.20375" lon="5.49842">
        <ele>139.52837</ele>
        <time>2014-05-28T14:07:30Z</time>
      </trkpt>
      <trkpt lat="43.20381" lon="5.49852">
        <ele>138.4402</ele>
        <time>2014-05-28T14:09:04Z</time>
      </trkpt>
      <trkpt lat="43.2038" lon="5.49852">
        <ele>138.4402</ele>
        <time>2014-05-28T14:09:09Z</time>
      </trkpt>
      <trkpt lat="43.2038" lon="5.49847">
        <ele>138.4402</ele>
        <time>2014-05-28T14:09:30Z</time>
      </trkpt>
      <trkpt lat="43.20379" lon="5.49845">
        <ele>138.4402</ele>
        <time>2014-05-28T14:09:35Z</time>
      </trkpt>
      <trkpt lat="43.20381" lon="5.49848">
        <ele>138.4402</ele>
        <time>2014-05-28T14:10:05Z</time>
      </trkpt>
      <trkpt lat="43.20383" lon="5.49852">
        <ele>137.58417</ele>
        <time>2014-05-28T14:10:10Z</time>
      </trkpt>
      <trkpt lat="43.20382" lon="5.49853">
        <ele>137.58417</ele>
        <time>2014-05-28T14:10:15Z</time>
      </trkpt>
      <trkpt lat="43.20383" lon="5.4986">
        <ele>137.58417</ele>
        <time>2014-05-28T14:10:35Z</time>
      </trkpt>
      <trkpt lat="43.20383" lon="5.4986">
        <ele>137.58417</ele>
        <time>2014-05-28T14:10:40Z</time>
      </trkpt>
      <trkpt lat="43.20388" lon="5.49864">
        <ele>136.80338</ele>
        <time>2014-05-28T14:11:05Z</time>
      </trkpt>
      <trkpt lat="43.20389" lon="5.49868">
        <ele>136.80338</ele>
        <time>2014-05-28T14:11:10Z</time>
      </trkpt>
      <trkpt lat="43.2039" lon="5.49872">
        <ele>136.80338</ele>
        <time>2014-05-28T14:11:15Z</time>
      </trkpt>
      <trkpt lat="43.20391" lon="5.49877">
        <ele>136.12495</ele>
        <time>2014-05-28T14:11:20Z</time>
      </trkpt>
      <trkpt lat="43.20391" lon="5.49881">
        <ele>136.12495</ele>
        <time>2014-05-28T14:11:25Z</time>
      </trkpt>
      <trkpt lat="43.20389" lon="5.49888">
        <ele>136.12495</ele>
        <time>2014-05-28T14:11:30Z</time>
      </trkpt>
      <trkpt lat="43.20389" lon="5.49892">
        <ele>135.48709</ele>
        <time>2014-05-28T14:11:34Z</time>
      </trkpt>
      <trkpt lat="43.20388" lon="5.49897">
        <ele>135.48709</ele>
        <time>2014-05-28T14:11:39Z</time>
      </trkpt>
      <trkpt lat="43.20387" lon="5.49905">
        <ele>134.91867</ele>
        <time>2014-05-28T14:11:46Z</time>
      </trkpt>
      <trkpt lat="43.20387" lon="5.49909">
        <ele>134.91867</ele>
        <time>2014-05-28T14:11:50Z</time>
      </trkpt>
      <trkpt lat="43.20387" lon="5.49912">
        <ele>134.91867</ele>
        <time>2014-05-28T14:11:55Z</time>
      </trkpt>
      <trkpt lat="43.20389" lon="5.49916">
        <ele>134.91867</ele>
        <time>2014-05-28T14:12:00Z</time>
      </trkpt>
      <trkpt lat="43.20389" lon="5.49919">
        <ele>134.37398</ele>
        <time>2014-05-28T14:12:05Z</time>
      </trkpt>
      <trkpt lat="43.2039" lon="5.49923">
        <ele>134.37398</ele>
        <time>2014-05-28T14:12:10Z</time>
      </trkpt>
      <trkpt lat="43.20389" lon="5.49928">
        <ele>134.37398</ele>
        <time>2014-05-28T14:12:15Z</time>
      </trkpt>
      <trkpt lat="43.20387" lon="5.49931">
        <ele>133.88246</ele>
        <time>2014-05-28T14:12:20Z</time>
      </trkpt>
      <trkpt lat="43.20386" lon="5.49935">
        <ele>133.88246</ele>
        <time>2014-05-28T14:12:25Z</time>
      </trkpt>
      <trkpt lat="43.20385" lon="5.49937">
        <ele>133.88246</ele>
        <time>2014-05-28T14:12:30Z</time>
      </trkpt>
      <trkpt lat="43.20378" lon="5.49948">
        <ele>133.02429</ele>
        <time>2014-05-28T14:14:03Z</time>
      </trkpt>
      <trkpt lat="43.20377" lon="5.49953">
        <ele>133.02429</ele>
        <time>2014-05-28T14:14:09Z</time>
      </trkpt>
      <trkpt lat="43.20377" lon="5.49956">
        <ele>133.02429</ele>
        <time>2014-05-28T14:14:16Z</time>
      </trkpt>
      <trkpt lat="43.20377" lon="5.49957">
        <ele>133.02429</ele>
        <time>2014-05-28T14:14:19Z</time>
      </trkpt>
      <trkpt lat="43.20375" lon="5.49961">
        <ele>132.18959</ele>
        <time>2014-05-28T14:14:25Z</time>
      </trkpt>
      <trkpt lat="43.20376" lon="5.49965">
        <ele>132.18959</ele>
        <time>2014-05-28T14:14:30Z</time>
      </trkpt>
      <trkpt lat="43.20375" lon="5.4997">
        <ele>132.18959</ele>
        <time>2014-05-28T14:14:35Z</time>
      </trkpt>
      <trkpt lat="43.20374" lon="5.49973">
        <ele>131.4369</ele>
        <time>2014-05-28T14:14:39Z</time>
      </trkpt>
      <trkpt lat="43.20372" lon="5.4998">
        <ele>131.4369</ele>
        <time>2014-05-28T14:14:45Z</time>
      </trkpt>
      <trkpt lat="43.20373" lon="5.49982">
        <ele>131.4369</ele>
        <time>2014-05-28T14:14:49Z</time>
      </trkpt>
      <trkpt lat="43.20371" lon="5.49989">
        <ele>130.7192</ele>
        <time>2014-05-28T14:14:55Z</time>
      </trkpt>
      <trkpt lat="43.20368" lon="5.49994">
        <ele>130.7192</ele>
        <time>2014-05-28T14:15:00Z</time>
      </trkpt>
      <trkpt lat="43.20364" lon="5.5">
        <ele>130.10791</ele>
        <time>2014-05-28T14:15:04Z</time>
      </trkpt>
      <trkpt lat="43.2036" lon="5.50007">
        <ele>130.10791</ele>
        <time>2014-05-28T14:15:08Z</time>
      </trkpt>
      <trkpt lat="43.20355" lon="5.50015">
        <ele>129.55351</ele>
        <time>2014-05-28T14:15:16Z</time>
      </trkpt>
      <trkpt lat="43.20353" lon="5.50017">
        <ele>129.55351</ele>
        <time>2014-05-28T14:15:20Z</time>
      </trkpt>
      <trkpt lat="43.2035" lon="5.50022">
        <ele>129.55351</ele>
        <time>2014-05-28T14:15:24Z</time>
      </trkpt>
      <trkpt lat="43.20348" lon="5.50026">
        <ele>129.05302</ele>
        <time>2014-05-28T14:15:28Z</time>
      </trkpt>
      <trkpt lat="43.20346" lon="5.50027">
        <ele>129.05302</ele>
        <time>2014-05-28T14:15:33Z</time>
      </trkpt>
      <trkpt lat="43.20347" lon="5.50027">
        <ele>129.05302</ele>
        <time>2014-05-28T14:15:38Z</time>
      </trkpt>
      <trkpt lat="43.20346" lon="5.50028">
        <ele>129.05302</ele>
        <time>2014-05-28T14:15:48Z</time>
      </trkpt>
      <trkpt lat="43.20346" lon="5.50028">
        <ele>129.05302</ele>
        <time>2014-05-28T14:15:53Z</time>
      </trkpt>
      <trkpt lat="43.20343" lon="5.5003">
        <ele>129.05302</ele>
        <time>2014-05-28T14:16:03Z</time>
      </trkpt>
      <trkpt lat="43.20341" lon="5.50033">
        <ele>128.54573</ele>
        <time>2014-05-28T14:16:08Z</time>
      </trkpt>
      <trkpt lat="43.20338" lon="5.50036">
        <ele>128.54573</ele>
        <time>2014-05-28T14:16:14Z</time>
      </trkpt>
      <trkpt lat="43.20336" lon="5.50035">
        <ele>128.54573</ele>
        <time>2014-05-28T14:16:19Z</time>
      </trkpt>
      <trkpt lat="43.20334" lon="5.50031">
        <ele>128.54573</ele>
        <time>2014-05-28T14:16:25Z</time>
      </trkpt>
      <trkpt lat="43.20334" lon="5.50028">
        <ele>128.09056</ele>
        <time>2014-05-28T14:16:30Z</time>
      </trkpt>
      <trkpt lat="43.20333" lon="5.50023">
        <ele>128.09056</ele>
        <time>2014-05-28T14:16:35Z</time>
      </trkpt>
      <trkpt lat="43.20333" lon="5.50022">
        <ele>128.09056</ele>
        <time>2014-05-28T14:16:39Z</time>
      </trkpt>
      <trkpt lat="43.20331" lon="5.5003">
        <ele>127.698616</ele>
        <time>2014-05-28T14:16:54Z</time>
      </trkpt>
      <trkpt lat="43.2033" lon="5.50035">
        <ele>127.698616</ele>
        <time>2014-05-28T14:16:59Z</time>
      </trkpt>
      <trkpt lat="43.20331" lon="5.50039">
        <ele>127.698616</ele>
        <time>2014-05-28T14:17:04Z</time>
      </trkpt>
      <trkpt lat="43.20332" lon="5.50042">
        <ele>127.698616</ele>
        <time>2014-05-28T14:17:09Z</time>
      </trkpt>
      <trkpt lat="43.20334" lon="5.50047">
        <ele>127.36547</ele>
        <time>2014-05-28T14:17:15Z</time>
      </trkpt>
      <trkpt lat="43.20331" lon="5.50049">
        <ele>127.36547</ele>
        <time>2014-05-28T14:17:35Z</time>
      </trkpt>
      <trkpt lat="43.2033" lon="5.50045">
        <ele>127.36547</ele>
        <time>2014-05-28T14:17:40Z</time>
      </trkpt>
      <trkpt lat="43.20329" lon="5.50043">
        <ele>127.36547</ele>
        <time>2014-05-28T14:17:45Z</time>
      </trkpt>
      <trkpt lat="43.20327" lon="5.50041">
        <ele>127.10116</ele>
        <time>2014-05-28T14:17:50Z</time>
      </trkpt>
      <trkpt lat="43.20325" lon="5.50036">
        <ele>127.10116</ele>
        <time>2014-05-28T14:17:55Z</time>
      </trkpt>
      <trkpt lat="43.20324" lon="5.50033">
        <ele>127.10116</ele>
        <time>2014-05-28T14:18:00Z</time>
      </trkpt>
      <trkpt lat="43.20322" lon="5.50031">
        <ele>127.10116</ele>
        <time>2014-05-28T14:18:04Z</time>
      </trkpt>
      <trkpt lat="43.20321" lon="5.50029">
        <ele>126.92909</ele>
        <time>2014-05-28T14:18:09Z</time>
      </trkpt>
      <trkpt lat="43.20317" lon="5.50024">
        <ele>126.92909</ele>
        <time>2014-05-28T14:18:15Z</time>
      </trkpt>
      <trkpt lat="43.20318" lon="5.50021">
        <ele>126.92909</ele>
        <time>2014-05-28T14:18:20Z</time>
      </trkpt>
      <trkpt lat="43.20317" lon="5.50016">
        <ele>126.82738</ele>
        <time>2014-05-28T14:18:25Z</time>
      </trkpt>
      <trkpt lat="43.20316" lon="5.50012">
        <ele>126.82738</ele>
        <time>2014-05-28T14:18:30Z</time>
      </trkpt>
      <trkpt lat="43.20316" lon="5.50012">
        <ele>126.82738</ele>
        <time>2014-05-28T14:18:35Z</time>
      </trkpt>
      <trkpt lat="43.20316" lon="5.5002">
        <ele>126.82738</ele>
        <time>2014-05-28T14:19:04Z</time>
      </trkpt>
      <trkpt lat="43.20317" lon="5.50025">
        <ele>126.70339</ele>
        <time>2014-05-28T14:19:10Z</time>
      </trkpt>
      <trkpt lat="43.20319" lon="5.50027">
        <ele>126.70339</ele>
        <time>2014-05-28T14:19:14Z</time>
      </trkpt>
      <trkpt lat="43.20319" lon="5.50029">
        <ele>126.70339</ele>
        <time>2014-05-28T14:19:18Z</time>
      </trkpt>
      <trkpt lat="43.2032" lon="5.5003">
        <ele>126.70339</ele>
        <time>2014-05-28T14:19:23Z</time>
      </trkpt>
      <trkpt lat="43.2032" lon="5.50032">
        <ele>126.70339</ele>
        <time>2014-05-28T14:19:28Z</time>
      </trkpt>
      <trkpt lat="43.2032" lon="5.50032">
        <ele>126.70339</ele>
        <time>2014-05-28T14:19:33Z</time>
      </trkpt>
      <trkpt lat="43.20324" lon="5.50037">
        <ele>126.442474</ele>
        <time>2014-05-28T14:19:43Z</time>
      </trkpt>
      <trkpt lat="43.2033" lon="5.50047">
        <ele>126.27019</ele>
        <time>2014-05-28T14:19:58Z</time>
      </trkpt>
      <trkpt lat="43.20331" lon="5.50048">
        <ele>126.27019</ele>
        <time>2014-05-28T14:20:03Z</time>
      </trkpt>
      <trkpt lat="43.20332" lon="5.50048">
        <ele>126.27019</ele>
        <time>2014-05-28T14:20:49Z</time>
      </trkpt>
      <trkpt lat="43.20335" lon="5.5005">
        <ele>126.27019</ele>
        <time>2014-05-28T14:20:53Z</time>
      </trkpt>
      <trkpt lat="43.20334" lon="5.50053">
        <ele>126.27019</ele>
        <time>2014-05-28T14:20:58Z</time>
      </trkpt>
      <trkpt lat="43.20334" lon="5.50053">
        <ele>126.27019</ele>
        <time>2014-05-28T14:21:03Z</time>
      </trkpt>
      <trkpt lat="43.20341" lon="5.50064">
        <ele>125.93403</ele>
        <time>2014-05-28T14:22:58Z</time>
      </trkpt>
      <trkpt lat="43.20342" lon="5.50064">
        <ele>125.93403</ele>
        <time>2014-05-28T14:23:03Z</time>
      </trkpt>
      <trkpt lat="43.20346" lon="5.50069">
        <ele>125.93403</ele>
        <time>2014-05-28T14:23:13Z</time>
      </trkpt>
      <trkpt lat="43.20348" lon="5.5007">
        <ele>125.93403</ele>
        <time>2014-05-28T14:23:18Z</time>
      </trkpt>
      <trkpt lat="43.20349" lon="5.50072">
        <ele>125.64722</ele>
        <time>2014-05-28T14:23:23Z</time>
      </trkpt>
      <trkpt lat="43.2035" lon="5.50076">
        <ele>125.64722</ele>
        <time>2014-05-28T14:23:28Z</time>
      </trkpt>
      <trkpt lat="43.20348" lon="5.50089">
        <ele>125.49183</ele>
        <time>2014-05-28T14:24:08Z</time>
      </trkpt>
      <trkpt lat="43.20348" lon="5.50089">
        <ele>125.49183</ele>
        <time>2014-05-28T14:24:13Z</time>
      </trkpt>
      <trkpt lat="43.20348" lon="5.50099">
        <ele>125.49183</ele>
        <time>2014-05-28T14:24:28Z</time>
      </trkpt>
      <trkpt lat="43.20346" lon="5.50109">
        <ele>125.428215</ele>
        <time>2014-05-28T14:24:36Z</time>
      </trkpt>
      <trkpt lat="43.20344" lon="5.50113">
        <ele>125.428215</ele>
        <time>2014-05-28T14:24:40Z</time>
      </trkpt>
      <trkpt lat="43.20341" lon="5.50118">
        <ele>125.428215</ele>
        <time>2014-05-28T14:24:43Z</time>
      </trkpt>
      <trkpt lat="43.20336" lon="5.50123">
        <ele>125.49141</ele>
        <time>2014-05-28T14:24:50Z</time>
      </trkpt>
      <trkpt lat="43.20334" lon="5.50125">
        <ele>125.49141</ele>
        <time>2014-05-28T14:24:55Z</time>
      </trkpt>
      <trkpt lat="43.20331" lon="5.50131">
        <ele>125.49141</ele>
        <time>2014-05-28T14:25:00Z</time>
      </trkpt>
      <trkpt lat="43.20328" lon="5.50132">
        <ele>125.65584</ele>
        <time>2014-05-28T14:25:05Z</time>
      </trkpt>
      <trkpt lat="43.20324" lon="5.50131">
        <ele>125.65584</ele>
        <time>2014-05-28T14:25:10Z</time>
      </trkpt>
      <trkpt lat="43.20322" lon="5.50131">
        <ele>125.65584</ele>
        <time>2014-05-28T14:25:13Z</time>
      </trkpt>
      <trkpt lat="43.20316" lon="5.50134">
        <ele>125.85427</ele>
        <time>2014-05-28T14:25:20Z</time>
      </trkpt>
      <trkpt lat="43.20314" lon="5.50137">
        <ele>125.85427</ele>
        <time>2014-05-28T14:25:25Z</time>
      </trkpt>
      <trkpt lat="43.20311" lon="5.5014">
        <ele>125.85427</ele>
        <time>2014-05-28T14:25:29Z</time>
      </trkpt>
      <trkpt lat="43.20305" lon="5.50144">
        <ele>126.024315</ele>
        <time>2014-05-28T14:25:36Z</time>
      </trkpt>
      <trkpt lat="43.20301" lon="5.50146">
        <ele>126.024315</ele>
        <time>2014-05-28T14:25:40Z</time>
      </trkpt>
      <trkpt lat="43.20297" lon="5.50147">
        <ele>126.024315</ele>
        <time>2014-05-28T14:25:43Z</time>
      </trkpt>
      <trkpt lat="43.20294" lon="5.50148">
        <ele>126.03617</ele>
        <time>2014-05-28T14:25:50Z</time>
      </trkpt>
      <trkpt lat="43.20288" lon="5.50149">
        <ele>126.03617</ele>
        <time>2014-05-28T14:26:00Z</time>
      </trkpt>
      <trkpt lat="43.20283" lon="5.5015">
        <ele>126.01503</ele>
        <time>2014-05-28T14:26:05Z</time>
      </trkpt>
      <trkpt lat="43.20278" lon="5.50153">
        <ele>126.01503</ele>
        <time>2014-05-28T14:26:10Z</time>
      </trkpt>
      <trkpt lat="43.20275" lon="5.50155">
        <ele>126.01503</ele>
        <time>2014-05-28T14:26:13Z</time>
      </trkpt>
      <trkpt lat="43.20267" lon="5.50156">
        <ele>125.91844</ele>
        <time>2014-05-28T14:26:21Z</time>
      </trkpt>
      <trkpt lat="43.20262" lon="5.50157">
        <ele>125.91844</ele>
        <time>2014-05-28T14:26:25Z</time>
      </trkpt>
      <trkpt lat="43.20256" lon="5.50157">
        <ele>125.79379</ele>
        <time>2014-05-28T14:26:30Z</time>
      </trkpt>
      <trkpt lat="43.20252" lon="5.50156">
        <ele>125.79379</ele>
        <time>2014-05-28T14:26:35Z</time>
      </trkpt>
      <trkpt lat="43.20245" lon="5.50153">
        <ele>125.6274</ele>
        <time>2014-05-28T14:26:40Z</time>
      </trkpt>
      <trkpt lat="43.20242" lon="5.50155">
        <ele>125.6274</ele>
        <time>2014-05-28T14:26:43Z</time>
      </trkpt>
      <trkpt lat="43.20238" lon="5.50156">
        <ele>125.6274</ele>
        <time>2014-05-28T14:26:51Z</time>
      </trkpt>
      <trkpt lat="43.20234" lon="5.50156">
        <ele>125.33472</ele>
        <time>2014-05-28T14:26:55Z</time>
      </trkpt>
      <trkpt lat="43.2023" lon="5.50156">
        <ele>125.33472</ele>
        <time>2014-05-28T14:26:59Z</time>
      </trkpt>
      <trkpt lat="43.20224" lon="5.50155">
        <ele>124.996254</ele>
        <time>2014-05-28T14:27:06Z</time>
      </trkpt>
      <trkpt lat="43.2022" lon="5.50158">
        <ele>124.996254</ele>
        <time>2014-05-28T14:27:09Z</time>
      </trkpt>
      <trkpt lat="43.20214" lon="5.50159">
        <ele>124.61473</ele>
        <time>2014-05-28T14:27:14Z</time>
      </trkpt>
      <trkpt lat="43.20214" lon="5.50156">
        <ele>124.61473</ele>
        <time>2014-05-28T14:27:21Z</time>
      </trkpt>
      <trkpt lat="43.20214" lon="5.50151">
        <ele>124.61473</ele>
        <time>2014-05-28T14:27:25Z</time>
      </trkpt>
      <trkpt lat="43.20215" lon="5.50147">
        <ele>124.61473</ele>
        <time>2014-05-28T14:27:30Z</time>
      </trkpt>
      <trkpt lat="43.20214" lon="5.50146">
        <ele>124.03429</ele>
        <time>2014-05-28T14:27:35Z</time>
      </trkpt>
      <trkpt lat="43.20212" lon="5.50147">
        <ele>124.03429</ele>
        <time>2014-05-28T14:28:35Z</time>
      </trkpt>
      <trkpt lat="43.20212" lon="5.50151">
        <ele>124.03429</ele>
        <time>2014-05-28T14:28:39Z</time>
      </trkpt>
      <trkpt lat="43.20212" lon="5.50156">
        <ele>123.44253</ele>
        <time>2014-05-28T14:28:45Z</time>
      </trkpt>
      <trkpt lat="43.2021" lon="5.50161">
        <ele>123.44253</ele>
        <time>2014-05-28T14:28:50Z</time>
      </trkpt>
      <trkpt lat="43.20208" lon="5.50162">
        <ele>123.44253</ele>
        <time>2014-05-28T14:28:55Z</time>
      </trkpt>
      <trkpt lat="43.20204" lon="5.50161">
        <ele>122.92689</ele>
        <time>2014-05-28T14:29:00Z</time>
      </trkpt>
      <trkpt lat="43.20203" lon="5.50161">
        <ele>122.92689</ele>
        <time>2014-05-28T14:29:05Z</time>
      </trkpt>
      <trkpt lat="43.20202" lon="5.50164">
        <ele>122.92689</ele>
        <time>2014-05-28T14:29:25Z</time>
      </trkpt>
      <trkpt lat="43.20205" lon="5.50165">
        <ele>122.92689</ele>
        <time>2014-05-28T14:29:30Z</time>
      </trkpt>
      <trkpt lat="43.20208" lon="5.50167">
        <ele>122.32317</ele>
        <time>2014-05-28T14:29:35Z</time>
      </trkpt>
      <trkpt lat="43.20209" lon="5.50168">
        <ele>122.32317</ele>
        <time>2014-05-28T14:29:39Z</time>
      </trkpt>
      <trkpt lat="43.2021" lon="5.5017">
        <ele>122.32317</ele>
        <time>2014-05-28T14:29:45Z</time>
      </trkpt>
      <trkpt lat="43.2021" lon="5.5018">
        <ele>121.767746</ele>
        <time>2014-05-28T14:29:50Z</time>
      </trkpt>
      <trkpt lat="43.20209" lon="5.50184">
        <ele>121.767746</ele>
        <time>2014-05-28T14:29:57Z</time>
      </trkpt>
      <trkpt lat="43.20208" lon="5.50188">
        <ele>121.767746</ele>
        <time>2014-05-28T14:29:59Z</time>
      </trkpt>
      <trkpt lat="43.20205" lon="5.50197">
        <ele>121.18508</ele>
        <time>2014-05-28T14:30:05Z</time>
      </trkpt>
      <trkpt lat="43.20205" lon="5.50202">
        <ele>121.18508</ele>
        <time>2014-05-28T14:30:08Z</time>
      </trkpt>
      <trkpt lat="43.20201" lon="5.50212">
        <ele>120.606155</ele>
        <time>2014-05-28T14:30:16Z</time>
      </trkpt>
      <trkpt lat="43.20199" lon="5.50221">
        <ele>120.606155</ele>
        <time>2014-05-28T14:30:19Z</time>
      </trkpt>
      <trkpt lat="43.20196" lon="5.50225">
        <ele>120.10292</ele>
        <time>2014-05-28T14:30:25Z</time>
      </trkpt>
      <trkpt lat="43.20194" lon="5.50229">
        <ele>120.10292</ele>
        <time>2014-05-28T14:30:30Z</time>
      </trkpt>
      <trkpt lat="43.20187" lon="5.5023">
        <ele>119.62655</ele>
        <time>2014-05-28T14:30:35Z</time>
      </trkpt>
      <trkpt lat="43.20185" lon="5.50231">
        <ele>119.62655</ele>
        <time>2014-05-28T14:30:38Z</time>
      </trkpt>
      <trkpt lat="43.2018" lon="5.50237">
        <ele>119.62655</ele>
        <time>2014-05-28T14:30:46Z</time>
      </trkpt>
      <trkpt lat="43.20179" lon="5.50242">
        <ele>119.07407</ele>
        <time>2014-05-28T14:30:50Z</time>
      </trkpt>
      <trkpt lat="43.20177" lon="5.50252">
        <ele>119.07407</ele>
        <time>2014-05-28T14:30:55Z</time>
      </trkpt>
      <trkpt lat="43.20175" lon="5.50258">
        <ele>118.40799</ele>
        <time>2014-05-28T14:31:00Z</time>
      </trkpt>
      <trkpt lat="43.20172" lon="5.50263">
        <ele>118.40799</ele>
        <time>2014-05-28T14:31:05Z</time>
      </trkpt>
      <trkpt lat="43.2017" lon="5.50266">
        <ele>118.40799</ele>
        <time>2014-05-28T14:31:09Z</time>
      </trkpt>
      <trkpt lat="43.20165" lon="5.50272">
        <ele>117.66589</ele>
        <time>2014-05-28T14:31:15Z</time>
      </trkpt>
      <trkpt lat="43.20163" lon="5.50275">
        <ele>117.66589</ele>
        <time>2014-05-28T14:31:19Z</time>
      </trkpt>
      <trkpt lat="43.20159" lon="5.50279">
        <ele>117.66589</ele>
        <time>2014-05-28T14:31:25Z</time>
      </trkpt>
      <trkpt lat="43.20155" lon="5.50281">
        <ele>116.83964</ele>
        <time>2014-05-28T14:31:30Z</time>
      </trkpt>
      <trkpt lat="43.20152" lon="5.50283">
        <ele>116.83964</ele>
        <time>2014-05-28T14:31:35Z</time>
      </trkpt>
      <trkpt lat="43.2015" lon="5.50284">
        <ele>116.83964</ele>
        <time>2014-05-28T14:31:39Z</time>
      </trkpt>
      <trkpt lat="43.20148" lon="5.50289">
        <ele>115.835434</ele>
        <time>2014-05-28T14:31:46Z</time>
      </trkpt>
      <trkpt lat="43.20148" lon="5.50292">
        <ele>115.835434</ele>
        <time>2014-05-28T14:31:49Z</time>
      </trkpt>
      <trkpt lat="43.20149" lon="5.50299">
        <ele>115.835434</ele>
        <time>2014-05-28T14:31:56Z</time>
      </trkpt>
      <trkpt lat="43.20149" lon="5.50302">
        <ele>114.78304</ele>
        <time>2014-05-28T14:32:00Z</time>
      </trkpt>
      <trkpt lat="43.20148" lon="5.50306">
        <ele>114.78304</ele>
        <time>2014-05-28T14:32:04Z</time>
      </trkpt>
      <trkpt lat="43.20148" lon="5.50311">
        <ele>114.78304</ele>
        <time>2014-05-28T14:32:09Z</time>
      </trkpt>
      <trkpt lat="43.20145" lon="5.50316">
        <ele>113.48579</ele>
        <time>2014-05-28T14:32:16Z</time>
      </trkpt>
      <trkpt lat="43.20146" lon="5.5032">
        <ele>113.48579</ele>
        <time>2014-05-28T14:32:20Z</time>
      </trkpt>
      <trkpt lat="43.20145" lon="5.50325">
        <ele>113.48579</ele>
        <time>2014-05-28T14:32:25Z</time>
      </trkpt>
      <trkpt lat="43.20143" lon="5.50333">
        <ele>112.02151</ele>
        <time>2014-05-28T14:32:34Z</time>
      </trkpt>
      <trkpt lat="43.20144" lon="5.50337">
        <ele>112.02151</ele>
        <time>2014-05-28T14:32:39Z</time>
      </trkpt>
      <trkpt lat="43.20144" lon="5.50339">
        <ele>112.02151</ele>
        <time>2014-05-28T14:32:44Z</time>
      </trkpt>
      <trkpt lat="43.20146" lon="5.50341">
        <ele>112.02151</ele>
        <time>2014-05-28T14:32:53Z</time>
      </trkpt>
      <trkpt lat="43.20144" lon="5.50343">
        <ele>110.40514</ele>
        <time>2014-05-28T14:32:58Z</time>
      </trkpt>
      <trkpt lat="43.20143" lon="5.50344">
        <ele>110.40514</ele>
        <time>2014-05-28T14:33:03Z</time>
      </trkpt>
      <trkpt lat="43.20139" lon="5.50351">
        <ele>110.40514</ele>
        <time>2014-05-28T14:33:15Z</time>
      </trkpt>
      <trkpt lat="43.20137" lon="5.50352">
        <ele>108.60772</ele>
        <time>2014-05-28T14:33:20Z</time>
      </trkpt>
      <trkpt lat="43.20134" lon="5.50351">
        <ele>108.60772</ele>
        <time>2014-05-28T14:33:25Z</time>
      </trkpt>
      <trkpt lat="43.20129" lon="5.50352">
        <ele>108.60772</ele>
        <time>2014-05-28T14:33:30Z</time>
      </trkpt>
      <trkpt lat="43.20126" lon="5.50354">
        <ele>106.77577</ele>
        <time>2014-05-28T14:33:34Z</time>
      </trkpt>
      <trkpt lat="43.20124" lon="5.50358">
        <ele>106.77577</ele>
        <time>2014-05-28T14:33:38Z</time>
      </trkpt>
      <trkpt lat="43.20118" lon="5.5036">
        <ele>104.95869</ele>
        <time>2014-05-28T14:33:45Z</time>
      </trkpt>
      <trkpt lat="43.20117" lon="5.50363">
        <ele>104.95869</ele>
        <time>2014-05-28T14:33:50Z</time>
      </trkpt>
      <trkpt lat="43.20115" lon="5.50364">
        <ele>104.95869</ele>
        <time>2014-05-28T14:33:54Z</time>
      </trkpt>
      <trkpt lat="43.20115" lon="5.50372">
        <ele>103.0292</ele>
        <time>2014-05-28T14:34:00Z</time>
      </trkpt>
      <trkpt lat="43.20113" lon="5.50375">
        <ele>103.0292</ele>
        <time>2014-05-28T14:34:03Z</time>
      </trkpt>
      <trkpt lat="43.20111" lon="5.50379">
        <ele>103.0292</ele>
        <time>2014-05-28T14:34:09Z</time>
      </trkpt>
      <trkpt lat="43.2011" lon="5.50386">
        <ele>100.98493</ele>
        <time>2014-05-28T14:34:16Z</time>
      </trkpt>
      <trkpt lat="43.20108" lon="5.5039">
        <ele>100.98493</ele>
        <time>2014-05-28T14:34:20Z</time>
      </trkpt>
      <trkpt lat="43.20108" lon="5.50391">
        <ele>100.98493</ele>
        <time>2014-05-28T14:34:25Z</time>
      </trkpt>
      <trkpt lat="43.20107" lon="5.50391">
        <ele>100.98493</ele>
        <time>2014-05-28T14:34:30Z</time>
      </trkpt>
      <trkpt lat="43.20105" lon="5.50395">
        <ele>100.98493</ele>
        <time>2014-05-28T14:34:34Z</time>
      </trkpt>
      <trkpt lat="43.20103" lon="5.50397">
        <ele>98.72309</ele>
        <time>2014-05-28T14:34:40Z</time>
      </trkpt>
      <trkpt lat="43.201" lon="5.50403">
        <ele>98.72309</ele>
        <time>2014-05-28T14:34:45Z</time>
      </trkpt>
      <trkpt lat="43.20097" lon="5.50403">
        <ele>98.72309</ele>
        <time>2014-05-28T14:34:50Z</time>
      </trkpt>
      <trkpt lat="43.20095" lon="5.50406">
        <ele>96.408356</ele>
        <time>2014-05-28T14:34:55Z</time>
      </trkpt>
      <trkpt lat="43.20092" lon="5.50409">
        <ele>96.408356</ele>
        <time>2014-05-28T14:35:00Z</time>
      </trkpt>
      <trkpt lat="43.2009" lon="5.50412">
        <ele>96.408356</ele>
        <time>2014-05-28T14:35:04Z</time>
      </trkpt>
      <trkpt lat="43.20087" lon="5.50415">
        <ele>94.03487</ele>
        <time>2014-05-28T14:35:10Z</time>
      </trkpt>
      <trkpt lat="43.20086" lon="5.50415">
        <ele>94.03487</ele>
        <time>2014-05-28T14:35:15Z</time>
      </trkpt>
      <trkpt lat="43.20086" lon="5.50432">
        <ele>91.59726</ele>
        <time>2014-05-28T14:35:34Z</time>
      </trkpt>
      <trkpt lat="43.20086" lon="5.50437">
        <ele>91.59726</ele>
        <time>2014-05-28T14:35:40Z</time>
      </trkpt>
      <trkpt lat="43.20088" lon="5.50444">
        <ele>91.59726</ele>
        <time>2014-05-28T14:35:45Z</time>
      </trkpt>
      <trkpt lat="43.20087" lon="5.50451">
        <ele>89.2492</ele>
        <time>2014-05-28T14:35:50Z</time>
      </trkpt>
      <trkpt lat="43.20086" lon="5.50453">
        <ele>89.2492</ele>
        <time>2014-05-28T14:35:55Z</time>
      </trkpt>
      <trkpt lat="43.20078" lon="5.50463">
        <ele>86.98858</ele>
        <time>2014-05-28T14:36:10Z</time>
      </trkpt>
      <trkpt lat="43.20076" lon="5.50467">
        <ele>86.98858</ele>
        <time>2014-05-28T14:36:15Z</time>
      </trkpt>
      <trkpt lat="43.20074" lon="5.50475">
        <ele>84.78429</ele>
        <time>2014-05-28T14:36:20Z</time>
      </trkpt>
      <trkpt lat="43.20073" lon="5.50478">
        <ele>84.78429</ele>
        <time>2014-05-28T14:36:25Z</time>
      </trkpt>
      <trkpt lat="43.20071" lon="5.50481">
        <ele>84.78429</ele>
        <time>2014-05-28T14:36:30Z</time>
      </trkpt>
      <trkpt lat="43.20072" lon="5.50485">
        <ele>84.78429</ele>
        <time>2014-05-28T14:36:34Z</time>
      </trkpt>
      <trkpt lat="43.20072" lon="5.50494">
        <ele>82.60723</ele>
        <time>2014-05-28T14:36:41Z</time>
      </trkpt>
      <trkpt lat="43.20072" lon="5.50496">
        <ele>82.60723</ele>
        <time>2014-05-28T14:36:45Z</time>
      </trkpt>
      <trkpt lat="43.2007" lon="5.505">
        <ele>82.60723</ele>
        <time>2014-05-28T14:36:50Z</time>
      </trkpt>
      <trkpt lat="43.2007" lon="5.505">
        <ele>82.60723</ele>
        <time>2014-05-28T14:36:55Z</time>
      </trkpt>
      <trkpt lat="43.20068" lon="5.50508">
        <ele>80.4879</ele>
        <time>2014-05-28T14:37:11Z</time>
      </trkpt>
      <trkpt lat="43.20065" lon="5.5051">
        <ele>80.4879</ele>
        <time>2014-05-28T14:37:15Z</time>
      </trkpt>
      <trkpt lat="43.20064" lon="5.50511">
        <ele>80.4879</ele>
        <time>2014-05-28T14:37:20Z</time>
      </trkpt>
      <trkpt lat="43.2006" lon="5.50516">
        <ele>78.483086</ele>
        <time>2014-05-28T14:37:25Z</time>
      </trkpt>
      <trkpt lat="43.20059" lon="5.50519">
        <ele>78.483086</ele>
        <time>2014-05-28T14:37:30Z</time>
      </trkpt>
      <trkpt lat="43.20059" lon="5.50521">
        <ele>78.483086</ele>
        <time>2014-05-28T14:37:34Z</time>
      </trkpt>
      <trkpt lat="43.20058" lon="5.50523">
        <ele>78.483086</ele>
        <time>2014-05-28T14:37:40Z</time>
      </trkpt>
      <trkpt lat="43.20056" lon="5.50528">
        <ele>76.45765</ele>
        <time>2014-05-28T14:37:45Z</time>
      </trkpt>
      <trkpt lat="43.20054" lon="5.50532">
        <ele>76.45765</ele>
        <time>2014-05-28T14:37:50Z</time>
      </trkpt>
      <trkpt lat="43.20053" lon="5.50535">
        <ele>76.45765</ele>
        <time>2014-05-28T14:37:55Z</time>
      </trkpt>
      <trkpt lat="43.20051" lon="5.50538">
        <ele>76.45765</ele>
        <time>2014-05-28T14:37:59Z</time>
      </trkpt>
      <trkpt lat="43.2005" lon="5.50539">
        <ele>74.47364</ele>
        <time>2014-05-28T14:38:04Z</time>
      </trkpt>
      <trkpt lat="43.20048" lon="5.50544">
        <ele>74.47364</ele>
        <time>2014-05-28T14:38:10Z</time>
      </trkpt>
      <trkpt lat="43.20047" lon="5.50546">
        <ele>74.47364</ele>
        <time>2014-05-28T14:38:15Z</time>
      </trkpt>
      <trkpt lat="43.20044" lon="5.50547">
        <ele>74.47364</ele>
        <time>2014-05-28T14:38:20Z</time>
      </trkpt>
      <trkpt lat="43.20043" lon="5.50546">
        <ele>72.458626</ele>
        <time>2014-05-28T14:38:25Z</time>
      </trkpt>
      <trkpt lat="43.2004" lon="5.50547">
        <ele>72.458626</ele>
        <time>2014-05-28T14:38:30Z</time>
      </trkpt>
      <trkpt lat="43.2004" lon="5.50547">
        <ele>72.458626</ele>
        <time>2014-05-28T14:38:34Z</time>
      </trkpt>
      <trkpt lat="43.20038" lon="5.50551">
        <ele>72.458626</ele>
        <time>2014-05-28T14:38:41Z</time>
      </trkpt>
      <trkpt lat="43.20037" lon="5.50554">
        <ele>70.43192</ele>
        <time>2014-05-28T14:38:44Z</time>
      </trkpt>
      <trkpt lat="43.20035" lon="5.50557">
        <ele>70.43192</ele>
        <time>2014-05-28T14:38:50Z</time>
      </trkpt>
      <trkpt lat="43.20033" lon="5.50561">
        <ele>70.43192</ele>
        <time>2014-05-28T14:38:55Z</time>
      </trkpt>
      <trkpt lat="43.2003" lon="5.50565">
        <ele>68.512245</ele>
        <time>2014-05-28T14:38:59Z</time>
      </trkpt>
      <trkpt lat="43.2003" lon="5.50567">
        <ele>68.512245</ele>
        <time>2014-05-28T14:39:05Z</time>
      </trkpt>
      <trkpt lat="43.2003" lon="5.50567">
        <ele>68.512245</ele>
        <time>2014-05-28T14:39:10Z</time>
      </trkpt>
      <trkpt lat="43.20026" lon="5.50574">
        <ele>68.512245</ele>
        <time>2014-05-28T14:39:20Z</time>
      </trkpt>
      <trkpt lat="43.20023" lon="5.50577">
        <ele>66.6218</ele>
        <time>2014-05-28T14:39:25Z</time>
      </trkpt>
      <trkpt lat="43.20021" lon="5.50579">
        <ele>66.6218</ele>
        <time>2014-05-28T14:39:29Z</time>
      </trkpt>
      <trkpt lat="43.20017" lon="5.50581">
        <ele>66.6218</ele>
        <time>2014-05-28T14:39:35Z</time>
      </trkpt>
      <trkpt lat="43.20014" lon="5.50577">
        <ele>64.68835</ele>
        <time>2014-05-28T14:39:40Z</time>
      </trkpt>
      <trkpt lat="43.20014" lon="5.50576">
        <ele>64.68835</ele>
        <time>2014-05-28T14:39:45Z</time>
      </trkpt>
      <trkpt lat="43.20013" lon="5.50572">
        <ele>64.68835</ele>
        <time>2014-05-28T14:39:50Z</time>
      </trkpt>
      <trkpt lat="43.20012" lon="5.50569">
        <ele>64.68835</ele>
        <time>2014-05-28T14:39:55Z</time>
      </trkpt>
      <trkpt lat="43.20009" lon="5.50565">
        <ele>62.644924</ele>
        <time>2014-05-28T14:39:59Z</time>
      </trkpt>
      <trkpt lat="43.20008" lon="5.5056">
        <ele>62.644924</ele>
        <time>2014-05-28T14:40:05Z</time>
      </trkpt>
      <trkpt lat="43.20007" lon="5.50559">
        <ele>62.644924</ele>
        <time>2014-05-28T14:40:10Z</time>
      </trkpt>
      <trkpt lat="43.20005" lon="5.50563">
        <ele>62.644924</ele>
        <time>2014-05-28T14:40:20Z</time>
      </trkpt>
      <trkpt lat="43.20006" lon="5.50566">
        <ele>60.45855</ele>
        <time>2014-05-28T14:40:25Z</time>
      </trkpt>
      <trkpt lat="43.20005" lon="5.50567">
        <ele>60.45855</ele>
        <time>2014-05-28T14:40:29Z</time>
      </trkpt>
      <trkpt lat="43.20007" lon="5.50581">
        <ele>58.37274</ele>
        <time>2014-05-28T14:40:45Z</time>
      </trkpt>
      <trkpt lat="43.20009" lon="5.50585">
        <ele>58.37274</ele>
        <time>2014-05-28T14:40:50Z</time>
      </trkpt>
      <trkpt lat="43.20012" lon="5.50587">
        <ele>58.37274</ele>
        <time>2014-05-28T14:40:55Z</time>
      </trkpt>
      <trkpt lat="43.20013" lon="5.50588">
        <ele>58.37274</ele>
        <time>2014-05-28T14:40:59Z</time>
      </trkpt>
      <trkpt lat="43.20015" lon="5.50601">
        <ele>56.07955</ele>
        <time>2014-05-28T14:41:45Z</time>
      </trkpt>
      <trkpt lat="43.20016" lon="5.50608">
        <ele>56.07955</ele>
        <time>2014-05-28T14:41:55Z</time>
      </trkpt>
      <trkpt lat="43.20015" lon="5.50609">
        <ele>56.07955</ele>
        <time>2014-05-28T14:41:59Z</time>
      </trkpt>
      <trkpt lat="43.20015" lon="5.50621">
        <ele>53.726456</ele>
        <time>2014-05-28T14:42:20Z</time>
      </trkpt>
      <trkpt lat="43.20016" lon="5.50626">
        <ele>53.726456</ele>
        <time>2014-05-28T14:42:25Z</time>
      </trkpt>
      <trkpt lat="43.20015" lon="5.50627">
        <ele>53.726456</ele>
        <time>2014-05-28T14:42:29Z</time>
      </trkpt>
      <trkpt lat="43.20015" lon="5.50629">
        <ele>53.726456</ele>
        <time>2014-05-28T14:42:36Z</time>
      </trkpt>
      <trkpt lat="43.20017" lon="5.50646">
        <ele>51.27722</ele>
        <time>2014-05-28T14:42:59Z</time>
      </trkpt>
      <trkpt lat="43.2002" lon="5.50648">
        <ele>51.27722</ele>
        <time>2014-05-28T14:43:06Z</time>
      </trkpt>
      <trkpt lat="43.20021" lon="5.50651">
        <ele>51.27722</ele>
        <time>2014-05-28T14:43:10Z</time>
      </trkpt>
      <trkpt lat="43.20024" lon="5.50657">
        <ele>48.95786</ele>
        <time>2014-05-28T14:43:15Z</time>
      </trkpt>
      <trkpt lat="43.20025" lon="5.50659">
        <ele>48.95786</ele>
        <time>2014-05-28T14:43:20Z</time>
      </trkpt>
      <trkpt lat="43.20029" lon="5.50661">
        <ele>48.95786</ele>
        <time>2014-05-28T14:43:24Z</time>
      </trkpt>
      <trkpt lat="43.2003" lon="5.50664">
        <ele>48.95786</ele>
        <time>2014-05-28T14:43:29Z</time>
      </trkpt>
      <trkpt lat="43.20031" lon="5.50674">
        <ele>46.64584</ele>
        <time>2014-05-28T14:43:36Z</time>
      </trkpt>
      <trkpt lat="43.20032" lon="5.50678">
        <ele>46.64584</ele>
        <time>2014-05-28T14:43:39Z</time>
      </trkpt>
      <trkpt lat="43.20034" lon="5.50687">
        <ele>44.386044</ele>
        <time>2014-05-28T14:43:46Z</time>
      </trkpt>
      <trkpt lat="43.20035" lon="5.50691">
        <ele>44.386044</ele>
        <time>2014-05-28T14:43:50Z</time>
      </trkpt>
      <trkpt lat="43.20035" lon="5.50695">
        <ele>44.386044</ele>
        <time>2014-05-28T14:43:54Z</time>
      </trkpt>
      <trkpt lat="43.20038" lon="5.50692">
        <ele>42.2198</ele>
        <time>2014-05-28T14:43:59Z</time>
      </trkpt>
      <trkpt lat="43.20037" lon="5.50696">
        <ele>42.2198</ele>
        <time>2014-05-28T14:44:06Z</time>
      </trkpt>
      <trkpt lat="43.20035" lon="5.50699">
        <ele>42.2198</ele>
        <time>2014-05-28T14:44:10Z</time>
      </trkpt>
      <trkpt lat="43.20035" lon="5.50701">
        <ele>42.2198</ele>
        <time>2014-05-28T14:44:15Z</time>
      </trkpt>
      <trkpt lat="43.20035" lon="5.50708">
        <ele>40.17064</ele>
        <time>2014-05-28T14:44:20Z</time>
      </trkpt>
      <trkpt lat="43.20034" lon="5.5071">
        <ele>40.17064</ele>
        <time>2014-05-28T14:44:24Z</time>
      </trkpt>
      <trkpt lat="43.20034" lon="5.50711">
        <ele>40.17064</ele>
        <time>2014-05-28T14:44:29Z</time>
      </trkpt>
      <trkpt lat="43.20045" lon="5.50711">
        <ele>36.58824</ele>
        <time>2014-05-28T14:46:48Z</time>
      </trkpt>
      <trkpt lat="43.2005" lon="5.50712">
        <ele>36.58824</ele>
        <time>2014-05-28T14:46:54Z</time>
      </trkpt>
      <trkpt lat="43.20052" lon="5.50711">
        <ele>36.58824</ele>
        <time>2014-05-28T14:46:59Z</time>
      </trkpt>
      <trkpt lat="43.20052" lon="5.50711">
        <ele>36.58824</ele>
        <time>2014-05-28T14:47:04Z</time>
      </trkpt>
      <trkpt lat="43.20056" lon="5.5071">
        <ele>33.305504</ele>
        <time>2014-05-28T14:47:08Z</time>
      </trkpt>
      <trkpt lat="43.20064" lon="5.50707">
        <ele>33.305504</ele>
        <time>2014-05-28T14:47:16Z</time>
      </trkpt>
      <trkpt lat="43.20066" lon="5.50705">
        <ele>30.405704</ele>
        <time>2014-05-28T14:47:19Z</time>
      </trkpt>
      <trkpt lat="43.20071" lon="5.50701">
        <ele>30.405704</ele>
        <time>2014-05-28T14:47:24Z</time>
      </trkpt>
      <trkpt lat="43.20073" lon="5.50698">
        <ele>30.405704</ele>
        <time>2014-05-28T14:47:30Z</time>
      </trkpt>
      <trkpt lat="43.20078" lon="5.50698">
        <ele>27.907175</ele>
        <time>2014-05-28T14:47:35Z</time>
      </trkpt>
      <trkpt lat="43.2008" lon="5.50697">
        <ele>27.907175</ele>
        <time>2014-05-28T14:47:40Z</time>
      </trkpt>
      <trkpt lat="43.20083" lon="5.50698">
        <ele>27.907175</ele>
        <time>2014-05-28T14:47:45Z</time>
      </trkpt>
      <trkpt lat="43.20084" lon="5.50698">
        <ele>27.907175</ele>
        <time>2014-05-28T14:47:49Z</time>
      </trkpt>
      <trkpt lat="43.20089" lon="5.50697">
        <ele>25.897726</ele>
        <time>2014-05-28T14:48:01Z</time>
      </trkpt>
      <trkpt lat="43.20091" lon="5.50696">
        <ele>25.897726</ele>
        <time>2014-05-28T14:48:05Z</time>
      </trkpt>
      <trkpt lat="43.20093" lon="5.50694">
        <ele>25.897726</ele>
        <time>2014-05-28T14:48:10Z</time>
      </trkpt>
      <trkpt lat="43.20094" lon="5.50693">
        <ele>25.897726</ele>
        <time>2014-05-28T14:48:15Z</time>
      </trkpt>
      <trkpt lat="43.20098" lon="5.50691">
        <ele>24.442831</ele>
        <time>2014-05-28T14:48:19Z</time>
      </trkpt>
      <trkpt lat="43.201" lon="5.50691">
        <ele>24.442831</ele>
        <time>2014-05-28T14:48:24Z</time>
      </trkpt>
      <trkpt lat="43.201" lon="5.50691">
        <ele>24.442831</ele>
        <time>2014-05-28T14:48:30Z</time>
      </trkpt>
      <trkpt lat="43.20107" lon="5.50691">
        <ele>23.42857</ele>
        <time>2014-05-28T14:48:40Z</time>
      </trkpt>
      <trkpt lat="43.20109" lon="5.50691">
        <ele>23.42857</ele>
        <time>2014-05-28T14:48:45Z</time>
      </trkpt>
      <trkpt lat="43.20111" lon="5.5069">
        <ele>23.42857</ele>
        <time>2014-05-28T14:48:49Z</time>
      </trkpt>
      <trkpt lat="43.20112" lon="5.5069">
        <ele>23.42857</ele>
        <time>2014-05-28T14:48:55Z</time>
      </trkpt>
      <trkpt lat="43.20114" lon="5.50691">
        <ele>23.42857</ele>
        <time>2014-05-28T14:49:00Z</time>
      </trkpt>
      <trkpt lat="43.20114" lon="5.50694">
        <ele>22.834532</ele>
        <time>2014-05-28T14:49:04Z</time>
      </trkpt>
      <trkpt lat="43.20115" lon="5.50694">
        <ele>22.834532</ele>
        <time>2014-05-28T14:49:10Z</time>
      </trkpt>
      <trkpt lat="43.2012" lon="5.50697">
        <ele>22.834532</ele>
        <time>2014-05-28T14:49:15Z</time>
      </trkpt>
      <trkpt lat="43.2012" lon="5.50697">
        <ele>22.834532</ele>
        <time>2014-05-28T14:49:19Z</time>
      </trkpt>
      <trkpt lat="43.20125" lon="5.50698">
        <ele>22.712616</ele>
        <time>2014-05-28T14:49:25Z</time>
      </trkpt>
      <trkpt lat="43.20127" lon="5.50701">
        <ele>22.712616</ele>
        <time>2014-05-28T14:49:30Z</time>
      </trkpt>
      <trkpt lat="43.20129" lon="5.50701">
        <ele>22.712616</ele>
        <time>2014-05-28T14:49:35Z</time>
      </trkpt>
      <trkpt lat="43.20133" lon="5.50703">
        <ele>22.965412</ele>
        <time>2014-05-28T14:49:40Z</time>
      </trkpt>
      <trkpt lat="43.20136" lon="5.50706">
        <ele>22.965412</ele>
        <time>2014-05-28T14:49:45Z</time>
      </trkpt>
      <trkpt lat="43.20138" lon="5.50707">
        <ele>22.965412</ele>
        <time>2014-05-28T14:49:48Z</time>
      </trkpt>
      <trkpt lat="43.20141" lon="5.50709">
        <ele>23.501583</ele>
        <time>2014-05-28T14:49:55Z</time>
      </trkpt>
      <trkpt lat="43.20143" lon="5.50711">
        <ele>23.501583</ele>
        <time>2014-05-28T14:50:00Z</time>
      </trkpt>
      <trkpt lat="43.20145" lon="5.50715">
        <ele>23.501583</ele>
        <time>2014-05-28T14:50:05Z</time>
      </trkpt>
      <trkpt lat="43.20148" lon="5.50718">
        <ele>24.206867</ele>
        <time>2014-05-28T14:50:10Z</time>
      </trkpt>
      <trkpt lat="43.20149" lon="5.50721">
        <ele>24.206867</ele>
        <time>2014-05-28T14:50:15Z</time>
      </trkpt>
      <trkpt lat="43.20149" lon="5.50724">
        <ele>24.206867</ele>
        <time>2014-05-28T14:50:19Z</time>
      </trkpt>
      <trkpt lat="43.20151" lon="5.50728">
        <ele>24.206867</ele>
        <time>2014-05-28T14:50:25Z</time>
      </trkpt>
      <trkpt lat="43.20153" lon="5.50731">
        <ele>25.032572</ele>
        <time>2014-05-28T14:50:29Z</time>
      </trkpt>
      <trkpt lat="43.20156" lon="5.50738">
        <ele>25.032572</ele>
        <time>2014-05-28T14:50:36Z</time>
      </trkpt>
      <trkpt lat="43.20156" lon="5.50741">
        <ele>25.032572</ele>
        <time>2014-05-28T14:50:40Z</time>
      </trkpt>
      <trkpt lat="43.2016" lon="5.50743">
        <ele>25.976501</ele>
        <time>2014-05-28T14:50:56Z</time>
      </trkpt>
      <trkpt lat="43.20159" lon="5.50756">
        <ele>27.872192</ele>
        <time>2014-05-28T14:55:51Z</time>
      </trkpt>
      <trkpt lat="43.2016" lon="5.50756">
        <ele>27.872192</ele>
        <time>2014-05-28T14:55:55Z</time>
      </trkpt>
      <trkpt lat="43.20165" lon="5.50759">
        <ele>27.872192</ele>
        <time>2014-05-28T14:56:05Z</time>
      </trkpt>
      <trkpt lat="43.2017" lon="5.50761">
        <ele>29.760014</ele>
        <time>2014-05-28T14:56:10Z</time>
      </trkpt>
      <trkpt lat="43.20172" lon="5.50762">
        <ele>29.760014</ele>
        <time>2014-05-28T14:56:13Z</time>
      </trkpt>
      <trkpt lat="43.20175" lon="5.50767">
        <ele>29.760014</ele>
        <time>2014-05-28T14:56:21Z</time>
      </trkpt>
      <trkpt lat="43.20178" lon="5.5077">
        <ele>31.54356</ele>
        <time>2014-05-28T14:56:25Z</time>
      </trkpt>
      <trkpt lat="43.20182" lon="5.50774">
        <ele>31.54356</ele>
        <time>2014-05-28T14:56:29Z</time>
      </trkpt>
      <trkpt lat="43.20184" lon="5.5078">
        <ele>33.263622</ele>
        <time>2014-05-28T14:56:36Z</time>
      </trkpt>
      <trkpt lat="43.20185" lon="5.50782">
        <ele>33.263622</ele>
        <time>2014-05-28T14:56:40Z</time>
      </trkpt>
      <trkpt lat="43.20192" lon="5.50788">
        <ele>34.915073</ele>
        <time>2014-05-28T14:57:00Z</time>
      </trkpt>
      <trkpt lat="43.20195" lon="5.50792">
        <ele>34.915073</ele>
        <time>2014-05-28T14:57:05Z</time>
      </trkpt>
      <trkpt lat="43.202" lon="5.50798">
        <ele>36.435875</ele>
        <time>2014-05-28T14:57:09Z</time>
      </trkpt>
      <trkpt lat="43.20201" lon="5.50801">
        <ele>36.435875</ele>
        <time>2014-05-28T14:57:14Z</time>
      </trkpt>
      <trkpt lat="43.20203" lon="5.50802">
        <ele>36.435875</ele>
        <time>2014-05-28T14:57:21Z</time>
      </trkpt>
      <trkpt lat="43.20205" lon="5.50802">
        <ele>36.435875</ele>
        <time>2014-05-28T14:57:51Z</time>
      </trkpt>
      <trkpt lat="43.20205" lon="5.50802">
        <ele>36.435875</ele>
        <time>2014-05-28T14:57:55Z</time>
      </trkpt>
      <trkpt lat="43.20202" lon="5.50802">
        <ele>37.927612</ele>
        <time>2014-05-28T14:57:59Z</time>
      </trkpt>
      <trkpt lat="43.20206" lon="5.50803">
        <ele>37.927612</ele>
        <time>2014-05-28T14:58:49Z</time>
      </trkpt>
      <trkpt lat="43.2021" lon="5.50802">
        <ele>37.927612</ele>
        <time>2014-05-28T14:58:53Z</time>
      </trkpt>
      <trkpt lat="43.20215" lon="5.50802">
        <ele>39.36939</ele>
        <time>2014-05-28T14:58:58Z</time>
      </trkpt>
      <trkpt lat="43.2022" lon="5.50802">
        <ele>39.36939</ele>
        <time>2014-05-28T14:59:03Z</time>
      </trkpt>
      <trkpt lat="43.20226" lon="5.50801">
        <ele>40.785416</ele>
        <time>2014-05-28T14:59:08Z</time>
      </trkpt>
      <trkpt lat="43.2023" lon="5.508">
        <ele>40.785416</ele>
        <time>2014-05-28T14:59:13Z</time>
      </trkpt>
      <trkpt lat="43.20233" lon="5.50798">
        <ele>40.785416</ele>
        <time>2014-05-28T14:59:18Z</time>
      </trkpt>
      <trkpt lat="43.20237" lon="5.50795">
        <ele>42.313698</ele>
        <time>2014-05-28T14:59:23Z</time>
      </trkpt>
      <trkpt lat="43.20239" lon="5.50794">
        <ele>42.313698</ele>
        <time>2014-05-28T14:59:28Z</time>
      </trkpt>
      <trkpt lat="43.20242" lon="5.50797">
        <ele>42.313698</ele>
        <time>2014-05-28T14:59:33Z</time>
      </trkpt>
      <trkpt lat="43.20245" lon="5.50799">
        <ele>43.880257</ele>
        <time>2014-05-28T14:59:38Z</time>
      </trkpt>
      <trkpt lat="43.20249" lon="5.50802">
        <ele>43.880257</ele>
        <time>2014-05-28T14:59:43Z</time>
      </trkpt>
      <trkpt lat="43.20253" lon="5.50804">
        <ele>43.880257</ele>
        <time>2014-05-28T14:59:48Z</time>
      </trkpt>
      <trkpt lat="43.20256" lon="5.50806">
        <ele>45.445488</ele>
        <time>2014-05-28T14:59:53Z</time>
      </trkpt>
      <trkpt lat="43.20259" lon="5.50814">
        <ele>45.445488</ele>
        <time>2014-05-28T14:59:58Z</time>
      </trkpt>
      <trkpt lat="43.20261" lon="5.5082">
        <ele>46.915287</ele>
        <time>2014-05-28T15:00:03Z</time>
      </trkpt>
      <trkpt lat="43.20265" lon="5.50825">
        <ele>46.915287</ele>
        <time>2014-05-28T15:00:10Z</time>
      </trkpt>
      <trkpt lat="43.20266" lon="5.50826">
        <ele>46.915287</ele>
        <time>2014-05-28T15:00:14Z</time>
      </trkpt>
      <trkpt lat="43.2027" lon="5.50832">
        <ele>48.30385</ele>
        <time>2014-05-28T15:00:21Z</time>
      </trkpt>
      <trkpt lat="43.20272" lon="5.50834">
        <ele>48.30385</ele>
        <time>2014-05-28T15:00:25Z</time>
      </trkpt>
      <trkpt lat="43.20274" lon="5.50838">
        <ele>48.30385</ele>
        <time>2014-05-28T15:00:29Z</time>
      </trkpt>
      <trkpt lat="43.20275" lon="5.50839">
        <ele>48.30385</ele>
        <time>2014-05-28T15:00:35Z</time>
      </trkpt>
      <trkpt lat="43.20279" lon="5.50844">
        <ele>49.696854</ele>
        <time>2014-05-28T15:00:47Z</time>
      </trkpt>
      <trkpt lat="43.20287" lon="5.50849">
        <ele>49.696854</ele>
        <time>2014-05-28T15:01:15Z</time>
      </trkpt>
      <trkpt lat="43.20289" lon="5.50851">
        <ele>51.23156</ele>
        <time>2014-05-28T15:01:19Z</time>
      </trkpt>
      <trkpt lat="43.20293" lon="5.50854">
        <ele>51.23156</ele>
        <time>2014-05-28T15:01:26Z</time>
      </trkpt>
      <trkpt lat="43.20295" lon="5.50855">
        <ele>51.23156</ele>
        <time>2014-05-28T15:01:28Z</time>
      </trkpt>
      <trkpt lat="43.20301" lon="5.50855">
        <ele>52.660305</ele>
        <time>2014-05-28T15:01:35Z</time>
      </trkpt>
      <trkpt lat="43.20306" lon="5.50855">
        <ele>52.660305</ele>
        <time>2014-05-28T15:01:40Z</time>
      </trkpt>
      <trkpt lat="43.20309" lon="5.50855">
        <ele>52.660305</ele>
        <time>2014-05-28T15:01:45Z</time>
      </trkpt>
      <trkpt lat="43.20313" lon="5.50854">
        <ele>53.98475</ele>
        <time>2014-05-28T15:01:50Z</time>
      </trkpt>
      <trkpt lat="43.20316" lon="5.50854">
        <ele>53.98475</ele>
        <time>2014-05-28T15:01:55Z</time>
      </trkpt>
      <trkpt lat="43.20319" lon="5.50853">
        <ele>53.98475</ele>
        <time>2014-05-28T15:01:59Z</time>
      </trkpt>
      <trkpt lat="43.20324" lon="5.50855">
        <ele>55.264603</ele>
        <time>2014-05-28T15:02:05Z</time>
      </trkpt>
      <trkpt lat="43.20327" lon="5.50855">
        <ele>55.264603</ele>
        <time>2014-05-28T15:02:10Z</time>
      </trkpt>
      <trkpt lat="43.2033" lon="5.50866">
        <ele>56.598797</ele>
        <time>2014-05-28T15:02:40Z</time>
      </trkpt>
      <trkpt lat="43.20332" lon="5.5087">
        <ele>56.598797</ele>
        <time>2014-05-28T15:02:45Z</time>
      </trkpt>
      <trkpt lat="43.20333" lon="5.50873">
        <ele>56.598797</ele>
        <time>2014-05-28T15:02:50Z</time>
      </trkpt>
      <trkpt lat="43.20333" lon="5.50877">
        <ele>56.598797</ele>
        <time>2014-05-28T15:02:55Z</time>
      </trkpt>
      <trkpt lat="43.20335" lon="5.50881">
        <ele>57.77646</ele>
        <time>2014-05-28T15:02:59Z</time>
      </trkpt>
      <trkpt lat="43.20337" lon="5.50886">
        <ele>57.77646</ele>
        <time>2014-05-28T15:03:06Z</time>
      </trkpt>
      <trkpt lat="43.20337" lon="5.50889">
        <ele>57.77646</ele>
        <time>2014-05-28T15:03:10Z</time>
      </trkpt>
      <trkpt lat="43.20336" lon="5.50895">
        <ele>58.80463</ele>
        <time>2014-05-28T15:03:15Z</time>
      </trkpt>
      <trkpt lat="43.20338" lon="5.50897">
        <ele>58.80463</ele>
        <time>2014-05-28T15:03:20Z</time>
      </trkpt>
      <trkpt lat="43.20339" lon="5.50898">
        <ele>58.80463</ele>
        <time>2014-05-28T15:03:24Z</time>
      </trkpt>
      <trkpt lat="43.20338" lon="5.50899">
        <ele>58.80463</ele>
        <time>2014-05-28T15:03:29Z</time>
      </trkpt>
      <trkpt lat="43.20343" lon="5.509">
        <ele>58.80463</ele>
        <time>2014-05-28T15:03:45Z</time>
      </trkpt>
      <trkpt lat="43.20345" lon="5.50901">
        <ele>59.604027</ele>
        <time>2014-05-28T15:03:50Z</time>
      </trkpt>
      <trkpt lat="43.20345" lon="5.509">
        <ele>59.604027</ele>
        <time>2014-05-28T15:03:55Z</time>
      </trkpt>
      <trkpt lat="43.20352" lon="5.50909">
        <ele>60.015587</ele>
        <time>2014-05-28T15:04:36Z</time>
      </trkpt>
      <trkpt lat="43.20352" lon="5.5091">
        <ele>60.015587</ele>
        <time>2014-05-28T15:04:40Z</time>
      </trkpt>
      <trkpt lat="43.20356" lon="5.50916">
        <ele>60.015587</ele>
        <time>2014-05-28T15:04:54Z</time>
      </trkpt>
      <trkpt lat="43.20357" lon="5.50919">
        <ele>60.339985</ele>
        <time>2014-05-28T15:04:59Z</time>
      </trkpt>
      <trkpt lat="43.20357" lon="5.50923">
        <ele>60.339985</ele>
        <time>2014-05-28T15:05:05Z</time>
      </trkpt>
      <trkpt lat="43.20357" lon="5.50927">
        <ele>60.339985</ele>
        <time>2014-05-28T15:05:10Z</time>
      </trkpt>
      <trkpt lat="43.20358" lon="5.50929">
        <ele>60.339985</ele>
        <time>2014-05-28T15:05:15Z</time>
      </trkpt>
      <trkpt lat="43.20358" lon="5.50929">
        <ele>60.339985</ele>
        <time>2014-05-28T15:05:20Z</time>
      </trkpt>
      <trkpt lat="43.20358" lon="5.50936">
        <ele>60.40952</ele>
        <time>2014-05-28T15:05:24Z</time>
      </trkpt>
      <trkpt lat="43.20358" lon="5.50941">
        <ele>60.40952</ele>
        <time>2014-05-28T15:05:30Z</time>
      </trkpt>
      <trkpt lat="43.20358" lon="5.50946">
        <ele>60.40952</ele>
        <time>2014-05-28T15:05:35Z</time>
      </trkpt>
      <trkpt lat="43.20357" lon="5.50952">
        <ele>60.30029</ele>
        <time>2014-05-28T15:05:40Z</time>
      </trkpt>
      <trkpt lat="43.20357" lon="5.50956">
        <ele>60.30029</ele>
        <time>2014-05-28T15:05:45Z</time>
      </trkpt>
      <trkpt lat="43.20359" lon="5.50959">
        <ele>60.30029</ele>
        <time>2014-05-28T15:05:50Z</time>
      </trkpt>
      <trkpt lat="43.20359" lon="5.50963">
        <ele>60.30029</ele>
        <time>2014-05-28T15:05:53Z</time>
      </trkpt>
      <trkpt lat="43.20359" lon="5.50968">
        <ele>59.809677</ele>
        <time>2014-05-28T15:06:00Z</time>
      </trkpt>
      <trkpt lat="43.20358" lon="5.50972">
        <ele>59.809677</ele>
        <time>2014-05-28T15:06:05Z</time>
      </trkpt>
      <trkpt lat="43.20355" lon="5.50979">
        <ele>59.809677</ele>
        <time>2014-05-28T15:06:10Z</time>
      </trkpt>
      <trkpt lat="43.20354" lon="5.50981">
        <ele>59.068222</ele>
        <time>2014-05-28T15:06:15Z</time>
      </trkpt>
      <trkpt lat="43.20353" lon="5.50982">
        <ele>59.068222</ele>
        <time>2014-05-28T15:06:20Z</time>
      </trkpt>
      <trkpt lat="43.20353" lon="5.50982">
        <ele>59.068222</ele>
        <time>2014-05-28T15:06:23Z</time>
      </trkpt>
      <trkpt lat="43.20354" lon="5.50992">
        <ele>57.967155</ele>
        <time>2014-05-28T15:06:40Z</time>
      </trkpt>
      <trkpt lat="43.20354" lon="5.50994">
        <ele>57.967155</ele>
        <time>2014-05-28T15:06:45Z</time>
      </trkpt>
      <trkpt lat="43.20351" lon="5.51">
        <ele>57.967155</ele>
        <time>2014-05-28T15:08:24Z</time>
      </trkpt>
      <trkpt lat="43.20351" lon="5.50998">
        <ele>57.967155</ele>
        <time>2014-05-28T15:08:31Z</time>
      </trkpt>
      <trkpt lat="43.20356" lon="5.5101">
        <ele>55.22512</ele>
        <time>2014-05-28T15:09:35Z</time>
      </trkpt>
      <trkpt lat="43.20358" lon="5.51012">
        <ele>55.22512</ele>
        <time>2014-05-28T15:09:40Z</time>
      </trkpt>
      <trkpt lat="43.20357" lon="5.51013">
        <ele>55.22512</ele>
        <time>2014-05-28T15:09:45Z</time>
      </trkpt>
      <trkpt lat="43.20354" lon="5.51024">
        <ele>52.18153</ele>
        <time>2014-05-28T15:10:10Z</time>
      </trkpt>
      <trkpt lat="43.20354" lon="5.51024">
        <ele>52.18153</ele>
        <time>2014-05-28T15:10:17Z</time>
      </trkpt>
      <trkpt lat="43.20357" lon="5.51027">
        <ele>52.18153</ele>
        <time>2014-05-28T15:10:18Z</time>
      </trkpt>
      <trkpt lat="43.20357" lon="5.51027">
        <ele>52.18153</ele>
        <time>2014-05-28T15:10:25Z</time>
      </trkpt>
      <trkpt lat="43.20362" lon="5.51039">
        <ele>48.536346</ele>
        <time>2014-05-28T15:11:19Z</time>
      </trkpt>
      <trkpt lat="43.20362" lon="5.5104">
        <ele>48.536346</ele>
        <time>2014-05-28T15:11:25Z</time>
      </trkpt>
      <trkpt lat="43.20365" lon="5.51042">
        <ele>48.536346</ele>
        <time>2014-05-28T15:11:30Z</time>
      </trkpt>
      <trkpt lat="43.20365" lon="5.51042">
        <ele>48.536346</ele>
        <time>2014-05-28T15:11:35Z</time>
      </trkpt>
      <trkpt lat="43.20368" lon="5.51047">
        <ele>44.87795</ele>
        <time>2014-05-28T15:11:40Z</time>
      </trkpt>
      <trkpt lat="43.20368" lon="5.51049">
        <ele>44.87795</ele>
        <time>2014-05-28T15:11:45Z</time>
      </trkpt>
      <trkpt lat="43.20367" lon="5.5105">
        <ele>44.87795</ele>
        <time>2014-05-28T15:11:48Z</time>
      </trkpt>
      <trkpt lat="43.20373" lon="5.51059">
        <ele>40.94454</ele>
        <time>2014-05-28T15:12:15Z</time>
      </trkpt>
      <trkpt lat="43.20375" lon="5.5106">
        <ele>40.94454</ele>
        <time>2014-05-28T15:12:19Z</time>
      </trkpt>
      <trkpt lat="43.20378" lon="5.51059">
        <ele>40.94454</ele>
        <time>2014-05-28T15:12:26Z</time>
      </trkpt>
      <trkpt lat="43.20379" lon="5.51059">
        <ele>40.94454</ele>
        <time>2014-05-28T15:12:30Z</time>
      </trkpt>
      <trkpt lat="43.2038" lon="5.51059">
        <ele>40.94454</ele>
        <time>2014-05-28T15:12:35Z</time>
      </trkpt>
      <trkpt lat="43.20385" lon="5.51054">
        <ele>37.185997</ele>
        <time>2014-05-28T15:12:49Z</time>
      </trkpt>
      <trkpt lat="43.20386" lon="5.51053">
        <ele>37.185997</ele>
        <time>2014-05-28T15:12:58Z</time>
      </trkpt>
      <trkpt lat="43.20394" lon="5.51041">
        <ele>33.600716</ele>
        <time>2014-05-28T15:13:10Z</time>
      </trkpt>
      <trkpt lat="43.20396" lon="5.51041">
        <ele>33.600716</ele>
        <time>2014-05-28T15:13:15Z</time>
      </trkpt>
      <trkpt lat="43.20396" lon="5.51049">
        <ele>33.600716</ele>
        <time>2014-05-28T15:13:29Z</time>
      </trkpt>
      <trkpt lat="43.20396" lon="5.51055">
        <ele>30.244247</ele>
        <time>2014-05-28T15:13:35Z</time>
      </trkpt>
      <trkpt lat="43.20396" lon="5.51061">
        <ele>30.244247</ele>
        <time>2014-05-28T15:13:40Z</time>
      </trkpt>
      <trkpt lat="43.20397" lon="5.51066">
        <ele>30.244247</ele>
        <time>2014-05-28T15:13:44Z</time>
      </trkpt>
      <trkpt lat="43.20395" lon="5.51068">
        <ele>27.124092</ele>
        <time>2014-05-28T15:13:49Z</time>
      </trkpt>
      <trkpt lat="43.20394" lon="5.51073">
        <ele>27.124092</ele>
        <time>2014-05-28T15:13:56Z</time>
      </trkpt>
      <trkpt lat="43.20388" lon="5.51076">
        <ele>24.231985</ele>
        <time>2014-05-28T15:14:05Z</time>
      </trkpt>
      <trkpt lat="43.20385" lon="5.5108">
        <ele>24.231985</ele>
        <time>2014-05-28T15:14:10Z</time>
      </trkpt>
      <trkpt lat="43.20383" lon="5.51085">
        <ele>24.231985</ele>
        <time>2014-05-28T15:14:14Z</time>
      </trkpt>
      <trkpt lat="43.20388" lon="5.51086">
        <ele>21.35772</ele>
        <time>2014-05-28T15:14:40Z</time>
      </trkpt>
      <trkpt lat="43.20394" lon="5.51087">
        <ele>21.35772</ele>
        <time>2014-05-28T15:14:44Z</time>
      </trkpt>
      <trkpt lat="43.20399" lon="5.51082">
        <ele>18.623362</ele>
        <time>2014-05-28T15:14:50Z</time>
      </trkpt>
      <trkpt lat="43.20404" lon="5.51077">
        <ele>18.623362</ele>
        <time>2014-05-28T15:14:55Z</time>
      </trkpt>
      <trkpt lat="43.20407" lon="5.51073">
        <ele>16.069382</ele>
        <time>2014-05-28T15:15:00Z</time>
      </trkpt>
      <trkpt lat="43.20411" lon="5.51066">
        <ele>16.069382</ele>
        <time>2014-05-28T15:15:05Z</time>
      </trkpt>
      <trkpt lat="43.20413" lon="5.5106">
        <ele>13.674939</ele>
        <time>2014-05-28T15:15:10Z</time>
      </trkpt>
      <trkpt lat="43.20414" lon="5.51057">
        <ele>13.674939</ele>
        <time>2014-05-28T15:15:14Z</time>
      </trkpt>
      <trkpt lat="43.20413" lon="5.51055">
        <ele>13.674939</ele>
        <time>2014-05-28T15:15:20Z</time>
      </trkpt>
      <trkpt lat="43.20407" lon="5.51043">
        <ele>11.218332</ele>
        <time>2014-05-28T15:16:26Z</time>
      </trkpt>
      <trkpt lat="43.20416" lon="5.51042">
        <ele>8.753517</ele>
        <time>2014-05-28T15:16:55Z</time>
      </trkpt>
      <trkpt lat="43.20425" lon="5.51045">
        <ele>8.753517</ele>
        <time>2014-05-28T15:19:35Z</time>
      </trkpt>
      <trkpt lat="43.20422" lon="5.51055">
        <ele>5.8115067</ele>
        <time>2014-05-28T15:25:49Z</time>
      </trkpt>
      <trkpt lat="43.20414" lon="5.51042">
        <ele>3.183844</ele>
        <time>2014-05-28T15:25:54Z</time>
      </trkpt>
      <trkpt lat="43.20412" lon="5.51048">
        <ele>3.183844</ele>
        <time>2014-05-28T15:27:59Z</time>
      </trkpt>
      <trkpt lat="43.20412" lon="5.51053">
        <ele>3.183844</ele>
        <time>2014-05-28T15:28:04Z</time>
      </trkpt>
      <trkpt lat="43.20413" lon="5.51065">
        <ele>0.95433474</ele>
        <time>2014-05-28T15:28:09Z</time>
      </trkpt>
      <trkpt lat="43.20413" lon="5.51078">
        <ele>-1.0024552</ele>
        <time>2014-05-28T15:28:14Z</time>
      </trkpt>
      <trkpt lat="43.20414" lon="5.51083">
        <ele>-1.0024552</ele>
        <time>2014-05-28T15:28:19Z</time>
      </trkpt>
      <trkpt lat="43.20419" lon="5.51091">
        <ele>-2.7604852</ele>
        <time>2014-05-28T15:28:24Z</time>
      </trkpt>
      <trkpt lat="43.20423" lon="5.51095">
        <ele>-2.7604852</ele>
        <time>2014-05-28T15:28:29Z</time>
      </trkpt>
      <trkpt lat="43.20428" lon="5.51098">
        <ele>-4.2737546</ele>
        <time>2014-05-28T15:28:34Z</time>
      </trkpt>
      <trkpt lat="43.2043" lon="5.51103">
        <ele>-4.2737546</ele>
        <time>2014-05-28T15:28:39Z</time>
      </trkpt>
      <trkpt lat="43.20431" lon="5.51108">
        <ele>-4.2737546</ele>
        <time>2014-05-28T15:28:44Z</time>
      </trkpt>
      <trkpt lat="43.20431" lon="5.51113">
        <ele>-5.5437593</ele>
        <time>2014-05-28T15:28:49Z</time>
      </trkpt>
      <trkpt lat="43.20428" lon="5.51115">
        <ele>-5.5437593</ele>
        <time>2014-05-28T15:28:54Z</time>
      </trkpt>
      <trkpt lat="43.20429" lon="5.51119">
        <ele>-5.5437593</ele>
        <time>2014-05-28T15:28:59Z</time>
      </trkpt>
      <trkpt lat="43.2043" lon="5.51124">
        <ele>-6.5727577</ele>
        <time>2014-05-28T15:29:04Z</time>
      </trkpt>
      <trkpt lat="43.20435" lon="5.5113">
        <ele>-6.5727577</ele>
        <time>2014-05-28T15:29:09Z</time>
      </trkpt>
      <trkpt lat="43.20438" lon="5.51135">
        <ele>-7.349284</ele>
        <time>2014-05-28T15:29:14Z</time>
      </trkpt>
      <trkpt lat="43.20442" lon="5.51139">
        <ele>-7.349284</ele>
        <time>2014-05-28T15:29:19Z</time>
      </trkpt>
      <trkpt lat="43.20445" lon="5.51141">
        <ele>-7.349284</ele>
        <time>2014-05-28T15:29:26Z</time>
      </trkpt>
      <trkpt lat="43.20446" lon="5.51145">
        <ele>-7.733888</ele>
        <time>2014-05-28T15:29:30Z</time>
      </trkpt>
      <trkpt lat="43.20447" lon="5.51148">
        <ele>-7.733888</ele>
        <time>2014-05-28T15:29:36Z</time>
      </trkpt>
      <trkpt lat="43.20449" lon="5.51149">
        <ele>-7.733888</ele>
        <time>2014-05-28T15:29:41Z</time>
      </trkpt>
      <trkpt lat="43.20448" lon="5.51149">
        <ele>-7.733888</ele>
        <time>2014-05-28T15:29:46Z</time>
      </trkpt>
      <trkpt lat="43.20452" lon="5.51153">
        <ele>-7.858014</ele>
        <time>2014-05-28T15:29:49Z</time>
      </trkpt>
      <trkpt lat="43.20454" lon="5.51156">
        <ele>-7.858014</ele>
        <time>2014-05-28T15:29:55Z</time>
      </trkpt>
      <trkpt lat="43.20451" lon="5.51161">
        <ele>-7.858014</ele>
        <time>2014-05-28T15:30:01Z</time>
      </trkpt>
      <trkpt lat="43.20449" lon="5.51161">
        <ele>-7.858014</ele>
        <time>2014-05-28T15:30:04Z</time>
      </trkpt>
      <trkpt lat="43.20449" lon="5.51163">
        <ele>-7.411981</ele>
        <time>2014-05-28T15:30:10Z</time>
      </trkpt>
      <trkpt lat="43.2045" lon="5.5116">
        <ele>-7.411981</ele>
        <time>2014-05-28T15:30:16Z</time>
      </trkpt>
      <trkpt lat="43.20452" lon="5.51158">
        <ele>-7.411981</ele>
        <time>2014-05-28T15:30:20Z</time>
      </trkpt>
      <trkpt lat="43.20455" lon="5.51157">
        <ele>-7.411981</ele>
        <time>2014-05-28T15:30:25Z</time>
      </trkpt>
      <trkpt lat="43.20456" lon="5.51158">
        <ele>-5.9088135</ele>
        <time>2014-05-28T15:30:31Z</time>
      </trkpt>
      <trkpt lat="43.20455" lon="5.5116">
        <ele>-5.9088135</ele>
        <time>2014-05-28T15:30:36Z</time>
      </trkpt>
      <trkpt lat="43.20452" lon="5.51162">
        <ele>-5.9088135</ele>
        <time>2014-05-28T15:30:41Z</time>
      </trkpt>
      <trkpt lat="43.20451" lon="5.51161">
        <ele>-5.9088135</ele>
        <time>2014-05-28T15:30:44Z</time>
      </trkpt>
      <trkpt lat="43.20452" lon="5.51162">
        <ele>-5.9088135</ele>
        <time>2014-05-28T15:30:49Z</time>
      </trkpt>
      <trkpt lat="43.20449" lon="5.51168">
        <ele>-3.3903413</ele>
        <time>2014-05-28T15:31:09Z</time>
      </trkpt>
      <trkpt lat="43.20449" lon="5.51168">
        <ele>-3.3903413</ele>
        <time>2014-05-28T15:31:14Z</time>
      </trkpt>
      <trkpt lat="43.20436" lon="5.51166">
        <ele>-0.34497395</ele>
        <time>2014-05-28T15:32:09Z</time>
      </trkpt>
      <trkpt lat="43.20428" lon="5.51166">
        <ele>-0.34497395</ele>
        <time>2014-05-28T15:32:17Z</time>
      </trkpt>
      <trkpt lat="43.20424" lon="5.51162">
        <ele>2.6291406</ele>
        <time>2014-05-28T15:32:20Z</time>
      </trkpt>
      <trkpt lat="43.2042" lon="5.5116">
        <ele>2.6291406</ele>
        <time>2014-05-28T15:32:25Z</time>
      </trkpt>
      <trkpt lat="43.20415" lon="5.51162">
        <ele>5.5832686</ele>
        <time>2014-05-28T15:32:30Z</time>
      </trkpt>
      <trkpt lat="43.20409" lon="5.51162">
        <ele>5.5832686</ele>
        <time>2014-05-28T15:32:34Z</time>
      </trkpt>
      <trkpt lat="43.20405" lon="5.51165">
        <ele>8.464129</ele>
        <time>2014-05-28T15:32:40Z</time>
      </trkpt>
      <trkpt lat="43.20402" lon="5.51165">
        <ele>8.464129</ele>
        <time>2014-05-28T15:32:45Z</time>
      </trkpt>
      <trkpt lat="43.20399" lon="5.51167">
        <ele>8.464129</ele>
        <time>2014-05-28T15:32:51Z</time>
      </trkpt>
      <trkpt lat="43.20399" lon="5.51168">
        <ele>8.464129</ele>
        <time>2014-05-28T15:32:56Z</time>
      </trkpt>
      <trkpt lat="43.20394" lon="5.51169">
        <ele>11.294689</ele>
        <time>2014-05-28T15:33:00Z</time>
      </trkpt>
      <trkpt lat="43.2039" lon="5.5117">
        <ele>11.294689</ele>
        <time>2014-05-28T15:33:04Z</time>
      </trkpt>
      <trkpt lat="43.20386" lon="5.51172">
        <ele>11.294689</ele>
        <time>2014-05-28T15:33:10Z</time>
      </trkpt>
      <trkpt lat="43.2038" lon="5.51176">
        <ele>13.981182</ele>
        <time>2014-05-28T15:33:16Z</time>
      </trkpt>
      <trkpt lat="43.20378" lon="5.51179">
        <ele>13.981182</ele>
        <time>2014-05-28T15:33:20Z</time>
      </trkpt>
      <trkpt lat="43.20378" lon="5.5118">
        <ele>13.981182</ele>
        <time>2014-05-28T15:33:25Z</time>
      </trkpt>
      <trkpt lat="43.20375" lon="5.51191">
        <ele>16.466082</ele>
        <time>2014-05-28T15:33:36Z</time>
      </trkpt>
      <trkpt lat="43.20375" lon="5.51192">
        <ele>16.466082</ele>
        <time>2014-05-28T15:33:41Z</time>
      </trkpt>
      <trkpt lat="43.2037" lon="5.51192">
        <ele>16.466082</ele>
        <time>2014-05-28T15:33:46Z</time>
      </trkpt>
      <trkpt lat="43.20371" lon="5.51187">
        <ele>18.898556</ele>
        <time>2014-05-28T15:33:49Z</time>
      </trkpt>
      <trkpt lat="43.20369" lon="5.51183">
        <ele>18.898556</ele>
        <time>2014-05-28T15:33:54Z</time>
      </trkpt>
      <trkpt lat="43.20368" lon="5.51181">
        <ele>18.898556</ele>
        <time>2014-05-28T15:34:01Z</time>
      </trkpt>
      <trkpt lat="43.20365" lon="5.51179">
        <ele>21.258608</ele>
        <time>2014-05-28T15:34:06Z</time>
      </trkpt>
      <trkpt lat="43.20361" lon="5.51178">
        <ele>21.258608</ele>
        <time>2014-05-28T15:34:11Z</time>
      </trkpt>
      <trkpt lat="43.20355" lon="5.51179">
        <ele>23.484861</ele>
        <time>2014-05-28T15:34:16Z</time>
      </trkpt>
      <trkpt lat="43.2035" lon="5.5118">
        <ele>23.484861</ele>
        <time>2014-05-28T15:34:21Z</time>
      </trkpt>
      <trkpt lat="43.20346" lon="5.51182">
        <ele>25.593077</ele>
        <time>2014-05-28T15:34:26Z</time>
      </trkpt>
      <trkpt lat="43.20343" lon="5.51184">
        <ele>25.593077</ele>
        <time>2014-05-28T15:34:30Z</time>
      </trkpt>
      <trkpt lat="43.20339" lon="5.51184">
        <ele>25.593077</ele>
        <time>2014-05-28T15:34:36Z</time>
      </trkpt>
      <trkpt lat="43.20337" lon="5.5118">
        <ele>27.411045</ele>
        <time>2014-05-28T15:34:41Z</time>
      </trkpt>
      <trkpt lat="43.20338" lon="5.5118">
        <ele>27.411045</ele>
        <time>2014-05-28T15:34:45Z</time>
      </trkpt>
      <trkpt lat="43.20333" lon="5.5118">
        <ele>27.411045</ele>
        <time>2014-05-28T15:34:51Z</time>
      </trkpt>
      <trkpt lat="43.2033" lon="5.5118">
        <ele>27.411045</ele>
        <time>2014-05-28T15:34:55Z</time>
      </trkpt>
      <trkpt lat="43.20329" lon="5.51182">
        <ele>28.75142</ele>
        <time>2014-05-28T15:35:01Z</time>
      </trkpt>
      <trkpt lat="43.20329" lon="5.51179">
        <ele>28.75142</ele>
        <time>2014-05-28T15:35:10Z</time>
      </trkpt>
      <trkpt lat="43.2033" lon="5.51177">
        <ele>28.75142</ele>
        <time>2014-05-28T15:35:16Z</time>
      </trkpt>
      <trkpt lat="43.20328" lon="5.51175">
        <ele>28.75142</ele>
        <time>2014-05-28T15:35:21Z</time>
      </trkpt>
      <trkpt lat="43.20322" lon="5.51172">
        <ele>29.715979</ele>
        <time>2014-05-28T15:35:26Z</time>
      </trkpt>
      <trkpt lat="43.20322" lon="5.51172">
        <ele>29.715979</ele>
        <time>2014-05-28T15:35:29Z</time>
      </trkpt>
      <trkpt lat="43.20309" lon="5.51164">
        <ele>30.630877</ele>
        <time>2014-05-28T15:35:37Z</time>
      </trkpt>
      <trkpt lat="43.20307" lon="5.51162">
        <ele>30.630877</ele>
        <time>2014-05-28T15:35:40Z</time>
      </trkpt>
      <trkpt lat="43.20304" lon="5.51162">
        <ele>30.630877</ele>
        <time>2014-05-28T15:35:46Z</time>
      </trkpt>
      <trkpt lat="43.20303" lon="5.51162">
        <ele>30.630877</ele>
        <time>2014-05-28T15:35:49Z</time>
      </trkpt>
      <trkpt lat="43.20297" lon="5.51163">
        <ele>31.409561</ele>
        <time>2014-05-28T15:35:55Z</time>
      </trkpt>
      <trkpt lat="43.20293" lon="5.51166">
        <ele>31.409561</ele>
        <time>2014-05-28T15:36:01Z</time>
      </trkpt>
      <trkpt lat="43.20292" lon="5.51167">
        <ele>31.409561</ele>
        <time>2014-05-28T15:36:06Z</time>
      </trkpt>
      <trkpt lat="43.20285" lon="5.51168">
        <ele>31.97243</ele>
        <time>2014-05-28T15:36:11Z</time>
      </trkpt>
      <trkpt lat="43.20285" lon="5.51168">
        <ele>31.97243</ele>
        <time>2014-05-28T15:36:16Z</time>
      </trkpt>
      <trkpt lat="43.20284" lon="5.51168">
        <ele>31.97243</ele>
        <time>2014-05-28T15:36:20Z</time>
      </trkpt>
      <trkpt lat="43.20284" lon="5.5117">
        <ele>31.97243</ele>
        <time>2014-05-28T15:36:24Z</time>
      </trkpt>
      <trkpt lat="43.20278" lon="5.51169">
        <ele>31.97243</ele>
        <time>2014-05-28T15:36:32Z</time>
      </trkpt>
      <trkpt lat="43.20278" lon="5.51169">
        <ele>31.97243</ele>
        <time>2014-05-28T15:36:35Z</time>
      </trkpt>
      <trkpt lat="43.20278" lon="5.51169">
        <ele>32.621227</ele>
        <time>2014-05-28T15:36:41Z</time>
      </trkpt>
      <trkpt lat="43.20269" lon="5.51167">
        <ele>32.621227</ele>
        <time>2014-05-28T15:36:46Z</time>
      </trkpt>
      <trkpt lat="43.20267" lon="5.51166">
        <ele>33.260796</ele>
        <time>2014-05-28T15:36:51Z</time>
      </trkpt>
      <trkpt lat="43.20265" lon="5.51167">
        <ele>33.260796</ele>
        <time>2014-05-28T15:36:55Z</time>
      </trkpt>
      <trkpt lat="43.2026" lon="5.51168">
        <ele>33.260796</ele>
        <time>2014-05-28T15:37:01Z</time>
      </trkpt>
      <trkpt lat="43.20259" lon="5.51168">
        <ele>33.260796</ele>
        <time>2014-05-28T15:37:06Z</time>
      </trkpt>
      <trkpt lat="43.20258" lon="5.51168">
        <ele>33.846413</ele>
        <time>2014-05-28T15:37:11Z</time>
      </trkpt>
      <trkpt lat="43.20257" lon="5.5117">
        <ele>33.846413</ele>
        <time>2014-05-28T15:37:15Z</time>
      </trkpt>
      <trkpt lat="43.20257" lon="5.51169">
        <ele>33.846413</ele>
        <time>2014-05-28T15:37:21Z</time>
      </trkpt>
      <trkpt lat="43.20249" lon="5.5117">
        <ele>34.409035</ele>
        <time>2014-05-28T15:37:31Z</time>
      </trkpt>
      <trkpt lat="43.20249" lon="5.5117">
        <ele>34.409035</ele>
        <time>2014-05-28T15:37:35Z</time>
      </trkpt>
      <trkpt lat="43.20251" lon="5.51173">
        <ele>34.409035</ele>
        <time>2014-05-28T15:37:41Z</time>
      </trkpt>
      <trkpt lat="43.20249" lon="5.51173">
        <ele>34.409035</ele>
        <time>2014-05-28T15:37:44Z</time>
      </trkpt>
      <trkpt lat="43.2025" lon="5.51173">
        <ele>34.409035</ele>
        <time>2014-05-28T15:37:51Z</time>
      </trkpt>
      <trkpt lat="43.20244" lon="5.51174">
        <ele>35.12169</ele>
        <time>2014-05-28T15:38:06Z</time>
      </trkpt>
      <trkpt lat="43.20241" lon="5.51173">
        <ele>35.12169</ele>
        <time>2014-05-28T15:38:16Z</time>
      </trkpt>
      <trkpt lat="43.20239" lon="5.51175">
        <ele>35.12169</ele>
        <time>2014-05-28T15:38:21Z</time>
      </trkpt>
      <trkpt lat="43.20239" lon="5.51177">
        <ele>35.12169</ele>
        <time>2014-05-28T15:38:26Z</time>
      </trkpt>
      <trkpt lat="43.20238" lon="5.51178">
        <ele>35.12169</ele>
        <time>2014-05-28T15:38:31Z</time>
      </trkpt>
      <trkpt lat="43.20234" lon="5.51177">
        <ele>36.53353</ele>
        <time>2014-05-28T15:38:36Z</time>
      </trkpt>
      <trkpt lat="43.20232" lon="5.51176">
        <ele>36.53353</ele>
        <time>2014-05-28T15:38:40Z</time>
      </trkpt>
      <trkpt lat="43.20235" lon="5.51183">
        <ele>36.53353</ele>
        <time>2014-05-28T15:39:06Z</time>
      </trkpt>
      <trkpt lat="43.20234" lon="5.51183">
        <ele>36.53353</ele>
        <time>2014-05-28T15:39:11Z</time>
      </trkpt>
      <trkpt lat="43.20228" lon="5.5119">
        <ele>37.941048</ele>
        <time>2014-05-28T15:39:51Z</time>
      </trkpt>
      <trkpt lat="43.20221" lon="5.51189">
        <ele>37.941048</ele>
        <time>2014-05-28T15:39:56Z</time>
      </trkpt>
      <trkpt lat="43.20218" lon="5.51193">
        <ele>39.25461</ele>
        <time>2014-05-28T15:40:01Z</time>
      </trkpt>
      <trkpt lat="43.20216" lon="5.51197">
        <ele>39.25461</ele>
        <time>2014-05-28T15:40:06Z</time>
      </trkpt>
      <trkpt lat="43.20214" lon="5.512">
        <ele>39.25461</ele>
        <time>2014-05-28T15:40:11Z</time>
      </trkpt>
      <trkpt lat="43.20215" lon="5.512">
        <ele>39.25461</ele>
        <time>2014-05-28T15:40:16Z</time>
      </trkpt>
      <trkpt lat="43.20209" lon="5.51214">
        <ele>40.881554</ele>
        <time>2014-05-28T15:40:31Z</time>
      </trkpt>
      <trkpt lat="43.20209" lon="5.51225">
        <ele>40.881554</ele>
        <time>2014-05-28T15:40:41Z</time>
      </trkpt>
      <trkpt lat="43.20208" lon="5.51227">
        <ele>42.521267</ele>
        <time>2014-05-28T15:40:45Z</time>
      </trkpt>
      <trkpt lat="43.20206" lon="5.51229">
        <ele>42.521267</ele>
        <time>2014-05-28T15:40:50Z</time>
      </trkpt>
      <trkpt lat="43.20203" lon="5.51232">
        <ele>42.521267</ele>
        <time>2014-05-28T15:40:56Z</time>
      </trkpt>
      <trkpt lat="43.20202" lon="5.51234">
        <ele>42.521267</ele>
        <time>2014-05-28T15:41:01Z</time>
      </trkpt>
      <trkpt lat="43.202" lon="5.51237">
        <ele>43.981785</ele>
        <time>2014-05-28T15:41:06Z</time>
      </trkpt>
      <trkpt lat="43.202" lon="5.5124">
        <ele>43.981785</ele>
        <time>2014-05-28T15:41:10Z</time>
      </trkpt>
      <trkpt lat="43.202" lon="5.51249">
        <ele>43.981785</ele>
        <time>2014-05-28T15:41:44Z</time>
      </trkpt>
      <trkpt lat="43.20199" lon="5.5125">
        <ele>45.215603</ele>
        <time>2014-05-28T15:41:49Z</time>
      </trkpt>
      <trkpt lat="43.202" lon="5.51254">
        <ele>45.215603</ele>
        <time>2014-05-28T15:42:54Z</time>
      </trkpt>
      <trkpt lat="43.20204" lon="5.5125">
        <ele>45.215603</ele>
        <time>2014-05-28T15:43:09Z</time>
      </trkpt>
      <trkpt lat="43.20204" lon="5.51251">
        <ele>45.215603</ele>
        <time>2014-05-28T15:43:14Z</time>
      </trkpt>
      <trkpt lat="43.20207" lon="5.51248">
        <ele>46.006554</ele>
        <time>2014-05-28T15:43:19Z</time>
      </trkpt>
      <trkpt lat="43.20209" lon="5.51245">
        <ele>46.006554</ele>
        <time>2014-05-28T15:43:24Z</time>
      </trkpt>
      <trkpt lat="43.20211" lon="5.51243">
        <ele>46.006554</ele>
        <time>2014-05-28T15:43:29Z</time>
      </trkpt>
      <trkpt lat="43.20212" lon="5.51242">
        <ele>46.006554</ele>
        <time>2014-05-28T15:43:34Z</time>
      </trkpt>
      <trkpt lat="43.20212" lon="5.51241">
        <ele>46.006554</ele>
        <time>2014-05-28T15:43:39Z</time>
      </trkpt>
      <trkpt lat="43.20213" lon="5.51236">
        <ele>46.55925</ele>
        <time>2014-05-28T15:43:44Z</time>
      </trkpt>
      <trkpt lat="43.20214" lon="5.51231">
        <ele>46.55925</ele>
        <time>2014-05-28T15:43:49Z</time>
      </trkpt>
      <trkpt lat="43.20214" lon="5.5123">
        <ele>46.55925</ele>
        <time>2014-05-28T15:43:54Z</time>
      </trkpt>
      <trkpt lat="43.20216" lon="5.51225">
        <ele>46.55925</ele>
        <time>2014-05-28T15:44:04Z</time>
      </trkpt>
      <trkpt lat="43.20217" lon="5.51225">
        <ele>46.94878</ele>
        <time>2014-05-28T15:44:09Z</time>
      </trkpt>
      <trkpt lat="43.20218" lon="5.5122">
        <ele>46.94878</ele>
        <time>2014-05-28T15:44:14Z</time>
      </trkpt>
      <trkpt lat="43.2022" lon="5.51215">
        <ele>46.94878</ele>
        <time>2014-05-28T15:44:19Z</time>
      </trkpt>
      <trkpt lat="43.20222" lon="5.51211">
        <ele>47.14443</ele>
        <time>2014-05-28T15:44:24Z</time>
      </trkpt>
      <trkpt lat="43.20222" lon="5.51208">
        <ele>47.14443</ele>
        <time>2014-05-28T15:44:29Z</time>
      </trkpt>
      <trkpt lat="43.20223" lon="5.51205">
        <ele>47.14443</ele>
        <time>2014-05-28T15:44:34Z</time>
      </trkpt>
      <trkpt lat="43.20225" lon="5.51201">
        <ele>47.14443</ele>
        <time>2014-05-28T15:44:39Z</time>
      </trkpt>
      <trkpt lat="43.20226" lon="5.51199">
        <ele>47.219265</ele>
        <time>2014-05-28T15:44:44Z</time>
      </trkpt>
      <trkpt lat="43.20227" lon="5.51193">
        <ele>47.219265</ele>
        <time>2014-05-28T15:44:49Z</time>
      </trkpt>
      <trkpt lat="43.2023" lon="5.51191">
        <ele>47.219265</ele>
        <time>2014-05-28T15:44:54Z</time>
      </trkpt>
      <trkpt lat="43.20231" lon="5.51189">
        <ele>47.21261</ele>
        <time>2014-05-28T15:44:59Z</time>
      </trkpt>
      <trkpt lat="43.20235" lon="5.51189">
        <ele>47.21261</ele>
        <time>2014-05-28T15:45:04Z</time>
      </trkpt>
      <trkpt lat="43.20237" lon="5.51186">
        <ele>47.21261</ele>
        <time>2014-05-28T15:45:09Z</time>
      </trkpt>
      <trkpt lat="43.20238" lon="5.51184">
        <ele>47.21261</ele>
        <time>2014-05-28T15:45:14Z</time>
      </trkpt>
      <trkpt lat="43.20242" lon="5.51186">
        <ele>47.06034</ele>
        <time>2014-05-28T15:45:19Z</time>
      </trkpt>
      <trkpt lat="43.20244" lon="5.51185">
        <ele>47.06034</ele>
        <time>2014-05-28T15:45:24Z</time>
      </trkpt>
      <trkpt lat="43.20247" lon="5.51186">
        <ele>47.06034</ele>
        <time>2014-05-28T15:45:29Z</time>
      </trkpt>
      <trkpt lat="43.20252" lon="5.51186">
        <ele>46.77558</ele>
        <time>2014-05-28T15:45:34Z</time>
      </trkpt>
      <trkpt lat="43.20254" lon="5.51185">
        <ele>46.77558</ele>
        <time>2014-05-28T15:45:39Z</time>
      </trkpt>
      <trkpt lat="43.2026" lon="5.51179">
        <ele>46.42857</ele>
        <time>2014-05-28T15:45:59Z</time>
      </trkpt>
      <trkpt lat="43.20261" lon="5.51175">
        <ele>46.42857</ele>
        <time>2014-05-28T15:46:04Z</time>
      </trkpt>
      <trkpt lat="43.20262" lon="5.51172">
        <ele>46.42857</ele>
        <time>2014-05-28T15:46:09Z</time>
      </trkpt>
      <trkpt lat="43.20263" lon="5.51171">
        <ele>46.42857</ele>
        <time>2014-05-28T15:46:14Z</time>
      </trkpt>
      <trkpt lat="43.20267" lon="5.51167">
        <ele>45.75316</ele>
        <time>2014-05-28T15:46:29Z</time>
      </trkpt>
      <trkpt lat="43.20271" lon="5.51166">
        <ele>45.75316</ele>
        <time>2014-05-28T15:46:34Z</time>
      </trkpt>
      <trkpt lat="43.20274" lon="5.5117">
        <ele>45.75316</ele>
        <time>2014-05-28T15:46:39Z</time>
      </trkpt>
      <trkpt lat="43.20277" lon="5.51171">
        <ele>45.03692</ele>
        <time>2014-05-28T15:46:44Z</time>
      </trkpt>
      <trkpt lat="43.20283" lon="5.5117">
        <ele>45.03692</ele>
        <time>2014-05-28T15:46:49Z</time>
      </trkpt>
      <trkpt lat="43.20287" lon="5.51171">
        <ele>44.28702</ele>
        <time>2014-05-28T15:46:54Z</time>
      </trkpt>
      <trkpt lat="43.20284" lon="5.5117">
        <ele>44.28702</ele>
        <time>2014-05-28T15:46:59Z</time>
      </trkpt>
      <trkpt lat="43.20284" lon="5.5117">
        <ele>44.28702</ele>
        <time>2014-05-28T15:47:04Z</time>
      </trkpt>
      <trkpt lat="43.2029" lon="5.51171">
        <ele>44.28702</ele>
        <time>2014-05-28T15:47:09Z</time>
      </trkpt>
      <trkpt lat="43.20297" lon="5.51172">
        <ele>43.394943</ele>
        <time>2014-05-28T15:47:14Z</time>
      </trkpt>
      <trkpt lat="43.20304" lon="5.51172">
        <ele>43.394943</ele>
        <time>2014-05-28T15:47:19Z</time>
      </trkpt>
      <trkpt lat="43.20307" lon="5.51172">
        <ele>42.130806</ele>
        <time>2014-05-28T15:47:24Z</time>
      </trkpt>
      <trkpt lat="43.20308" lon="5.51172">
        <ele>42.130806</ele>
        <time>2014-05-28T15:47:29Z</time>
      </trkpt>
      <trkpt lat="43.20311" lon="5.51175">
        <ele>42.130806</ele>
        <time>2014-05-28T15:47:39Z</time>
      </trkpt>
      <trkpt lat="43.20312" lon="5.51175">
        <ele>42.130806</ele>
        <time>2014-05-28T15:47:44Z</time>
      </trkpt>
      <trkpt lat="43.20322" lon="5.5118">
        <ele>40.39794</ele>
        <time>2014-05-28T15:48:21Z</time>
      </trkpt>
      <trkpt lat="43.20323" lon="5.51182">
        <ele>40.39794</ele>
        <time>2014-05-28T15:48:25Z</time>
      </trkpt>
      <trkpt lat="43.20321" lon="5.51182">
        <ele>40.39794</ele>
        <time>2014-05-28T15:48:29Z</time>
      </trkpt>
      <trkpt lat="43.20315" lon="5.51177">
        <ele>38.425102</ele>
        <time>2014-05-28T15:49:11Z</time>
      </trkpt>
      <trkpt lat="43.20316" lon="5.51177">
        <ele>38.425102</ele>
        <time>2014-05-28T15:49:14Z</time>
      </trkpt>
      <trkpt lat="43.20322" lon="5.51178">
        <ele>38.425102</ele>
        <time>2014-05-28T15:51:16Z</time>
      </trkpt>
      <trkpt lat="43.20323" lon="5.51178">
        <ele>38.425102</ele>
        <time>2014-05-28T15:51:21Z</time>
      </trkpt>
      <trkpt lat="43.20332" lon="5.51179">
        <ele>36.352795</ele>
        <time>2014-05-28T15:51:51Z</time>
      </trkpt>
      <trkpt lat="43.20334" lon="5.51179">
        <ele>36.352795</ele>
        <time>2014-05-28T15:51:54Z</time>
      </trkpt>
      <trkpt lat="43.20339" lon="5.51177">
        <ele>36.352795</ele>
        <time>2014-05-28T15:52:01Z</time>
      </trkpt>
      <trkpt lat="43.20342" lon="5.51178">
        <ele>34.35465</ele>
        <time>2014-05-28T15:52:05Z</time>
      </trkpt>
      <trkpt lat="43.20346" lon="5.51179">
        <ele>34.35465</ele>
        <time>2014-05-28T15:52:11Z</time>
      </trkpt>
      <trkpt lat="43.2035" lon="5.51178">
        <ele>34.35465</ele>
        <time>2014-05-28T15:52:16Z</time>
      </trkpt>
      <trkpt lat="43.20355" lon="5.51179">
        <ele>32.44713</ele>
        <time>2014-05-28T15:52:20Z</time>
      </trkpt>
      <trkpt lat="43.20358" lon="5.5118">
        <ele>32.44713</ele>
        <time>2014-05-28T15:52:24Z</time>
      </trkpt>
      <trkpt lat="43.20364" lon="5.5118">
        <ele>30.717188</ele>
        <time>2014-05-28T15:52:31Z</time>
      </trkpt>
      <trkpt lat="43.20367" lon="5.51179">
        <ele>30.717188</ele>
        <time>2014-05-28T15:52:36Z</time>
      </trkpt>
      <trkpt lat="43.2037" lon="5.51177">
        <ele>30.717188</ele>
        <time>2014-05-28T15:52:41Z</time>
      </trkpt>
      <trkpt lat="43.20374" lon="5.51176">
        <ele>29.172716</ele>
        <time>2014-05-28T15:52:45Z</time>
      </trkpt>
      <trkpt lat="43.20381" lon="5.51175">
        <ele>29.172716</ele>
        <time>2014-05-28T15:52:50Z</time>
      </trkpt>
      <trkpt lat="43.20385" lon="5.51175">
        <ele>27.690678</ele>
        <time>2014-05-28T15:52:54Z</time>
      </trkpt>
      <trkpt lat="43.2039" lon="5.51177">
        <ele>27.690678</ele>
        <time>2014-05-28T15:53:01Z</time>
      </trkpt>
      <trkpt lat="43.20395" lon="5.51176">
        <ele>26.358519</ele>
        <time>2014-05-28T15:53:06Z</time>
      </trkpt>
      <trkpt lat="43.20396" lon="5.51176">
        <ele>26.358519</ele>
        <time>2014-05-28T15:53:10Z</time>
      </trkpt>
      <trkpt lat="43.20404" lon="5.51175">
        <ele>25.371984</ele>
        <time>2014-05-28T15:53:20Z</time>
      </trkpt>
      <trkpt lat="43.20406" lon="5.51174">
        <ele>25.371984</ele>
        <time>2014-05-28T15:53:24Z</time>
      </trkpt>
      <trkpt lat="43.20411" lon="5.51171">
        <ele>25.371984</ele>
        <time>2014-05-28T15:53:32Z</time>
      </trkpt>
      <trkpt lat="43.20412" lon="5.51171">
        <ele>25.371984</ele>
        <time>2014-05-28T15:53:35Z</time>
      </trkpt>
      <trkpt lat="43.20415" lon="5.51168">
        <ele>24.680752</ele>
        <time>2014-05-28T15:53:46Z</time>
      </trkpt>
      <trkpt lat="43.20418" lon="5.51169">
        <ele>24.680752</ele>
        <time>2014-05-28T15:53:50Z</time>
      </trkpt>
      <trkpt lat="43.20421" lon="5.51168">
        <ele>24.680752</ele>
        <time>2014-05-28T15:53:55Z</time>
      </trkpt>
      <trkpt lat="43.20426" lon="5.51168">
        <ele>24.078691</ele>
        <time>2014-05-28T15:54:01Z</time>
      </trkpt>
      <trkpt lat="43.20427" lon="5.51168">
        <ele>24.078691</ele>
        <time>2014-05-28T15:54:05Z</time>
      </trkpt>
      <trkpt lat="43.20432" lon="5.51168">
        <ele>24.078691</ele>
        <time>2014-05-28T15:54:10Z</time>
      </trkpt>
      <trkpt lat="43.20438" lon="5.5117">
        <ele>23.475302</ele>
        <time>2014-05-28T15:54:16Z</time>
      </trkpt>
      <trkpt lat="43.2044" lon="5.51171">
        <ele>23.475302</ele>
        <time>2014-05-28T15:54:19Z</time>
      </trkpt>
      <trkpt lat="43.20441" lon="5.51172">
        <ele>23.475302</ele>
        <time>2014-05-28T15:54:24Z</time>
      </trkpt>
      <trkpt lat="43.20441" lon="5.51172">
        <ele>23.475302</ele>
        <time>2014-05-28T15:54:31Z</time>
      </trkpt>
      <trkpt lat="43.20447" lon="5.5118">
        <ele>23.190098</ele>
        <time>2014-05-28T15:55:45Z</time>
      </trkpt>
      <trkpt lat="43.2045" lon="5.51183">
        <ele>23.190098</ele>
        <time>2014-05-28T15:57:01Z</time>
      </trkpt>
      <trkpt lat="43.2045" lon="5.51182">
        <ele>23.190098</ele>
        <time>2014-05-28T15:57:05Z</time>
      </trkpt>
      <trkpt lat="43.20455" lon="5.5117">
        <ele>23.2587</ele>
        <time>2014-05-28T15:59:19Z</time>
      </trkpt>
      <trkpt lat="43.20455" lon="5.5117">
        <ele>23.2587</ele>
        <time>2014-05-28T15:59:27Z</time>
      </trkpt>
      <trkpt lat="43.20464" lon="5.51179">
        <ele>23.655334</ele>
        <time>2014-05-28T16:00:06Z</time>
      </trkpt>
      <trkpt lat="43.2047" lon="5.51181">
        <ele>23.655334</ele>
        <time>2014-05-28T16:00:15Z</time>
      </trkpt>
      <trkpt lat="43.20472" lon="5.51181">
        <ele>23.655334</ele>
        <time>2014-05-28T16:00:20Z</time>
      </trkpt>
      <trkpt lat="43.20473" lon="5.51182">
        <ele>23.994812</ele>
        <time>2014-05-28T16:00:26Z</time>
      </trkpt>
      <trkpt lat="43.20479" lon="5.51188">
        <ele>23.994812</ele>
        <time>2014-05-28T16:00:36Z</time>
      </trkpt>
      <trkpt lat="43.20481" lon="5.51193">
        <ele>24.021158</ele>
        <time>2014-05-28T16:00:40Z</time>
      </trkpt>
      <trkpt lat="43.20481" lon="5.51197">
        <ele>24.021158</ele>
        <time>2014-05-28T16:00:45Z</time>
      </trkpt>
      <trkpt lat="43.20484" lon="5.51199">
        <ele>24.021158</ele>
        <time>2014-05-28T16:00:50Z</time>
      </trkpt>
      <trkpt lat="43.20483" lon="5.512">
        <ele>24.021158</ele>
        <time>2014-05-28T16:00:56Z</time>
      </trkpt>
      <trkpt lat="43.20492" lon="5.51209">
        <ele>23.613268</ele>
        <time>2014-05-28T16:01:56Z</time>
      </trkpt>
      <trkpt lat="43.20494" lon="5.51212">
        <ele>23.613268</ele>
        <time>2014-05-28T16:02:00Z</time>
      </trkpt>
      <trkpt lat="43.20495" lon="5.51213">
        <ele>23.613268</ele>
        <time>2014-05-28T16:02:06Z</time>
      </trkpt>
      <trkpt lat="43.20492" lon="5.51224">
        <ele>23.03474</ele>
        <time>2014-05-28T16:02:36Z</time>
      </trkpt>
      <trkpt lat="43.20494" lon="5.5123">
        <ele>23.03474</ele>
        <time>2014-05-28T16:02:41Z</time>
      </trkpt>
      <trkpt lat="43.20494" lon="5.51236">
        <ele>23.03474</ele>
        <time>2014-05-28T16:02:44Z</time>
      </trkpt>
      <trkpt lat="43.20498" lon="5.51243">
        <ele>22.357273</ele>
        <time>2014-05-28T16:02:51Z</time>
      </trkpt>
      <trkpt lat="43.20499" lon="5.51247">
        <ele>22.357273</ele>
        <time>2014-05-28T16:02:55Z</time>
      </trkpt>
      <trkpt lat="43.20501" lon="5.5125">
        <ele>22.357273</ele>
        <time>2014-05-28T16:03:01Z</time>
      </trkpt>
      <trkpt lat="43.20502" lon="5.51251">
        <ele>22.357273</ele>
        <time>2014-05-28T16:03:05Z</time>
      </trkpt>
      <trkpt lat="43.20507" lon="5.51252">
        <ele>21.676302</ele>
        <time>2014-05-28T16:03:11Z</time>
      </trkpt>
      <trkpt lat="43.20509" lon="5.51252">
        <ele>21.676302</ele>
        <time>2014-05-28T16:03:14Z</time>
      </trkpt>
      <trkpt lat="43.20511" lon="5.51255">
        <ele>21.676302</ele>
        <time>2014-05-28T16:03:21Z</time>
      </trkpt>
      <trkpt lat="43.20512" lon="5.51256">
        <ele>21.676302</ele>
        <time>2014-05-28T16:03:25Z</time>
      </trkpt>
      <trkpt lat="43.20519" lon="5.51263">
        <ele>20.907244</ele>
        <time>2014-05-28T16:03:31Z</time>
      </trkpt>
      <trkpt lat="43.20523" lon="5.51266">
        <ele>20.907244</ele>
        <time>2014-05-28T16:03:35Z</time>
      </trkpt>
      <trkpt lat="43.20526" lon="5.51269">
        <ele>20.907244</ele>
        <time>2014-05-28T16:03:41Z</time>
      </trkpt>
      <trkpt lat="43.20526" lon="5.51268">
        <ele>20.907244</ele>
        <time>2014-05-28T16:03:44Z</time>
      </trkpt>
      <trkpt lat="43.20527" lon="5.51269">
        <ele>20.087183</ele>
        <time>2014-05-28T16:03:51Z</time>
      </trkpt>
      <trkpt lat="43.20532" lon="5.51277">
        <ele>20.087183</ele>
        <time>2014-05-28T16:04:14Z</time>
      </trkpt>
      <trkpt lat="43.20534" lon="5.51285">
        <ele>19.192894</ele>
        <time>2014-05-28T16:04:22Z</time>
      </trkpt>
      <trkpt lat="43.20534" lon="5.51287">
        <ele>19.192894</ele>
        <time>2014-05-28T16:04:25Z</time>
      </trkpt>
      <trkpt lat="43.20534" lon="5.51288">
        <ele>19.192894</ele>
        <time>2014-05-28T16:04:31Z</time>
      </trkpt>
      <trkpt lat="43.20538" lon="5.51286">
        <ele>19.192894</ele>
        <time>2014-05-28T16:04:40Z</time>
      </trkpt>
      <trkpt lat="43.20539" lon="5.51287">
        <ele>19.192894</ele>
        <time>2014-05-28T16:04:44Z</time>
      </trkpt>
      <trkpt lat="43.20542" lon="5.5129">
        <ele>18.404737</ele>
        <time>2014-05-28T16:04:52Z</time>
      </trkpt>
      <trkpt lat="43.20543" lon="5.51292">
        <ele>18.404737</ele>
        <time>2014-05-28T16:04:55Z</time>
      </trkpt>
      <trkpt lat="43.20544" lon="5.51296">
        <ele>18.404737</ele>
        <time>2014-05-28T16:05:01Z</time>
      </trkpt>
      <trkpt lat="43.20546" lon="5.51298">
        <ele>18.404737</ele>
        <time>2014-05-28T16:05:05Z</time>
      </trkpt>
      <trkpt lat="43.20547" lon="5.51304">
        <ele>17.673279</ele>
        <time>2014-05-28T16:05:10Z</time>
      </trkpt>
      <trkpt lat="43.20548" lon="5.51306">
        <ele>17.673279</ele>
        <time>2014-05-28T16:05:15Z</time>
      </trkpt>
      <trkpt lat="43.20547" lon="5.51311">
        <ele>17.673279</ele>
        <time>2014-05-28T16:05:21Z</time>
      </trkpt>
      <trkpt lat="43.20546" lon="5.51313">
        <ele>17.673279</ele>
        <time>2014-05-28T16:05:26Z</time>
      </trkpt>
      <trkpt lat="43.20544" lon="5.51321">
        <ele>16.966892</ele>
        <time>2014-05-28T16:05:36Z</time>
      </trkpt>
      <trkpt lat="43.20543" lon="5.51324">
        <ele>16.966892</ele>
        <time>2014-05-28T16:05:39Z</time>
      </trkpt>
      <trkpt lat="43.20543" lon="5.51327">
        <ele>16.966892</ele>
        <time>2014-05-28T16:05:45Z</time>
      </trkpt>
      <trkpt lat="43.20544" lon="5.5133">
        <ele>16.966892</ele>
        <time>2014-05-28T16:05:51Z</time>
      </trkpt>
      <trkpt lat="43.20548" lon="5.51333">
        <ele>16.443464</ele>
        <time>2014-05-28T16:05:56Z</time>
      </trkpt>
      <trkpt lat="43.20553" lon="5.51337">
        <ele>16.443464</ele>
        <time>2014-05-28T16:06:01Z</time>
      </trkpt>
      <trkpt lat="43.20555" lon="5.51339">
        <ele>16.443464</ele>
        <time>2014-05-28T16:06:06Z</time>
      </trkpt>
      <trkpt lat="43.20556" lon="5.51342">
        <ele>15.946067</ele>
        <time>2014-05-28T16:06:09Z</time>
      </trkpt>
      <trkpt lat="43.20556" lon="5.5135">
        <ele>15.946067</ele>
        <time>2014-05-28T16:06:15Z</time>
      </trkpt>
      <trkpt lat="43.20557" lon="5.51358">
        <ele>15.516495</ele>
        <time>2014-05-28T16:06:21Z</time>
      </trkpt>
      <trkpt lat="43.20559" lon="5.51363">
        <ele>15.516495</ele>
        <time>2014-05-28T16:06:26Z</time>
      </trkpt>
      <trkpt lat="43.2056" lon="5.51365">
        <ele>15.516495</ele>
        <time>2014-05-28T16:06:31Z</time>
      </trkpt>
      <trkpt lat="43.20562" lon="5.51366">
        <ele>15.516495</ele>
        <time>2014-05-28T16:06:35Z</time>
      </trkpt>
      <trkpt lat="43.20569" lon="5.51371">
        <ele>15.149984</ele>
        <time>2014-05-28T16:06:46Z</time>
      </trkpt>
      <trkpt lat="43.20569" lon="5.51379">
        <ele>15.149984</ele>
        <time>2014-05-28T16:07:16Z</time>
      </trkpt>
      <trkpt lat="43.2057" lon="5.5138">
        <ele>15.149984</ele>
        <time>2014-05-28T16:07:21Z</time>
      </trkpt>
      <trkpt lat="43.2057" lon="5.51381">
        <ele>15.149984</ele>
        <time>2014-05-28T16:07:25Z</time>
      </trkpt>
      <trkpt lat="43.20569" lon="5.51389">
        <ele>14.712182</ele>
        <time>2014-05-28T16:07:30Z</time>
      </trkpt>
      <trkpt lat="43.20568" lon="5.51396">
        <ele>14.712182</ele>
        <time>2014-05-28T16:07:36Z</time>
      </trkpt>
      <trkpt lat="43.20567" lon="5.51402">
        <ele>14.338141</ele>
        <time>2014-05-28T16:07:39Z</time>
      </trkpt>
      <trkpt lat="43.2057" lon="5.51415">
        <ele>14.008655</ele>
        <time>2014-05-28T16:07:46Z</time>
      </trkpt>
      <trkpt lat="43.20569" lon="5.51418">
        <ele>14.008655</ele>
        <time>2014-05-28T16:07:50Z</time>
      </trkpt>
      <trkpt lat="43.20569" lon="5.51426">
        <ele>14.008655</ele>
        <time>2014-05-28T16:07:56Z</time>
      </trkpt>
      <trkpt lat="43.2057" lon="5.51431">
        <ele>13.705748</ele>
        <time>2014-05-28T16:08:01Z</time>
      </trkpt>
      <trkpt lat="43.20569" lon="5.51438">
        <ele>13.705748</ele>
        <time>2014-05-28T16:08:06Z</time>
      </trkpt>
      <trkpt lat="43.20571" lon="5.51444">
        <ele>13.369413</ele>
        <time>2014-05-28T16:08:09Z</time>
      </trkpt>
      <trkpt lat="43.20569" lon="5.51457">
        <ele>13.030574</ele>
        <time>2014-05-28T16:08:17Z</time>
      </trkpt>
      <trkpt lat="43.2057" lon="5.51462">
        <ele>13.030574</ele>
        <time>2014-05-28T16:08:20Z</time>
      </trkpt>
      <trkpt lat="43.20572" lon="5.51471">
        <ele>12.73226</ele>
        <time>2014-05-28T16:08:26Z</time>
      </trkpt>
      <trkpt lat="43.20574" lon="5.51478">
        <ele>12.73226</ele>
        <time>2014-05-28T16:08:31Z</time>
      </trkpt>
      <trkpt lat="43.20579" lon="5.51482">
        <ele>12.485373</ele>
        <time>2014-05-28T16:08:35Z</time>
      </trkpt>
      <trkpt lat="43.20583" lon="5.51486">
        <ele>12.485373</ele>
        <time>2014-05-28T16:08:39Z</time>
      </trkpt>
      <trkpt lat="43.20589" lon="5.51485">
        <ele>12.213376</ele>
        <time>2014-05-28T16:08:44Z</time>
      </trkpt>
      <trkpt lat="43.20594" lon="5.51487">
        <ele>12.213376</ele>
        <time>2014-05-28T16:08:49Z</time>
      </trkpt>
      <trkpt lat="43.20598" lon="5.51487">
        <ele>12.213376</ele>
        <time>2014-05-28T16:08:54Z</time>
      </trkpt>
      <trkpt lat="43.20602" lon="5.51487">
        <ele>11.917455</ele>
        <time>2014-05-28T16:08:59Z</time>
      </trkpt>
      <trkpt lat="43.20608" lon="5.51489">
        <ele>11.917455</ele>
        <time>2014-05-28T16:09:04Z</time>
      </trkpt>
      <trkpt lat="43.2061" lon="5.51492">
        <ele>11.627576</ele>
        <time>2014-05-28T16:09:09Z</time>
      </trkpt>
      <trkpt lat="43.20612" lon="5.51493">
        <ele>11.627576</ele>
        <time>2014-05-28T16:09:14Z</time>
      </trkpt>
      <trkpt lat="43.20612" lon="5.51494">
        <ele>11.627576</ele>
        <time>2014-05-28T16:09:22Z</time>
      </trkpt>
      <trkpt lat="43.20615" lon="5.51495">
        <ele>11.627576</ele>
        <time>2014-05-28T16:09:25Z</time>
      </trkpt>
      <trkpt lat="43.20615" lon="5.51494">
        <ele>11.627576</ele>
        <time>2014-05-28T16:09:31Z</time>
      </trkpt>
      <trkpt lat="43.2062" lon="5.51489">
        <ele>11.285006</ele>
        <time>2014-05-28T16:09:53Z</time>
      </trkpt>
      <trkpt lat="43.20622" lon="5.5149">
        <ele>11.285006</ele>
        <time>2014-05-28T16:09:54Z</time>
      </trkpt>
      <trkpt lat="43.20625" lon="5.51491">
        <ele>11.285006</ele>
        <time>2014-05-28T16:10:00Z</time>
      </trkpt>
      <trkpt lat="43.20627" lon="5.51494">
        <ele>11.285006</ele>
        <time>2014-05-28T16:10:04Z</time>
      </trkpt>
      <trkpt lat="43.20632" lon="5.51494">
        <ele>10.921925</ele>
        <time>2014-05-28T16:10:09Z</time>
      </trkpt>
      <trkpt lat="43.20644" lon="5.51497">
        <ele>10.582606</ele>
        <time>2014-05-28T16:10:17Z</time>
      </trkpt>
      <trkpt lat="43.20648" lon="5.51497">
        <ele>10.582606</ele>
        <time>2014-05-28T16:10:20Z</time>
      </trkpt>
      <trkpt lat="43.20656" lon="5.51499">
        <ele>10.20712</ele>
        <time>2014-05-28T16:10:26Z</time>
      </trkpt>
      <trkpt lat="43.20663" lon="5.515">
        <ele>10.20712</ele>
        <time>2014-05-28T16:10:31Z</time>
      </trkpt>
      <trkpt lat="43.2067" lon="5.51502">
        <ele>9.826497</ele>
        <time>2014-05-28T16:10:34Z</time>
      </trkpt>
      <trkpt lat="43.20676" lon="5.51504">
        <ele>9.826497</ele>
        <time>2014-05-28T16:10:40Z</time>
      </trkpt>
      <trkpt lat="43.20688" lon="5.51511">
        <ele>9.4983225</ele>
        <time>2014-05-28T16:10:46Z</time>
      </trkpt>
      <trkpt lat="43.20694" lon="5.51514">
        <ele>9.4983225</ele>
        <time>2014-05-28T16:10:51Z</time>
      </trkpt>
      <trkpt lat="43.20701" lon="5.51521">
        <ele>9.045223</ele>
        <time>2014-05-28T16:10:56Z</time>
      </trkpt>
      <trkpt lat="43.20706" lon="5.51526">
        <ele>9.045223</ele>
        <time>2014-05-28T16:11:01Z</time>
      </trkpt>
      <trkpt lat="43.2071" lon="5.51531">
        <ele>8.63466</ele>
        <time>2014-05-28T16:11:04Z</time>
      </trkpt>
      <trkpt lat="43.20716" lon="5.51541">
        <ele>8.205505</ele>
        <time>2014-05-28T16:11:11Z</time>
      </trkpt>
      <trkpt lat="43.20722" lon="5.51548">
        <ele>8.205505</ele>
        <time>2014-05-28T16:11:16Z</time>
      </trkpt>
      <trkpt lat="43.20725" lon="5.51553">
        <ele>7.8164654</ele>
        <time>2014-05-28T16:11:20Z</time>
      </trkpt>
      <trkpt lat="43.2073" lon="5.51558">
        <ele>7.8164654</ele>
        <time>2014-05-28T16:11:26Z</time>
      </trkpt>
      <trkpt lat="43.20732" lon="5.51559">
        <ele>7.8164654</ele>
        <time>2014-05-28T16:11:30Z</time>
      </trkpt>
      <trkpt lat="43.20736" lon="5.51563">
        <ele>7.377712</ele>
        <time>2014-05-28T16:11:34Z</time>
      </trkpt>
      <trkpt lat="43.20742" lon="5.51569">
        <ele>7.377712</ele>
        <time>2014-05-28T16:11:41Z</time>
      </trkpt>
      <trkpt lat="43.20748" lon="5.51575">
        <ele>6.9646783</ele>
        <time>2014-05-28T16:11:46Z</time>
      </trkpt>
      <trkpt lat="43.20756" lon="5.51581">
        <ele>6.9646783</ele>
        <time>2014-05-28T16:11:51Z</time>
      </trkpt>
      <trkpt lat="43.2076" lon="5.51586">
        <ele>6.6904235</ele>
        <time>2014-05-28T16:11:56Z</time>
      </trkpt>
      <trkpt lat="43.20763" lon="5.51591">
        <ele>6.6904235</ele>
        <time>2014-05-28T16:12:01Z</time>
      </trkpt>
      <trkpt lat="43.20767" lon="5.51596">
        <ele>6.5296164</ele>
        <time>2014-05-28T16:12:04Z</time>
      </trkpt>
      <trkpt lat="43.2077" lon="5.51604">
        <ele>6.5296164</ele>
        <time>2014-05-28T16:12:11Z</time>
      </trkpt>
      <trkpt lat="43.20771" lon="5.51609">
        <ele>6.4872966</ele>
        <time>2014-05-28T16:12:16Z</time>
      </trkpt>
      <trkpt lat="43.20777" lon="5.51613">
        <ele>6.4872966</ele>
        <time>2014-05-28T16:12:21Z</time>
      </trkpt>
      <trkpt lat="43.20782" lon="5.51619">
        <ele>6.4237003</ele>
        <time>2014-05-28T16:12:26Z</time>
      </trkpt>
      <trkpt lat="43.20786" lon="5.51626">
        <ele>6.4237003</ele>
        <time>2014-05-28T16:12:31Z</time>
      </trkpt>
      <trkpt lat="43.20789" lon="5.51632">
        <ele>6.3679256</ele>
        <time>2014-05-28T16:12:34Z</time>
      </trkpt>
      <trkpt lat="43.20795" lon="5.51642">
        <ele>6.4333916</ele>
        <time>2014-05-28T16:12:41Z</time>
      </trkpt>
      <trkpt lat="43.20796" lon="5.51648">
        <ele>6.4333916</ele>
        <time>2014-05-28T16:12:45Z</time>
      </trkpt>
      <trkpt lat="43.20797" lon="5.51656">
        <ele>6.5951643</ele>
        <time>2014-05-28T16:12:51Z</time>
      </trkpt>
      <trkpt lat="43.20801" lon="5.5166">
        <ele>6.5951643</ele>
        <time>2014-05-28T16:12:56Z</time>
      </trkpt>
      <trkpt lat="43.20804" lon="5.51665">
        <ele>6.7722497</ele>
        <time>2014-05-28T16:13:01Z</time>
      </trkpt>
      <trkpt lat="43.20805" lon="5.51669">
        <ele>6.7722497</ele>
        <time>2014-05-28T16:13:04Z</time>
      </trkpt>
      <trkpt lat="43.20808" lon="5.5168">
        <ele>7.004874</ele>
        <time>2014-05-28T16:13:12Z</time>
      </trkpt>
      <trkpt lat="43.2081" lon="5.51684">
        <ele>7.004874</ele>
        <time>2014-05-28T16:13:15Z</time>
      </trkpt>
      <trkpt lat="43.20816" lon="5.51693">
        <ele>7.2004833</ele>
        <time>2014-05-28T16:13:21Z</time>
      </trkpt>
      <trkpt lat="43.20819" lon="5.517">
        <ele>7.2004833</ele>
        <time>2014-05-28T16:13:26Z</time>
      </trkpt>
      <trkpt lat="43.20822" lon="5.51706">
        <ele>7.2734566</ele>
        <time>2014-05-28T16:13:30Z</time>
      </trkpt>
      <trkpt lat="43.20825" lon="5.51711">
        <ele>7.2734566</ele>
        <time>2014-05-28T16:13:34Z</time>
      </trkpt>
      <trkpt lat="43.2083" lon="5.5172">
        <ele>7.202489</ele>
        <time>2014-05-28T16:13:41Z</time>
      </trkpt>
      <trkpt lat="43.20833" lon="5.51725">
        <ele>7.202489</ele>
        <time>2014-05-28T16:13:46Z</time>
      </trkpt>
      <trkpt lat="43.20837" lon="5.51733">
        <ele>6.968279</ele>
        <time>2014-05-28T16:13:51Z</time>
      </trkpt>
      <trkpt lat="43.20839" lon="5.51738">
        <ele>6.968279</ele>
        <time>2014-05-28T16:13:56Z</time>
      </trkpt>
      <trkpt lat="43.20842" lon="5.51743">
        <ele>6.654317</ele>
        <time>2014-05-28T16:14:00Z</time>
      </trkpt>
      <trkpt lat="43.20845" lon="5.51747">
        <ele>6.654317</ele>
        <time>2014-05-28T16:14:05Z</time>
      </trkpt>
      <trkpt lat="43.20852" lon="5.51757">
        <ele>6.237342</ele>
        <time>2014-05-28T16:14:11Z</time>
      </trkpt>
      <trkpt lat="43.20855" lon="5.51768">
        <ele>6.237342</ele>
        <time>2014-05-28T16:14:21Z</time>
      </trkpt>
      <trkpt lat="43.2086" lon="5.51773">
        <ele>5.7105365</ele>
        <time>2014-05-28T16:14:25Z</time>
      </trkpt>
      <trkpt lat="43.20864" lon="5.51781">
        <ele>5.7105365</ele>
        <time>2014-05-28T16:14:30Z</time>
      </trkpt>
      <trkpt lat="43.20867" lon="5.51787">
        <ele>5.096746</ele>
        <time>2014-05-28T16:14:35Z</time>
      </trkpt>
      <trkpt lat="43.20873" lon="5.51795">
        <ele>5.096746</ele>
        <time>2014-05-28T16:14:40Z</time>
      </trkpt>
      <trkpt lat="43.20876" lon="5.51802">
        <ele>4.41741</ele>
        <time>2014-05-28T16:14:46Z</time>
      </trkpt>
      <trkpt lat="43.20878" lon="5.51809">
        <ele>4.41741</ele>
        <time>2014-05-28T16:14:51Z</time>
      </trkpt>
      <trkpt lat="43.20878" lon="5.51816">
        <ele>3.6637778</ele>
        <time>2014-05-28T16:14:56Z</time>
      </trkpt>
      <trkpt lat="43.20879" lon="5.5182">
        <ele>3.6637778</ele>
        <time>2014-05-28T16:14:59Z</time>
      </trkpt>
      <trkpt lat="43.20885" lon="5.51826">
        <ele>2.9000278</ele>
        <time>2014-05-28T16:15:05Z</time>
      </trkpt>
      <trkpt lat="43.20889" lon="5.51838">
        <ele>2.2433105</ele>
        <time>2014-05-28T16:15:11Z</time>
      </trkpt>
      <trkpt lat="43.20893" lon="5.51841">
        <ele>2.2433105</ele>
        <time>2014-05-28T16:15:15Z</time>
      </trkpt>
      <trkpt lat="43.20898" lon="5.51845">
        <ele>1.6289492</ele>
        <time>2014-05-28T16:15:21Z</time>
      </trkpt>
      <trkpt lat="43.20902" lon="5.51851">
        <ele>1.6289492</ele>
        <time>2014-05-28T16:15:26Z</time>
      </trkpt>
      <trkpt lat="43.20904" lon="5.51856">
        <ele>1.1698414</ele>
        <time>2014-05-28T16:15:29Z</time>
      </trkpt>
      <trkpt lat="43.20905" lon="5.51864">
        <ele>1.1698414</ele>
        <time>2014-05-28T16:15:35Z</time>
      </trkpt>
      <trkpt lat="43.20911" lon="5.5187">
        <ele>0.95575047</ele>
        <time>2014-05-28T16:15:41Z</time>
      </trkpt>
      <trkpt lat="43.20915" lon="5.51875">
        <ele>0.95575047</ele>
        <time>2014-05-28T16:15:46Z</time>
      </trkpt>
      <trkpt lat="43.20922" lon="5.51878">
        <ele>0.83858585</ele>
        <time>2014-05-28T16:15:51Z</time>
      </trkpt>
      <trkpt lat="43.20929" lon="5.51882">
        <ele>0.83858585</ele>
        <time>2014-05-28T16:15:56Z</time>
      </trkpt>
      <trkpt lat="43.20933" lon="5.51889">
        <ele>0.7961577</ele>
        <time>2014-05-28T16:15:59Z</time>
      </trkpt>
      <trkpt lat="43.20936" lon="5.5189">
        <ele>0.7961577</ele>
        <time>2014-05-28T16:16:05Z</time>
      </trkpt>
      <trkpt lat="43.20943" lon="5.51894">
        <ele>0.90858144</ele>
        <time>2014-05-28T16:16:11Z</time>
      </trkpt>
      <trkpt lat="43.20946" lon="5.51896">
        <ele>0.90858144</ele>
        <time>2014-05-28T16:16:15Z</time>
      </trkpt>
      <trkpt lat="43.20951" lon="5.51897">
        <ele>0.90858144</ele>
        <time>2014-05-28T16:16:20Z</time>
      </trkpt>
      <trkpt lat="43.20956" lon="5.51905">
        <ele>0.97585016</ele>
        <time>2014-05-28T16:16:26Z</time>
      </trkpt>
      <trkpt lat="43.2096" lon="5.51906">
        <ele>0.97585016</ele>
        <time>2014-05-28T16:16:29Z</time>
      </trkpt>
      <trkpt lat="43.20964" lon="5.51912">
        <ele>0.899254</ele>
        <time>2014-05-28T16:16:35Z</time>
      </trkpt>
      <trkpt lat="43.20964" lon="5.51919">
        <ele>0.899254</ele>
        <time>2014-05-28T16:16:41Z</time>
      </trkpt>
      <trkpt lat="43.20964" lon="5.51925">
        <ele>0.7895065</ele>
        <time>2014-05-28T16:16:46Z</time>
      </trkpt>
      <trkpt lat="43.20965" lon="5.51929">
        <ele>0.7895065</ele>
        <time>2014-05-28T16:16:50Z</time>
      </trkpt>
      <trkpt lat="43.20969" lon="5.51932">
        <ele>0.7895065</ele>
        <time>2014-05-28T16:16:56Z</time>
      </trkpt>
      <trkpt lat="43.2097" lon="5.51934">
        <ele>0.73488504</ele>
        <time>2014-05-28T16:16:59Z</time>
      </trkpt>
      <trkpt lat="43.20973" lon="5.5194">
        <ele>0.73488504</ele>
        <time>2014-05-28T16:17:06Z</time>
      </trkpt>
      <trkpt lat="43.2098" lon="5.51942">
        <ele>0.73057705</ele>
        <time>2014-05-28T16:17:09Z</time>
      </trkpt>
      <trkpt lat="43.20985" lon="5.51943">
        <ele>0.73057705</ele>
        <time>2014-05-28T16:17:14Z</time>
      </trkpt>
      <trkpt lat="43.20986" lon="5.51946">
        <ele>0.73057705</ele>
        <time>2014-05-28T16:17:19Z</time>
      </trkpt>
      <trkpt lat="43.2099" lon="5.51951">
        <ele>0.7143551</ele>
        <time>2014-05-28T16:17:24Z</time>
      </trkpt>
      <trkpt lat="43.20993" lon="5.51956">
        <ele>0.7143551</ele>
        <time>2014-05-28T16:17:29Z</time>
      </trkpt>
      <trkpt lat="43.20996" lon="5.51959">
        <ele>0.7143551</ele>
        <time>2014-05-28T16:17:35Z</time>
      </trkpt>
      <trkpt lat="43.20998" lon="5.51962">
        <ele>0.68625927</ele>
        <time>2014-05-28T16:17:41Z</time>
      </trkpt>
      <trkpt lat="43.21" lon="5.51962">
        <ele>0.68625927</ele>
        <time>2014-05-28T16:17:45Z</time>
      </trkpt>
      <trkpt lat="43.21004" lon="5.51966">
        <ele>0.68625927</ele>
        <time>2014-05-28T16:17:50Z</time>
      </trkpt>
      <trkpt lat="43.21007" lon="5.51969">
        <ele>0.84813523</ele>
        <time>2014-05-28T16:17:55Z</time>
      </trkpt>
      <trkpt lat="43.21008" lon="5.51972">
        <ele>0.84813523</ele>
        <time>2014-05-28T16:18:00Z</time>
      </trkpt>
      <trkpt lat="43.2101" lon="5.51972">
        <ele>0.84813523</ele>
        <time>2014-05-28T16:18:05Z</time>
      </trkpt>
      <trkpt lat="43.21016" lon="5.51975">
        <ele>1.0982674</ele>
        <time>2014-05-28T16:18:11Z</time>
      </trkpt>
      <trkpt lat="43.21019" lon="5.51977">
        <ele>1.0982674</ele>
        <time>2014-05-28T16:18:15Z</time>
      </trkpt>
      <trkpt lat="43.21024" lon="5.51982">
        <ele>1.5295328</ele>
        <time>2014-05-28T16:18:20Z</time>
      </trkpt>
      <trkpt lat="43.21028" lon="5.51987">
        <ele>1.5295328</ele>
        <time>2014-05-28T16:18:25Z</time>
      </trkpt>
      <trkpt lat="43.21032" lon="5.51991">
        <ele>2.198682</ele>
        <time>2014-05-28T16:18:29Z</time>
      </trkpt>
      <trkpt lat="43.21038" lon="5.52">
        <ele>2.9991386</ele>
        <time>2014-05-28T16:18:37Z</time>
      </trkpt>
      <trkpt lat="43.21042" lon="5.52002">
        <ele>2.9991386</ele>
        <time>2014-05-28T16:18:40Z</time>
      </trkpt>
      <trkpt lat="43.21049" lon="5.52011">
        <ele>3.8030002</ele>
        <time>2014-05-28T16:18:46Z</time>
      </trkpt>
      <trkpt lat="43.21051" lon="5.52016">
        <ele>3.8030002</ele>
        <time>2014-05-28T16:18:51Z</time>
      </trkpt>
      <trkpt lat="43.21053" lon="5.52021">
        <ele>3.8030002</ele>
        <time>2014-05-28T16:18:54Z</time>
      </trkpt>
      <trkpt lat="43.21057" lon="5.52026">
        <ele>4.707959</ele>
        <time>2014-05-28T16:19:00Z</time>
      </trkpt>
      <trkpt lat="43.2106" lon="5.52031">
        <ele>4.707959</ele>
        <time>2014-05-28T16:19:04Z</time>
      </trkpt>
      <trkpt lat="43.21061" lon="5.52034">
        <ele>4.707959</ele>
        <time>2014-05-28T16:19:10Z</time>
      </trkpt>
      <trkpt lat="43.21065" lon="5.52044">
        <ele>5.6745954</ele>
        <time>2014-05-28T16:19:16Z</time>
      </trkpt>
      <trkpt lat="43.21067" lon="5.52049">
        <ele>5.6745954</ele>
        <time>2014-05-28T16:19:20Z</time>
      </trkpt>
      <trkpt lat="43.21073" lon="5.52055">
        <ele>6.5365653</ele>
        <time>2014-05-28T16:19:24Z</time>
      </trkpt>
      <trkpt lat="43.21078" lon="5.52062">
        <ele>6.5365653</ele>
        <time>2014-05-28T16:19:30Z</time>
      </trkpt>
      <trkpt lat="43.21083" lon="5.52068">
        <ele>7.32744</ele>
        <time>2014-05-28T16:19:36Z</time>
      </trkpt>
      <trkpt lat="43.21086" lon="5.5207">
        <ele>7.32744</ele>
        <time>2014-05-28T16:19:40Z</time>
      </trkpt>
      <trkpt lat="43.21092" lon="5.52074">
        <ele>8.049766</ele>
        <time>2014-05-28T16:19:46Z</time>
      </trkpt>
      <trkpt lat="43.21096" lon="5.52078">
        <ele>8.049766</ele>
        <time>2014-05-28T16:19:51Z</time>
      </trkpt>
      <trkpt lat="43.211" lon="5.52081">
        <ele>8.677337</ele>
        <time>2014-05-28T16:19:54Z</time>
      </trkpt>
      <trkpt lat="43.21106" lon="5.52085">
        <ele>8.677337</ele>
        <time>2014-05-28T16:20:00Z</time>
      </trkpt>
      <trkpt lat="43.21111" lon="5.52086">
        <ele>9.186208</ele>
        <time>2014-05-28T16:20:07Z</time>
      </trkpt>
      <trkpt lat="43.21116" lon="5.52089">
        <ele>9.186208</ele>
        <time>2014-05-28T16:20:10Z</time>
      </trkpt>
      <trkpt lat="43.21124" lon="5.52091">
        <ele>9.525771</ele>
        <time>2014-05-28T16:20:16Z</time>
      </trkpt>
      <trkpt lat="43.21129" lon="5.52094">
        <ele>9.525771</ele>
        <time>2014-05-28T16:20:21Z</time>
      </trkpt>
      <trkpt lat="43.21134" lon="5.52097">
        <ele>9.865848</ele>
        <time>2014-05-28T16:20:25Z</time>
      </trkpt>
      <trkpt lat="43.21139" lon="5.52102">
        <ele>9.865848</ele>
        <time>2014-05-28T16:20:30Z</time>
      </trkpt>
      <trkpt lat="43.21144" lon="5.52104">
        <ele>10.147682</ele>
        <time>2014-05-28T16:20:36Z</time>
      </trkpt>
      <trkpt lat="43.2115" lon="5.52107">
        <ele>10.147682</ele>
        <time>2014-05-28T16:20:41Z</time>
      </trkpt>
      <trkpt lat="43.21154" lon="5.52112">
        <ele>10.374711</ele>
        <time>2014-05-28T16:20:45Z</time>
      </trkpt>
      <trkpt lat="43.2116" lon="5.52117">
        <ele>10.374711</ele>
        <time>2014-05-28T16:20:51Z</time>
      </trkpt>
      <trkpt lat="43.21164" lon="5.5212">
        <ele>10.535921</ele>
        <time>2014-05-28T16:20:54Z</time>
      </trkpt>
      <trkpt lat="43.21168" lon="5.52129">
        <ele>10.535921</ele>
        <time>2014-05-28T16:21:00Z</time>
      </trkpt>
      <trkpt lat="43.21172" lon="5.52138">
        <ele>10.563712</ele>
        <time>2014-05-28T16:21:05Z</time>
      </trkpt>
      <trkpt lat="43.21175" lon="5.52146">
        <ele>10.563712</ele>
        <time>2014-05-28T16:21:11Z</time>
      </trkpt>
      <trkpt lat="43.21178" lon="5.52154">
        <ele>10.583221</ele>
        <time>2014-05-28T16:21:15Z</time>
      </trkpt>
      <trkpt lat="43.21181" lon="5.52159">
        <ele>10.583221</ele>
        <time>2014-05-28T16:21:21Z</time>
      </trkpt>
      <trkpt lat="43.21181" lon="5.52163">
        <ele>10.583221</ele>
        <time>2014-05-28T16:21:24Z</time>
      </trkpt>
      <trkpt lat="43.21183" lon="5.52168">
        <ele>10.580772</ele>
        <time>2014-05-28T16:21:31Z</time>
      </trkpt>
      <trkpt lat="43.21187" lon="5.52175">
        <ele>10.580772</ele>
        <time>2014-05-28T16:21:36Z</time>
      </trkpt>
      <trkpt lat="43.21193" lon="5.52179">
        <ele>10.529389</ele>
        <time>2014-05-28T16:21:40Z</time>
      </trkpt>
      <trkpt lat="43.21194" lon="5.52187">
        <ele>10.529389</ele>
        <time>2014-05-28T16:21:46Z</time>
      </trkpt>
      <trkpt lat="43.21194" lon="5.52194">
        <ele>10.4186735</ele>
        <time>2014-05-28T16:21:51Z</time>
      </trkpt>
      <trkpt lat="43.21196" lon="5.522">
        <ele>10.4186735</ele>
        <time>2014-05-28T16:21:54Z</time>
      </trkpt>
      <trkpt lat="43.21198" lon="5.52209">
        <ele>10.296836</ele>
        <time>2014-05-28T16:21:59Z</time>
      </trkpt>
      <trkpt lat="43.21201" lon="5.52209">
        <ele>10.296836</ele>
        <time>2014-05-28T16:22:04Z</time>
      </trkpt>
      <trkpt lat="43.21202" lon="5.52209">
        <ele>10.296836</ele>
        <time>2014-05-28T16:22:09Z</time>
      </trkpt>
      <trkpt lat="43.21202" lon="5.52206">
        <ele>10.296836</ele>
        <time>2014-05-28T16:22:19Z</time>
      </trkpt>
      <trkpt lat="43.21202" lon="5.52207">
        <ele>10.296836</ele>
        <time>2014-05-28T16:22:24Z</time>
      </trkpt>
      <trkpt lat="43.21202" lon="5.52206">
        <ele>10.296836</ele>
        <time>2014-05-28T16:22:29Z</time>
      </trkpt>
      <trkpt lat="43.21203" lon="5.52201">
        <ele>10.194203</ele>
        <time>2014-05-28T16:22:44Z</time>
      </trkpt>
      <trkpt lat="43.21199" lon="5.52202">
        <ele>10.194203</ele>
        <time>2014-05-28T16:23:05Z</time>
      </trkpt>
      <trkpt lat="43.21196" lon="5.52204">
        <ele>10.194203</ele>
        <time>2014-05-28T16:23:11Z</time>
      </trkpt>
      <trkpt lat="43.212" lon="5.52199">
        <ele>10.052383</ele>
        <time>2014-05-28T16:23:20Z</time>
      </trkpt>
      <trkpt lat="43.21201" lon="5.52198">
        <ele>10.052383</ele>
        <time>2014-05-28T16:23:25Z</time>
      </trkpt>
      <trkpt lat="43.21202" lon="5.522">
        <ele>10.052383</ele>
        <time>2014-05-28T16:23:30Z</time>
      </trkpt>
      <trkpt lat="43.21206" lon="5.52202">
        <ele>10.052383</ele>
        <time>2014-05-28T16:23:36Z</time>
      </trkpt>
      <trkpt lat="43.21208" lon="5.52205">
        <ele>10.004754</ele>
        <time>2014-05-28T16:23:41Z</time>
      </trkpt>
      <trkpt lat="43.21211" lon="5.52208">
        <ele>10.004754</ele>
        <time>2014-05-28T16:26:19Z</time>
      </trkpt>
      <trkpt lat="43.21211" lon="5.52209">
        <ele>10.004754</ele>
        <time>2014-05-28T16:26:26Z</time>
      </trkpt>
      <trkpt lat="43.21202" lon="5.52209">
        <ele>10.275529</ele>
        <time>2014-05-28T16:26:46Z</time>
      </trkpt>
      <trkpt lat="43.21202" lon="5.52209">
        <ele>10.275529</ele>
        <time>2014-05-28T16:26:49Z</time>
      </trkpt>
      <trkpt lat="43.21201" lon="5.52216">
        <ele>10.275529</ele>
        <time>2014-05-28T16:27:06Z</time>
      </trkpt>
      <trkpt lat="43.21198" lon="5.52216">
        <ele>10.275529</ele>
        <time>2014-05-28T16:27:11Z</time>
      </trkpt>
      <trkpt lat="43.21194" lon="5.52216">
        <ele>10.610424</ele>
        <time>2014-05-28T16:27:15Z</time>
      </trkpt>
      <trkpt lat="43.21189" lon="5.52215">
        <ele>10.610424</ele>
        <time>2014-05-28T16:27:19Z</time>
      </trkpt>
      <trkpt lat="43.21184" lon="5.52215">
        <ele>10.961016</ele>
        <time>2014-05-28T16:27:27Z</time>
      </trkpt>
      <trkpt lat="43.21183" lon="5.52212">
        <ele>10.961016</ele>
        <time>2014-05-28T16:27:30Z</time>
      </trkpt>
      <trkpt lat="43.21178" lon="5.52211">
        <ele>10.961016</ele>
        <time>2014-05-28T16:27:39Z</time>
      </trkpt>
      <trkpt lat="43.21167" lon="5.52212">
        <ele>11.311235</ele>
        <time>2014-05-28T16:27:46Z</time>
      </trkpt>
      <trkpt lat="43.21165" lon="5.52211">
        <ele>11.311235</ele>
        <time>2014-05-28T16:27:49Z</time>
      </trkpt>
      <trkpt lat="43.21158" lon="5.522">
        <ele>11.761501</ele>
        <time>2014-05-28T16:27:57Z</time>
      </trkpt>
      <trkpt lat="43.21156" lon="5.522">
        <ele>11.761501</ele>
        <time>2014-05-28T16:28:00Z</time>
      </trkpt>
      <trkpt lat="43.21153" lon="5.52203">
        <ele>11.761501</ele>
        <time>2014-05-28T16:28:06Z</time>
      </trkpt>
      <trkpt lat="43.21151" lon="5.52206">
        <ele>12.159603</ele>
        <time>2014-05-28T16:28:11Z</time>
      </trkpt>
      <trkpt lat="43.2115" lon="5.52211">
        <ele>12.159603</ele>
        <time>2014-05-28T16:28:15Z</time>
      </trkpt>
      <trkpt lat="43.21149" lon="5.52217">
        <ele>12.159603</ele>
        <time>2014-05-28T16:28:20Z</time>
      </trkpt>
      <trkpt lat="43.21148" lon="5.52226">
        <ele>12.537611</ele>
        <time>2014-05-28T16:28:26Z</time>
      </trkpt>
      <trkpt lat="43.21148" lon="5.5223">
        <ele>12.537611</ele>
        <time>2014-05-28T16:28:30Z</time>
      </trkpt>
      <trkpt lat="43.21147" lon="5.52237">
        <ele>12.537611</ele>
        <time>2014-05-28T16:28:36Z</time>
      </trkpt>
      <trkpt lat="43.21147" lon="5.52243">
        <ele>12.86767</ele>
        <time>2014-05-28T16:28:41Z</time>
      </trkpt>
      <trkpt lat="43.21148" lon="5.52251">
        <ele>12.86767</ele>
        <time>2014-05-28T16:28:45Z</time>
      </trkpt>
      <trkpt lat="43.21146" lon="5.52257">
        <ele>13.138535</ele>
        <time>2014-05-28T16:28:50Z</time>
      </trkpt>
      <trkpt lat="43.21144" lon="5.52267">
        <ele>13.138535</ele>
        <time>2014-05-28T16:28:56Z</time>
      </trkpt>
      <trkpt lat="43.21145" lon="5.52271">
        <ele>13.3976145</ele>
        <time>2014-05-28T16:29:00Z</time>
      </trkpt>
      <trkpt lat="43.21147" lon="5.52277">
        <ele>13.3976145</ele>
        <time>2014-05-28T16:29:06Z</time>
      </trkpt>
      <trkpt lat="43.21146" lon="5.52283">
        <ele>13.616834</ele>
        <time>2014-05-28T16:29:11Z</time>
      </trkpt>
      <trkpt lat="43.21146" lon="5.52288">
        <ele>13.616834</ele>
        <time>2014-05-28T16:29:14Z</time>
      </trkpt>
      <trkpt lat="43.21145" lon="5.52296">
        <ele>13.885593</ele>
        <time>2014-05-28T16:29:20Z</time>
      </trkpt>
      <trkpt lat="43.21146" lon="5.52301">
        <ele>13.885593</ele>
        <time>2014-05-28T16:29:26Z</time>
      </trkpt>
      <trkpt lat="43.21145" lon="5.52305">
        <ele>13.885593</ele>
        <time>2014-05-28T16:29:31Z</time>
      </trkpt>
      <trkpt lat="43.21144" lon="5.52309">
        <ele>14.171317</ele>
        <time>2014-05-28T16:29:36Z</time>
      </trkpt>
      <trkpt lat="43.21144" lon="5.52313">
        <ele>14.171317</ele>
        <time>2014-05-28T16:29:41Z</time>
      </trkpt>
      <trkpt lat="43.21144" lon="5.52317">
        <ele>14.171317</ele>
        <time>2014-05-28T16:29:44Z</time>
      </trkpt>
      <trkpt lat="43.21143" lon="5.52326">
        <ele>14.530254</ele>
        <time>2014-05-28T16:29:51Z</time>
      </trkpt>
      <trkpt lat="43.21142" lon="5.52331">
        <ele>14.530254</ele>
        <time>2014-05-28T16:29:56Z</time>
      </trkpt>
      <trkpt lat="43.21143" lon="5.52336">
        <ele>14.530254</ele>
        <time>2014-05-28T16:30:00Z</time>
      </trkpt>
      <trkpt lat="43.21143" lon="5.52342">
        <ele>15.1296215</ele>
        <time>2014-05-28T16:30:06Z</time>
      </trkpt>
      <trkpt lat="43.21142" lon="5.52348">
        <ele>15.1296215</ele>
        <time>2014-05-28T16:30:11Z</time>
      </trkpt>
      <trkpt lat="43.21141" lon="5.52351">
        <ele>15.1296215</ele>
        <time>2014-05-28T16:30:14Z</time>
      </trkpt>
      <trkpt lat="43.21144" lon="5.52358">
        <ele>15.907527</ele>
        <time>2014-05-28T16:30:21Z</time>
      </trkpt>
      <trkpt lat="43.21144" lon="5.52364">
        <ele>15.907527</ele>
        <time>2014-05-28T16:30:26Z</time>
      </trkpt>
      <trkpt lat="43.21144" lon="5.52369">
        <ele>15.907527</ele>
        <time>2014-05-28T16:30:31Z</time>
      </trkpt>
      <trkpt lat="43.21148" lon="5.52372">
        <ele>16.892607</ele>
        <time>2014-05-28T16:30:36Z</time>
      </trkpt>
      <trkpt lat="43.2115" lon="5.52377">
        <ele>16.892607</ele>
        <time>2014-05-28T16:30:41Z</time>
      </trkpt>
      <trkpt lat="43.21149" lon="5.52383">
        <ele>16.892607</ele>
        <time>2014-05-28T16:30:44Z</time>
      </trkpt>
      <trkpt lat="43.21152" lon="5.52391">
        <ele>17.96672</ele>
        <time>2014-05-28T16:30:51Z</time>
      </trkpt>
      <trkpt lat="43.21155" lon="5.52398">
        <ele>17.96672</ele>
        <time>2014-05-28T16:30:56Z</time>
      </trkpt>
      <trkpt lat="43.21159" lon="5.52403">
        <ele>19.034595</ele>
        <time>2014-05-28T16:31:01Z</time>
      </trkpt>
      <trkpt lat="43.21163" lon="5.52408">
        <ele>19.034595</ele>
        <time>2014-05-28T16:31:06Z</time>
      </trkpt>
      <trkpt lat="43.21165" lon="5.52416">
        <ele>20.036825</ele>
        <time>2014-05-28T16:31:11Z</time>
      </trkpt>
      <trkpt lat="43.21168" lon="5.52421">
        <ele>20.036825</ele>
        <time>2014-05-28T16:31:14Z</time>
      </trkpt>
      <trkpt lat="43.21173" lon="5.5243">
        <ele>20.976225</ele>
        <time>2014-05-28T16:31:20Z</time>
      </trkpt>
      <trkpt lat="43.21173" lon="5.52436">
        <ele>20.976225</ele>
        <time>2014-05-28T16:31:26Z</time>
      </trkpt>
      <trkpt lat="43.21174" lon="5.52442">
        <ele>20.976225</ele>
        <time>2014-05-28T16:31:31Z</time>
      </trkpt>
      <trkpt lat="43.21175" lon="5.52448">
        <ele>22.057375</ele>
        <time>2014-05-28T16:31:36Z</time>
      </trkpt>
      <trkpt lat="43.2118" lon="5.52458">
        <ele>22.057375</ele>
        <time>2014-05-28T16:31:40Z</time>
      </trkpt>
      <trkpt lat="43.21182" lon="5.52463">
        <ele>23.123602</ele>
        <time>2014-05-28T16:31:44Z</time>
      </trkpt>
      <trkpt lat="43.21185" lon="5.52472">
        <ele>23.123602</ele>
        <time>2014-05-28T16:31:50Z</time>
      </trkpt>
      <trkpt lat="43.21187" lon="5.52479">
        <ele>24.145115</ele>
        <time>2014-05-28T16:31:56Z</time>
      </trkpt>
      <trkpt lat="43.21189" lon="5.52485">
        <ele>24.145115</ele>
        <time>2014-05-28T16:32:01Z</time>
      </trkpt>
      <trkpt lat="43.21189" lon="5.52492">
        <ele>25.123304</ele>
        <time>2014-05-28T16:32:06Z</time>
      </trkpt>
      <trkpt lat="43.21187" lon="5.52499">
        <ele>25.123304</ele>
        <time>2014-05-28T16:32:10Z</time>
      </trkpt>
      <trkpt lat="43.21187" lon="5.525">
        <ele>25.123304</ele>
        <time>2014-05-28T16:32:14Z</time>
      </trkpt>
      <trkpt lat="43.21187" lon="5.52511">
        <ele>26.520786</ele>
        <time>2014-05-28T16:32:22Z</time>
      </trkpt>
      <trkpt lat="43.21189" lon="5.52515">
        <ele>26.520786</ele>
        <time>2014-05-28T16:32:25Z</time>
      </trkpt>
      <trkpt lat="43.21193" lon="5.52523">
        <ele>27.91481</ele>
        <time>2014-05-28T16:32:31Z</time>
      </trkpt>
      <trkpt lat="43.21189" lon="5.5253">
        <ele>27.91481</ele>
        <time>2014-05-28T16:32:36Z</time>
      </trkpt>
      <trkpt lat="43.21192" lon="5.52536">
        <ele>29.374903</ele>
        <time>2014-05-28T16:32:40Z</time>
      </trkpt>
      <trkpt lat="43.21195" lon="5.52541">
        <ele>29.374903</ele>
        <time>2014-05-28T16:32:45Z</time>
      </trkpt>
      <trkpt lat="43.21196" lon="5.52549">
        <ele>30.936535</ele>
        <time>2014-05-28T16:32:51Z</time>
      </trkpt>
      <trkpt lat="43.21198" lon="5.52556">
        <ele>30.936535</ele>
        <time>2014-05-28T16:32:56Z</time>
      </trkpt>
      <trkpt lat="43.21202" lon="5.52562">
        <ele>32.43059</ele>
        <time>2014-05-28T16:33:01Z</time>
      </trkpt>
      <trkpt lat="43.21205" lon="5.52567">
        <ele>32.43059</ele>
        <time>2014-05-28T16:33:06Z</time>
      </trkpt>
      <trkpt lat="43.21207" lon="5.52573">
        <ele>33.85916</ele>
        <time>2014-05-28T16:33:10Z</time>
      </trkpt>
      <trkpt lat="43.2121" lon="5.52582">
        <ele>33.85916</ele>
        <time>2014-05-28T16:33:15Z</time>
      </trkpt>
      <trkpt lat="43.21215" lon="5.5259">
        <ele>35.267673</ele>
        <time>2014-05-28T16:33:21Z</time>
      </trkpt>
      <trkpt lat="43.21217" lon="5.52597">
        <ele>35.267673</ele>
        <time>2014-05-28T16:33:25Z</time>
      </trkpt>
      <trkpt lat="43.21218" lon="5.52605">
        <ele>36.597458</ele>
        <time>2014-05-28T16:33:31Z</time>
      </trkpt>
      <trkpt lat="43.2122" lon="5.52609">
        <ele>36.597458</ele>
        <time>2014-05-28T16:33:36Z</time>
      </trkpt>
      <trkpt lat="43.21221" lon="5.52616">
        <ele>37.823288</ele>
        <time>2014-05-28T16:33:40Z</time>
      </trkpt>
      <trkpt lat="43.21221" lon="5.5262">
        <ele>37.823288</ele>
        <time>2014-05-28T16:33:45Z</time>
      </trkpt>
      <trkpt lat="43.21224" lon="5.52633">
        <ele>38.936558</ele>
        <time>2014-05-28T16:33:51Z</time>
      </trkpt>
      <trkpt lat="43.21227" lon="5.52637">
        <ele>38.936558</ele>
        <time>2014-05-28T16:33:56Z</time>
      </trkpt>
      <trkpt lat="43.21228" lon="5.52644">
        <ele>39.872044</ele>
        <time>2014-05-28T16:34:00Z</time>
      </trkpt>
      <trkpt lat="43.2123" lon="5.52649">
        <ele>39.872044</ele>
        <time>2014-05-28T16:34:08Z</time>
      </trkpt>
      <trkpt lat="43.2123" lon="5.52649">
        <ele>39.872044</ele>
        <time>2014-05-28T16:34:09Z</time>
      </trkpt>
      <trkpt lat="43.21236" lon="5.52651">
        <ele>40.74282</ele>
        <time>2014-05-28T16:34:15Z</time>
      </trkpt>
      <trkpt lat="43.21237" lon="5.52651">
        <ele>40.74282</ele>
        <time>2014-05-28T16:34:21Z</time>
      </trkpt>
      <trkpt lat="43.21244" lon="5.52648">
        <ele>40.74282</ele>
        <time>2014-05-28T16:34:31Z</time>
      </trkpt>
      <trkpt lat="43.21244" lon="5.52648">
        <ele>40.74282</ele>
        <time>2014-05-28T16:34:36Z</time>
      </trkpt>
      <trkpt lat="43.21246" lon="5.52648">
        <ele>41.408916</ele>
        <time>2014-05-28T16:34:46Z</time>
      </trkpt>
      <trkpt lat="43.21243" lon="5.52648">
        <ele>41.408916</ele>
        <time>2014-05-28T16:34:50Z</time>
      </trkpt>
      <trkpt lat="43.21242" lon="5.52646">
        <ele>41.408916</ele>
        <time>2014-05-28T16:34:56Z</time>
      </trkpt>
      <trkpt lat="43.21243" lon="5.52646">
        <ele>41.408916</ele>
        <time>2014-05-28T16:35:01Z</time>
      </trkpt>
      <trkpt lat="43.21244" lon="5.52645">
        <ele>41.408916</ele>
        <time>2014-05-28T16:35:06Z</time>
      </trkpt>
      <trkpt lat="43.21244" lon="5.52648">
        <ele>41.408916</ele>
        <time>2014-05-28T16:35:16Z</time>
      </trkpt>
      <trkpt lat="43.21241" lon="5.52652">
        <ele>42.101566</ele>
        <time>2014-05-28T16:35:31Z</time>
      </trkpt>
      <trkpt lat="43.21241" lon="5.52652">
        <ele>42.101566</ele>
        <time>2014-05-28T16:35:36Z</time>
      </trkpt>
      <trkpt lat="43.21241" lon="5.52652">
        <ele>42.101566</ele>
        <time>2014-05-28T16:35:39Z</time>
      </trkpt>
      <trkpt lat="43.2124" lon="5.52662">
        <ele>42.101566</ele>
        <time>2014-05-28T16:36:34Z</time>
      </trkpt>
      <trkpt lat="43.2124" lon="5.52666">
        <ele>42.862072</ele>
        <time>2014-05-28T16:36:39Z</time>
      </trkpt>
      <trkpt lat="43.21241" lon="5.52671">
        <ele>42.862072</ele>
        <time>2014-05-28T16:36:46Z</time>
      </trkpt>
      <trkpt lat="43.21243" lon="5.52675">
        <ele>42.862072</ele>
        <time>2014-05-28T16:36:50Z</time>
      </trkpt>
      <trkpt lat="43.21244" lon="5.52682">
        <ele>43.59886</ele>
        <time>2014-05-28T16:36:56Z</time>
      </trkpt>
      <trkpt lat="43.21245" lon="5.52693">
        <ele>43.59886</ele>
        <time>2014-05-28T16:37:01Z</time>
      </trkpt>
      <trkpt lat="43.21246" lon="5.52698">
        <ele>44.18399</ele>
        <time>2014-05-28T16:37:04Z</time>
      </trkpt>
      <trkpt lat="43.21248" lon="5.52704">
        <ele>44.18399</ele>
        <time>2014-05-28T16:37:10Z</time>
      </trkpt>
      <trkpt lat="43.21252" lon="5.52712">
        <ele>44.7876</ele>
        <time>2014-05-28T16:37:16Z</time>
      </trkpt>
      <trkpt lat="43.21253" lon="5.52716">
        <ele>44.7876</ele>
        <time>2014-05-28T16:37:19Z</time>
      </trkpt>
      <trkpt lat="43.21253" lon="5.52722">
        <ele>44.7876</ele>
        <time>2014-05-28T16:37:26Z</time>
      </trkpt>
      <trkpt lat="43.21253" lon="5.52734">
        <ele>45.3944</ele>
        <time>2014-05-28T16:37:31Z</time>
      </trkpt>
      <trkpt lat="43.21255" lon="5.52741">
        <ele>45.3944</ele>
        <time>2014-05-28T16:37:35Z</time>
      </trkpt>
      <trkpt lat="43.21257" lon="5.52746">
        <ele>45.846134</ele>
        <time>2014-05-28T16:37:40Z</time>
      </trkpt>
      <trkpt lat="43.21262" lon="5.52755">
        <ele>45.846134</ele>
        <time>2014-05-28T16:37:46Z</time>
      </trkpt>
      <trkpt lat="43.21262" lon="5.52759">
        <ele>46.22722</ele>
        <time>2014-05-28T16:37:51Z</time>
      </trkpt>
      <trkpt lat="43.21263" lon="5.52765">
        <ele>46.22722</ele>
        <time>2014-05-28T16:37:55Z</time>
      </trkpt>
      <trkpt lat="43.21262" lon="5.52772">
        <ele>46.515232</ele>
        <time>2014-05-28T16:38:01Z</time>
      </trkpt>
      <trkpt lat="43.21263" lon="5.52775">
        <ele>46.515232</ele>
        <time>2014-05-28T16:38:04Z</time>
      </trkpt>
      <trkpt lat="43.21268" lon="5.52779">
        <ele>46.515232</ele>
        <time>2014-05-28T16:38:10Z</time>
      </trkpt>
      <trkpt lat="43.2127" lon="5.52788">
        <ele>46.74731</ele>
        <time>2014-05-28T16:38:16Z</time>
      </trkpt>
      <trkpt lat="43.21269" lon="5.52795">
        <ele>46.74731</ele>
        <time>2014-05-28T16:38:20Z</time>
      </trkpt>
      <trkpt lat="43.21268" lon="5.52804">
        <ele>46.972466</ele>
        <time>2014-05-28T16:38:26Z</time>
      </trkpt>
      <trkpt lat="43.21269" lon="5.52808">
        <ele>46.972466</ele>
        <time>2014-05-28T16:38:30Z</time>
      </trkpt>
      <trkpt lat="43.21271" lon="5.52818">
        <ele>47.135242</ele>
        <time>2014-05-28T16:38:35Z</time>
      </trkpt>
      <trkpt lat="43.21272" lon="5.5282">
        <ele>47.135242</ele>
        <time>2014-05-28T16:38:41Z</time>
      </trkpt>
      <trkpt lat="43.21276" lon="5.52828">
        <ele>47.242096</ele>
        <time>2014-05-28T16:38:45Z</time>
      </trkpt>
      <trkpt lat="43.21276" lon="5.52836">
        <ele>47.242096</ele>
        <time>2014-05-28T16:38:51Z</time>
      </trkpt>
      <trkpt lat="43.21275" lon="5.52841">
        <ele>47.284748</ele>
        <time>2014-05-28T16:38:57Z</time>
      </trkpt>
      <trkpt lat="43.21274" lon="5.52847">
        <ele>47.284748</ele>
        <time>2014-05-28T16:39:00Z</time>
      </trkpt>
      <trkpt lat="43.21272" lon="5.52855">
        <ele>47.226887</ele>
        <time>2014-05-28T16:39:05Z</time>
      </trkpt>
      <trkpt lat="43.21274" lon="5.52863">
        <ele>47.226887</ele>
        <time>2014-05-28T16:39:10Z</time>
      </trkpt>
      <trkpt lat="43.21271" lon="5.52868">
        <ele>47.107174</ele>
        <time>2014-05-28T16:39:16Z</time>
      </trkpt>
      <trkpt lat="43.21268" lon="5.52872">
        <ele>47.107174</ele>
        <time>2014-05-28T16:39:21Z</time>
      </trkpt>
      <trkpt lat="43.21264" lon="5.52879">
        <ele>46.918373</ele>
        <time>2014-05-28T16:39:26Z</time>
      </trkpt>
      <trkpt lat="43.21259" lon="5.52883">
        <ele>46.918373</ele>
        <time>2014-05-28T16:39:31Z</time>
      </trkpt>
      <trkpt lat="43.21257" lon="5.52885">
        <ele>46.918373</ele>
        <time>2014-05-28T16:39:34Z</time>
      </trkpt>
      <trkpt lat="43.21254" lon="5.52888">
        <ele>46.625107</ele>
        <time>2014-05-28T16:39:40Z</time>
      </trkpt>
      <trkpt lat="43.2125" lon="5.52888">
        <ele>46.625107</ele>
        <time>2014-05-28T16:39:46Z</time>
      </trkpt>
      <trkpt lat="43.21248" lon="5.52887">
        <ele>46.625107</ele>
        <time>2014-05-28T16:39:51Z</time>
      </trkpt>
      <trkpt lat="43.21246" lon="5.52887">
        <ele>46.625107</ele>
        <time>2014-05-28T16:39:55Z</time>
      </trkpt>
      <trkpt lat="43.21243" lon="5.52884">
        <ele>46.2381</ele>
        <time>2014-05-28T16:40:01Z</time>
      </trkpt>
      <trkpt lat="43.2124" lon="5.52882">
        <ele>46.2381</ele>
        <time>2014-05-28T16:40:04Z</time>
      </trkpt>
      <trkpt lat="43.21232" lon="5.52876">
        <ele>45.81074</ele>
        <time>2014-05-28T16:40:10Z</time>
      </trkpt>
      <trkpt lat="43.21226" lon="5.52869">
        <ele>45.81074</ele>
        <time>2014-05-28T16:40:16Z</time>
      </trkpt>
      <trkpt lat="43.21223" lon="5.52866">
        <ele>45.363747</ele>
        <time>2014-05-28T16:40:21Z</time>
      </trkpt>
      <trkpt lat="43.21218" lon="5.52866">
        <ele>45.363747</ele>
        <time>2014-05-28T16:40:26Z</time>
      </trkpt>
      <trkpt lat="43.21214" lon="5.52865">
        <ele>45.363747</ele>
        <time>2014-05-28T16:40:30Z</time>
      </trkpt>
      <trkpt lat="43.2121" lon="5.52864">
        <ele>44.858665</ele>
        <time>2014-05-28T16:40:34Z</time>
      </trkpt>
      <trkpt lat="43.21202" lon="5.52871">
        <ele>44.216747</ele>
        <time>2014-05-28T16:40:41Z</time>
      </trkpt>
      <trkpt lat="43.21201" lon="5.52875">
        <ele>44.216747</ele>
        <time>2014-05-28T16:40:45Z</time>
      </trkpt>
      <trkpt lat="43.21202" lon="5.5288">
        <ele>44.216747</ele>
        <time>2014-05-28T16:40:51Z</time>
      </trkpt>
      <trkpt lat="43.21204" lon="5.52886">
        <ele>43.451797</ele>
        <time>2014-05-28T16:40:56Z</time>
      </trkpt>
      <trkpt lat="43.21207" lon="5.52893">
        <ele>43.451797</ele>
        <time>2014-05-28T16:41:00Z</time>
      </trkpt>
      <trkpt lat="43.21212" lon="5.52899">
        <ele>42.648956</ele>
        <time>2014-05-28T16:41:04Z</time>
      </trkpt>
      <trkpt lat="43.21213" lon="5.52905">
        <ele>42.648956</ele>
        <time>2014-05-28T16:41:11Z</time>
      </trkpt>
      <trkpt lat="43.21212" lon="5.52908">
        <ele>42.648956</ele>
        <time>2014-05-28T16:41:15Z</time>
      </trkpt>
      <trkpt lat="43.21212" lon="5.52909">
        <ele>42.648956</ele>
        <time>2014-05-28T16:41:21Z</time>
      </trkpt>
      <trkpt lat="43.21213" lon="5.5291">
        <ele>42.648956</ele>
        <time>2014-05-28T16:41:26Z</time>
      </trkpt>
      <trkpt lat="43.21216" lon="5.52912">
        <ele>41.786243</ele>
        <time>2014-05-28T16:41:30Z</time>
      </trkpt>
      <trkpt lat="43.21216" lon="5.52917">
        <ele>41.786243</ele>
        <time>2014-05-28T16:41:34Z</time>
      </trkpt>
      <trkpt lat="43.21218" lon="5.52928">
        <ele>40.88662</ele>
        <time>2014-05-28T16:41:41Z</time>
      </trkpt>
      <trkpt lat="43.21219" lon="5.5293">
        <ele>40.88662</ele>
        <time>2014-05-28T16:41:45Z</time>
      </trkpt>
      <trkpt lat="43.2122" lon="5.52936">
        <ele>40.88662</ele>
        <time>2014-05-28T16:41:51Z</time>
      </trkpt>
      <trkpt lat="43.2122" lon="5.52943">
        <ele>39.92814</ele>
        <time>2014-05-28T16:41:56Z</time>
      </trkpt>
      <trkpt lat="43.21218" lon="5.5295">
        <ele>39.92814</ele>
        <time>2014-05-28T16:42:00Z</time>
      </trkpt>
      <trkpt lat="43.21219" lon="5.52955">
        <ele>38.976994</ele>
        <time>2014-05-28T16:42:04Z</time>
      </trkpt>
      <trkpt lat="43.21219" lon="5.52967">
        <ele>38.976994</ele>
        <time>2014-05-28T16:42:11Z</time>
      </trkpt>
      <trkpt lat="43.21219" lon="5.52972">
        <ele>38.03676</ele>
        <time>2014-05-28T16:42:15Z</time>
      </trkpt>
      <trkpt lat="43.21219" lon="5.52978">
        <ele>38.03676</ele>
        <time>2014-05-28T16:42:21Z</time>
      </trkpt>
      <trkpt lat="43.21218" lon="5.52983">
        <ele>38.03676</ele>
        <time>2014-05-28T16:42:25Z</time>
      </trkpt>
      <trkpt lat="43.21218" lon="5.52987">
        <ele>37.038544</ele>
        <time>2014-05-28T16:42:30Z</time>
      </trkpt>
      <trkpt lat="43.21217" lon="5.52992">
        <ele>37.038544</ele>
        <time>2014-05-28T16:42:34Z</time>
      </trkpt>
      <trkpt lat="43.21216" lon="5.52998">
        <ele>37.038544</ele>
        <time>2014-05-28T16:42:41Z</time>
      </trkpt>
      <trkpt lat="43.21214" lon="5.53006">
        <ele>36.019463</ele>
        <time>2014-05-28T16:42:48Z</time>
      </trkpt>
      <trkpt lat="43.21213" lon="5.53009">
        <ele>36.019463</ele>
        <time>2014-05-28T16:42:49Z</time>
      </trkpt>
      <trkpt lat="43.21211" lon="5.53026">
        <ele>34.9706</ele>
        <time>2014-05-28T16:42:56Z</time>
      </trkpt>
      <trkpt lat="43.21211" lon="5.5303">
        <ele>34.9706</ele>
        <time>2014-05-28T16:42:59Z</time>
      </trkpt>
      <trkpt lat="43.21212" lon="5.53035">
        <ele>34.9706</ele>
        <time>2014-05-28T16:43:04Z</time>
      </trkpt>
      <trkpt lat="43.2121" lon="5.53047">
        <ele>33.898087</ele>
        <time>2014-05-28T16:43:12Z</time>
      </trkpt>
      <trkpt lat="43.21211" lon="5.53052">
        <ele>33.898087</ele>
        <time>2014-05-28T16:43:15Z</time>
      </trkpt>
      <trkpt lat="43.21216" lon="5.5306">
        <ele>32.87959</ele>
        <time>2014-05-28T16:43:21Z</time>
      </trkpt>
      <trkpt lat="43.21219" lon="5.53064">
        <ele>32.87959</ele>
        <time>2014-05-28T16:43:26Z</time>
      </trkpt>
      <trkpt lat="43.21216" lon="5.53066">
        <ele>32.87959</ele>
        <time>2014-05-28T16:43:29Z</time>
      </trkpt>
      <trkpt lat="43.21214" lon="5.53071">
        <ele>31.77064</ele>
        <time>2014-05-28T16:43:35Z</time>
      </trkpt>
      <trkpt lat="43.21217" lon="5.53079">
        <ele>31.77064</ele>
        <time>2014-05-28T16:43:41Z</time>
      </trkpt>
      <trkpt lat="43.21218" lon="5.53085">
        <ele>30.423098</ele>
        <time>2014-05-28T16:43:46Z</time>
      </trkpt>
      <trkpt lat="43.21219" lon="5.53088">
        <ele>30.423098</ele>
        <time>2014-05-28T16:43:51Z</time>
      </trkpt>
      <trkpt lat="43.21219" lon="5.53091">
        <ele>30.423098</ele>
        <time>2014-05-28T16:43:56Z</time>
      </trkpt>
      <trkpt lat="43.21221" lon="5.53091">
        <ele>30.423098</ele>
        <time>2014-05-28T16:43:59Z</time>
      </trkpt>
      <trkpt lat="43.21229" lon="5.5309">
        <ele>28.75789</ele>
        <time>2014-05-28T16:44:05Z</time>
      </trkpt>
      <trkpt lat="43.21238" lon="5.53087">
        <ele>28.75789</ele>
        <time>2014-05-28T16:44:11Z</time>
      </trkpt>
      <trkpt lat="43.21243" lon="5.53084">
        <ele>26.933092</ele>
        <time>2014-05-28T16:44:16Z</time>
      </trkpt>
      <trkpt lat="43.21248" lon="5.53082">
        <ele>26.933092</ele>
        <time>2014-05-28T16:44:21Z</time>
      </trkpt>
      <trkpt lat="43.21249" lon="5.53082">
        <ele>26.933092</ele>
        <time>2014-05-28T16:44:26Z</time>
      </trkpt>
      <trkpt lat="43.2125" lon="5.53082">
        <ele>26.933092</ele>
        <time>2014-05-28T16:44:29Z</time>
      </trkpt>
      <trkpt lat="43.21257" lon="5.53077">
        <ele>24.576674</ele>
        <time>2014-05-28T16:44:36Z</time>
      </trkpt>
      <trkpt lat="43.21261" lon="5.53074">
        <ele>24.576674</ele>
        <time>2014-05-28T16:44:41Z</time>
      </trkpt>
      <trkpt lat="43.21264" lon="5.53074">
        <ele>24.576674</ele>
        <time>2014-05-28T16:44:46Z</time>
      </trkpt>
      <trkpt lat="43.21266" lon="5.53078">
        <ele>22.080252</ele>
        <time>2014-05-28T16:44:50Z</time>
      </trkpt>
      <trkpt lat="43.21267" lon="5.53078">
        <ele>22.080252</ele>
        <time>2014-05-28T16:44:56Z</time>
      </trkpt>
      <trkpt lat="43.21273" lon="5.53073">
        <ele>22.080252</ele>
        <time>2014-05-28T16:45:11Z</time>
      </trkpt>
      <trkpt lat="43.21276" lon="5.53071">
        <ele>19.605164</ele>
        <time>2014-05-28T16:45:16Z</time>
      </trkpt>
      <trkpt lat="43.21278" lon="5.53073">
        <ele>19.605164</ele>
        <time>2014-05-28T16:45:21Z</time>
      </trkpt>
      <trkpt lat="43.21284" lon="5.53075">
        <ele>19.605164</ele>
        <time>2014-05-28T16:45:26Z</time>
      </trkpt>
      <trkpt lat="43.21288" lon="5.53077">
        <ele>17.15656</ele>
        <time>2014-05-28T16:45:29Z</time>
      </trkpt>
      <trkpt lat="43.21292" lon="5.53083">
        <ele>17.15656</ele>
        <time>2014-05-28T16:45:36Z</time>
      </trkpt>
      <trkpt lat="43.21295" lon="5.53086">
        <ele>14.825441</ele>
        <time>2014-05-28T16:45:41Z</time>
      </trkpt>
      <trkpt lat="43.21296" lon="5.53088">
        <ele>14.825441</ele>
        <time>2014-05-28T16:45:46Z</time>
      </trkpt>
      <trkpt lat="43.21297" lon="5.53093">
        <ele>14.825441</ele>
        <time>2014-05-28T16:45:50Z</time>
      </trkpt>
      <trkpt lat="43.21299" lon="5.53101">
        <ele>12.594742</ele>
        <time>2014-05-28T16:45:56Z</time>
      </trkpt>
      <trkpt lat="43.21302" lon="5.53104">
        <ele>12.594742</ele>
        <time>2014-05-28T16:45:59Z</time>
      </trkpt>
      <trkpt lat="43.21312" lon="5.53107">
        <ele>10.462602</ele>
        <time>2014-05-28T16:46:06Z</time>
      </trkpt>
      <trkpt lat="43.21313" lon="5.5311">
        <ele>10.462602</ele>
        <time>2014-05-28T16:46:10Z</time>
      </trkpt>
      <trkpt lat="43.21315" lon="5.53113">
        <ele>10.462602</ele>
        <time>2014-05-28T16:46:15Z</time>
      </trkpt>
      <trkpt lat="43.21313" lon="5.53115">
        <ele>10.462602</ele>
        <time>2014-05-28T16:46:19Z</time>
      </trkpt>
      <trkpt lat="43.21315" lon="5.53117">
        <ele>8.412426</ele>
        <time>2014-05-28T16:46:24Z</time>
      </trkpt>
      <trkpt lat="43.21315" lon="5.53117">
        <ele>8.412426</ele>
        <time>2014-05-28T16:46:29Z</time>
      </trkpt>
      <trkpt lat="43.21315" lon="5.53119">
        <ele>8.412426</ele>
        <time>2014-05-28T16:47:19Z</time>
      </trkpt>
      <trkpt lat="43.21314" lon="5.5312">
        <ele>8.412426</ele>
        <time>2014-05-28T16:47:24Z</time>
      </trkpt>
      <trkpt lat="43.21313" lon="5.53113">
        <ele>8.412426</ele>
        <time>2014-05-28T16:47:49Z</time>
      </trkpt>
      <trkpt lat="43.2131" lon="5.53111">
        <ele>6.3996058</ele>
        <time>2014-05-28T16:47:54Z</time>
      </trkpt>
      <trkpt lat="43.21308" lon="5.53113">
        <ele>6.3996058</ele>
        <time>2014-05-28T16:47:59Z</time>
      </trkpt>
      <trkpt lat="43.21316" lon="5.53112">
        <ele>4.4545765</ele>
        <time>2014-05-28T16:48:44Z</time>
      </trkpt>
      <trkpt lat="43.21319" lon="5.53116">
        <ele>4.4545765</ele>
        <time>2014-05-28T16:48:49Z</time>
      </trkpt>
      <trkpt lat="43.21324" lon="5.53119">
        <ele>2.734865</ele>
        <time>2014-05-28T16:48:54Z</time>
      </trkpt>
      <trkpt lat="43.21327" lon="5.53119">
        <ele>2.734865</ele>
        <time>2014-05-28T16:48:59Z</time>
      </trkpt>
      <trkpt lat="43.21331" lon="5.53121">
        <ele>2.734865</ele>
        <time>2014-05-28T16:49:04Z</time>
      </trkpt>
      <trkpt lat="43.21333" lon="5.53125">
        <ele>1.1550368</ele>
        <time>2014-05-28T16:49:09Z</time>
      </trkpt>
      <trkpt lat="43.21333" lon="5.53128">
        <ele>1.1550368</ele>
        <time>2014-05-28T16:49:14Z</time>
      </trkpt>
      <trkpt lat="43.21335" lon="5.53133">
        <ele>1.1550368</ele>
        <time>2014-05-28T16:49:19Z</time>
      </trkpt>
      <trkpt lat="43.21337" lon="5.53137">
        <ele>-0.26375657</ele>
        <time>2014-05-28T16:49:25Z</time>
      </trkpt>
      <trkpt lat="43.21336" lon="5.53139">
        <ele>-0.26375657</ele>
        <time>2014-05-28T16:49:31Z</time>
      </trkpt>
      <trkpt lat="43.21336" lon="5.53145">
        <ele>-0.26375657</ele>
        <time>2014-05-28T16:49:41Z</time>
      </trkpt>
      <trkpt lat="43.2134" lon="5.53148">
        <ele>-1.5457731</ele>
        <time>2014-05-28T16:49:45Z</time>
      </trkpt>
      <trkpt lat="43.2134" lon="5.53153">
        <ele>-1.5457731</ele>
        <time>2014-05-28T16:49:50Z</time>
      </trkpt>
      <trkpt lat="43.2134" lon="5.53154">
        <ele>-1.5457731</ele>
        <time>2014-05-28T16:49:58Z</time>
      </trkpt>
      <trkpt lat="43.21339" lon="5.53154">
        <ele>-1.5457731</ele>
        <time>2014-05-28T16:49:59Z</time>
      </trkpt>
      <trkpt lat="43.2134" lon="5.53159">
        <ele>-1.5457731</ele>
        <time>2014-05-28T16:50:04Z</time>
      </trkpt>
      <trkpt lat="43.21341" lon="5.53161">
        <ele>-2.7284467</ele>
        <time>2014-05-28T16:50:10Z</time>
      </trkpt>
      <trkpt lat="43.21349" lon="5.53166">
        <ele>-2.7284467</ele>
        <time>2014-05-28T16:50:16Z</time>
      </trkpt>
      <trkpt lat="43.21351" lon="5.53171">
        <ele>-3.746018</ele>
        <time>2014-05-28T16:50:21Z</time>
      </trkpt>
      <trkpt lat="43.21352" lon="5.53178">
        <ele>-3.746018</ele>
        <time>2014-05-28T16:50:25Z</time>
      </trkpt>
      <trkpt lat="43.21353" lon="5.53184">
        <ele>-4.5814004</ele>
        <time>2014-05-28T16:50:31Z</time>
      </trkpt>
      <trkpt lat="43.21356" lon="5.53191">
        <ele>-4.5814004</ele>
        <time>2014-05-28T16:50:36Z</time>
      </trkpt>
      <trkpt lat="43.21358" lon="5.53197">
        <ele>-5.2482324</ele>
        <time>2014-05-28T16:50:41Z</time>
      </trkpt>
      <trkpt lat="43.21359" lon="5.53203">
        <ele>-5.2482324</ele>
        <time>2014-05-28T16:50:46Z</time>
      </trkpt>
      <trkpt lat="43.21362" lon="5.53209">
        <ele>-5.745337</ele>
        <time>2014-05-28T16:50:50Z</time>
      </trkpt>
      <trkpt lat="43.21364" lon="5.53216">
        <ele>-5.745337</ele>
        <time>2014-05-28T16:50:56Z</time>
      </trkpt>
      <trkpt lat="43.21367" lon="5.53223">
        <ele>-6.115446</ele>
        <time>2014-05-28T16:51:01Z</time>
      </trkpt>
      <trkpt lat="43.21379" lon="5.53228">
        <ele>-6.369787</ele>
        <time>2014-05-28T16:51:06Z</time>
      </trkpt>
      <trkpt lat="43.2138" lon="5.53232">
        <ele>-6.369787</ele>
        <time>2014-05-28T16:51:11Z</time>
      </trkpt>
      <trkpt lat="43.21381" lon="5.53238">
        <ele>-6.369787</ele>
        <time>2014-05-28T16:51:16Z</time>
      </trkpt>
      <trkpt lat="43.21381" lon="5.53243">
        <ele>-6.4903517</ele>
        <time>2014-05-28T16:51:21Z</time>
      </trkpt>
      <trkpt lat="43.21384" lon="5.53249">
        <ele>-6.4903517</ele>
        <time>2014-05-28T16:51:26Z</time>
      </trkpt>
      <trkpt lat="43.21385" lon="5.53255">
        <ele>-6.4609027</ele>
        <time>2014-05-28T16:51:30Z</time>
      </trkpt>
      <trkpt lat="43.21385" lon="5.5326">
        <ele>-6.4609027</ele>
        <time>2014-05-28T16:51:36Z</time>
      </trkpt>
      <trkpt lat="43.21389" lon="5.53265">
        <ele>-6.4609027</ele>
        <time>2014-05-28T16:51:40Z</time>
      </trkpt>
      <trkpt lat="43.21389" lon="5.53269">
        <ele>-6.1659975</ele>
        <time>2014-05-28T16:51:46Z</time>
      </trkpt>
      <trkpt lat="43.21392" lon="5.53276">
        <ele>-6.1659975</ele>
        <time>2014-05-28T16:51:51Z</time>
      </trkpt>
      <trkpt lat="43.21394" lon="5.53281">
        <ele>-5.7444525</ele>
        <time>2014-05-28T16:51:54Z</time>
      </trkpt>
      <trkpt lat="43.21398" lon="5.53287">
        <ele>-5.7444525</ele>
        <time>2014-05-28T16:52:01Z</time>
      </trkpt>
      <trkpt lat="43.21399" lon="5.53292">
        <ele>-4.9938145</ele>
        <time>2014-05-28T16:52:05Z</time>
      </trkpt>
      <trkpt lat="43.21405" lon="5.53298">
        <ele>-4.9938145</ele>
        <time>2014-05-28T16:52:11Z</time>
      </trkpt>
      <trkpt lat="43.21405" lon="5.53305">
        <ele>-3.9147828</ele>
        <time>2014-05-28T16:52:16Z</time>
      </trkpt>
      <trkpt lat="43.21407" lon="5.53309">
        <ele>-3.9147828</ele>
        <time>2014-05-28T16:52:21Z</time>
      </trkpt>
      <trkpt lat="43.21408" lon="5.53314">
        <ele>-3.9147828</ele>
        <time>2014-05-28T16:52:26Z</time>
      </trkpt>
      <trkpt lat="43.21409" lon="5.53316">
        <ele>-2.595388</ele>
        <time>2014-05-28T16:52:30Z</time>
      </trkpt>
      <trkpt lat="43.21414" lon="5.53316">
        <ele>-2.595388</ele>
        <time>2014-05-28T16:52:35Z</time>
      </trkpt>
      <trkpt lat="43.2142" lon="5.53319">
        <ele>-1.1610794</ele>
        <time>2014-05-28T16:52:41Z</time>
      </trkpt>
      <trkpt lat="43.21424" lon="5.5332">
        <ele>-1.1610794</ele>
        <time>2014-05-28T16:52:46Z</time>
      </trkpt>
      <trkpt lat="43.21427" lon="5.53322">
        <ele>-1.1610794</ele>
        <time>2014-05-28T16:52:50Z</time>
      </trkpt>
      <trkpt lat="43.2143" lon="5.53321">
        <ele>0.3148614</ele>
        <time>2014-05-28T16:52:56Z</time>
      </trkpt>
      <trkpt lat="43.21434" lon="5.53323">
        <ele>0.3148614</ele>
        <time>2014-05-28T16:53:01Z</time>
      </trkpt>
      <trkpt lat="43.21437" lon="5.53326">
        <ele>0.3148614</ele>
        <time>2014-05-28T16:53:06Z</time>
      </trkpt>
      <trkpt lat="43.21442" lon="5.53328">
        <ele>1.9518232</ele>
        <time>2014-05-28T16:53:10Z</time>
      </trkpt>
      <trkpt lat="43.21445" lon="5.53333">
        <ele>1.9518232</ele>
        <time>2014-05-28T16:53:16Z</time>
      </trkpt>
      <trkpt lat="43.21447" lon="5.53336">
        <ele>1.9518232</ele>
        <time>2014-05-28T16:53:21Z</time>
      </trkpt>
      <trkpt lat="43.21448" lon="5.5334">
        <ele>3.6582947</ele>
        <time>2014-05-28T16:53:26Z</time>
      </trkpt>
      <trkpt lat="43.21449" lon="5.53346">
        <ele>3.6582947</ele>
        <time>2014-05-28T16:53:31Z</time>
      </trkpt>
      <trkpt lat="43.21459" lon="5.53348">
        <ele>5.2917414</ele>
        <time>2014-05-28T16:53:36Z</time>
      </trkpt>
      <trkpt lat="43.21456" lon="5.53351">
        <ele>5.2917414</ele>
        <time>2014-05-28T16:53:41Z</time>
      </trkpt>
      <trkpt lat="43.21455" lon="5.53356">
        <ele>5.2917414</ele>
        <time>2014-05-28T16:53:46Z</time>
      </trkpt>
      <trkpt lat="43.2145" lon="5.53362">
        <ele>6.850113</ele>
        <time>2014-05-28T16:53:50Z</time>
      </trkpt>
      <trkpt lat="43.21446" lon="5.53367">
        <ele>6.850113</ele>
        <time>2014-05-28T16:53:56Z</time>
      </trkpt>
      <trkpt lat="43.21444" lon="5.53368">
        <ele>6.850113</ele>
        <time>2014-05-28T16:54:00Z</time>
      </trkpt>
      <trkpt lat="43.21435" lon="5.53375">
        <ele>8.418311</ele>
        <time>2014-05-28T16:54:06Z</time>
      </trkpt>
      <trkpt lat="43.21432" lon="5.53377">
        <ele>8.418311</ele>
        <time>2014-05-28T16:54:10Z</time>
      </trkpt>
      <trkpt lat="43.21427" lon="5.53381">
        <ele>9.945409</ele>
        <time>2014-05-28T16:54:16Z</time>
      </trkpt>
      <trkpt lat="43.21422" lon="5.53385">
        <ele>9.945409</ele>
        <time>2014-05-28T16:54:20Z</time>
      </trkpt>
      <trkpt lat="43.21417" lon="5.53392">
        <ele>11.528591</ele>
        <time>2014-05-28T16:54:24Z</time>
      </trkpt>
      <trkpt lat="43.21413" lon="5.53402">
        <ele>11.528591</ele>
        <time>2014-05-28T16:54:29Z</time>
      </trkpt>
      <trkpt lat="43.21414" lon="5.53406">
        <ele>12.897628</ele>
        <time>2014-05-28T16:54:35Z</time>
      </trkpt>
      <trkpt lat="43.21413" lon="5.53415">
        <ele>12.897628</ele>
        <time>2014-05-28T16:54:41Z</time>
      </trkpt>
      <trkpt lat="43.21416" lon="5.53423">
        <ele>13.961423</ele>
        <time>2014-05-28T16:54:46Z</time>
      </trkpt>
      <trkpt lat="43.21419" lon="5.53428">
        <ele>13.961423</ele>
        <time>2014-05-28T16:54:51Z</time>
      </trkpt>
      <trkpt lat="43.21418" lon="5.53434">
        <ele>13.961423</ele>
        <time>2014-05-28T16:54:56Z</time>
      </trkpt>
      <trkpt lat="43.21419" lon="5.53439">
        <ele>14.780706</ele>
        <time>2014-05-28T16:55:00Z</time>
      </trkpt>
      <trkpt lat="43.21419" lon="5.53446">
        <ele>14.780706</ele>
        <time>2014-05-28T16:55:05Z</time>
      </trkpt>
      <trkpt lat="43.21419" lon="5.53448">
        <ele>14.780706</ele>
        <time>2014-05-28T16:55:10Z</time>
      </trkpt>
      <trkpt lat="43.2142" lon="5.53459">
        <ele>15.354961</ele>
        <time>2014-05-28T16:55:14Z</time>
      </trkpt>
      <trkpt lat="43.21419" lon="5.53468">
        <ele>15.354961</ele>
        <time>2014-05-28T16:55:20Z</time>
      </trkpt>
      <trkpt lat="43.21423" lon="5.53475">
        <ele>15.511629</ele>
        <time>2014-05-28T16:55:26Z</time>
      </trkpt>
      <trkpt lat="43.21426" lon="5.53479">
        <ele>15.511629</ele>
        <time>2014-05-28T16:55:29Z</time>
      </trkpt>
      <trkpt lat="43.21428" lon="5.5349">
        <ele>15.2939205</ele>
        <time>2014-05-28T16:55:37Z</time>
      </trkpt>
      <trkpt lat="43.21428" lon="5.53494">
        <ele>15.2939205</ele>
        <time>2014-05-28T16:55:40Z</time>
      </trkpt>
      <trkpt lat="43.21432" lon="5.53498">
        <ele>15.2939205</ele>
        <time>2014-05-28T16:55:46Z</time>
      </trkpt>
      <trkpt lat="43.21441" lon="5.53499">
        <ele>14.887191</ele>
        <time>2014-05-28T16:55:51Z</time>
      </trkpt>
      <trkpt lat="43.21444" lon="5.53499">
        <ele>14.887191</ele>
        <time>2014-05-28T16:55:55Z</time>
      </trkpt>
      <trkpt lat="43.21447" lon="5.53502">
        <ele>14.887191</ele>
        <time>2014-05-28T16:56:01Z</time>
      </trkpt>
      <trkpt lat="43.21453" lon="5.53503">
        <ele>14.276515</ele>
        <time>2014-05-28T16:56:04Z</time>
      </trkpt>
      <trkpt lat="43.21458" lon="5.53507">
        <ele>14.276515</ele>
        <time>2014-05-28T16:56:09Z</time>
      </trkpt>
      <trkpt lat="43.21462" lon="5.53514">
        <ele>13.3767185</ele>
        <time>2014-05-28T16:56:17Z</time>
      </trkpt>
      <trkpt lat="43.21467" lon="5.53517">
        <ele>13.3767185</ele>
        <time>2014-05-28T16:56:20Z</time>
      </trkpt>
      <trkpt lat="43.21471" lon="5.53526">
        <ele>12.196287</ele>
        <time>2014-05-28T16:56:26Z</time>
      </trkpt>
      <trkpt lat="43.21471" lon="5.53527">
        <ele>12.196287</ele>
        <time>2014-05-28T16:56:31Z</time>
      </trkpt>
      <trkpt lat="43.21473" lon="5.53531">
        <ele>12.196287</ele>
        <time>2014-05-28T16:56:36Z</time>
      </trkpt>
      <trkpt lat="43.21477" lon="5.53533">
        <ele>12.196287</ele>
        <time>2014-05-28T16:56:41Z</time>
      </trkpt>
      <trkpt lat="43.21482" lon="5.53537">
        <ele>10.787211</ele>
        <time>2014-05-28T16:56:46Z</time>
      </trkpt>
      <trkpt lat="43.21486" lon="5.53541">
        <ele>10.787211</ele>
        <time>2014-05-28T16:56:50Z</time>
      </trkpt>
      <trkpt lat="43.21484" lon="5.53546">
        <ele>9.342511</ele>
        <time>2014-05-28T16:56:56Z</time>
      </trkpt>
      <trkpt lat="43.21483" lon="5.5355">
        <ele>9.342511</ele>
        <time>2014-05-28T16:57:01Z</time>
      </trkpt>
      <trkpt lat="43.21479" lon="5.53558">
        <ele>8.055618</ele>
        <time>2014-05-28T16:57:06Z</time>
      </trkpt>
      <trkpt lat="43.21475" lon="5.53562">
        <ele>8.055618</ele>
        <time>2014-05-28T16:57:11Z</time>
      </trkpt>
      <trkpt lat="43.21477" lon="5.53567">
        <ele>6.9036193</ele>
        <time>2014-05-28T16:57:16Z</time>
      </trkpt>
      <trkpt lat="43.21479" lon="5.5357">
        <ele>6.9036193</ele>
        <time>2014-05-28T16:57:20Z</time>
      </trkpt>
      <trkpt lat="43.21484" lon="5.53575">
        <ele>6.9036193</ele>
        <time>2014-05-28T16:57:26Z</time>
      </trkpt>
      <trkpt lat="43.21483" lon="5.53579">
        <ele>5.864953</ele>
        <time>2014-05-28T16:57:31Z</time>
      </trkpt>
      <trkpt lat="43.2148" lon="5.53588">
        <ele>5.864953</ele>
        <time>2014-05-28T16:57:36Z</time>
      </trkpt>
      <trkpt lat="43.21483" lon="5.53591">
        <ele>4.87613</ele>
        <time>2014-05-28T16:57:40Z</time>
      </trkpt>
      <trkpt lat="43.21486" lon="5.53597">
        <ele>4.87613</ele>
        <time>2014-05-28T16:57:46Z</time>
      </trkpt>
      <trkpt lat="43.21496" lon="5.53598">
        <ele>3.892622</ele>
        <time>2014-05-28T16:57:51Z</time>
      </trkpt>
      <trkpt lat="43.21498" lon="5.53604">
        <ele>3.892622</ele>
        <time>2014-05-28T16:57:55Z</time>
      </trkpt>
      <trkpt lat="43.215" lon="5.53612">
        <ele>3.0172842</ele>
        <time>2014-05-28T16:58:01Z</time>
      </trkpt>
      <trkpt lat="43.21501" lon="5.5362">
        <ele>3.0172842</ele>
        <time>2014-05-28T16:58:06Z</time>
      </trkpt>
      <trkpt lat="43.21501" lon="5.53626">
        <ele>2.3307106</ele>
        <time>2014-05-28T16:58:09Z</time>
      </trkpt>
      <trkpt lat="43.21503" lon="5.53632">
        <ele>2.3307106</ele>
        <time>2014-05-28T16:58:16Z</time>
      </trkpt>
      <trkpt lat="43.21508" lon="5.53635">
        <ele>1.7773486</ele>
        <time>2014-05-28T16:58:21Z</time>
      </trkpt>
      <trkpt lat="43.2151" lon="5.53641">
        <ele>1.7773486</ele>
        <time>2014-05-28T16:58:26Z</time>
      </trkpt>
      <trkpt lat="43.2151" lon="5.53646">
        <ele>1.7773486</ele>
        <time>2014-05-28T16:58:31Z</time>
      </trkpt>
      <trkpt lat="43.2152" lon="5.53649">
        <ele>1.4782833</ele>
        <time>2014-05-28T16:58:36Z</time>
      </trkpt>
      <trkpt lat="43.21524" lon="5.53653">
        <ele>1.4782833</ele>
        <time>2014-05-28T16:58:41Z</time>
      </trkpt>
      <trkpt lat="43.2153" lon="5.53656">
        <ele>1.0838302</ele>
        <time>2014-05-28T16:58:46Z</time>
      </trkpt>
      <trkpt lat="43.21534" lon="5.53657">
        <ele>1.0838302</ele>
        <time>2014-05-28T16:58:51Z</time>
      </trkpt>
      <trkpt lat="43.21538" lon="5.5366">
        <ele>1.0838302</ele>
        <time>2014-05-28T16:58:55Z</time>
      </trkpt>
      <trkpt lat="43.21539" lon="5.53662">
        <ele>0.61611885</ele>
        <time>2014-05-28T16:59:00Z</time>
      </trkpt>
      <trkpt lat="43.21543" lon="5.53663">
        <ele>0.61611885</ele>
        <time>2014-05-28T16:59:06Z</time>
      </trkpt>
      <trkpt lat="43.21546" lon="5.53665">
        <ele>0.61611885</ele>
        <time>2014-05-28T16:59:10Z</time>
      </trkpt>
      <trkpt lat="43.21548" lon="5.53667">
        <ele>0.09584858</ele>
        <time>2014-05-28T16:59:14Z</time>
      </trkpt>
      <trkpt lat="43.21558" lon="5.53669">
        <ele>-0.35678813</ele>
        <time>2014-05-28T16:59:21Z</time>
      </trkpt>
      <trkpt lat="43.21561" lon="5.53662">
        <ele>-0.35678813</ele>
        <time>2014-05-28T16:59:46Z</time>
      </trkpt>
      <trkpt lat="43.21562" lon="5.53663">
        <ele>-0.35678813</ele>
        <time>2014-05-28T16:59:51Z</time>
      </trkpt>
      <trkpt lat="43.21563" lon="5.53663">
        <ele>-0.35678813</ele>
        <time>2014-05-28T16:59:55Z</time>
      </trkpt>
      <trkpt lat="43.21569" lon="5.53665">
        <ele>-0.3424081</ele>
        <time>2014-05-28T17:00:01Z</time>
      </trkpt>
      <trkpt lat="43.21568" lon="5.53665">
        <ele>-0.3424081</ele>
        <time>2014-05-28T17:00:06Z</time>
      </trkpt>
      <trkpt lat="43.21567" lon="5.53665">
        <ele>-0.3424081</ele>
        <time>2014-05-28T17:00:21Z</time>
      </trkpt>
      <trkpt lat="43.2157" lon="5.53662">
        <ele>-0.3424081</ele>
        <time>2014-05-28T17:00:26Z</time>
      </trkpt>
      <trkpt lat="43.21575" lon="5.53662">
        <ele>-0.25607866</ele>
        <time>2014-05-28T17:00:31Z</time>
      </trkpt>
      <trkpt lat="43.21578" lon="5.53667">
        <ele>-0.25607866</ele>
        <time>2014-05-28T17:00:36Z</time>
      </trkpt>
      <trkpt lat="43.21581" lon="5.5367">
        <ele>-0.25607866</ele>
        <time>2014-05-28T17:00:41Z</time>
      </trkpt>
      <trkpt lat="43.21582" lon="5.53669">
        <ele>-0.14701478</ele>
        <time>2014-05-28T17:00:46Z</time>
      </trkpt>
      <trkpt lat="43.21583" lon="5.53668">
        <ele>-0.14701478</ele>
        <time>2014-05-28T17:00:51Z</time>
      </trkpt>
      <trkpt lat="43.21587" lon="5.53666">
        <ele>-0.14701478</ele>
        <time>2014-05-28T17:00:55Z</time>
      </trkpt>
      <trkpt lat="43.21589" lon="5.53666">
        <ele>-0.14701478</ele>
        <time>2014-05-28T17:01:01Z</time>
      </trkpt>
      <trkpt lat="43.21591" lon="5.53668">
        <ele>-0.075300574</ele>
        <time>2014-05-28T17:01:04Z</time>
      </trkpt>
      <trkpt lat="43.21591" lon="5.53669">
        <ele>-0.075300574</ele>
        <time>2014-05-28T17:01:10Z</time>
      </trkpt>
      <trkpt lat="43.21594" lon="5.5367">
        <ele>-0.075300574</ele>
        <time>2014-05-28T17:01:15Z</time>
      </trkpt>
      <trkpt lat="43.21604" lon="5.53666">
        <ele>0.1917142</ele>
        <time>2014-05-28T17:01:30Z</time>
      </trkpt>
      <trkpt lat="43.21605" lon="5.53665">
        <ele>0.1917142</ele>
        <time>2014-05-28T17:01:36Z</time>
      </trkpt>
      <trkpt lat="43.21615" lon="5.53665">
        <ele>0.45111585</ele>
        <time>2014-05-28T17:01:54Z</time>
      </trkpt>
      <trkpt lat="43.21615" lon="5.53665">
        <ele>0.45111585</ele>
        <time>2014-05-28T17:02:01Z</time>
      </trkpt>
      <trkpt lat="43.21624" lon="5.53663">
        <ele>0.6157957</ele>
        <time>2014-05-28T17:03:09Z</time>
      </trkpt>
      <trkpt lat="43.21624" lon="5.53665">
        <ele>0.6157957</ele>
        <time>2014-05-28T17:03:14Z</time>
      </trkpt>
      <trkpt lat="43.21627" lon="5.53665">
        <ele>0.6157957</ele>
        <time>2014-05-28T17:03:24Z</time>
      </trkpt>
      <trkpt lat="43.21628" lon="5.53666">
        <ele>0.6157957</ele>
        <time>2014-05-28T17:03:29Z</time>
      </trkpt>
    </trkseg>
  </trk>
</gpx>